<?xml version="1.0" encoding="utf-8"?>
<gpx xmlns:xsi="http://www.w3.org/2001/XMLSchema-instance" xmlns:xsd="http://www.w3.org/2001/XMLSchema" version="1.1" creator="Shapelink.com" xmlns="http://www.topografix.com/GPX/1/1" xmlns:gpxtpx="http://www.garmin.com/xmlschemas/TrackPointExtension/v1">
  <metadata>
    <name>Löpning 8.79 km, 2018-03-04</name>
    <desc></desc>
    <author><name>Bengt-Åke Forslund</name></author> 
    <time>2018-03-04T15:52:15Z</time>
  </metadata>
  <trk>
    <name>Löpning 8.79 km, 2018-03-04</name>
    <trkseg>
      <trkpt lat="62.635911034571" lon="17.967759855114">
        <ele>56</ele>
        <time>2018-03-04T15:52:15Z</time>
      </trkpt>
      <trkpt lat="62.635973898821" lon="17.968084150825">
        <ele>55.6</ele>
        <time>2018-03-04T15:52:23Z</time>
      </trkpt>
      <trkpt lat="62.635985884938" lon="17.968132179112">
        <ele>55.6</ele>
        <time>2018-03-04T15:52:24Z</time>
      </trkpt>
      <trkpt lat="62.635996781408" lon="17.968172663689">
        <ele>55.6</ele>
        <time>2018-03-04T15:52:25Z</time>
      </trkpt>
      <trkpt lat="62.636010443905" lon="17.968215243741">
        <ele>55.8</ele>
        <time>2018-03-04T15:52:26Z</time>
      </trkpt>
      <trkpt lat="62.63602175947" lon="17.968249441893">
        <ele>55.8</ele>
        <time>2018-03-04T15:52:27Z</time>
      </trkpt>
      <trkpt lat="62.63603433232" lon="17.968290597022">
        <ele>55.8</ele>
        <time>2018-03-04T15:52:28Z</time>
      </trkpt>
      <trkpt lat="62.636048497731" lon="17.968333009436">
        <ele>56</ele>
        <time>2018-03-04T15:52:29Z</time>
      </trkpt>
      <trkpt lat="62.636060819124" lon="17.968365615027">
        <ele>56</ele>
        <time>2018-03-04T15:52:30Z</time>
      </trkpt>
      <trkpt lat="62.636074733078" lon="17.9683879947">
        <ele>56</ele>
        <time>2018-03-04T15:52:31Z</time>
      </trkpt>
      <trkpt lat="62.636089066127" lon="17.968418001902">
        <ele>56.2</ele>
        <time>2018-03-04T15:52:32Z</time>
      </trkpt>
      <trkpt lat="62.636105159375" lon="17.968449434027">
        <ele>56.2</ele>
        <time>2018-03-04T15:52:33Z</time>
      </trkpt>
      <trkpt lat="62.636119743881" lon="17.96847600465">
        <ele>56.2</ele>
        <time>2018-03-04T15:52:34Z</time>
      </trkpt>
      <trkpt lat="62.636134998939" lon="17.968499893065">
        <ele>56.4</ele>
        <time>2018-03-04T15:52:35Z</time>
      </trkpt>
      <trkpt lat="62.636154612585" lon="17.968518836159">
        <ele>56.4</ele>
        <time>2018-03-04T15:52:36Z</time>
      </trkpt>
      <trkpt lat="62.636174812964" lon="17.968530989914">
        <ele>56.6</ele>
        <time>2018-03-04T15:52:37Z</time>
      </trkpt>
      <trkpt lat="62.636197863189" lon="17.968535935235">
        <ele>56.6</ele>
        <time>2018-03-04T15:52:38Z</time>
      </trkpt>
      <trkpt lat="62.636226445468" lon="17.968548843361">
        <ele>56.8</ele>
        <time>2018-03-04T15:52:39Z</time>
      </trkpt>
      <trkpt lat="62.636254273376" lon="17.968559656012">
        <ele>57</ele>
        <time>2018-03-04T15:52:40Z</time>
      </trkpt>
      <trkpt lat="62.636286208415" lon="17.968579437296">
        <ele>56.8</ele>
        <time>2018-03-04T15:52:41Z</time>
      </trkpt>
      <trkpt lat="62.636312108486" lon="17.968595949639">
        <ele>56.8</ele>
        <time>2018-03-04T15:52:42Z</time>
      </trkpt>
      <trkpt lat="62.63633608072" lon="17.968617407303">
        <ele>56.8</ele>
        <time>2018-03-04T15:52:43Z</time>
      </trkpt>
      <trkpt lat="62.636359633859" lon="17.968658646251">
        <ele>56.8</ele>
        <time>2018-03-04T15:52:44Z</time>
      </trkpt>
      <trkpt lat="62.636381594437" lon="17.968687060892">
        <ele>56.6</ele>
        <time>2018-03-04T15:52:45Z</time>
      </trkpt>
      <trkpt lat="62.636400286074" lon="17.968716816637">
        <ele>56.6</ele>
        <time>2018-03-04T15:52:46Z</time>
      </trkpt>
      <trkpt lat="62.636416379322" lon="17.968756882119">
        <ele>56.8</ele>
        <time>2018-03-04T15:52:47Z</time>
      </trkpt>
      <trkpt lat="62.636434232769" lon="17.968794265393">
        <ele>56.6</ele>
        <time>2018-03-04T15:52:48Z</time>
      </trkpt>
      <trkpt lat="62.636448230542" lon="17.968825781337">
        <ele>56.4</ele>
        <time>2018-03-04T15:52:49Z</time>
      </trkpt>
      <trkpt lat="62.636463401781" lon="17.968867020285">
        <ele>56.4</ele>
        <time>2018-03-04T15:52:50Z</time>
      </trkpt>
      <trkpt lat="62.63647773483" lon="17.968897111306">
        <ele>56.4</ele>
        <time>2018-03-04T15:52:51Z</time>
      </trkpt>
      <trkpt lat="62.636493157526" lon="17.968937428245">
        <ele>56.4</ele>
        <time>2018-03-04T15:52:52Z</time>
      </trkpt>
      <trkpt lat="62.636511010973" lon="17.968987132912">
        <ele>56.6</ele>
        <time>2018-03-04T15:52:53Z</time>
      </trkpt>
      <trkpt lat="62.636524254375" lon="17.969025605833">
        <ele>56.6</ele>
        <time>2018-03-04T15:52:54Z</time>
      </trkpt>
      <trkpt lat="62.636538419786" lon="17.969068437342">
        <ele>56.6</ele>
        <time>2018-03-04T15:52:55Z</time>
      </trkpt>
      <trkpt lat="62.636555518862" lon="17.969107580815">
        <ele>56.8</ele>
        <time>2018-03-04T15:52:56Z</time>
      </trkpt>
      <trkpt lat="62.636570019549" lon="17.96915242398">
        <ele>56.6</ele>
        <time>2018-03-04T15:52:57Z</time>
      </trkpt>
      <trkpt lat="62.636584436417" lon="17.969201458095">
        <ele>56.8</ele>
        <time>2018-03-04T15:52:58Z</time>
      </trkpt>
      <trkpt lat="62.636597176905" lon="17.969246804174">
        <ele>56.6</ele>
        <time>2018-03-04T15:52:59Z</time>
      </trkpt>
      <trkpt lat="62.636609163022" lon="17.969295670651">
        <ele>56.6</ele>
        <time>2018-03-04T15:53:00Z</time>
      </trkpt>
      <trkpt lat="62.636624669537" lon="17.969342357834">
        <ele>56.6</ele>
        <time>2018-03-04T15:53:01Z</time>
      </trkpt>
      <trkpt lat="62.636636655654" lon="17.969384267334">
        <ele>56.6</ele>
        <time>2018-03-04T15:53:02Z</time>
      </trkpt>
      <trkpt lat="62.636654090006" lon="17.969440174607">
        <ele>56.6</ele>
        <time>2018-03-04T15:53:03Z</time>
      </trkpt>
      <trkpt lat="62.636668925969" lon="17.969480491546">
        <ele>56.8</ele>
        <time>2018-03-04T15:53:04Z</time>
      </trkpt>
      <trkpt lat="62.636682085552" lon="17.969530112394">
        <ele>56.8</ele>
        <time>2018-03-04T15:53:05Z</time>
      </trkpt>
      <trkpt lat="62.636694323126" lon="17.96958493002">
        <ele>56.8</ele>
        <time>2018-03-04T15:53:06Z</time>
      </trkpt>
      <trkpt lat="62.636706979795" lon="17.969625414597">
        <ele>57.2</ele>
        <time>2018-03-04T15:53:07Z</time>
      </trkpt>
      <trkpt lat="62.636719468826" lon="17.969678974938">
        <ele>57.2</ele>
        <time>2018-03-04T15:53:08Z</time>
      </trkpt>
      <trkpt lat="62.636731622581" lon="17.969732954374">
        <ele>57.4</ele>
        <time>2018-03-04T15:53:09Z</time>
      </trkpt>
      <trkpt lat="62.636742770508" lon="17.969776121159">
        <ele>57.6</ele>
        <time>2018-03-04T15:53:10Z</time>
      </trkpt>
      <trkpt lat="62.636757774109" lon="17.969833956269">
        <ele>57.6</ele>
        <time>2018-03-04T15:53:11Z</time>
      </trkpt>
      <trkpt lat="62.636770514597" lon="17.969881984556">
        <ele>57.4</ele>
        <time>2018-03-04T15:53:12Z</time>
      </trkpt>
      <trkpt lat="62.636784596189" lon="17.96993110249">
        <ele>57.6</ele>
        <time>2018-03-04T15:53:13Z</time>
      </trkpt>
      <trkpt lat="62.636800354161" lon="17.969979549872">
        <ele>57.6</ele>
        <time>2018-03-04T15:53:14Z</time>
      </trkpt>
      <trkpt lat="62.636818459065" lon="17.970017352241">
        <ele>57.6</ele>
        <time>2018-03-04T15:53:15Z</time>
      </trkpt>
      <trkpt lat="62.636837737435" lon="17.970045263968">
        <ele>57.6</ele>
        <time>2018-03-04T15:53:16Z</time>
      </trkpt>
      <trkpt lat="62.636857686357" lon="17.970081892871">
        <ele>57.6</ele>
        <time>2018-03-04T15:53:17Z</time>
      </trkpt>
      <trkpt lat="62.636881490953" lon="17.970116929213">
        <ele>57.6</ele>
        <time>2018-03-04T15:53:18Z</time>
      </trkpt>
      <trkpt lat="62.636909067404" lon="17.970141991094">
        <ele>57.6</ele>
        <time>2018-03-04T15:53:19Z</time>
      </trkpt>
      <trkpt lat="62.636933794009" lon="17.970162023835">
        <ele>57.6</ele>
        <time>2018-03-04T15:53:20Z</time>
      </trkpt>
      <trkpt lat="62.636966064324" lon="17.97017669216">
        <ele>57.8</ele>
        <time>2018-03-04T15:53:21Z</time>
      </trkpt>
      <trkpt lat="62.636992551128" lon="17.970181134567">
        <ele>57.8</ele>
        <time>2018-03-04T15:53:22Z</time>
      </trkpt>
      <trkpt lat="62.637031610782" lon="17.970186498983">
        <ele>57.6</ele>
        <time>2018-03-04T15:53:23Z</time>
      </trkpt>
      <trkpt lat="62.637070670436" lon="17.970179542006">
        <ele>57.8</ele>
        <time>2018-03-04T15:53:24Z</time>
      </trkpt>
      <trkpt lat="62.637100593819" lon="17.970168477898">
        <ele>57.6</ele>
        <time>2018-03-04T15:53:25Z</time>
      </trkpt>
      <trkpt lat="62.637143676785" lon="17.9701565756">
        <ele>57.6</ele>
        <time>2018-03-04T15:53:26Z</time>
      </trkpt>
      <trkpt lat="62.637171253236" lon="17.97013562085">
        <ele>57.6</ele>
        <time>2018-03-04T15:53:27Z</time>
      </trkpt>
      <trkpt lat="62.637207714501" lon="17.970113995548">
        <ele>57.6</ele>
        <time>2018-03-04T15:53:28Z</time>
      </trkpt>
      <trkpt lat="62.63724803144" lon="17.970092118789">
        <ele>57.4</ele>
        <time>2018-03-04T15:53:29Z</time>
      </trkpt>
      <trkpt lat="62.637287258732" lon="17.970067978917">
        <ele>57</ele>
        <time>2018-03-04T15:53:30Z</time>
      </trkpt>
      <trkpt lat="62.637322546531" lon="17.970041995027">
        <ele>56.8</ele>
        <time>2018-03-04T15:53:31Z</time>
      </trkpt>
      <trkpt lat="62.637363366384" lon="17.970027913435">
        <ele>56.4</ele>
        <time>2018-03-04T15:53:32Z</time>
      </trkpt>
      <trkpt lat="62.637404605332" lon="17.970008383608">
        <ele>56.2</ele>
        <time>2018-03-04T15:53:33Z</time>
      </trkpt>
      <trkpt lat="62.63744081514" lon="17.970007629237">
        <ele>56</ele>
        <time>2018-03-04T15:53:34Z</time>
      </trkpt>
      <trkpt lat="62.637480545346" lon="17.97000653959">
        <ele>55.8</ele>
        <time>2018-03-04T15:53:35Z</time>
      </trkpt>
      <trkpt lat="62.637515665507" lon="17.970018944802">
        <ele>55.6</ele>
        <time>2018-03-04T15:53:36Z</time>
      </trkpt>
      <trkpt lat="62.637546175623" lon="17.970046437434">
        <ele>55.6</ele>
        <time>2018-03-04T15:53:37Z</time>
      </trkpt>
      <trkpt lat="62.637579284128" lon="17.970091783513">
        <ele>55.4</ele>
        <time>2018-03-04T15:53:38Z</time>
      </trkpt>
      <trkpt lat="62.63760426219" lon="17.970133776832">
        <ele>55.2</ele>
        <time>2018-03-04T15:53:39Z</time>
      </trkpt>
      <trkpt lat="62.637626306587" lon="17.970183732956">
        <ele>55.2</ele>
        <time>2018-03-04T15:53:40Z</time>
      </trkpt>
      <trkpt lat="62.637655727056" lon="17.970242573894">
        <ele>55</ele>
        <time>2018-03-04T15:53:41Z</time>
      </trkpt>
      <trkpt lat="62.637672239399" lon="17.970298816443">
        <ele>55</ele>
        <time>2018-03-04T15:53:42Z</time>
      </trkpt>
      <trkpt lat="62.637690344303" lon="17.97035103568">
        <ele>55</ele>
        <time>2018-03-04T15:53:43Z</time>
      </trkpt>
      <trkpt lat="62.637703336248" lon="17.970407110591">
        <ele>55</ele>
        <time>2018-03-04T15:53:44Z</time>
      </trkpt>
      <trkpt lat="62.637714316537" lon="17.970446924616">
        <ele>54.6</ele>
        <time>2018-03-04T15:53:45Z</time>
      </trkpt>
      <trkpt lat="62.637724542455" lon="17.970492019238">
        <ele>54.6</ele>
        <time>2018-03-04T15:53:46Z</time>
      </trkpt>
      <trkpt lat="62.637733175812" lon="17.970542143">
        <ele>54.6</ele>
        <time>2018-03-04T15:53:47Z</time>
      </trkpt>
      <trkpt lat="62.637739881332" lon="17.970593607866">
        <ele>54.6</ele>
        <time>2018-03-04T15:53:48Z</time>
      </trkpt>
      <trkpt lat="62.637742814997" lon="17.970638451031">
        <ele>54.4</ele>
        <time>2018-03-04T15:53:49Z</time>
      </trkpt>
      <trkpt lat="62.63774759268" lon="17.970683964748">
        <ele>54.4</ele>
        <time>2018-03-04T15:53:50Z</time>
      </trkpt>
      <trkpt lat="62.637753543829" lon="17.97073744127">
        <ele>54.2</ele>
        <time>2018-03-04T15:53:51Z</time>
      </trkpt>
      <trkpt lat="62.637763183014" lon="17.970788822317">
        <ele>54.2</ele>
        <time>2018-03-04T15:53:52Z</time>
      </trkpt>
      <trkpt lat="62.637774750036" lon="17.970835677138">
        <ele>54.2</ele>
        <time>2018-03-04T15:53:53Z</time>
      </trkpt>
      <trkpt lat="62.63778531123" lon="17.970896026818">
        <ele>54.4</ele>
        <time>2018-03-04T15:53:54Z</time>
      </trkpt>
      <trkpt lat="62.637794112225" lon="17.970951682634">
        <ele>54.6</ele>
        <time>2018-03-04T15:53:55Z</time>
      </trkpt>
      <trkpt lat="62.6378045896" lon="17.971002476948">
        <ele>54.6</ele>
        <time>2018-03-04T15:53:56Z</time>
      </trkpt>
      <trkpt lat="62.637813977328" lon="17.971058803316">
        <ele>54.8</ele>
        <time>2018-03-04T15:53:57Z</time>
      </trkpt>
      <trkpt lat="62.637826466359" lon="17.971116554607">
        <ele>54.8</ele>
        <time>2018-03-04T15:53:58Z</time>
      </trkpt>
      <trkpt lat="62.637838787752" lon="17.971165421084">
        <ele>55.2</ele>
        <time>2018-03-04T15:53:59Z</time>
      </trkpt>
      <trkpt lat="62.637849265127" lon="17.971229374981">
        <ele>55.2</ele>
        <time>2018-03-04T15:54:00Z</time>
      </trkpt>
      <trkpt lat="62.637858317579" lon="17.971284276426">
        <ele>55.4</ele>
        <time>2018-03-04T15:54:01Z</time>
      </trkpt>
      <trkpt lat="62.63786661566" lon="17.971322414071">
        <ele>55.4</ele>
        <time>2018-03-04T15:54:02Z</time>
      </trkpt>
      <trkpt lat="62.637875919569" lon="17.971377483154">
        <ele>55.6</ele>
        <time>2018-03-04T15:54:03Z</time>
      </trkpt>
      <trkpt lat="62.637885474935" lon="17.971433222789">
        <ele>55.6</ele>
        <time>2018-03-04T15:54:04Z</time>
      </trkpt>
      <trkpt lat="62.637892264274" lon="17.971472030986">
        <ele>55.6</ele>
        <time>2018-03-04T15:54:05Z</time>
      </trkpt>
      <trkpt lat="62.63790098145" lon="17.971525591327">
        <ele>55.4</ele>
        <time>2018-03-04T15:54:06Z</time>
      </trkpt>
      <trkpt lat="62.637909028074" lon="17.971572027053">
        <ele>55.2</ele>
        <time>2018-03-04T15:54:07Z</time>
      </trkpt>
      <trkpt lat="62.637917242336" lon="17.971613266001">
        <ele>55.2</ele>
        <time>2018-03-04T15:54:08Z</time>
      </trkpt>
      <trkpt lat="62.637925372779" lon="17.971667496894">
        <ele>55.2</ele>
        <time>2018-03-04T15:54:09Z</time>
      </trkpt>
      <trkpt lat="62.637931323928" lon="17.971719129398">
        <ele>55.4</ele>
        <time>2018-03-04T15:54:10Z</time>
      </trkpt>
      <trkpt lat="62.63793702362" lon="17.971765229848">
        <ele>55.6</ele>
        <time>2018-03-04T15:54:11Z</time>
      </trkpt>
      <trkpt lat="62.637943393864" lon="17.971814599239">
        <ele>55.8</ele>
        <time>2018-03-04T15:54:12Z</time>
      </trkpt>
      <trkpt lat="62.637949345013" lon="17.971869668322">
        <ele>56</ele>
        <time>2018-03-04T15:54:13Z</time>
      </trkpt>
      <trkpt lat="62.637953368325" lon="17.971910823451">
        <ele>56.2</ele>
        <time>2018-03-04T15:54:14Z</time>
      </trkpt>
      <trkpt lat="62.637954374153" lon="17.971958181186">
        <ele>56.2</ele>
        <time>2018-03-04T15:54:15Z</time>
      </trkpt>
      <trkpt lat="62.63795294923" lon="17.972006125654">
        <ele>56.2</ele>
        <time>2018-03-04T15:54:16Z</time>
      </trkpt>
      <trkpt lat="62.637954877067" lon="17.972048202792">
        <ele>56.2</ele>
        <time>2018-03-04T15:54:17Z</time>
      </trkpt>
      <trkpt lat="62.637954374153" lon="17.972117437286">
        <ele>56.2</ele>
        <time>2018-03-04T15:54:18Z</time>
      </trkpt>
      <trkpt lat="62.637953871239" lon="17.972178876613">
        <ele>56.2</ele>
        <time>2018-03-04T15:54:19Z</time>
      </trkpt>
      <trkpt lat="62.637954122696" lon="17.972226485805">
        <ele>56</ele>
        <time>2018-03-04T15:54:20Z</time>
      </trkpt>
      <trkpt lat="62.637954709429" lon="17.972286835485">
        <ele>56.2</ele>
        <time>2018-03-04T15:54:21Z</time>
      </trkpt>
      <trkpt lat="62.637955715257" lon="17.972338300351">
        <ele>56</ele>
        <time>2018-03-04T15:54:22Z</time>
      </trkpt>
      <trkpt lat="62.637958900379" lon="17.972389681398">
        <ele>56</ele>
        <time>2018-03-04T15:54:23Z</time>
      </trkpt>
      <trkpt lat="62.63796049294" lon="17.972440894807">
        <ele>56</ele>
        <time>2018-03-04T15:54:24Z</time>
      </trkpt>
      <trkpt lat="62.637964097157" lon="17.972488839275">
        <ele>56</ele>
        <time>2018-03-04T15:54:25Z</time>
      </trkpt>
      <trkpt lat="62.637971305591" lon="17.972538543942">
        <ele>56.2</ele>
        <time>2018-03-04T15:54:26Z</time>
      </trkpt>
      <trkpt lat="62.637978011111" lon="17.972575675759">
        <ele>56.2</ele>
        <time>2018-03-04T15:54:27Z</time>
      </trkpt>
      <trkpt lat="62.637983543165" lon="17.972622027666">
        <ele>56.4</ele>
        <time>2018-03-04T15:54:28Z</time>
      </trkpt>
      <trkpt lat="62.637988237029" lon="17.972678773129">
        <ele>56.6</ele>
        <time>2018-03-04T15:54:29Z</time>
      </trkpt>
      <trkpt lat="62.637990583961" lon="17.972725125036">
        <ele>56.8</ele>
        <time>2018-03-04T15:54:30Z</time>
      </trkpt>
      <trkpt lat="62.637994942549" lon="17.972771309305">
        <ele>57</ele>
        <time>2018-03-04T15:54:31Z</time>
      </trkpt>
      <trkpt lat="62.637998379128" lon="17.972824031456">
        <ele>57.2</ele>
        <time>2018-03-04T15:54:32Z</time>
      </trkpt>
      <trkpt lat="62.638001731888" lon="17.97287817853">
        <ele>57.2</ele>
        <time>2018-03-04T15:54:33Z</time>
      </trkpt>
      <trkpt lat="62.6380057552" lon="17.972928889025">
        <ele>57.2</ele>
        <time>2018-03-04T15:54:34Z</time>
      </trkpt>
      <trkpt lat="62.638010281426" lon="17.972955459648">
        <ele>57.2</ele>
        <time>2018-03-04T15:54:35Z</time>
      </trkpt>
      <trkpt lat="62.638012376901" lon="17.973017234251">
        <ele>57.4</ele>
        <time>2018-03-04T15:54:36Z</time>
      </trkpt>
      <trkpt lat="62.638014220919" lon="17.973058557018">
        <ele>57.6</ele>
        <time>2018-03-04T15:54:37Z</time>
      </trkpt>
      <trkpt lat="62.638014891471" lon="17.973105579477">
        <ele>57.6</ele>
        <time>2018-03-04T15:54:38Z</time>
      </trkpt>
      <trkpt lat="62.638014053281" lon="17.973157966352">
        <ele>57.8</ele>
        <time>2018-03-04T15:54:39Z</time>
      </trkpt>
      <trkpt lat="62.638013550367" lon="17.973207754838">
        <ele>57.8</ele>
        <time>2018-03-04T15:54:40Z</time>
      </trkpt>
      <trkpt lat="62.638014053281" lon="17.973262488645">
        <ele>57.8</ele>
        <time>2018-03-04T15:54:41Z</time>
      </trkpt>
      <trkpt lat="62.638014472376" lon="17.97330397905">
        <ele>57.8</ele>
        <time>2018-03-04T15:54:42Z</time>
      </trkpt>
      <trkpt lat="62.638012879815" lon="17.97334672674">
        <ele>57.8</ele>
        <time>2018-03-04T15:54:43Z</time>
      </trkpt>
      <trkpt lat="62.638010951978" lon="17.973398023968">
        <ele>57.8</ele>
        <time>2018-03-04T15:54:44Z</time>
      </trkpt>
      <trkpt lat="62.63800994615" lon="17.973451081395">
        <ele>58</ele>
        <time>2018-03-04T15:54:45Z</time>
      </trkpt>
      <trkpt lat="62.638010197607" lon="17.973492320343">
        <ele>58.4</ele>
        <time>2018-03-04T15:54:46Z</time>
      </trkpt>
      <trkpt lat="62.638010951978" lon="17.973545796865">
        <ele>58.8</ele>
        <time>2018-03-04T15:54:47Z</time>
      </trkpt>
      <trkpt lat="62.638010532883" lon="17.97360488926">
        <ele>58.8</ele>
        <time>2018-03-04T15:54:48Z</time>
      </trkpt>
      <trkpt lat="62.638011035797" lon="17.973652246995">
        <ele>59</ele>
        <time>2018-03-04T15:54:49Z</time>
      </trkpt>
      <trkpt lat="62.638010281426" lon="17.973718296367">
        <ele>59</ele>
        <time>2018-03-04T15:54:50Z</time>
      </trkpt>
      <trkpt lat="62.638012041625" lon="17.973765486464">
        <ele>59.2</ele>
        <time>2018-03-04T15:54:51Z</time>
      </trkpt>
      <trkpt lat="62.638013047453" lon="17.973813011837">
        <ele>59.4</ele>
        <time>2018-03-04T15:54:52Z</time>
      </trkpt>
      <trkpt lat="62.638015729661" lon="17.973878474476">
        <ele>59.4</ele>
        <time>2018-03-04T15:54:53Z</time>
      </trkpt>
      <trkpt lat="62.638019836792" lon="17.973919629605">
        <ele>59.6</ele>
        <time>2018-03-04T15:54:54Z</time>
      </trkpt>
      <trkpt lat="62.638022016086" lon="17.973978973457">
        <ele>59.6</ele>
        <time>2018-03-04T15:54:55Z</time>
      </trkpt>
      <trkpt lat="62.63802838633" lon="17.974029181038">
        <ele>59.4</ele>
        <time>2018-03-04T15:54:56Z</time>
      </trkpt>
      <trkpt lat="62.638031068538" lon="17.974083579569">
        <ele>59.4</ele>
        <time>2018-03-04T15:54:57Z</time>
      </trkpt>
      <trkpt lat="62.638035259488" lon="17.974143342516">
        <ele>59.4</ele>
        <time>2018-03-04T15:54:58Z</time>
      </trkpt>
      <trkpt lat="62.638038528429" lon="17.974195980848">
        <ele>59.2</ele>
        <time>2018-03-04T15:54:59Z</time>
      </trkpt>
      <trkpt lat="62.638041378275" lon="17.974256246709">
        <ele>59</ele>
        <time>2018-03-04T15:55:00Z</time>
      </trkpt>
      <trkpt lat="62.638045401587" lon="17.974301760426">
        <ele>59</ele>
        <time>2018-03-04T15:55:01Z</time>
      </trkpt>
      <trkpt lat="62.638047748519" lon="17.974362193925">
        <ele>59.2</ele>
        <time>2018-03-04T15:55:02Z</time>
      </trkpt>
      <trkpt lat="62.638049760175" lon="17.974416592456">
        <ele>59</ele>
        <time>2018-03-04T15:55:03Z</time>
      </trkpt>
      <trkpt lat="62.638050598365" lon="17.974472080634">
        <ele>59.2</ele>
        <time>2018-03-04T15:55:04Z</time>
      </trkpt>
      <trkpt lat="62.638049760175" lon="17.974537207997">
        <ele>59</ele>
        <time>2018-03-04T15:55:05Z</time>
      </trkpt>
      <trkpt lat="62.638051771831" lon="17.974579201316">
        <ele>59</ele>
        <time>2018-03-04T15:55:06Z</time>
      </trkpt>
      <trkpt lat="62.638049424899" lon="17.974640221548">
        <ele>59.2</ele>
        <time>2018-03-04T15:55:07Z</time>
      </trkpt>
      <trkpt lat="62.638042467922" lon="17.974705684187">
        <ele>59</ele>
        <time>2018-03-04T15:55:08Z</time>
      </trkpt>
      <trkpt lat="62.63803676823" lon="17.974750359714">
        <ele>59</ele>
        <time>2018-03-04T15:55:09Z</time>
      </trkpt>
      <trkpt lat="62.638026877588" lon="17.974808613919">
        <ele>59</ele>
        <time>2018-03-04T15:55:10Z</time>
      </trkpt>
      <trkpt lat="62.638019333878" lon="17.974859156776">
        <ele>59.2</ele>
        <time>2018-03-04T15:55:11Z</time>
      </trkpt>
      <trkpt lat="62.63800743158" lon="17.974900982457">
        <ele>59.2</ele>
        <time>2018-03-04T15:55:12Z</time>
      </trkpt>
      <trkpt lat="62.6379889914" lon="17.97494850783">
        <ele>59.2</ele>
        <time>2018-03-04T15:55:13Z</time>
      </trkpt>
      <trkpt lat="62.637977843473" lon="17.974982538344">
        <ele>59.4</ele>
        <time>2018-03-04T15:55:14Z</time>
      </trkpt>
      <trkpt lat="62.63796636027" lon="17.975011874994">
        <ele>59.6</ele>
        <time>2018-03-04T15:55:15Z</time>
      </trkpt>
      <trkpt lat="62.63795043466" lon="17.975040457273">
        <ele>59.8</ele>
        <time>2018-03-04T15:55:16Z</time>
      </trkpt>
      <trkpt lat="62.637931910661" lon="17.975072392312">
        <ele>59.8</ele>
        <time>2018-03-04T15:55:17Z</time>
      </trkpt>
      <trkpt lat="62.637914643947" lon="17.97510273479">
        <ele>60</ele>
        <time>2018-03-04T15:55:18Z</time>
      </trkpt>
      <trkpt lat="62.637903160744" lon="17.975131317069">
        <ele>60</ele>
        <time>2018-03-04T15:55:19Z</time>
      </trkpt>
      <trkpt lat="62.637888073324" lon="17.975163252108">
        <ele>60.2</ele>
        <time>2018-03-04T15:55:20Z</time>
      </trkpt>
      <trkpt lat="62.63786996842" lon="17.975192924034">
        <ele>60.2</ele>
        <time>2018-03-04T15:55:21Z</time>
      </trkpt>
      <trkpt lat="62.637853539896" lon="17.97522175777">
        <ele>60.2</ele>
        <time>2018-03-04T15:55:22Z</time>
      </trkpt>
      <trkpt lat="62.637838284838" lon="17.975255369189">
        <ele>60.4</ele>
        <time>2018-03-04T15:55:23Z</time>
      </trkpt>
      <trkpt lat="62.637824873798" lon="17.975284873477">
        <ele>60.6</ele>
        <time>2018-03-04T15:55:24Z</time>
      </trkpt>
      <trkpt lat="62.637806433618" lon="17.97531814962">
        <ele>60.6</ele>
        <time>2018-03-04T15:55:25Z</time>
      </trkpt>
      <trkpt lat="62.637787322886" lon="17.975357963645">
        <ele>61</ele>
        <time>2018-03-04T15:55:26Z</time>
      </trkpt>
      <trkpt lat="62.637773995665" lon="17.975385456277">
        <ele>61</ele>
        <time>2018-03-04T15:55:27Z</time>
      </trkpt>
      <trkpt lat="62.637761255177" lon="17.975409428511">
        <ele>61.2</ele>
        <time>2018-03-04T15:55:28Z</time>
      </trkpt>
      <trkpt lat="62.637747089766" lon="17.975430047985">
        <ele>61.2</ele>
        <time>2018-03-04T15:55:29Z</time>
      </trkpt>
      <trkpt lat="62.637733175812" lon="17.975445722138">
        <ele>61.4</ele>
        <time>2018-03-04T15:55:30Z</time>
      </trkpt>
      <trkpt lat="62.637717334021" lon="17.975465922517">
        <ele>61.6</ele>
        <time>2018-03-04T15:55:31Z</time>
      </trkpt>
      <trkpt lat="62.637701659868" lon="17.975481429032">
        <ele>61.8</ele>
        <time>2018-03-04T15:55:32Z</time>
      </trkpt>
      <trkpt lat="62.63768221386" lon="17.975496516452">
        <ele>62</ele>
        <time>2018-03-04T15:55:33Z</time>
      </trkpt>
      <trkpt lat="62.637664444232" lon="17.975510765682">
        <ele>62.4</ele>
        <time>2018-03-04T15:55:34Z</time>
      </trkpt>
      <trkpt lat="62.63764365712" lon="17.975526356016">
        <ele>62.6</ele>
        <time>2018-03-04T15:55:35Z</time>
      </trkpt>
      <trkpt lat="62.637629575528" lon="17.97553943178">
        <ele>63</ele>
        <time>2018-03-04T15:55:36Z</time>
      </trkpt>
      <trkpt lat="62.637604178371" lon="17.97555284282">
        <ele>63.2</ele>
        <time>2018-03-04T15:55:37Z</time>
      </trkpt>
      <trkpt lat="62.637580876689" lon="17.975569103706">
        <ele>63.4</ele>
        <time>2018-03-04T15:55:38Z</time>
      </trkpt>
      <trkpt lat="62.637562687966" lon="17.975581844194">
        <ele>63.4</ele>
        <time>2018-03-04T15:55:39Z</time>
      </trkpt>
      <trkpt lat="62.637543325777" lon="17.975591148103">
        <ele>63.4</ele>
        <time>2018-03-04T15:55:40Z</time>
      </trkpt>
      <trkpt lat="62.637517677163" lon="17.975601960754">
        <ele>63.4</ele>
        <time>2018-03-04T15:55:41Z</time>
      </trkpt>
      <trkpt lat="62.637497141508" lon="17.975614449785">
        <ele>63.6</ele>
        <time>2018-03-04T15:55:42Z</time>
      </trkpt>
      <trkpt lat="62.637477444043" lon="17.975628028463">
        <ele>63.8</ele>
        <time>2018-03-04T15:55:43Z</time>
      </trkpt>
      <trkpt lat="62.637461099338" lon="17.975641942417">
        <ele>64</ele>
        <time>2018-03-04T15:55:44Z</time>
      </trkpt>
      <trkpt lat="62.637444586995" lon="17.97565174924">
        <ele>64.2</ele>
        <time>2018-03-04T15:55:45Z</time>
      </trkpt>
      <trkpt lat="62.637426482091" lon="17.975660214959">
        <ele>64.4</ele>
        <time>2018-03-04T15:55:46Z</time>
      </trkpt>
      <trkpt lat="62.637406281712" lon="17.975669435049">
        <ele>64.6</ele>
        <time>2018-03-04T15:55:47Z</time>
      </trkpt>
      <trkpt lat="62.63738717098" lon="17.975683851917">
        <ele>64.8</ele>
        <time>2018-03-04T15:55:48Z</time>
      </trkpt>
      <trkpt lat="62.637368144067" lon="17.97569617331">
        <ele>64.8</ele>
        <time>2018-03-04T15:55:49Z</time>
      </trkpt>
      <trkpt lat="62.637344255652" lon="17.975713523843">
        <ele>65.2</ele>
        <time>2018-03-04T15:55:50Z</time>
      </trkpt>
      <trkpt lat="62.637323887635" lon="17.975729365634">
        <ele>65.2</ele>
        <time>2018-03-04T15:55:51Z</time>
      </trkpt>
      <trkpt lat="62.637308632577" lon="17.975743028131">
        <ele>65.2</ele>
        <time>2018-03-04T15:55:52Z</time>
      </trkpt>
      <trkpt lat="62.637293964252" lon="17.975760043388">
        <ele>65.4</ele>
        <time>2018-03-04T15:55:53Z</time>
      </trkpt>
      <trkpt lat="62.637281391402" lon="17.975778483568">
        <ele>65.6</ele>
        <time>2018-03-04T15:55:54Z</time>
      </trkpt>
      <trkpt lat="62.63726898619" lon="17.975800192689">
        <ele>65.6</ele>
        <time>2018-03-04T15:55:55Z</time>
      </trkpt>
      <trkpt lat="62.63725306058" lon="17.975824835475">
        <ele>65.8</ele>
        <time>2018-03-04T15:55:56Z</time>
      </trkpt>
      <trkpt lat="62.63723964954" lon="17.975851070822">
        <ele>66</ele>
        <time>2018-03-04T15:55:57Z</time>
      </trkpt>
      <trkpt lat="62.637226741414" lon="17.975880491291">
        <ele>66.2</ele>
        <time>2018-03-04T15:55:58Z</time>
      </trkpt>
      <trkpt lat="62.637214587659" lon="17.975910079398">
        <ele>66.4</ele>
        <time>2018-03-04T15:55:59Z</time>
      </trkpt>
      <trkpt lat="62.637203104456" lon="17.975942349713">
        <ele>66.6</ele>
        <time>2018-03-04T15:56:00Z</time>
      </trkpt>
      <trkpt lat="62.637195057832" lon="17.975975039123">
        <ele>66.8</ele>
        <time>2018-03-04T15:56:01Z</time>
      </trkpt>
      <trkpt lat="62.637184664276" lon="17.976005968334">
        <ele>67</ele>
        <time>2018-03-04T15:56:02Z</time>
      </trkpt>
      <trkpt lat="62.637172678159" lon="17.976039915029">
        <ele>67</ele>
        <time>2018-03-04T15:56:03Z</time>
      </trkpt>
      <trkpt lat="62.637162619879" lon="17.97608676985">
        <ele>67.2</ele>
        <time>2018-03-04T15:56:04Z</time>
      </trkpt>
      <trkpt lat="62.637150047029" lon="17.976128344074">
        <ele>67.4</ele>
        <time>2018-03-04T15:56:05Z</time>
      </trkpt>
      <trkpt lat="62.637141246034" lon="17.976173857791">
        <ele>67.6</ele>
        <time>2018-03-04T15:56:06Z</time>
      </trkpt>
      <trkpt lat="62.637136384532" lon="17.976213923273">
        <ele>67.6</ele>
        <time>2018-03-04T15:56:07Z</time>
      </trkpt>
      <trkpt lat="62.637127164442" lon="17.97625608423">
        <ele>67.8</ele>
        <time>2018-03-04T15:56:08Z</time>
      </trkpt>
      <trkpt lat="62.637117860533" lon="17.976302519956">
        <ele>67.8</ele>
        <time>2018-03-04T15:56:09Z</time>
      </trkpt>
      <trkpt lat="62.63711392104" lon="17.976339735592">
        <ele>68</ele>
        <time>2018-03-04T15:56:10Z</time>
      </trkpt>
      <trkpt lat="62.63710805371" lon="17.976386590413">
        <ele>68.2</ele>
        <time>2018-03-04T15:56:11Z</time>
      </trkpt>
      <trkpt lat="62.637101096733" lon="17.976436881813">
        <ele>68.2</ele>
        <time>2018-03-04T15:56:12Z</time>
      </trkpt>
      <trkpt lat="62.637095564679" lon="17.976485245376">
        <ele>68.4</ele>
        <time>2018-03-04T15:56:13Z</time>
      </trkpt>
      <trkpt lat="62.637089948806" lon="17.976536458785">
        <ele>68.4</ele>
        <time>2018-03-04T15:56:14Z</time>
      </trkpt>
      <trkpt lat="62.63708709896" lon="17.976592030782">
        <ele>68.6</ele>
        <time>2018-03-04T15:56:15Z</time>
      </trkpt>
      <trkpt lat="62.637086344589" lon="17.976630671341">
        <ele>68.6</ele>
        <time>2018-03-04T15:56:16Z</time>
      </trkpt>
      <trkpt lat="62.637083410924" lon="17.976677861438">
        <ele>68.6</ele>
        <time>2018-03-04T15:56:17Z</time>
      </trkpt>
      <trkpt lat="62.63708123163" lon="17.976726057363">
        <ele>68.6</ele>
        <time>2018-03-04T15:56:18Z</time>
      </trkpt>
      <trkpt lat="62.637079219974" lon="17.976782551369">
        <ele>68.8</ele>
        <time>2018-03-04T15:56:19Z</time>
      </trkpt>
      <trkpt lat="62.637078297965" lon="17.976839129194">
        <ele>68.8</ele>
        <time>2018-03-04T15:56:20Z</time>
      </trkpt>
      <trkpt lat="62.637078381784" lon="17.976887408938">
        <ele>69</ele>
        <time>2018-03-04T15:56:21Z</time>
      </trkpt>
      <trkpt lat="62.637076705404" lon="17.976937867976">
        <ele>69</ele>
        <time>2018-03-04T15:56:22Z</time>
      </trkpt>
      <trkpt lat="62.637076537766" lon="17.976985812444">
        <ele>69.2</ele>
        <time>2018-03-04T15:56:23Z</time>
      </trkpt>
      <trkpt lat="62.637075783395" lon="17.977046078305">
        <ele>69.2</ele>
        <time>2018-03-04T15:56:24Z</time>
      </trkpt>
      <trkpt lat="62.637074777567" lon="17.977099973922">
        <ele>69.2</ele>
        <time>2018-03-04T15:56:25Z</time>
      </trkpt>
      <trkpt lat="62.637074861386" lon="17.977150265322">
        <ele>69.2</ele>
        <time>2018-03-04T15:56:26Z</time>
      </trkpt>
      <trkpt lat="62.637073436463" lon="17.97720240074">
        <ele>69.4</ele>
        <time>2018-03-04T15:56:27Z</time>
      </trkpt>
      <trkpt lat="62.637075448119" lon="17.977258475651">
        <ele>69.2</ele>
        <time>2018-03-04T15:56:28Z</time>
      </trkpt>
      <trkpt lat="62.637071257169" lon="17.977317316589">
        <ele>69.2</ele>
        <time>2018-03-04T15:56:29Z</time>
      </trkpt>
      <trkpt lat="62.637064551649" lon="17.977380432296">
        <ele>69.2</ele>
        <time>2018-03-04T15:56:30Z</time>
      </trkpt>
      <trkpt lat="62.637057175577" lon="17.977426281289">
        <ele>69.2</ele>
        <time>2018-03-04T15:56:31Z</time>
      </trkpt>
      <trkpt lat="62.637044854184" lon="17.977473387567">
        <ele>69.2</ele>
        <time>2018-03-04T15:56:32Z</time>
      </trkpt>
      <trkpt lat="62.637031694601" lon="17.977527283184">
        <ele>69.2</ele>
        <time>2018-03-04T15:56:33Z</time>
      </trkpt>
      <trkpt lat="62.637020127579" lon="17.97757036615">
        <ele>69.4</ele>
        <time>2018-03-04T15:56:34Z</time>
      </trkpt>
      <trkpt lat="62.637007303272" lon="17.977623675034">
        <ele>69.4</ele>
        <time>2018-03-04T15:56:35Z</time>
      </trkpt>
      <trkpt lat="62.636996909716" lon="17.977668350561">
        <ele>69.4</ele>
        <time>2018-03-04T15:56:36Z</time>
      </trkpt>
      <trkpt lat="62.636986432341" lon="17.977714367192">
        <ele>69.4</ele>
        <time>2018-03-04T15:56:37Z</time>
      </trkpt>
      <trkpt lat="62.636976374061" lon="17.97777069356">
        <ele>69.4</ele>
        <time>2018-03-04T15:56:38Z</time>
      </trkpt>
      <trkpt lat="62.636970087636" lon="17.977809082662">
        <ele>69.4</ele>
        <time>2018-03-04T15:56:39Z</time>
      </trkpt>
      <trkpt lat="62.636961873374" lon="17.977856272759">
        <ele>69.4</ele>
        <time>2018-03-04T15:56:40Z</time>
      </trkpt>
      <trkpt lat="62.636956006044" lon="17.97791234767">
        <ele>69.4</ele>
        <time>2018-03-04T15:56:41Z</time>
      </trkpt>
      <trkpt lat="62.636950641628" lon="17.977956101188">
        <ele>69.6</ele>
        <time>2018-03-04T15:56:42Z</time>
      </trkpt>
      <trkpt lat="62.636942427366" lon="17.978014187755">
        <ele>69.8</ele>
        <time>2018-03-04T15:56:43Z</time>
      </trkpt>
      <trkpt lat="62.636938990787" lon="17.978058360368">
        <ele>70</ele>
        <time>2018-03-04T15:56:44Z</time>
      </trkpt>
      <trkpt lat="62.636931027982" lon="17.978111082519">
        <ele>70</ele>
        <time>2018-03-04T15:56:45Z</time>
      </trkpt>
      <trkpt lat="62.636921807892" lon="17.978166235421">
        <ele>70.2</ele>
        <time>2018-03-04T15:56:46Z</time>
      </trkpt>
      <trkpt lat="62.636916527295" lon="17.978209402206">
        <ele>70.2</ele>
        <time>2018-03-04T15:56:47Z</time>
      </trkpt>
      <trkpt lat="62.636906385196" lon="17.978265393298">
        <ele>70</ele>
        <time>2018-03-04T15:56:48Z</time>
      </trkpt>
      <trkpt lat="62.636893896165" lon="17.978316019974">
        <ele>70.2</ele>
        <time>2018-03-04T15:56:49Z</time>
      </trkpt>
      <trkpt lat="62.636882496781" lon="17.978358180931">
        <ele>70.2</ele>
        <time>2018-03-04T15:56:50Z</time>
      </trkpt>
      <trkpt lat="62.636867157904" lon="17.978418195335">
        <ele>70.2</ele>
        <time>2018-03-04T15:56:51Z</time>
      </trkpt>
      <trkpt lat="62.636855926158" lon="17.97846136212">
        <ele>70.2</ele>
        <time>2018-03-04T15:56:52Z</time>
      </trkpt>
      <trkpt lat="62.636841593109" lon="17.978505450914">
        <ele>70.4</ele>
        <time>2018-03-04T15:56:53Z</time>
      </trkpt>
      <trkpt lat="62.636821895644" lon="17.978553060106">
        <ele>70.4</ele>
        <time>2018-03-04T15:56:54Z</time>
      </trkpt>
      <trkpt lat="62.636810077165" lon="17.978591868303">
        <ele>70.4</ele>
        <time>2018-03-04T15:56:55Z</time>
      </trkpt>
      <trkpt lat="62.636790128243" lon="17.978632101423">
        <ele>70.4</ele>
        <time>2018-03-04T15:56:56Z</time>
      </trkpt>
      <trkpt lat="62.63677026314" lon="17.978660599883">
        <ele>70.4</ele>
        <time>2018-03-04T15:56:57Z</time>
      </trkpt>
      <trkpt lat="62.636748218743" lon="17.978683566289">
        <ele>70.2</ele>
        <time>2018-03-04T15:56:58Z</time>
      </trkpt>
      <trkpt lat="62.636726844898" lon="17.978707287066">
        <ele>70.4</ele>
        <time>2018-03-04T15:56:59Z</time>
      </trkpt>
      <trkpt lat="62.63670069337" lon="17.978727235988">
        <ele>70.6</ele>
        <time>2018-03-04T15:57:00Z</time>
      </trkpt>
      <trkpt lat="62.636676469679" lon="17.978740982304">
        <ele>70.8</ele>
        <time>2018-03-04T15:57:01Z</time>
      </trkpt>
      <trkpt lat="62.636657023671" lon="17.97874886129">
        <ele>70.8</ele>
        <time>2018-03-04T15:57:02Z</time>
      </trkpt>
      <trkpt lat="62.636627603202" lon="17.978756740276">
        <ele>71</ele>
        <time>2018-03-04T15:57:03Z</time>
      </trkpt>
      <trkpt lat="62.636604972072" lon="17.978752884602">
        <ele>71</ele>
        <time>2018-03-04T15:57:04Z</time>
      </trkpt>
      <trkpt lat="62.636583430589" lon="17.978753722792">
        <ele>71</ele>
        <time>2018-03-04T15:57:05Z</time>
      </trkpt>
      <trkpt lat="62.636558452527" lon="17.978752046412">
        <ele>71</ele>
        <time>2018-03-04T15:57:06Z</time>
      </trkpt>
      <trkpt lat="62.636534312655" lon="17.978746514358">
        <ele>71</ele>
        <time>2018-03-04T15:57:07Z</time>
      </trkpt>
      <trkpt lat="62.636511932982" lon="17.978744921797">
        <ele>71.2</ele>
        <time>2018-03-04T15:57:08Z</time>
      </trkpt>
      <trkpt lat="62.63649617501" lon="17.978745173254">
        <ele>71.4</ele>
        <time>2018-03-04T15:57:09Z</time>
      </trkpt>
      <trkpt lat="62.636473962975" lon="17.978741149942">
        <ele>71.4</ele>
        <time>2018-03-04T15:57:10Z</time>
      </trkpt>
      <trkpt lat="62.636443955773" lon="17.978737797182">
        <ele>71.6</ele>
        <time>2018-03-04T15:57:11Z</time>
      </trkpt>
      <trkpt lat="62.636425683231" lon="17.978735701707">
        <ele>71.8</ele>
        <time>2018-03-04T15:57:12Z</time>
      </trkpt>
      <trkpt lat="62.636404896119" lon="17.978737210449">
        <ele>71.8</ele>
        <time>2018-03-04T15:57:13Z</time>
      </trkpt>
      <trkpt lat="62.636387042672" lon="17.978739892657">
        <ele>71.8</ele>
        <time>2018-03-04T15:57:14Z</time>
      </trkpt>
      <trkpt lat="62.636373463994" lon="17.978749364204">
        <ele>72</ele>
        <time>2018-03-04T15:57:15Z</time>
      </trkpt>
      <trkpt lat="62.636351000502" lon="17.978758500475">
        <ele>72</ele>
        <time>2018-03-04T15:57:16Z</time>
      </trkpt>
      <trkpt lat="62.63633608072" lon="17.978762104692">
        <ele>72.4</ele>
        <time>2018-03-04T15:57:17Z</time>
      </trkpt>
      <trkpt lat="62.636320238929" lon="17.978767469108">
        <ele>72.6</ele>
        <time>2018-03-04T15:57:18Z</time>
      </trkpt>
      <trkpt lat="62.636304061862" lon="17.978775515732">
        <ele>73</ele>
        <time>2018-03-04T15:57:19Z</time>
      </trkpt>
      <trkpt lat="62.636286376053" lon="17.978787920944">
        <ele>73.4</ele>
        <time>2018-03-04T15:57:20Z</time>
      </trkpt>
      <trkpt lat="62.636264499294" lon="17.97880082907">
        <ele>73.8</ele>
        <time>2018-03-04T15:57:21Z</time>
      </trkpt>
      <trkpt lat="62.636247735494" lon="17.9788150783">
        <ele>74</ele>
        <time>2018-03-04T15:57:22Z</time>
      </trkpt>
      <trkpt lat="62.636226194011" lon="17.978836787421">
        <ele>74.2</ele>
        <time>2018-03-04T15:57:23Z</time>
      </trkpt>
      <trkpt lat="62.636206664184" lon="17.978853383583">
        <ele>74.4</ele>
        <time>2018-03-04T15:57:24Z</time>
      </trkpt>
      <trkpt lat="62.636196019171" lon="17.978878026369">
        <ele>74.6</ele>
        <time>2018-03-04T15:57:25Z</time>
      </trkpt>
      <trkpt lat="62.636184116873" lon="17.978915912557">
        <ele>74.8</ele>
        <time>2018-03-04T15:57:26Z</time>
      </trkpt>
      <trkpt lat="62.636172466032" lon="17.978933179271">
        <ele>75</ele>
        <time>2018-03-04T15:57:27Z</time>
      </trkpt>
      <trkpt lat="62.636159641725" lon="17.978952122365">
        <ele>75</ele>
        <time>2018-03-04T15:57:28Z</time>
      </trkpt>
      <trkpt lat="62.636152684748" lon="17.978966623052">
        <ele>75.2</ele>
        <time>2018-03-04T15:57:29Z</time>
      </trkpt>
      <trkpt lat="62.636141201545" lon="17.978982632481">
        <ele>75.6</ele>
        <time>2018-03-04T15:57:30Z</time>
      </trkpt>
      <trkpt lat="62.636128377238" lon="17.979000905023">
        <ele>76.2</ele>
        <time>2018-03-04T15:57:31Z</time>
      </trkpt>
      <trkpt lat="62.636116558759" lon="17.979023703791">
        <ele>76.4</ele>
        <time>2018-03-04T15:57:32Z</time>
      </trkpt>
      <trkpt lat="62.636102393348" lon="17.979055471192">
        <ele>76.6</ele>
        <time>2018-03-04T15:57:33Z</time>
      </trkpt>
      <trkpt lat="62.636089066127" lon="17.979087070955">
        <ele>77</ele>
        <time>2018-03-04T15:57:34Z</time>
      </trkpt>
      <trkpt lat="62.636078504933" lon="17.979109031533">
        <ele>77.2</ele>
        <time>2018-03-04T15:57:35Z</time>
      </trkpt>
      <trkpt lat="62.63605780164" lon="17.979153874698">
        <ele>77.4</ele>
        <time>2018-03-04T15:57:36Z</time>
      </trkpt>
      <trkpt lat="62.636048665369" lon="17.979181199692">
        <ele>77.6</ele>
        <time>2018-03-04T15:57:37Z</time>
      </trkpt>
      <trkpt lat="62.636036092519" lon="17.979227383961">
        <ele>78</ele>
        <time>2018-03-04T15:57:38Z</time>
      </trkpt>
      <trkpt lat="62.636028548809" lon="17.979282536863">
        <ele>78.2</ele>
        <time>2018-03-04T15:57:39Z</time>
      </trkpt>
      <trkpt lat="62.63602008309" lon="17.979326877114">
        <ele>78.4</ele>
        <time>2018-03-04T15:57:40Z</time>
      </trkpt>
      <trkpt lat="62.636009270439" lon="17.979399967282">
        <ele>78.6</ele>
        <time>2018-03-04T15:57:41Z</time>
      </trkpt>
      <trkpt lat="62.636007342602" lon="17.979456377469">
        <ele>78.8</ele>
        <time>2018-03-04T15:57:42Z</time>
      </trkpt>
      <trkpt lat="62.636002648738" lon="17.979550925301">
        <ele>78.8</ele>
        <time>2018-03-04T15:57:43Z</time>
      </trkpt>
      <trkpt lat="62.635998038693" lon="17.979650083178">
        <ele>78.4</ele>
        <time>2018-03-04T15:57:44Z</time>
      </trkpt>
      <trkpt lat="62.635993009553" lon="17.979770363443">
        <ele>78.2</ele>
        <time>2018-03-04T15:57:45Z</time>
      </trkpt>
      <trkpt lat="62.63598739368" lon="17.979890895165">
        <ele>77.4</ele>
        <time>2018-03-04T15:57:46Z</time>
      </trkpt>
      <trkpt lat="62.63598739368" lon="17.980012265077">
        <ele>76.4</ele>
        <time>2018-03-04T15:57:47Z</time>
      </trkpt>
      <trkpt lat="62.635993931562" lon="17.980143190355">
        <ele>75.4</ele>
        <time>2018-03-04T15:57:48Z</time>
      </trkpt>
      <trkpt lat="62.636006588231" lon="17.980264224991">
        <ele>74.2</ele>
        <time>2018-03-04T15:57:49Z</time>
      </trkpt>
      <trkpt lat="62.636021843289" lon="17.980380314306">
        <ele>73.4</ele>
        <time>2018-03-04T15:57:50Z</time>
      </trkpt>
      <trkpt lat="62.636037852718" lon="17.980488776092">
        <ele>72.8</ele>
        <time>2018-03-04T15:57:51Z</time>
      </trkpt>
      <trkpt lat="62.636052185767" lon="17.980579049155">
        <ele>72.6</ele>
        <time>2018-03-04T15:57:52Z</time>
      </trkpt>
      <trkpt lat="62.636071380318" lon="17.980680553964">
        <ele>72.4</ele>
        <time>2018-03-04T15:57:53Z</time>
      </trkpt>
      <trkpt lat="62.636085210453" lon="17.980768815371">
        <ele>72.2</ele>
        <time>2018-03-04T15:57:54Z</time>
      </trkpt>
      <trkpt lat="62.636099794959" lon="17.980844168652">
        <ele>72</ele>
        <time>2018-03-04T15:57:55Z</time>
      </trkpt>
      <trkpt lat="62.636117983682" lon="17.980939806131">
        <ele>72</ele>
        <time>2018-03-04T15:57:56Z</time>
      </trkpt>
      <trkpt lat="62.636137010595" lon="17.98102538533">
        <ele>72</ele>
        <time>2018-03-04T15:57:57Z</time>
      </trkpt>
      <trkpt lat="62.636152181834" lon="17.981116831859">
        <ele>72</ele>
        <time>2018-03-04T15:57:58Z</time>
      </trkpt>
      <trkpt lat="62.636163329761" lon="17.981197968651">
        <ele>72.2</ele>
        <time>2018-03-04T15:57:59Z</time>
      </trkpt>
      <trkpt lat="62.63617766281" lon="17.981249936431">
        <ele>72.2</ele>
        <time>2018-03-04T15:58:00Z</time>
      </trkpt>
      <trkpt lat="62.63618520652" lon="17.981326714635">
        <ele>72.2</ele>
        <time>2018-03-04T15:58:01Z</time>
      </trkpt>
      <trkpt lat="62.636196689723" lon="17.981397038776">
        <ele>72</ele>
        <time>2018-03-04T15:58:02Z</time>
      </trkpt>
      <trkpt lat="62.636205490718" lon="17.981466189451">
        <ele>72</ele>
        <time>2018-03-04T15:58:03Z</time>
      </trkpt>
      <trkpt lat="62.636209849306" lon="17.981547912976">
        <ele>72</ele>
        <time>2018-03-04T15:58:04Z</time>
      </trkpt>
      <trkpt lat="62.636214794627" lon="17.981615890185">
        <ele>71.8</ele>
        <time>2018-03-04T15:58:05Z</time>
      </trkpt>
      <trkpt lat="62.636224852907" lon="17.981678838254">
        <ele>72</ele>
        <time>2018-03-04T15:58:06Z</time>
      </trkpt>
      <trkpt lat="62.636234072997" lon="17.981746731644">
        <ele>72</ele>
        <time>2018-03-04T15:58:07Z</time>
      </trkpt>
      <trkpt lat="62.636253435186" lon="17.981809595894">
        <ele>71.8</ele>
        <time>2018-03-04T15:58:08Z</time>
      </trkpt>
      <trkpt lat="62.636262571457" lon="17.981882350786">
        <ele>71.8</ele>
        <time>2018-03-04T15:58:09Z</time>
      </trkpt>
      <trkpt lat="62.636272629737" lon="17.981945382674">
        <ele>71.8</ele>
        <time>2018-03-04T15:58:10Z</time>
      </trkpt>
      <trkpt lat="62.636279335257" lon="17.982006822001">
        <ele>71.6</ele>
        <time>2018-03-04T15:58:11Z</time>
      </trkpt>
      <trkpt lat="62.636280341085" lon="17.98207982835">
        <ele>71.6</ele>
        <time>2018-03-04T15:58:12Z</time>
      </trkpt>
      <trkpt lat="62.636278413248" lon="17.982163312074">
        <ele>71.6</ele>
        <time>2018-03-04T15:58:13Z</time>
      </trkpt>
      <trkpt lat="62.636283358569" lon="17.982218381157">
        <ele>71.8</ele>
        <time>2018-03-04T15:58:14Z</time>
      </trkpt>
      <trkpt lat="62.636280676361" lon="17.982293315343">
        <ele>71.6</ele>
        <time>2018-03-04T15:58:15Z</time>
      </trkpt>
      <trkpt lat="62.636282017465" lon="17.982363388027">
        <ele>71.6</ele>
        <time>2018-03-04T15:58:16Z</time>
      </trkpt>
      <trkpt lat="62.636280676361" lon="17.982421977508">
        <ele>71.6</ele>
        <time>2018-03-04T15:58:17Z</time>
      </trkpt>
      <trkpt lat="62.636278077972" lon="17.982498168979">
        <ele>71.6</ele>
        <time>2018-03-04T15:58:18Z</time>
      </trkpt>
      <trkpt lat="62.636281430732" lon="17.982552651329">
        <ele>71.6</ele>
        <time>2018-03-04T15:58:19Z</time>
      </trkpt>
      <trkpt lat="62.636261230353" lon="17.982631944103">
        <ele>71.8</ele>
        <time>2018-03-04T15:58:20Z</time>
      </trkpt>
      <trkpt lat="62.636254105738" lon="17.982700005131">
        <ele>71.6</ele>
        <time>2018-03-04T15:58:21Z</time>
      </trkpt>
      <trkpt lat="62.636258212869" lon="17.982750883264">
        <ele>71.6</ele>
        <time>2018-03-04T15:58:22Z</time>
      </trkpt>
      <trkpt lat="62.63625561448" lon="17.982830176038">
        <ele>71.8</ele>
        <time>2018-03-04T15:58:23Z</time>
      </trkpt>
      <trkpt lat="62.636254860109" lon="17.982892788831">
        <ele>71.6</ele>
        <time>2018-03-04T15:58:24Z</time>
      </trkpt>
      <trkpt lat="62.636261984724" lon="17.982924304775">
        <ele>71.8</ele>
        <time>2018-03-04T15:58:25Z</time>
      </trkpt>
      <trkpt lat="62.636261733267" lon="17.982978451849">
        <ele>71.8</ele>
        <time>2018-03-04T15:58:26Z</time>
      </trkpt>
      <trkpt lat="62.636261733267" lon="17.983025809584">
        <ele>71.8</ele>
        <time>2018-03-04T15:58:27Z</time>
      </trkpt>
      <trkpt lat="62.636263325828" lon="17.983089931119">
        <ele>71.8</ele>
        <time>2018-03-04T15:58:28Z</time>
      </trkpt>
      <trkpt lat="62.636259218697" lon="17.983154807025">
        <ele>71.8</ele>
        <time>2018-03-04T15:58:29Z</time>
      </trkpt>
      <trkpt lat="62.636258715783" lon="17.983215408162">
        <ele>71.8</ele>
        <time>2018-03-04T15:58:30Z</time>
      </trkpt>
      <trkpt lat="62.63625980543" lon="17.983267627399">
        <ele>71.8</ele>
        <time>2018-03-04T15:58:31Z</time>
      </trkpt>
      <trkpt lat="62.636252932272" lon="17.983340885205">
        <ele>71.8</ele>
        <time>2018-03-04T15:58:32Z</time>
      </trkpt>
      <trkpt lat="62.636252596996" lon="17.983401570161">
        <ele>72</ele>
        <time>2018-03-04T15:58:33Z</time>
      </trkpt>
      <trkpt lat="62.63624890896" lon="17.983458567081">
        <ele>71.8</ele>
        <time>2018-03-04T15:58:34Z</time>
      </trkpt>
      <trkpt lat="62.636229798228" lon="17.983509277576">
        <ele>72</ele>
        <time>2018-03-04T15:58:35Z</time>
      </trkpt>
      <trkpt lat="62.636220494319" lon="17.983564681935">
        <ele>72</ele>
        <time>2018-03-04T15:58:36Z</time>
      </trkpt>
      <trkpt lat="62.636216973921" lon="17.983606842892">
        <ele>72</ele>
        <time>2018-03-04T15:58:37Z</time>
      </trkpt>
      <trkpt lat="62.636209011116" lon="17.983661157604">
        <ele>72.2</ele>
        <time>2018-03-04T15:58:38Z</time>
      </trkpt>
      <trkpt lat="62.636203227605" lon="17.983717986886">
        <ele>72.2</ele>
        <time>2018-03-04T15:58:39Z</time>
      </trkpt>
      <trkpt lat="62.636200796854" lon="17.983765093164">
        <ele>72.4</ele>
        <time>2018-03-04T15:58:40Z</time>
      </trkpt>
      <trkpt lat="62.636193504601" lon="17.983817647677">
        <ele>72.4</ele>
        <time>2018-03-04T15:58:41Z</time>
      </trkpt>
      <trkpt lat="62.636182021398" lon="17.983883026497">
        <ele>72.6</ele>
        <time>2018-03-04T15:58:42Z</time>
      </trkpt>
      <trkpt lat="62.636173639498" lon="17.983942957082">
        <ele>72.8</ele>
        <time>2018-03-04T15:58:43Z</time>
      </trkpt>
      <trkpt lat="62.636174561507" lon="17.983978999252">
        <ele>73</ele>
        <time>2018-03-04T15:58:44Z</time>
      </trkpt>
      <trkpt lat="62.63616425177" lon="17.984040187122">
        <ele>73</ele>
        <time>2018-03-04T15:58:45Z</time>
      </trkpt>
      <trkpt lat="62.636158132983" lon="17.984095759119">
        <ele>73.2</ele>
        <time>2018-03-04T15:58:46Z</time>
      </trkpt>
      <trkpt lat="62.636157043336" lon="17.984138003895">
        <ele>73.2</ele>
        <time>2018-03-04T15:58:47Z</time>
      </trkpt>
      <trkpt lat="62.636152265653" lon="17.984205394371">
        <ele>73.4</ele>
        <time>2018-03-04T15:58:48Z</time>
      </trkpt>
      <trkpt lat="62.63615754625" lon="17.984256356323">
        <ele>73.4</ele>
        <time>2018-03-04T15:58:49Z</time>
      </trkpt>
      <trkpt lat="62.636156037508" lon="17.984300864212">
        <ele>73.4</ele>
        <time>2018-03-04T15:58:50Z</time>
      </trkpt>
      <trkpt lat="62.636148661436" lon="17.984361130073">
        <ele>73.6</ele>
        <time>2018-03-04T15:58:51Z</time>
      </trkpt>
      <trkpt lat="62.636144805762" lon="17.984424832513">
        <ele>73.6</ele>
        <time>2018-03-04T15:58:52Z</time>
      </trkpt>
      <trkpt lat="62.636146314504" lon="17.984476884112">
        <ele>73.6</ele>
        <time>2018-03-04T15:58:53Z</time>
      </trkpt>
      <trkpt lat="62.636141285364" lon="17.984546872977">
        <ele>73.6</ele>
        <time>2018-03-04T15:58:54Z</time>
      </trkpt>
      <trkpt lat="62.636133993111" lon="17.984590710314">
        <ele>73.6</ele>
        <time>2018-03-04T15:58:55Z</time>
      </trkpt>
      <trkpt lat="62.636138770794" lon="17.984656089134">
        <ele>73.8</ele>
        <time>2018-03-04T15:58:56Z</time>
      </trkpt>
      <trkpt lat="62.636137681147" lon="17.98471509771">
        <ele>73.8</ele>
        <time>2018-03-04T15:58:57Z</time>
      </trkpt>
      <trkpt lat="62.636141704459" lon="17.984782907281">
        <ele>74</ele>
        <time>2018-03-04T15:58:58Z</time>
      </trkpt>
      <trkpt lat="62.636141201545" lon="17.984840239477">
        <ele>74</ele>
        <time>2018-03-04T15:58:59Z</time>
      </trkpt>
      <trkpt lat="62.636134831301" lon="17.984890614696">
        <ele>74.2</ele>
        <time>2018-03-04T15:59:00Z</time>
      </trkpt>
      <trkpt lat="62.63613156236" lon="17.98494392358">
        <ele>74.4</ele>
        <time>2018-03-04T15:59:01Z</time>
      </trkpt>
      <trkpt lat="62.636127706686" lon="17.984990694582">
        <ele>74.8</ele>
        <time>2018-03-04T15:59:02Z</time>
      </trkpt>
      <trkpt lat="62.636118905691" lon="17.985053894108">
        <ele>74.8</ele>
        <time>2018-03-04T15:59:03Z</time>
      </trkpt>
      <trkpt lat="62.636112535447" lon="17.985113321779">
        <ele>75</ele>
        <time>2018-03-04T15:59:04Z</time>
      </trkpt>
      <trkpt lat="62.636105997565" lon="17.985161350066">
        <ele>75.2</ele>
        <time>2018-03-04T15:59:05Z</time>
      </trkpt>
      <trkpt lat="62.636105243194" lon="17.985196637865">
        <ele>75.2</ele>
        <time>2018-03-04T15:59:06Z</time>
      </trkpt>
      <trkpt lat="62.636102896262" lon="17.985259418296">
        <ele>75.4</ele>
        <time>2018-03-04T15:59:07Z</time>
      </trkpt>
      <trkpt lat="62.636101638977" lon="17.985328904247">
        <ele>75.6</ele>
        <time>2018-03-04T15:59:08Z</time>
      </trkpt>
      <trkpt lat="62.636103818271" lon="17.985373831231">
        <ele>75.8</ele>
        <time>2018-03-04T15:59:09Z</time>
      </trkpt>
      <trkpt lat="62.63610138752" lon="17.985427475391">
        <ele>75.8</ele>
        <time>2018-03-04T15:59:10Z</time>
      </trkpt>
      <trkpt lat="62.636102560986" lon="17.985499224455">
        <ele>75.6</ele>
        <time>2018-03-04T15:59:11Z</time>
      </trkpt>
      <trkpt lat="62.63610557847" lon="17.985543313249">
        <ele>75.6</ele>
        <time>2018-03-04T15:59:12Z</time>
      </trkpt>
      <trkpt lat="62.636100214054" lon="17.985599471979">
        <ele>75.6</ele>
        <time>2018-03-04T15:59:13Z</time>
      </trkpt>
      <trkpt lat="62.636093676172" lon="17.985659151107">
        <ele>75.4</ele>
        <time>2018-03-04T15:59:14Z</time>
      </trkpt>
      <trkpt lat="62.636090407231" lon="17.985703826634">
        <ele>75.6</ele>
        <time>2018-03-04T15:59:15Z</time>
      </trkpt>
      <trkpt lat="62.636079846037" lon="17.985753782758">
        <ele>75.6</ele>
        <time>2018-03-04T15:59:16Z</time>
      </trkpt>
      <trkpt lat="62.636061405857" lon="17.985798374466">
        <ele>75.6</ele>
        <time>2018-03-04T15:59:17Z</time>
      </trkpt>
      <trkpt lat="62.636040870202" lon="17.98584330145">
        <ele>75.6</ele>
        <time>2018-03-04T15:59:18Z</time>
      </trkpt>
      <trkpt lat="62.636027040067" lon="17.985874482118">
        <ele>75.8</ele>
        <time>2018-03-04T15:59:19Z</time>
      </trkpt>
      <trkpt lat="62.636003403109" lon="17.985908093537">
        <ele>75.8</ele>
        <time>2018-03-04T15:59:20Z</time>
      </trkpt>
      <trkpt lat="62.635981023436" lon="17.985933071599">
        <ele>76</ele>
        <time>2018-03-04T15:59:21Z</time>
      </trkpt>
      <trkpt lat="62.63596476255" lon="17.98595058977">
        <ele>76</ele>
        <time>2018-03-04T15:59:22Z</time>
      </trkpt>
      <trkpt lat="62.635938191927" lon="17.9859732209">
        <ele>76.2</ele>
        <time>2018-03-04T15:59:23Z</time>
      </trkpt>
      <trkpt lat="62.635909861105" lon="17.985987805406">
        <ele>76.4</ele>
        <time>2018-03-04T15:59:24Z</time>
      </trkpt>
      <trkpt lat="62.635893600219" lon="17.986000462075">
        <ele>76.6</ele>
        <time>2018-03-04T15:59:25Z</time>
      </trkpt>
      <trkpt lat="62.635865437035" lon="17.986012867287">
        <ele>76.8</ele>
        <time>2018-03-04T15:59:26Z</time>
      </trkpt>
      <trkpt lat="62.63584741595" lon="17.986015549495">
        <ele>77</ele>
        <time>2018-03-04T15:59:27Z</time>
      </trkpt>
      <trkpt lat="62.635829394865" lon="17.986041365747">
        <ele>77</ele>
        <time>2018-03-04T15:59:28Z</time>
      </trkpt>
      <trkpt lat="62.635795364351" lon="17.986074222795">
        <ele>77</ele>
        <time>2018-03-04T15:59:29Z</time>
      </trkpt>
      <trkpt lat="62.635777427085" lon="17.986102134522">
        <ele>77.2</ele>
        <time>2018-03-04T15:59:30Z</time>
      </trkpt>
      <trkpt lat="62.635755131231" lon="17.986136416493">
        <ele>77.2</ele>
        <time>2018-03-04T15:59:31Z</time>
      </trkpt>
      <trkpt lat="62.635737277784" lon="17.986174973233">
        <ele>77.4</ele>
        <time>2018-03-04T15:59:32Z</time>
      </trkpt>
      <trkpt lat="62.635724537296" lon="17.986191820852">
        <ele>77.6</ele>
        <time>2018-03-04T15:59:33Z</time>
      </trkpt>
      <trkpt lat="62.635706264754" lon="17.986213697611">
        <ele>77.6</ele>
        <time>2018-03-04T15:59:34Z</time>
      </trkpt>
      <trkpt lat="62.635688076031" lon="17.986238005121">
        <ele>77.8</ele>
        <time>2018-03-04T15:59:35Z</time>
      </trkpt>
      <trkpt lat="62.635668462385" lon="17.986280417535">
        <ele>78</ele>
        <time>2018-03-04T15:59:36Z</time>
      </trkpt>
      <trkpt lat="62.635659577571" lon="17.986312771669">
        <ele>78.2</ele>
        <time>2018-03-04T15:59:37Z</time>
      </trkpt>
      <trkpt lat="62.635647004721" lon="17.98635375916">
        <ele>78.4</ele>
        <time>2018-03-04T15:59:38Z</time>
      </trkpt>
      <trkpt lat="62.635637952269" lon="17.986394746651">
        <ele>78.6</ele>
        <time>2018-03-04T15:59:39Z</time>
      </trkpt>
      <trkpt lat="62.635623954496" lon="17.986434979771">
        <ele>78.6</ele>
        <time>2018-03-04T15:59:40Z</time>
      </trkpt>
      <trkpt lat="62.635603251203" lon="17.986493401614">
        <ele>78.6</ele>
        <time>2018-03-04T15:59:41Z</time>
      </trkpt>
      <trkpt lat="62.635592773828" lon="17.986531958354">
        <ele>78.6</ele>
        <time>2018-03-04T15:59:42Z</time>
      </trkpt>
      <trkpt lat="62.635562515169" lon="17.986586608342">
        <ele>78.6</ele>
        <time>2018-03-04T15:59:43Z</time>
      </trkpt>
      <trkpt lat="62.635551367242" lon="17.986626925281">
        <ele>78.6</ele>
        <time>2018-03-04T15:59:44Z</time>
      </trkpt>
      <trkpt lat="62.635539464944" lon="17.986664308555">
        <ele>78.8</ele>
        <time>2018-03-04T15:59:45Z</time>
      </trkpt>
      <trkpt lat="62.635529155207" lon="17.986697500879">
        <ele>78.8</ele>
        <time>2018-03-04T15:59:46Z</time>
      </trkpt>
      <trkpt lat="62.635514067787" lon="17.986735470886">
        <ele>78.8</ele>
        <time>2018-03-04T15:59:47Z</time>
      </trkpt>
      <trkpt lat="62.635501997851" lon="17.986781403698">
        <ele>79.2</ele>
        <time>2018-03-04T15:59:48Z</time>
      </trkpt>
      <trkpt lat="62.635505015335" lon="17.986822223551">
        <ele>79.4</ele>
        <time>2018-03-04T15:59:49Z</time>
      </trkpt>
      <trkpt lat="62.635488838268" lon="17.986874023693">
        <ele>79.6</ele>
        <time>2018-03-04T15:59:50Z</time>
      </trkpt>
      <trkpt lat="62.635479031445" lon="17.98691869922">
        <ele>79.8</ele>
        <time>2018-03-04T15:59:51Z</time>
      </trkpt>
      <trkpt lat="62.635467212966" lon="17.986948454965">
        <ele>79.6</ele>
        <time>2018-03-04T15:59:52Z</time>
      </trkpt>
      <trkpt lat="62.635447431682" lon="17.986986844067">
        <ele>79.6</ele>
        <time>2018-03-04T15:59:53Z</time>
      </trkpt>
      <trkpt lat="62.635432176624" lon="17.987020539305">
        <ele>79.6</ele>
        <time>2018-03-04T15:59:54Z</time>
      </trkpt>
      <trkpt lat="62.635411473331" lon="17.987048283394">
        <ele>79.8</ele>
        <time>2018-03-04T15:59:55Z</time>
      </trkpt>
      <trkpt lat="62.635387752554" lon="17.987083487374">
        <ele>79.8</ele>
        <time>2018-03-04T15:59:56Z</time>
      </trkpt>
      <trkpt lat="62.635371491668" lon="17.987120200096">
        <ele>79.8</ele>
        <time>2018-03-04T15:59:57Z</time>
      </trkpt>
      <trkpt lat="62.635350872194" lon="17.987181807061">
        <ele>80</ele>
        <time>2018-03-04T15:59:58Z</time>
      </trkpt>
      <trkpt lat="62.635332096738" lon="17.987218435964">
        <ele>80</ele>
        <time>2018-03-04T15:59:59Z</time>
      </trkpt>
      <trkpt lat="62.635308208323" lon="17.987266464251">
        <ele>80</ele>
        <time>2018-03-04T16:00:00Z</time>
      </trkpt>
      <trkpt lat="62.635295551654" lon="17.987302506421">
        <ele>80.2</ele>
        <time>2018-03-04T16:00:01Z</time>
      </trkpt>
      <trkpt lat="62.635278787854" lon="17.987336788392">
        <ele>80.4</ele>
        <time>2018-03-04T16:00:02Z</time>
      </trkpt>
      <trkpt lat="62.63525146286" lon="17.987390181095">
        <ele>80.4</ele>
        <time>2018-03-04T16:00:03Z</time>
      </trkpt>
      <trkpt lat="62.63524056639" lon="17.987430078939">
        <ele>80.4</ele>
        <time>2018-03-04T16:00:04Z</time>
      </trkpt>
      <trkpt lat="62.635223048219" lon="17.987464193272">
        <ele>80.6</ele>
        <time>2018-03-04T16:00:05Z</time>
      </trkpt>
      <trkpt lat="62.635201422917" lon="17.987504342573">
        <ele>80.8</ele>
        <time>2018-03-04T16:00:06Z</time>
      </trkpt>
      <trkpt lat="62.635185497307" lon="17.98754650353">
        <ele>81</ele>
        <time>2018-03-04T16:00:07Z</time>
      </trkpt>
      <trkpt lat="62.635175019932" lon="17.98759344217">
        <ele>81.2</ele>
        <time>2018-03-04T16:00:08Z</time>
      </trkpt>
      <trkpt lat="62.635172002448" lon="17.98764624814">
        <ele>81.4</ele>
        <time>2018-03-04T16:00:09Z</time>
      </trkpt>
      <trkpt lat="62.635168230593" lon="17.987686062165">
        <ele>81.6</ele>
        <time>2018-03-04T16:00:10Z</time>
      </trkpt>
      <trkpt lat="62.63516177653" lon="17.987745657474">
        <ele>81.8</ele>
        <time>2018-03-04T16:00:11Z</time>
      </trkpt>
      <trkpt lat="62.635154819553" lon="17.987791674105">
        <ele>82</ele>
        <time>2018-03-04T16:00:12Z</time>
      </trkpt>
      <trkpt lat="62.635146437653" lon="17.987838026012">
        <ele>82.2</ele>
        <time>2018-03-04T16:00:13Z</time>
      </trkpt>
      <trkpt lat="62.635141576151" lon="17.987881611892">
        <ele>82.4</ele>
        <time>2018-03-04T16:00:14Z</time>
      </trkpt>
      <trkpt lat="62.635132607518" lon="17.987937519165">
        <ele>82.6</ele>
        <time>2018-03-04T16:00:15Z</time>
      </trkpt>
      <trkpt lat="62.635126740188" lon="17.987978841932">
        <ele>82.8</ele>
        <time>2018-03-04T16:00:16Z</time>
      </trkpt>
      <trkpt lat="62.63511651427" lon="17.98802091907">
        <ele>82.8</ele>
        <time>2018-03-04T16:00:17Z</time>
      </trkpt>
      <trkpt lat="62.635109976388" lon="17.988075149963">
        <ele>82.8</ele>
        <time>2018-03-04T16:00:18Z</time>
      </trkpt>
      <trkpt lat="62.63510226504" lon="17.988113036151">
        <ele>82.8</ele>
        <time>2018-03-04T16:00:19Z</time>
      </trkpt>
      <trkpt lat="62.63508298667" lon="17.988162070266">
        <ele>82.8</ele>
        <time>2018-03-04T16:00:20Z</time>
      </trkpt>
      <trkpt lat="62.635065552318" lon="17.988204901775">
        <ele>82.8</ele>
        <time>2018-03-04T16:00:21Z</time>
      </trkpt>
      <trkpt lat="62.635051219269" lon="17.988236836814">
        <ele>82.6</ele>
        <time>2018-03-04T16:00:22Z</time>
      </trkpt>
      <trkpt lat="62.635033365822" lon="17.9882614796">
        <ele>82.8</ele>
        <time>2018-03-04T16:00:23Z</time>
      </trkpt>
      <trkpt lat="62.635012327253" lon="17.988281847617">
        <ele>82.8</ele>
        <time>2018-03-04T16:00:24Z</time>
      </trkpt>
      <trkpt lat="62.634989277028" lon="17.988308837335">
        <ele>82.8</ele>
        <time>2018-03-04T16:00:25Z</time>
      </trkpt>
      <trkpt lat="62.634969998658" lon="17.988333480121">
        <ele>83</ele>
        <time>2018-03-04T16:00:26Z</time>
      </trkpt>
      <trkpt lat="62.634949211546" lon="17.988353345224">
        <ele>83.2</ele>
        <time>2018-03-04T16:00:27Z</time>
      </trkpt>
      <trkpt lat="62.634919288163" lon="17.988374551431">
        <ele>83.4</ele>
        <time>2018-03-04T16:00:28Z</time>
      </trkpt>
      <trkpt lat="62.634898417232" lon="17.988389387394">
        <ele>83.6</ele>
        <time>2018-03-04T16:00:29Z</time>
      </trkpt>
      <trkpt lat="62.634880731423" lon="17.988399529493">
        <ele>83.8</ele>
        <time>2018-03-04T16:00:30Z</time>
      </trkpt>
      <trkpt lat="62.634853741705" lon="17.988409587773">
        <ele>83.8</ele>
        <time>2018-03-04T16:00:31Z</time>
      </trkpt>
      <trkpt lat="62.634835385344" lon="17.988418556406">
        <ele>84</ele>
        <time>2018-03-04T16:00:32Z</time>
      </trkpt>
      <trkpt lat="62.634817448078" lon="17.988432135084">
        <ele>84.2</ele>
        <time>2018-03-04T16:00:33Z</time>
      </trkpt>
      <trkpt lat="62.634793056749" lon="17.988447473961">
        <ele>84.2</ele>
        <time>2018-03-04T16:00:34Z</time>
      </trkpt>
      <trkpt lat="62.634777466415" lon="17.988460801182">
        <ele>84.2</ele>
        <time>2018-03-04T16:00:35Z</time>
      </trkpt>
      <trkpt lat="62.634747878308" lon="17.988472200566">
        <ele>84.2</ele>
        <time>2018-03-04T16:00:36Z</time>
      </trkpt>
      <trkpt lat="62.634723906074" lon="17.988490054013">
        <ele>84.2</ele>
        <time>2018-03-04T16:00:37Z</time>
      </trkpt>
      <trkpt lat="62.634698173641" lon="17.988515115894">
        <ele>84.4</ele>
        <time>2018-03-04T16:00:38Z</time>
      </trkpt>
      <trkpt lat="62.63468149366" lon="17.988526096183">
        <ele>84.4</ele>
        <time>2018-03-04T16:00:39Z</time>
      </trkpt>
      <trkpt lat="62.634655174494" lon="17.988539004309">
        <ele>84.4</ele>
        <time>2018-03-04T16:00:40Z</time>
      </trkpt>
      <trkpt lat="62.634627178948" lon="17.988554678462">
        <ele>84.6</ele>
        <time>2018-03-04T16:00:41Z</time>
      </trkpt>
      <trkpt lat="62.634605050732" lon="17.988565491113">
        <ele>84.6</ele>
        <time>2018-03-04T16:00:42Z</time>
      </trkpt>
      <trkpt lat="62.634582754878" lon="17.988580494714">
        <ele>84.6</ele>
        <time>2018-03-04T16:00:43Z</time>
      </trkpt>
      <trkpt lat="62.634565655802" lon="17.98859340284">
        <ele>84.8</ele>
        <time>2018-03-04T16:00:44Z</time>
      </trkpt>
      <trkpt lat="62.634549814011" lon="17.988608657898">
        <ele>85</ele>
        <time>2018-03-04T16:00:45Z</time>
      </trkpt>
      <trkpt lat="62.634525087406" lon="17.988631037571">
        <ele>85.2</ele>
        <time>2018-03-04T16:00:46Z</time>
      </trkpt>
      <trkpt lat="62.634512011642" lon="17.98866045804">
        <ele>85.6</ele>
        <time>2018-03-04T16:00:47Z</time>
      </trkpt>
      <trkpt lat="62.634487787951" lon="17.988697254581">
        <ele>85.6</ele>
        <time>2018-03-04T16:00:48Z</time>
      </trkpt>
      <trkpt lat="62.634465324459" lon="17.988737487701">
        <ele>86</ele>
        <time>2018-03-04T16:00:49Z</time>
      </trkpt>
      <trkpt lat="62.634442022777" lon="17.98876690817">
        <ele>86.2</ele>
        <time>2018-03-04T16:00:50Z</time>
      </trkpt>
      <trkpt lat="62.634432048316" lon="17.988794065526">
        <ele>86.4</ele>
        <time>2018-03-04T16:00:51Z</time>
      </trkpt>
      <trkpt lat="62.63441327286" lon="17.988824827099">
        <ele>86.6</ele>
        <time>2018-03-04T16:00:52Z</time>
      </trkpt>
      <trkpt lat="62.634392737205" lon="17.988878638897">
        <ele>86.8</ele>
        <time>2018-03-04T16:00:53Z</time>
      </trkpt>
      <trkpt lat="62.634383181839" lon="17.988912669411">
        <ele>86.8</ele>
        <time>2018-03-04T16:00:54Z</time>
      </trkpt>
      <trkpt lat="62.634363232917" lon="17.988952902531">
        <ele>86.8</ele>
        <time>2018-03-04T16:00:55Z</time>
      </trkpt>
      <trkpt lat="62.634348229316" lon="17.988994560574">
        <ele>87</ele>
        <time>2018-03-04T16:00:56Z</time>
      </trkpt>
      <trkpt lat="62.634334231543" lon="17.9890242325">
        <ele>87</ele>
        <time>2018-03-04T16:00:57Z</time>
      </trkpt>
      <trkpt lat="62.634314701716" lon="17.989069243303">
        <ele>87.2</ele>
        <time>2018-03-04T16:00:58Z</time>
      </trkpt>
      <trkpt lat="62.63429844083" lon="17.989099837238">
        <ele>87.2</ele>
        <time>2018-03-04T16:00:59Z</time>
      </trkpt>
      <trkpt lat="62.634281509392" lon="17.989131101725">
        <ele>87.2</ele>
        <time>2018-03-04T16:01:00Z</time>
      </trkpt>
      <trkpt lat="62.634259213538" lon="17.989162030936">
        <ele>87.2</ele>
        <time>2018-03-04T16:01:01Z</time>
      </trkpt>
      <trkpt lat="62.634243371747" lon="17.989185667894">
        <ele>87.2</ele>
        <time>2018-03-04T16:01:02Z</time>
      </trkpt>
      <trkpt lat="62.634221914083" lon="17.989210645956">
        <ele>87.4</ele>
        <time>2018-03-04T16:01:03Z</time>
      </trkpt>
      <trkpt lat="62.634197271297" lon="17.989228834679">
        <ele>87.4</ele>
        <time>2018-03-04T16:01:04Z</time>
      </trkpt>
      <trkpt lat="62.634181010411" lon="17.989268648704">
        <ele>87.4</ele>
        <time>2018-03-04T16:01:05Z</time>
      </trkpt>
      <trkpt lat="62.634158882195" lon="17.989292872395">
        <ele>87.4</ele>
        <time>2018-03-04T16:01:06Z</time>
      </trkpt>
      <trkpt lat="62.63413583197" lon="17.989315335887">
        <ele>87.4</ele>
        <time>2018-03-04T16:01:07Z</time>
      </trkpt>
      <trkpt lat="62.634111356822" lon="17.989339056664">
        <ele>87.4</ele>
        <time>2018-03-04T16:01:08Z</time>
      </trkpt>
      <trkpt lat="62.634093503375" lon="17.989363447993">
        <ele>87.4</ele>
        <time>2018-03-04T16:01:09Z</time>
      </trkpt>
      <trkpt lat="62.634067268028" lon="17.989387084951">
        <ele>87.4</ele>
        <time>2018-03-04T16:01:10Z</time>
      </trkpt>
      <trkpt lat="62.634041451776" lon="17.989410554271">
        <ele>87.6</ele>
        <time>2018-03-04T16:01:11Z</time>
      </trkpt>
      <trkpt lat="62.634022005768" lon="17.989425222596">
        <ele>87.8</ele>
        <time>2018-03-04T16:01:12Z</time>
      </trkpt>
      <trkpt lat="62.634002308303" lon="17.989443998052">
        <ele>87.6</ele>
        <time>2018-03-04T16:01:13Z</time>
      </trkpt>
      <trkpt lat="62.633975905318" lon="17.989472077417">
        <ele>87.6</ele>
        <time>2018-03-04T16:01:14Z</time>
      </trkpt>
      <trkpt lat="62.633950927256" lon="17.989500156782">
        <ele>88</ele>
        <time>2018-03-04T16:01:15Z</time>
      </trkpt>
      <trkpt lat="62.633933660542" lon="17.989521111532">
        <ele>88.2</ele>
        <time>2018-03-04T16:01:16Z</time>
      </trkpt>
      <trkpt lat="62.633916310009" lon="17.989537037142">
        <ele>88.2</ele>
        <time>2018-03-04T16:01:17Z</time>
      </trkpt>
      <trkpt lat="62.633890996671" lon="17.989563523946">
        <ele>88.4</ele>
        <time>2018-03-04T16:01:18Z</time>
      </trkpt>
      <trkpt lat="62.633873981414" lon="17.989585149248">
        <ele>88.6</ele>
        <time>2018-03-04T16:01:19Z</time>
      </trkpt>
      <trkpt lat="62.63384246547" lon="17.989623957445">
        <ele>88.6</ele>
        <time>2018-03-04T16:01:20Z</time>
      </trkpt>
      <trkpt lat="62.633822516548" lon="17.989653294095">
        <ele>88.8</ele>
        <time>2018-03-04T16:01:21Z</time>
      </trkpt>
      <trkpt lat="62.633804160187" lon="17.98968304984">
        <ele>88.8</ele>
        <time>2018-03-04T16:01:22Z</time>
      </trkpt>
      <trkpt lat="62.63378630674" lon="17.989727893005">
        <ele>88.8</ele>
        <time>2018-03-04T16:01:23Z</time>
      </trkpt>
      <trkpt lat="62.633759233203" lon="17.989779274052">
        <ele>88.8</ele>
        <time>2018-03-04T16:01:24Z</time>
      </trkpt>
      <trkpt lat="62.633744564878" lon="17.989831828565">
        <ele>88.8</ele>
        <time>2018-03-04T16:01:25Z</time>
      </trkpt>
      <trkpt lat="62.633732746399" lon="17.989876252635">
        <ele>88.8</ele>
        <time>2018-03-04T16:01:26Z</time>
      </trkpt>
      <trkpt lat="62.633712210744" lon="17.989927633682">
        <ele>88.8</ele>
        <time>2018-03-04T16:01:27Z</time>
      </trkpt>
      <trkpt lat="62.633690920718" lon="17.989969627001">
        <ele>88.8</ele>
        <time>2018-03-04T16:01:28Z</time>
      </trkpt>
      <trkpt lat="62.63367650385" lon="17.990005333895">
        <ele>88.8</ele>
        <time>2018-03-04T16:01:29Z</time>
      </trkpt>
      <trkpt lat="62.633658482765" lon="17.990044645006">
        <ele>89</ele>
        <time>2018-03-04T16:01:30Z</time>
      </trkpt>
      <trkpt lat="62.633642473336" lon="17.990089152895">
        <ele>89</ele>
        <time>2018-03-04T16:01:31Z</time>
      </trkpt>
      <trkpt lat="62.633629481391" lon="17.990115472061">
        <ele>89</ele>
        <time>2018-03-04T16:01:32Z</time>
      </trkpt>
      <trkpt lat="62.633606850261" lon="17.990152017145">
        <ele>89.2</ele>
        <time>2018-03-04T16:01:33Z</time>
      </trkpt>
      <trkpt lat="62.633580698733" lon="17.990188897505">
        <ele>89.2</ele>
        <time>2018-03-04T16:01:34Z</time>
      </trkpt>
      <trkpt lat="62.633558151422" lon="17.990221586915">
        <ele>89.2</ele>
        <time>2018-03-04T16:01:35Z</time>
      </trkpt>
      <trkpt lat="62.633541806717" lon="17.990233992127">
        <ele>89.2</ele>
        <time>2018-03-04T16:01:36Z</time>
      </trkpt>
      <trkpt lat="62.633514230266" lon="17.990254863058">
        <ele>89.4</ele>
        <time>2018-03-04T16:01:37Z</time>
      </trkpt>
      <trkpt lat="62.633486486177" lon="17.990281182224">
        <ele>89.6</ele>
        <time>2018-03-04T16:01:38Z</time>
      </trkpt>
      <trkpt lat="62.633469890015" lon="17.990301131146">
        <ele>89.8</ele>
        <time>2018-03-04T16:01:39Z</time>
      </trkpt>
      <trkpt lat="62.633435440406" lon="17.990319152231">
        <ele>89.8</ele>
        <time>2018-03-04T16:01:40Z</time>
      </trkpt>
      <trkpt lat="62.633409875611" lon="17.99034773451">
        <ele>90</ele>
        <time>2018-03-04T16:01:41Z</time>
      </trkpt>
      <trkpt lat="62.633378024391" lon="17.990365923233">
        <ele>90</ele>
        <time>2018-03-04T16:01:42Z</time>
      </trkpt>
      <trkpt lat="62.633353716881" lon="17.990378328445">
        <ele>90.2</ele>
        <time>2018-03-04T16:01:43Z</time>
      </trkpt>
      <trkpt lat="62.633333181226" lon="17.990400205204">
        <ele>90.4</ele>
        <time>2018-03-04T16:01:44Z</time>
      </trkpt>
      <trkpt lat="62.63330015654" lon="17.990424931809">
        <ele>90.4</ele>
        <time>2018-03-04T16:01:45Z</time>
      </trkpt>
      <trkpt lat="62.633277609229" lon="17.990442366161">
        <ele>90.4</ele>
        <time>2018-03-04T16:01:46Z</time>
      </trkpt>
      <trkpt lat="62.633252631167" lon="17.990463907644">
        <ele>90.4</ele>
        <time>2018-03-04T16:01:47Z</time>
      </trkpt>
      <trkpt lat="62.633228491295" lon="17.990506320058">
        <ele>90.4</ele>
        <time>2018-03-04T16:01:48Z</time>
      </trkpt>
      <trkpt lat="62.633208877649" lon="17.990536746355">
        <ele>90.2</ele>
        <time>2018-03-04T16:01:49Z</time>
      </trkpt>
      <trkpt lat="62.633183815768" lon="17.990572872344">
        <ele>90.2</ele>
        <time>2018-03-04T16:01:50Z</time>
      </trkpt>
      <trkpt lat="62.633164956493" lon="17.990616877319">
        <ele>90</ele>
        <time>2018-03-04T16:01:51Z</time>
      </trkpt>
      <trkpt lat="62.633144672295" lon="17.990657194258">
        <ele>89.8</ele>
        <time>2018-03-04T16:01:52Z</time>
      </trkpt>
      <trkpt lat="62.633125142468" lon="17.990714107359">
        <ele>89.8</ele>
        <time>2018-03-04T16:01:53Z</time>
      </trkpt>
      <trkpt lat="62.633111647609" lon="17.990777055428">
        <ele>89.8</ele>
        <time>2018-03-04T16:01:54Z</time>
      </trkpt>
      <trkpt lat="62.633091614868" lon="17.990840087316">
        <ele>89.8</ele>
        <time>2018-03-04T16:01:55Z</time>
      </trkpt>
      <trkpt lat="62.633078790561" lon="17.990905633774">
        <ele>90</ele>
        <time>2018-03-04T16:01:56Z</time>
      </trkpt>
      <trkpt lat="62.633061775304" lon="17.990944274333">
        <ele>90</ele>
        <time>2018-03-04T16:01:57Z</time>
      </trkpt>
      <trkpt lat="62.633041323468" lon="17.991000097787">
        <ele>90</ele>
        <time>2018-03-04T16:01:58Z</time>
      </trkpt>
      <trkpt lat="62.633024978763" lon="17.99105516687">
        <ele>90</ele>
        <time>2018-03-04T16:01:59Z</time>
      </trkpt>
      <trkpt lat="62.633002347633" lon="17.991105877365">
        <ele>90</ele>
        <time>2018-03-04T16:02:00Z</time>
      </trkpt>
      <trkpt lat="62.632986841118" lon="17.991150888168">
        <ele>90</ele>
        <time>2018-03-04T16:02:01Z</time>
      </trkpt>
      <trkpt lat="62.632975693191" lon="17.991183242302">
        <ele>90</ele>
        <time>2018-03-04T16:02:02Z</time>
      </trkpt>
      <trkpt lat="62.632959935219" lon="17.99123873048">
        <ele>90.2</ele>
        <time>2018-03-04T16:02:03Z</time>
      </trkpt>
      <trkpt lat="62.632951972414" lon="17.991277035763">
        <ele>90</ele>
        <time>2018-03-04T16:02:04Z</time>
      </trkpt>
      <trkpt lat="62.632931939673" lon="17.991326991887">
        <ele>90</ele>
        <time>2018-03-04T16:02:05Z</time>
      </trkpt>
      <trkpt lat="62.632915511149" lon="17.991374684898">
        <ele>90.2</ele>
        <time>2018-03-04T16:02:06Z</time>
      </trkpt>
      <trkpt lat="62.632902770661" lon="17.991413241638">
        <ele>90</ele>
        <time>2018-03-04T16:02:07Z</time>
      </trkpt>
      <trkpt lat="62.632878882246" lon="17.991463952133">
        <ele>90.2</ele>
        <time>2018-03-04T16:02:08Z</time>
      </trkpt>
      <trkpt lat="62.632866057939" lon="17.991503933796">
        <ele>90</ele>
        <time>2018-03-04T16:02:09Z</time>
      </trkpt>
      <trkpt lat="62.63284921032" lon="17.991539808328">
        <ele>90.2</ele>
        <time>2018-03-04T16:02:10Z</time>
      </trkpt>
      <trkpt lat="62.632827249742" lon="17.991593368669">
        <ele>90.2</ele>
        <time>2018-03-04T16:02:11Z</time>
      </trkpt>
      <trkpt lat="62.632808474286" lon="17.991632260685">
        <ele>90.2</ele>
        <time>2018-03-04T16:02:12Z</time>
      </trkpt>
      <trkpt lat="62.632788357726" lon="17.991686659216">
        <ele>90</ele>
        <time>2018-03-04T16:02:13Z</time>
      </trkpt>
      <trkpt lat="62.632768660261" lon="17.991741057747">
        <ele>90</ele>
        <time>2018-03-04T16:02:14Z</time>
      </trkpt>
      <trkpt lat="62.632761451827" lon="17.991794282812">
        <ele>90</ele>
        <time>2018-03-04T16:02:15Z</time>
      </trkpt>
      <trkpt lat="62.632753153746" lon="17.991849603352">
        <ele>90</ele>
        <time>2018-03-04T16:02:16Z</time>
      </trkpt>
      <trkpt lat="62.632753824298" lon="17.991905007711">
        <ele>89.8</ele>
        <time>2018-03-04T16:02:17Z</time>
      </trkpt>
      <trkpt lat="62.632765475139" lon="17.991957646043">
        <ele>90</ele>
        <time>2018-03-04T16:02:18Z</time>
      </trkpt>
      <trkpt lat="62.632779556731" lon="17.991993772032">
        <ele>90</ele>
        <time>2018-03-04T16:02:19Z</time>
      </trkpt>
      <trkpt lat="62.632799924748" lon="17.992015313515">
        <ele>90</ele>
        <time>2018-03-04T16:02:20Z</time>
      </trkpt>
      <trkpt lat="62.63281903548" lon="17.992026545261">
        <ele>90.2</ele>
        <time>2018-03-04T16:02:21Z</time>
      </trkpt>
      <trkpt lat="62.632837894755" lon="17.992030484754">
        <ele>90.2</ele>
        <time>2018-03-04T16:02:22Z</time>
      </trkpt>
      <trkpt lat="62.632861615532" lon="17.992037357912">
        <ele>90.4</ele>
        <time>2018-03-04T16:02:23Z</time>
      </trkpt>
      <trkpt lat="62.632887431784" lon="17.992050433676">
        <ele>90.4</ele>
        <time>2018-03-04T16:02:24Z</time>
      </trkpt>
      <trkpt lat="62.632908637991" lon="17.992050685133">
        <ele>90.4</ele>
        <time>2018-03-04T16:02:25Z</time>
      </trkpt>
      <trkpt lat="62.632932694044" lon="17.992065102001">
        <ele>90.2</ele>
        <time>2018-03-04T16:02:26Z</time>
      </trkpt>
      <trkpt lat="62.632952056233" lon="17.992071220788">
        <ele>90.2</ele>
        <time>2018-03-04T16:02:27Z</time>
      </trkpt>
      <trkpt lat="62.632978207761" lon="17.992083374543">
        <ele>90.2</ele>
        <time>2018-03-04T16:02:28Z</time>
      </trkpt>
      <trkpt lat="62.633007460592" lon="17.992099300153">
        <ele>90.2</ele>
        <time>2018-03-04T16:02:29Z</time>
      </trkpt>
      <trkpt lat="62.633031181369" lon="17.992108352605">
        <ele>90.2</ele>
        <time>2018-03-04T16:02:30Z</time>
      </trkpt>
      <trkpt lat="62.633052974309" lon="17.992129977907">
        <ele>90.2</ele>
        <time>2018-03-04T16:02:31Z</time>
      </trkpt>
      <trkpt lat="62.633082981511" lon="17.992145819698">
        <ele>90.6</ele>
        <time>2018-03-04T16:02:32Z</time>
      </trkpt>
      <trkpt lat="62.633113072532" lon="17.992153950141">
        <ele>90.6</ele>
        <time>2018-03-04T16:02:33Z</time>
      </trkpt>
      <trkpt lat="62.633141151897" lon="17.992173060873">
        <ele>90.6</ele>
        <time>2018-03-04T16:02:34Z</time>
      </trkpt>
      <trkpt lat="62.633170572366" lon="17.992179263479">
        <ele>90.4</ele>
        <time>2018-03-04T16:02:35Z</time>
      </trkpt>
      <trkpt lat="62.633195801885" lon="17.992189489397">
        <ele>90.4</ele>
        <time>2018-03-04T16:02:36Z</time>
      </trkpt>
      <trkpt lat="62.633224048888" lon="17.992200553505">
        <ele>90.4</ele>
        <time>2018-03-04T16:02:37Z</time>
      </trkpt>
      <trkpt lat="62.633252882624" lon="17.992212036708">
        <ele>90.2</ele>
        <time>2018-03-04T16:02:38Z</time>
      </trkpt>
      <trkpt lat="62.633281045808" lon="17.992210947061">
        <ele>90.2</ele>
        <time>2018-03-04T16:02:39Z</time>
      </trkpt>
      <trkpt lat="62.633313148485" lon="17.992206672292">
        <ele>90.2</ele>
        <time>2018-03-04T16:02:40Z</time>
      </trkpt>
      <trkpt lat="62.633351369949" lon="17.992209857414">
        <ele>90.2</ele>
        <time>2018-03-04T16:02:41Z</time>
      </trkpt>
      <trkpt lat="62.63337978459" lon="17.992208264853">
        <ele>90</ele>
        <time>2018-03-04T16:02:42Z</time>
      </trkpt>
      <trkpt lat="62.633418928063" lon="17.992229890155">
        <ele>90</ele>
        <time>2018-03-04T16:02:43Z</time>
      </trkpt>
      <trkpt lat="62.633458071536" lon="17.992255622588">
        <ele>89.8</ele>
        <time>2018-03-04T16:02:44Z</time>
      </trkpt>
      <trkpt lat="62.63349377843" lon="17.992281522659">
        <ele>89.8</ele>
        <time>2018-03-04T16:02:45Z</time>
      </trkpt>
      <trkpt lat="62.633525797288" lon="17.992302561228">
        <ele>89.6</ele>
        <time>2018-03-04T16:02:46Z</time>
      </trkpt>
      <trkpt lat="62.633560079259" lon="17.992347069117">
        <ele>89.6</ele>
        <time>2018-03-04T16:02:47Z</time>
      </trkpt>
      <trkpt lat="62.633595702334" lon="17.992397528155">
        <ele>89.4</ele>
        <time>2018-03-04T16:02:48Z</time>
      </trkpt>
      <trkpt lat="62.633628978477" lon="17.992449495935">
        <ele>89.2</ele>
        <time>2018-03-04T16:02:49Z</time>
      </trkpt>
      <trkpt lat="62.633659823869" lon="17.992505822303">
        <ele>89</ele>
        <time>2018-03-04T16:02:50Z</time>
      </trkpt>
      <trkpt lat="62.633694022021" lon="17.992545720147">
        <ele>88.8</ele>
        <time>2018-03-04T16:02:51Z</time>
      </trkpt>
      <trkpt lat="62.633723274852" lon="17.992597855565">
        <ele>88.6</ele>
        <time>2018-03-04T16:02:52Z</time>
      </trkpt>
      <trkpt lat="62.633755461348" lon="17.992664324032">
        <ele>88.4</ele>
        <time>2018-03-04T16:02:53Z</time>
      </trkpt>
      <trkpt lat="62.633783289256" lon="17.992727020644">
        <ele>88.2</ele>
        <time>2018-03-04T16:02:54Z</time>
      </trkpt>
      <trkpt lat="62.6338064233" lon="17.992796422776">
        <ele>87.8</ele>
        <time>2018-03-04T16:02:55Z</time>
      </trkpt>
      <trkpt lat="62.633834586484" lon="17.992860544311">
        <ele>87.4</ele>
        <time>2018-03-04T16:02:56Z</time>
      </trkpt>
      <trkpt lat="62.633869371369" lon="17.992920223439">
        <ele>86.8</ele>
        <time>2018-03-04T16:02:57Z</time>
      </trkpt>
      <trkpt lat="62.633906838462" lon="17.99297797473">
        <ele>86.6</ele>
        <time>2018-03-04T16:02:58Z</time>
      </trkpt>
      <trkpt lat="62.633944221736" lon="17.993029355777">
        <ele>86.2</ele>
        <time>2018-03-04T16:02:59Z</time>
      </trkpt>
      <trkpt lat="62.633974480395" lon="17.993087526163">
        <ele>85.8</ele>
        <time>2018-03-04T16:03:00Z</time>
      </trkpt>
      <trkpt lat="62.634007002167" lon="17.993145109816">
        <ele>85.4</ele>
        <time>2018-03-04T16:03:01Z</time>
      </trkpt>
      <trkpt lat="62.634037344645" lon="17.993195149759">
        <ele>85.2</ele>
        <time>2018-03-04T16:03:02Z</time>
      </trkpt>
      <trkpt lat="62.634079086507" lon="17.99325793019">
        <ele>84.6</ele>
        <time>2018-03-04T16:03:03Z</time>
      </trkpt>
      <trkpt lat="62.634120493093" lon="17.993306126115">
        <ele>84.2</ele>
        <time>2018-03-04T16:03:04Z</time>
      </trkpt>
      <trkpt lat="62.634165420077" lon="17.99334594014">
        <ele>83.6</ele>
        <time>2018-03-04T16:03:05Z</time>
      </trkpt>
      <trkpt lat="62.634214538011" lon="17.993371756392">
        <ele>83.2</ele>
        <time>2018-03-04T16:03:06Z</time>
      </trkpt>
      <trkpt lat="62.634261392832" lon="17.993394052246">
        <ele>83</ele>
        <time>2018-03-04T16:03:07Z</time>
      </trkpt>
      <trkpt lat="62.634314114983" lon="17.993423640353">
        <ele>82.6</ele>
        <time>2018-03-04T16:03:08Z</time>
      </trkpt>
      <trkpt lat="62.634365579849" lon="17.993453312279">
        <ele>82</ele>
        <time>2018-03-04T16:03:09Z</time>
      </trkpt>
      <trkpt lat="62.634420900389" lon="17.993482900386">
        <ele>81.8</ele>
        <time>2018-03-04T16:03:10Z</time>
      </trkpt>
      <trkpt lat="62.634484016096" lon="17.993512320855">
        <ele>81.4</ele>
        <time>2018-03-04T16:03:11Z</time>
      </trkpt>
      <trkpt lat="62.634541096835" lon="17.993535622537">
        <ele>81</ele>
        <time>2018-03-04T16:03:12Z</time>
      </trkpt>
      <trkpt lat="62.634606810931" lon="17.993563534264">
        <ele>80.6</ele>
        <time>2018-03-04T16:03:13Z</time>
      </trkpt>
      <trkpt lat="62.634672189751" lon="17.993584572833">
        <ele>80</ele>
        <time>2018-03-04T16:03:14Z</time>
      </trkpt>
      <trkpt lat="62.634737987666" lon="17.993601671909">
        <ele>79.6</ele>
        <time>2018-03-04T16:03:15Z</time>
      </trkpt>
      <trkpt lat="62.634798756441" lon="17.99361248456">
        <ele>78.6</ele>
        <time>2018-03-04T16:03:16Z</time>
      </trkpt>
      <trkpt lat="62.634850137488" lon="17.993622375202">
        <ele>77.8</ele>
        <time>2018-03-04T16:03:17Z</time>
      </trkpt>
      <trkpt lat="62.634914259023" lon="17.993639222821">
        <ele>77</ele>
        <time>2018-03-04T16:03:18Z</time>
      </trkpt>
      <trkpt lat="62.634965053337" lon="17.993658501191">
        <ele>76.4</ele>
        <time>2018-03-04T16:03:19Z</time>
      </trkpt>
      <trkpt lat="62.635010818511" lon="17.993666883091">
        <ele>75.8</ele>
        <time>2018-03-04T16:03:20Z</time>
      </trkpt>
      <trkpt lat="62.635058008608" lon="17.993693286076">
        <ele>75.8</ele>
        <time>2018-03-04T16:03:21Z</time>
      </trkpt>
      <trkpt lat="62.635107042723" lon="17.993708624953">
        <ele>75.6</ele>
        <time>2018-03-04T16:03:22Z</time>
      </trkpt>
      <trkpt lat="62.635166470394" lon="17.993718180319">
        <ele>76</ele>
        <time>2018-03-04T16:03:23Z</time>
      </trkpt>
      <trkpt lat="62.635218941088" lon="17.993732261911">
        <ele>75.8</ele>
        <time>2018-03-04T16:03:24Z</time>
      </trkpt>
      <trkpt lat="62.635276776198" lon="17.993745589132">
        <ele>75.6</ele>
        <time>2018-03-04T16:03:25Z</time>
      </trkpt>
      <trkpt lat="62.635324217752" lon="17.99376252057">
        <ele>74.8</ele>
        <time>2018-03-04T16:03:26Z</time>
      </trkpt>
      <trkpt lat="62.635365624338" lon="17.993773584678">
        <ele>74.2</ele>
        <time>2018-03-04T16:03:27Z</time>
      </trkpt>
      <trkpt lat="62.6354073662" lon="17.993764616045">
        <ele>73.6</ele>
        <time>2018-03-04T16:03:28Z</time>
      </trkpt>
      <trkpt lat="62.63546268674" lon="17.993772662669">
        <ele>73.8</ele>
        <time>2018-03-04T16:03:29Z</time>
      </trkpt>
      <trkpt lat="62.635514403063" lon="17.993779619646">
        <ele>73.8</ele>
        <time>2018-03-04T16:03:30Z</time>
      </trkpt>
      <trkpt lat="62.635567125214" lon="17.993789761745">
        <ele>73.4</ele>
        <time>2018-03-04T16:03:31Z</time>
      </trkpt>
      <trkpt lat="62.635611130189" lon="17.993798395102">
        <ele>73.2</ele>
        <time>2018-03-04T16:03:32Z</time>
      </trkpt>
      <trkpt lat="62.635665109625" lon="17.993814153074">
        <ele>73</ele>
        <time>2018-03-04T16:03:33Z</time>
      </trkpt>
      <trkpt lat="62.635718167052" lon="17.993824881906">
        <ele>72.6</ele>
        <time>2018-03-04T16:03:34Z</time>
      </trkpt>
      <trkpt lat="62.635773487592" lon="17.993833599082">
        <ele>72.2</ele>
        <time>2018-03-04T16:03:35Z</time>
      </trkpt>
      <trkpt lat="62.635804752079" lon="17.993844076457">
        <ele>72</ele>
        <time>2018-03-04T16:03:36Z</time>
      </trkpt>
      <trkpt lat="62.635851523081" lon="17.993845333742">
        <ele>71.6</ele>
        <time>2018-03-04T16:03:37Z</time>
      </trkpt>
      <trkpt lat="62.635896533884" lon="17.993838963498">
        <ele>71.6</ele>
        <time>2018-03-04T16:03:38Z</time>
      </trkpt>
      <trkpt lat="62.635939365393" lon="17.99382873758">
        <ele>71.6</ele>
        <time>2018-03-04T16:03:39Z</time>
      </trkpt>
      <trkpt lat="62.635977670676" lon="17.993805938812">
        <ele>71.4</ele>
        <time>2018-03-04T16:03:40Z</time>
      </trkpt>
      <trkpt lat="62.636030728103" lon="17.993782804768">
        <ele>71.4</ele>
        <time>2018-03-04T16:03:41Z</time>
      </trkpt>
      <trkpt lat="62.636083198797" lon="17.993755479774">
        <ele>71</ele>
        <time>2018-03-04T16:03:42Z</time>
      </trkpt>
      <trkpt lat="62.636133071102" lon="17.993715498111">
        <ele>70.4</ele>
        <time>2018-03-04T16:03:43Z</time>
      </trkpt>
      <trkpt lat="62.636191157669" lon="17.993695884465">
        <ele>69.6</ele>
        <time>2018-03-04T16:03:44Z</time>
      </trkpt>
      <trkpt lat="62.636243125449" lon="17.993640396287">
        <ele>69</ele>
        <time>2018-03-04T16:03:45Z</time>
      </trkpt>
      <trkpt lat="62.636290315546" lon="17.993580214245">
        <ele>68.6</ele>
        <time>2018-03-04T16:03:46Z</time>
      </trkpt>
      <trkpt lat="62.636327028268" lon="17.993531347768">
        <ele>68.6</ele>
        <time>2018-03-04T16:03:47Z</time>
      </trkpt>
      <trkpt lat="62.63637379927" lon="17.993461191265">
        <ele>68.6</ele>
        <time>2018-03-04T16:03:48Z</time>
      </trkpt>
      <trkpt lat="62.636407494508" lon="17.993414001168">
        <ele>68.8</ele>
        <time>2018-03-04T16:03:49Z</time>
      </trkpt>
      <trkpt lat="62.636451415664" lon="17.993360021732">
        <ele>68.8</ele>
        <time>2018-03-04T16:03:50Z</time>
      </trkpt>
      <trkpt lat="62.636506400928" lon="17.993294391455">
        <ele>68.2</ele>
        <time>2018-03-04T16:03:51Z</time>
      </trkpt>
      <trkpt lat="62.636554764491" lon="17.993238316544">
        <ele>67.8</ele>
        <time>2018-03-04T16:03:52Z</time>
      </trkpt>
      <trkpt lat="62.636619640397" lon="17.993168327679">
        <ele>66.8</ele>
        <time>2018-03-04T16:03:53Z</time>
      </trkpt>
      <trkpt lat="62.636671943453" lon="17.993091884751">
        <ele>66</ele>
        <time>2018-03-04T16:03:54Z</time>
      </trkpt>
      <trkpt lat="62.636715194057" lon="17.993010496502">
        <ele>65.2</ele>
        <time>2018-03-04T16:03:55Z</time>
      </trkpt>
      <trkpt lat="62.636752744969" lon="17.992944782406">
        <ele>64.4</ele>
        <time>2018-03-04T16:03:56Z</time>
      </trkpt>
      <trkpt lat="62.636784344732" lon="17.992855431352">
        <ele>63.8</ele>
        <time>2018-03-04T16:03:57Z</time>
      </trkpt>
      <trkpt lat="62.636810663898" lon="17.992773540189">
        <ele>63.4</ele>
        <time>2018-03-04T16:03:58Z</time>
      </trkpt>
      <trkpt lat="62.636831618648" lon="17.99268460823">
        <ele>63.4</ele>
        <time>2018-03-04T16:03:59Z</time>
      </trkpt>
      <trkpt lat="62.636840000548" lon="17.992629036233">
        <ele>63.2</ele>
        <time>2018-03-04T16:04:00Z</time>
      </trkpt>
      <trkpt lat="62.636850310285" lon="17.992562567766">
        <ele>63.6</ele>
        <time>2018-03-04T16:04:01Z</time>
      </trkpt>
      <trkpt lat="62.636852992493" lon="17.992502804819">
        <ele>64.2</ele>
        <time>2018-03-04T16:04:02Z</time>
      </trkpt>
      <trkpt lat="62.636858692185" lon="17.992446981365">
        <ele>64.6</ele>
        <time>2018-03-04T16:04:03Z</time>
      </trkpt>
      <trkpt lat="62.636863721325" lon="17.99238118345">
        <ele>64.6</ele>
        <time>2018-03-04T16:04:04Z</time>
      </trkpt>
      <trkpt lat="62.636867912275" lon="17.992313122422">
        <ele>65</ele>
        <time>2018-03-04T16:04:05Z</time>
      </trkpt>
      <trkpt lat="62.636873528148" lon="17.992251347819">
        <ele>65</ele>
        <time>2018-03-04T16:04:06Z</time>
      </trkpt>
      <trkpt lat="62.636880652763" lon="17.99219342889">
        <ele>65</ele>
        <time>2018-03-04T16:04:07Z</time>
      </trkpt>
      <trkpt lat="62.636891549233" lon="17.992129810269">
        <ele>64.8</ele>
        <time>2018-03-04T16:04:08Z</time>
      </trkpt>
      <trkpt lat="62.636899847314" lon="17.99207440591">
        <ele>64.8</ele>
        <time>2018-03-04T16:04:09Z</time>
      </trkpt>
      <trkpt lat="62.6369077263" lon="17.992031909677">
        <ele>64.8</ele>
        <time>2018-03-04T16:04:10Z</time>
      </trkpt>
      <trkpt lat="62.636922646082" lon="17.991966195581">
        <ele>65</ele>
        <time>2018-03-04T16:04:11Z</time>
      </trkpt>
      <trkpt lat="62.636939828977" lon="17.991905845901">
        <ele>65.2</ele>
        <time>2018-03-04T16:04:12Z</time>
      </trkpt>
      <trkpt lat="62.636955251673" lon="17.991849016619">
        <ele>65.4</ele>
        <time>2018-03-04T16:04:13Z</time>
      </trkpt>
      <trkpt lat="62.636976709337" lon="17.991784895084">
        <ele>65.2</ele>
        <time>2018-03-04T16:04:14Z</time>
      </trkpt>
      <trkpt lat="62.636996825897" lon="17.99172823344">
        <ele>65.2</ele>
        <time>2018-03-04T16:04:15Z</time>
      </trkpt>
      <trkpt lat="62.637013924973" lon="17.99168045661">
        <ele>65.2</ele>
        <time>2018-03-04T16:04:16Z</time>
      </trkpt>
      <trkpt lat="62.637024905262" lon="17.991649527399">
        <ele>65.4</ele>
        <time>2018-03-04T16:04:17Z</time>
      </trkpt>
      <trkpt lat="62.637045105641" lon="17.991597978714">
        <ele>65.4</ele>
        <time>2018-03-04T16:04:18Z</time>
      </trkpt>
      <trkpt lat="62.637062539993" lon="17.991535868835">
        <ele>65.4</ele>
        <time>2018-03-04T16:04:19Z</time>
      </trkpt>
      <trkpt lat="62.637080561078" lon="17.991490941851">
        <ele>65.4</ele>
        <time>2018-03-04T16:04:20Z</time>
      </trkpt>
      <trkpt lat="62.637101851104" lon="17.991437716786">
        <ele>65.6</ele>
        <time>2018-03-04T16:04:21Z</time>
      </trkpt>
      <trkpt lat="62.637118531085" lon="17.991385162273">
        <ele>65.8</ele>
        <time>2018-03-04T16:04:22Z</time>
      </trkpt>
      <trkpt lat="62.637135881618" lon="17.991334703235">
        <ele>66</ele>
        <time>2018-03-04T16:04:23Z</time>
      </trkpt>
      <trkpt lat="62.637157339282" lon="17.991273683003">
        <ele>66</ele>
        <time>2018-03-04T16:04:24Z</time>
      </trkpt>
      <trkpt lat="62.63717762348" lon="17.991209980563">
        <ele>66</ele>
        <time>2018-03-04T16:04:25Z</time>
      </trkpt>
      <trkpt lat="62.637199081144" lon="17.99115491148">
        <ele>65.8</ele>
        <time>2018-03-04T16:04:26Z</time>
      </trkpt>
      <trkpt lat="62.637222969559" lon="17.99108785628">
        <ele>65.8</ele>
        <time>2018-03-04T16:04:27Z</time>
      </trkpt>
      <trkpt lat="62.637248282897" lon="17.991010323705">
        <ele>65.6</ele>
        <time>2018-03-04T16:04:28Z</time>
      </trkpt>
      <trkpt lat="62.637265130516" lon="17.990947794731">
        <ele>65.6</ele>
        <time>2018-03-04T16:04:29Z</time>
      </trkpt>
      <trkpt lat="62.637281391402" lon="17.990879901341">
        <ele>65.4</ele>
        <time>2018-03-04T16:04:30Z</time>
      </trkpt>
      <trkpt lat="62.637294634804" lon="17.990826005724">
        <ele>65.2</ele>
        <time>2018-03-04T16:04:31Z</time>
      </trkpt>
      <trkpt lat="62.63730502836" lon="17.990779737636">
        <ele>65.4</ele>
        <time>2018-03-04T16:04:32Z</time>
      </trkpt>
      <trkpt lat="62.63731676302" lon="17.990715616101">
        <ele>65.2</ele>
        <time>2018-03-04T16:04:33Z</time>
      </trkpt>
      <trkpt lat="62.637326318386" lon="17.990645040503">
        <ele>65.2</ele>
        <time>2018-03-04T16:04:34Z</time>
      </trkpt>
      <trkpt lat="62.637337382494" lon="17.990566669738">
        <ele>65.4</ele>
        <time>2018-03-04T16:04:35Z</time>
      </trkpt>
      <trkpt lat="62.637342160177" lon="17.990475809942">
        <ele>65.4</ele>
        <time>2018-03-04T16:04:36Z</time>
      </trkpt>
      <trkpt lat="62.637344507109" lon="17.990413197149">
        <ele>65.4</ele>
        <time>2018-03-04T16:04:37Z</time>
      </trkpt>
      <trkpt lat="62.637353391923" lon="17.990332814728">
        <ele>65.4</ele>
        <time>2018-03-04T16:04:38Z</time>
      </trkpt>
      <trkpt lat="62.637363366384" lon="17.990254024868">
        <ele>65.2</ele>
        <time>2018-03-04T16:04:39Z</time>
      </trkpt>
      <trkpt lat="62.637371580646" lon="17.990193926645">
        <ele>65</ele>
        <time>2018-03-04T16:04:40Z</time>
      </trkpt>
      <trkpt lat="62.637384069677" lon="17.990140533942">
        <ele>65</ele>
        <time>2018-03-04T16:04:41Z</time>
      </trkpt>
      <trkpt lat="62.637399827649" lon="17.990095020225">
        <ele>64.8</ele>
        <time>2018-03-04T16:04:42Z</time>
      </trkpt>
      <trkpt lat="62.637413490146" lon="17.990053278363">
        <ele>65</ele>
        <time>2018-03-04T16:04:43Z</time>
      </trkpt>
      <trkpt lat="62.637429751032" lon="17.990004495705">
        <ele>65</ele>
        <time>2018-03-04T16:04:44Z</time>
      </trkpt>
      <trkpt lat="62.637446095737" lon="17.989949426622">
        <ele>65</ele>
        <time>2018-03-04T16:04:45Z</time>
      </trkpt>
      <trkpt lat="62.637461937528" lon="17.989898716127">
        <ele>65.2</ele>
        <time>2018-03-04T16:04:46Z</time>
      </trkpt>
      <trkpt lat="62.637476270577" lon="17.98985655517">
        <ele>65.2</ele>
        <time>2018-03-04T16:04:47Z</time>
      </trkpt>
      <trkpt lat="62.637494962214" lon="17.989804335933">
        <ele>65.2</ele>
        <time>2018-03-04T16:04:48Z</time>
      </trkpt>
      <trkpt lat="62.637507702702" lon="17.98975932513">
        <ele>65</ele>
        <time>2018-03-04T16:04:49Z</time>
      </trkpt>
      <trkpt lat="62.637523209217" lon="17.989709369006">
        <ele>65.2</ele>
        <time>2018-03-04T16:04:50Z</time>
      </trkpt>
      <trkpt lat="62.637545421252" lon="17.989636614114">
        <ele>65.4</ele>
        <time>2018-03-04T16:04:51Z</time>
      </trkpt>
      <trkpt lat="62.637566292183" lon="17.989594285519">
        <ele>65.4</ele>
        <time>2018-03-04T16:04:52Z</time>
      </trkpt>
      <trkpt lat="62.637594036272" lon="17.989515495659">
        <ele>65.4</ele>
        <time>2018-03-04T16:04:53Z</time>
      </trkpt>
      <trkpt lat="62.6376201878" lon="17.989444417147">
        <ele>65.4</ele>
        <time>2018-03-04T16:04:54Z</time>
      </trkpt>
      <trkpt lat="62.637643489482" lon="17.989394796299">
        <ele>65.2</ele>
        <time>2018-03-04T16:04:55Z</time>
      </trkpt>
      <trkpt lat="62.637674753969" lon="17.989323131054">
        <ele>65</ele>
        <time>2018-03-04T16:04:56Z</time>
      </trkpt>
      <trkpt lat="62.637701911325" lon="17.989243586823">
        <ele>64.8</ele>
        <time>2018-03-04T16:04:57Z</time>
      </trkpt>
      <trkpt lat="62.637731080337" lon="17.989154403407">
        <ele>64.6</ele>
        <time>2018-03-04T16:04:58Z</time>
      </trkpt>
      <trkpt lat="62.637765781403" lon="17.989067147828">
        <ele>64.2</ele>
        <time>2018-03-04T16:04:59Z</time>
      </trkpt>
      <trkpt lat="62.637793274035" lon="17.988982993552">
        <ele>64</ele>
        <time>2018-03-04T16:05:00Z</time>
      </trkpt>
      <trkpt lat="62.63781380969" lon="17.988905544796">
        <ele>63.8</ele>
        <time>2018-03-04T16:05:01Z</time>
      </trkpt>
      <trkpt lat="62.637833171879" lon="17.988837064673">
        <ele>63</ele>
        <time>2018-03-04T16:05:02Z</time>
      </trkpt>
      <trkpt lat="62.637851863516" lon="17.988760118831">
        <ele>62.6</ele>
        <time>2018-03-04T16:05:03Z</time>
      </trkpt>
      <trkpt lat="62.637862759986" lon="17.988696081115">
        <ele>62.6</ele>
        <time>2018-03-04T16:05:04Z</time>
      </trkpt>
      <trkpt lat="62.63787415937" lon="17.988615111961">
        <ele>62.8</ele>
        <time>2018-03-04T16:05:05Z</time>
      </trkpt>
      <trkpt lat="62.637883128003" lon="17.988544117268">
        <ele>62.6</ele>
        <time>2018-03-04T16:05:06Z</time>
      </trkpt>
      <trkpt lat="62.637897293414" lon="17.988458705707">
        <ele>62.8</ele>
        <time>2018-03-04T16:05:07Z</time>
      </trkpt>
      <trkpt lat="62.637912045558" lon="17.988363319685">
        <ele>62.8</ele>
        <time>2018-03-04T16:05:08Z</time>
      </trkpt>
      <trkpt lat="62.637928893177" lon="17.988294923381">
        <ele>62.6</ele>
        <time>2018-03-04T16:05:09Z</time>
      </trkpt>
      <trkpt lat="62.637940711656" lon="17.988211774933">
        <ele>62.2</ele>
        <time>2018-03-04T16:05:10Z</time>
      </trkpt>
      <trkpt lat="62.637954038877" lon="17.988123597345">
        <ele>62</ele>
        <time>2018-03-04T16:05:11Z</time>
      </trkpt>
      <trkpt lat="62.637963342786" lon="17.988047908788">
        <ele>62</ele>
        <time>2018-03-04T16:05:12Z</time>
      </trkpt>
      <trkpt lat="62.637985722459" lon="17.987924694858">
        <ele>61.8</ele>
        <time>2018-03-04T16:05:13Z</time>
      </trkpt>
      <trkpt lat="62.638008521227" lon="17.987811539208">
        <ele>61.6</ele>
        <time>2018-03-04T16:05:14Z</time>
      </trkpt>
      <trkpt lat="62.638035343307" lon="17.98768983402">
        <ele>61.2</ele>
        <time>2018-03-04T16:05:15Z</time>
      </trkpt>
      <trkpt lat="62.638050514546" lon="17.9876160733">
        <ele>60.8</ele>
        <time>2018-03-04T16:05:16Z</time>
      </trkpt>
      <trkpt lat="62.638072475124" lon="17.987535690879">
        <ele>60.2</ele>
        <time>2018-03-04T16:05:17Z</time>
      </trkpt>
      <trkpt lat="62.638090077114" lon="17.987444579626">
        <ele>59.8</ele>
        <time>2018-03-04T16:05:18Z</time>
      </trkpt>
      <trkpt lat="62.63811388171" lon="17.987370315992">
        <ele>59.4</ele>
        <time>2018-03-04T16:05:19Z</time>
      </trkpt>
      <trkpt lat="62.638126706017" lon="17.987293202512">
        <ele>59</ele>
        <time>2018-03-04T16:05:20Z</time>
      </trkpt>
      <trkpt lat="62.638147576948" lon="17.987190859513">
        <ele>58.8</ele>
        <time>2018-03-04T16:05:21Z</time>
      </trkpt>
      <trkpt lat="62.638161490902" lon="17.987099664441">
        <ele>58.8</ele>
        <time>2018-03-04T16:05:22Z</time>
      </trkpt>
      <trkpt lat="62.638173812295" lon="17.987021042219">
        <ele>59</ele>
        <time>2018-03-04T16:05:23Z</time>
      </trkpt>
      <trkpt lat="62.638176829779" lon="17.986905539637">
        <ele>59</ele>
        <time>2018-03-04T16:05:24Z</time>
      </trkpt>
      <trkpt lat="62.638181439824" lon="17.986814176927">
        <ele>59</ele>
        <time>2018-03-04T16:05:25Z</time>
      </trkpt>
      <trkpt lat="62.638177416512" lon="17.986745948261">
        <ele>59</ele>
        <time>2018-03-04T16:05:26Z</time>
      </trkpt>
      <trkpt lat="62.638172052096" lon="17.986654585551">
        <ele>58.8</ele>
        <time>2018-03-04T16:05:27Z</time>
      </trkpt>
      <trkpt lat="62.638173979933" lon="17.986593984414">
        <ele>58.6</ele>
        <time>2018-03-04T16:05:28Z</time>
      </trkpt>
      <trkpt lat="62.638173812295" lon="17.986495329451">
        <ele>58.4</ele>
        <time>2018-03-04T16:05:29Z</time>
      </trkpt>
      <trkpt lat="62.638169369888" lon="17.986416958686">
        <ele>58.2</ele>
        <time>2018-03-04T16:05:30Z</time>
      </trkpt>
      <trkpt lat="62.638167609689" lon="17.986344706708">
        <ele>58.2</ele>
        <time>2018-03-04T16:05:31Z</time>
      </trkpt>
      <trkpt lat="62.638177919426" lon="17.986300450276">
        <ele>58.2</ele>
        <time>2018-03-04T16:05:32Z</time>
      </trkpt>
      <trkpt lat="62.638178506159" lon="17.986218978208">
        <ele>58</ele>
        <time>2018-03-04T16:05:33Z</time>
      </trkpt>
      <trkpt lat="62.638180014901" lon="17.986156616872">
        <ele>58.2</ele>
        <time>2018-03-04T16:05:34Z</time>
      </trkpt>
      <trkpt lat="62.638192503932" lon="17.986095512821">
        <ele>58.4</ele>
        <time>2018-03-04T16:05:35Z</time>
      </trkpt>
      <trkpt lat="62.638197952167" lon="17.986015884771">
        <ele>58.4</ele>
        <time>2018-03-04T16:05:36Z</time>
      </trkpt>
      <trkpt lat="62.638211614664" lon="17.985950422132">
        <ele>58.4</ele>
        <time>2018-03-04T16:05:37Z</time>
      </trkpt>
      <trkpt lat="62.638223768419" lon="17.985897448524">
        <ele>58.2</ele>
        <time>2018-03-04T16:05:38Z</time>
      </trkpt>
      <trkpt lat="62.638242460056" lon="17.985834668093">
        <ele>58.2</ele>
        <time>2018-03-04T16:05:39Z</time>
      </trkpt>
      <trkpt lat="62.638255032906" lon="17.985786220711">
        <ele>58.2</ele>
        <time>2018-03-04T16:05:40Z</time>
      </trkpt>
      <trkpt lat="62.638268024851" lon="17.985739784985">
        <ele>58.2</ele>
        <time>2018-03-04T16:05:41Z</time>
      </trkpt>
      <trkpt lat="62.638278502226" lon="17.985702904625">
        <ele>58</ele>
        <time>2018-03-04T16:05:42Z</time>
      </trkpt>
      <trkpt lat="62.638296942406" lon="17.985646662076">
        <ele>58</ele>
        <time>2018-03-04T16:05:43Z</time>
      </trkpt>
      <trkpt lat="62.638312029826" lon="17.985599304341">
        <ele>57.8</ele>
        <time>2018-03-04T16:05:44Z</time>
      </trkpt>
      <trkpt lat="62.638325776142" lon="17.985563094533">
        <ele>58</ele>
        <time>2018-03-04T16:05:45Z</time>
      </trkpt>
      <trkpt lat="62.638345557426" lon="17.985507438717">
        <ele>58</ele>
        <time>2018-03-04T16:05:46Z</time>
      </trkpt>
      <trkpt lat="62.638357040629" lon="17.985463685199">
        <ele>58.2</ele>
        <time>2018-03-04T16:05:47Z</time>
      </trkpt>
      <trkpt lat="62.638375983723" lon="17.985409454306">
        <ele>58</ele>
        <time>2018-03-04T16:05:48Z</time>
      </trkpt>
      <trkpt lat="62.638394507722" lon="17.985369640281">
        <ele>58</ele>
        <time>2018-03-04T16:05:49Z</time>
      </trkpt>
      <trkpt lat="62.638420743069" lon="17.985315660845">
        <ele>58</ele>
        <time>2018-03-04T16:05:50Z</time>
      </trkpt>
      <trkpt lat="62.638444882941" lon="17.985262854875">
        <ele>57.8</ele>
        <time>2018-03-04T16:05:51Z</time>
      </trkpt>
      <trkpt lat="62.638454689764" lon="17.985209378353">
        <ele>57.8</ele>
        <time>2018-03-04T16:05:52Z</time>
      </trkpt>
      <trkpt lat="62.638487295355" lon="17.985150034501">
        <ele>57.8</ele>
        <time>2018-03-04T16:05:53Z</time>
      </trkpt>
      <trkpt lat="62.638520655317" lon="17.985087756984">
        <ele>57.6</ele>
        <time>2018-03-04T16:05:54Z</time>
      </trkpt>
      <trkpt lat="62.638553512365" lon="17.985024054544">
        <ele>57.6</ele>
        <time>2018-03-04T16:05:55Z</time>
      </trkpt>
      <trkpt lat="62.638591901467" lon="17.984955825878">
        <ele>57.6</ele>
        <time>2018-03-04T16:05:56Z</time>
      </trkpt>
      <trkpt lat="62.638623585049" lon="17.984895727655">
        <ele>57.4</ele>
        <time>2018-03-04T16:05:57Z</time>
      </trkpt>
      <trkpt lat="62.638655100993" lon="17.984843424599">
        <ele>57</ele>
        <time>2018-03-04T16:05:58Z</time>
      </trkpt>
      <trkpt lat="62.638689802059" lon="17.984778045779">
        <ele>56.8</ele>
        <time>2018-03-04T16:05:59Z</time>
      </trkpt>
      <trkpt lat="62.638714780121" lon="17.984716522633">
        <ele>56.6</ele>
        <time>2018-03-04T16:06:00Z</time>
      </trkpt>
      <trkpt lat="62.63874084783" lon="17.984667739975">
        <ele>56.4</ele>
        <time>2018-03-04T16:06:01Z</time>
      </trkpt>
      <trkpt lat="62.6387685081" lon="17.984590710314">
        <ele>56.4</ele>
        <time>2018-03-04T16:06:02Z</time>
      </trkpt>
      <trkpt lat="62.638792145058" lon="17.984525750589">
        <ele>56.2</ele>
        <time>2018-03-04T16:06:03Z</time>
      </trkpt>
      <trkpt lat="62.63881209398" lon="17.984439500838">
        <ele>56</ele>
        <time>2018-03-04T16:06:04Z</time>
      </trkpt>
      <trkpt lat="62.638824918287" lon="17.984348473404">
        <ele>55.8</ele>
        <time>2018-03-04T16:06:05Z</time>
      </trkpt>
      <trkpt lat="62.63884059244" lon="17.984253757934">
        <ele>55.6</ele>
        <time>2018-03-04T16:06:06Z</time>
      </trkpt>
      <trkpt lat="62.638846375951" lon="17.984141859569">
        <ele>55.6</ele>
        <time>2018-03-04T16:06:07Z</time>
      </trkpt>
      <trkpt lat="62.638835730938" lon="17.984049826307">
        <ele>55.2</ele>
        <time>2018-03-04T16:06:08Z</time>
      </trkpt>
      <trkpt lat="62.638841933544" lon="17.983991069188">
        <ele>54.8</ele>
        <time>2018-03-04T16:06:09Z</time>
      </trkpt>
      <trkpt lat="62.638843190829" lon="17.983891408397">
        <ele>54.2</ele>
        <time>2018-03-04T16:06:10Z</time>
      </trkpt>
      <trkpt lat="62.638819218595" lon="17.983838434789">
        <ele>54</ele>
        <time>2018-03-04T16:06:11Z</time>
      </trkpt>
      <trkpt lat="62.638826510848" lon="17.983781437869">
        <ele>53.8</ele>
        <time>2018-03-04T16:06:12Z</time>
      </trkpt>
      <trkpt lat="62.638823241907" lon="17.983706671321">
        <ele>53.8</ele>
        <time>2018-03-04T16:06:13Z</time>
      </trkpt>
      <trkpt lat="62.638807148659" lon="17.983628635832">
        <ele>53.6</ele>
        <time>2018-03-04T16:06:14Z</time>
      </trkpt>
      <trkpt lat="62.638808154487" lon="17.983570884541">
        <ele>53.8</ele>
        <time>2018-03-04T16:06:15Z</time>
      </trkpt>
      <trkpt lat="62.638804969365" lon="17.983506511549">
        <ele>53.8</ele>
        <time>2018-03-04T16:06:16Z</time>
      </trkpt>
      <trkpt lat="62.638797760931" lon="17.983455968692">
        <ele>53.8</ele>
        <time>2018-03-04T16:06:17Z</time>
      </trkpt>
      <trkpt lat="62.638792061239" lon="17.98340081579">
        <ele>53.8</ele>
        <time>2018-03-04T16:06:18Z</time>
      </trkpt>
      <trkpt lat="62.638790552497" lon="17.983329904916">
        <ele>53.8</ele>
        <time>2018-03-04T16:06:19Z</time>
      </trkpt>
      <trkpt lat="62.638794994904" lon="17.983270980159">
        <ele>53.8</ele>
        <time>2018-03-04T16:06:20Z</time>
      </trkpt>
      <trkpt lat="62.638794911085" lon="17.983225801718">
        <ele>54</ele>
        <time>2018-03-04T16:06:21Z</time>
      </trkpt>
      <trkpt lat="62.638792061239" lon="17.98316276983">
        <ele>54</ele>
        <time>2018-03-04T16:06:22Z</time>
      </trkpt>
      <trkpt lat="62.638798263845" lon="17.983086075445">
        <ele>53.8</ele>
        <time>2018-03-04T16:06:23Z</time>
      </trkpt>
      <trkpt lat="62.638801700424" lon="17.983012985277">
        <ele>54</ele>
        <time>2018-03-04T16:06:24Z</time>
      </trkpt>
      <trkpt lat="62.63880287389" lon="17.982933608684">
        <ele>54</ele>
        <time>2018-03-04T16:06:25Z</time>
      </trkpt>
      <trkpt lat="62.638807986849" lon="17.982888933157">
        <ele>54</ele>
        <time>2018-03-04T16:06:26Z</time>
      </trkpt>
      <trkpt lat="62.638810501419" lon="17.982822799966">
        <ele>54</ele>
        <time>2018-03-04T16:06:27Z</time>
      </trkpt>
      <trkpt lat="62.638818464224" lon="17.982751805273">
        <ele>54</ele>
        <time>2018-03-04T16:06:28Z</time>
      </trkpt>
      <trkpt lat="62.638818631862" lon="17.982701932968">
        <ele>54</ele>
        <time>2018-03-04T16:06:29Z</time>
      </trkpt>
      <trkpt lat="62.638825169744" lon="17.982627417877">
        <ele>54</ele>
        <time>2018-03-04T16:06:30Z</time>
      </trkpt>
      <trkpt lat="62.63882299045" lon="17.982563128704">
        <ele>54</ele>
        <time>2018-03-04T16:06:31Z</time>
      </trkpt>
      <trkpt lat="62.638823912459" lon="17.982519626643">
        <ele>54.2</ele>
        <time>2018-03-04T16:06:32Z</time>
      </trkpt>
      <trkpt lat="62.638832964911" lon="17.982438489851">
        <ele>54.2</ele>
        <time>2018-03-04T16:06:33Z</time>
      </trkpt>
      <trkpt lat="62.638840843897" lon="17.982380151827">
        <ele>54.2</ele>
        <time>2018-03-04T16:06:34Z</time>
      </trkpt>
      <trkpt lat="62.638852578557" lon="17.982328016409">
        <ele>54.2</ele>
        <time>2018-03-04T16:06:35Z</time>
      </trkpt>
      <trkpt lat="62.638873365669" lon="17.982257440811">
        <ele>54.4</ele>
        <time>2018-03-04T16:06:36Z</time>
      </trkpt>
      <trkpt lat="62.638886106157" lon="17.982204131927">
        <ele>54.2</ele>
        <time>2018-03-04T16:06:37Z</time>
      </trkpt>
      <trkpt lat="62.638902450862" lon="17.982150571586">
        <ele>54.2</ele>
        <time>2018-03-04T16:06:38Z</time>
      </trkpt>
      <trkpt lat="62.638919969033" lon="17.982091060096">
        <ele>54.2</ele>
        <time>2018-03-04T16:06:39Z</time>
      </trkpt>
      <trkpt lat="62.63894117524" lon="17.982034063176">
        <ele>54.2</ele>
        <time>2018-03-04T16:06:40Z</time>
      </trkpt>
      <trkpt lat="62.638965650388" lon="17.981965666872">
        <ele>54.2</ele>
        <time>2018-03-04T16:06:41Z</time>
      </trkpt>
      <trkpt lat="62.638986605138" lon="17.981906909753">
        <ele>54</ele>
        <time>2018-03-04T16:06:42Z</time>
      </trkpt>
      <trkpt lat="62.639005296775" lon="17.981845302788">
        <ele>54.2</ele>
        <time>2018-03-04T16:06:43Z</time>
      </trkpt>
      <trkpt lat="62.639028598457" lon="17.981756203191">
        <ele>54</ele>
        <time>2018-03-04T16:06:44Z</time>
      </trkpt>
      <trkpt lat="62.639040752212" lon="17.981678167702">
        <ele>54</ele>
        <time>2018-03-04T16:06:45Z</time>
      </trkpt>
      <trkpt lat="62.639058102745" lon="17.981625445551">
        <ele>54</ele>
        <time>2018-03-04T16:06:46Z</time>
      </trkpt>
      <trkpt lat="62.63907947659" lon="17.981561575473">
        <ele>54</ele>
        <time>2018-03-04T16:06:47Z</time>
      </trkpt>
      <trkpt lat="62.639105041385" lon="17.981475325722">
        <ele>53.8</ele>
        <time>2018-03-04T16:06:48Z</time>
      </trkpt>
      <trkpt lat="62.639133456026" lon="17.981397206414">
        <ele>53.6</ele>
        <time>2018-03-04T16:06:49Z</time>
      </trkpt>
      <trkpt lat="62.639158769364" lon="17.981313890328">
        <ele>53.4</ele>
        <time>2018-03-04T16:06:50Z</time>
      </trkpt>
      <trkpt lat="62.639184082702" lon="17.981244823472">
        <ele>53.2</ele>
        <time>2018-03-04T16:06:51Z</time>
      </trkpt>
      <trkpt lat="62.639211323877" lon="17.98117206858">
        <ele>52.8</ele>
        <time>2018-03-04T16:06:52Z</time>
      </trkpt>
      <trkpt lat="62.639244097106" lon="17.981089842141">
        <ele>52.4</ele>
        <time>2018-03-04T16:06:53Z</time>
      </trkpt>
      <trkpt lat="62.639266141503" lon="17.981031001203">
        <ele>52.2</ele>
        <time>2018-03-04T16:06:54Z</time>
      </trkpt>
      <trkpt lat="62.639294639963" lon="17.980960257967">
        <ele>52</ele>
        <time>2018-03-04T16:06:55Z</time>
      </trkpt>
      <trkpt lat="62.639325233898" lon="17.980895130604">
        <ele>51.8</ele>
        <time>2018-03-04T16:06:56Z</time>
      </trkpt>
      <trkpt lat="62.639355911652" lon="17.980828075404">
        <ele>51.8</ele>
        <time>2018-03-04T16:06:57Z</time>
      </trkpt>
      <trkpt lat="62.639380805895" lon="17.980745178413">
        <ele>51.8</ele>
        <time>2018-03-04T16:06:58Z</time>
      </trkpt>
      <trkpt lat="62.639397821152" lon="17.980655575902">
        <ele>51.6</ele>
        <time>2018-03-04T16:06:59Z</time>
      </trkpt>
      <trkpt lat="62.639415926056" lon="17.980556585663">
        <ele>51.6</ele>
        <time>2018-03-04T16:07:00Z</time>
      </trkpt>
      <trkpt lat="62.639437467539" lon="17.980476287061">
        <ele>51.6</ele>
        <time>2018-03-04T16:07:01Z</time>
      </trkpt>
      <trkpt lat="62.639459931031" lon="17.980394647355">
        <ele>51.4</ele>
        <time>2018-03-04T16:07:02Z</time>
      </trkpt>
      <trkpt lat="62.639486417835" lon="17.980300434799">
        <ele>51.4</ele>
        <time>2018-03-04T16:07:03Z</time>
      </trkpt>
      <trkpt lat="62.639498823047" lon="17.980232122314">
        <ele>51.2</ele>
        <time>2018-03-04T16:07:04Z</time>
      </trkpt>
      <trkpt lat="62.639515167752" lon="17.980137490663">
        <ele>51.2</ele>
        <time>2018-03-04T16:07:05Z</time>
      </trkpt>
      <trkpt lat="62.639530338991" lon="17.980073369128">
        <ele>51</ele>
        <time>2018-03-04T16:07:06Z</time>
      </trkpt>
      <trkpt lat="62.639535116674" lon="17.980002039159">
        <ele>50.8</ele>
        <time>2018-03-04T16:07:07Z</time>
      </trkpt>
      <trkpt lat="62.639551796655" lon="17.979912688105">
        <ele>50.6</ele>
        <time>2018-03-04T16:07:08Z</time>
      </trkpt>
      <trkpt lat="62.639567973722" lon="17.979842363964">
        <ele>50.4</ele>
        <time>2018-03-04T16:07:09Z</time>
      </trkpt>
      <trkpt lat="62.639586330083" lon="17.979792910754">
        <ele>50.2</ele>
        <time>2018-03-04T16:07:10Z</time>
      </trkpt>
      <trkpt lat="62.639607368652" lon="17.979722083699">
        <ele>50.2</ele>
        <time>2018-03-04T16:07:11Z</time>
      </trkpt>
      <trkpt lat="62.639626395565" lon="17.979656453422">
        <ele>49.8</ele>
        <time>2018-03-04T16:07:12Z</time>
      </trkpt>
      <trkpt lat="62.639649026695" lon="17.979598199217">
        <ele>49.8</ele>
        <time>2018-03-04T16:07:13Z</time>
      </trkpt>
      <trkpt lat="62.639675262042" lon="17.979524354678">
        <ele>49.8</ele>
        <time>2018-03-04T16:07:14Z</time>
      </trkpt>
      <trkpt lat="62.639697390258" lon="17.979454533451">
        <ele>49.8</ele>
        <time>2018-03-04T16:07:15Z</time>
      </trkpt>
      <trkpt lat="62.639720859578" lon="17.979396279246">
        <ele>49.6</ele>
        <time>2018-03-04T16:07:16Z</time>
      </trkpt>
      <trkpt lat="62.639743490708" lon="17.979322602345">
        <ele>49.6</ele>
        <time>2018-03-04T16:07:17Z</time>
      </trkpt>
      <trkpt lat="62.63977014515" lon="17.979254792774">
        <ele>49.6</ele>
        <time>2018-03-04T16:07:18Z</time>
      </trkpt>
      <trkpt lat="62.639799230343" lon="17.979174494172">
        <ele>49.4</ele>
        <time>2018-03-04T16:07:19Z</time>
      </trkpt>
      <trkpt lat="62.63982630388" lon="17.979096458683">
        <ele>49.2</ele>
        <time>2018-03-04T16:07:20Z</time>
      </trkpt>
      <trkpt lat="62.639844073508" lon="17.979045412912">
        <ele>49.2</ele>
        <time>2018-03-04T16:07:21Z</time>
      </trkpt>
      <trkpt lat="62.639870476493" lon="17.978968718527">
        <ele>49</ele>
        <time>2018-03-04T16:07:22Z</time>
      </trkpt>
      <trkpt lat="62.639900735152" lon="17.978903004431">
        <ele>48.8</ele>
        <time>2018-03-04T16:07:23Z</time>
      </trkpt>
      <trkpt lat="62.639926216128" lon="17.978851204289">
        <ele>48.8</ele>
        <time>2018-03-04T16:07:24Z</time>
      </trkpt>
      <trkpt lat="62.639959995185" lon="17.978805271477">
        <ele>48.8</ele>
        <time>2018-03-04T16:07:25Z</time>
      </trkpt>
      <trkpt lat="62.639987655455" lon="17.97877233061">
        <ele>48.6</ele>
        <time>2018-03-04T16:07:26Z</time>
      </trkpt>
      <trkpt lat="62.640029564955" lon="17.978730002015">
        <ele>48.4</ele>
        <time>2018-03-04T16:07:27Z</time>
      </trkpt>
      <trkpt lat="62.640069881894" lon="17.978686583773">
        <ele>48.4</ele>
        <time>2018-03-04T16:07:28Z</time>
      </trkpt>
      <trkpt lat="62.640113467774" lon="17.978641321513">
        <ele>48.4</ele>
        <time>2018-03-04T16:07:29Z</time>
      </trkpt>
      <trkpt lat="62.640150599591" lon="17.978576780883">
        <ele>48.2</ele>
        <time>2018-03-04T16:07:30Z</time>
      </trkpt>
      <trkpt lat="62.64020684214" lon="17.978501930516">
        <ele>47.8</ele>
        <time>2018-03-04T16:07:31Z</time>
      </trkpt>
      <trkpt lat="62.64023953155" lon="17.978456919713">
        <ele>47.6</ele>
        <time>2018-03-04T16:07:32Z</time>
      </trkpt>
      <trkpt lat="62.640279848489" lon="17.97840185063">
        <ele>47.2</ele>
        <time>2018-03-04T16:07:33Z</time>
      </trkpt>
      <trkpt lat="62.640319243419" lon="17.978345272805">
        <ele>47</ele>
        <time>2018-03-04T16:07:34Z</time>
      </trkpt>
      <trkpt lat="62.640345562585" lon="17.978311409929">
        <ele>46.6</ele>
        <time>2018-03-04T16:07:35Z</time>
      </trkpt>
      <trkpt lat="62.640385879524" lon="17.978261369986">
        <ele>46.2</ele>
        <time>2018-03-04T16:07:36Z</time>
      </trkpt>
      <trkpt lat="62.640416892554" lon="17.978217867925">
        <ele>46</ele>
        <time>2018-03-04T16:07:37Z</time>
      </trkpt>
      <trkpt lat="62.640448408498" lon="17.978148046698">
        <ele>45.6</ele>
        <time>2018-03-04T16:07:38Z</time>
      </trkpt>
      <trkpt lat="62.64048931217" lon="17.978094570176">
        <ele>45.4</ele>
        <time>2018-03-04T16:07:39Z</time>
      </trkpt>
      <trkpt lat="62.640511691843" lon="17.97804059074">
        <ele>45.2</ele>
        <time>2018-03-04T16:07:40Z</time>
      </trkpt>
      <trkpt lat="62.640547650194" lon="17.977987281856">
        <ele>45.2</ele>
        <time>2018-03-04T16:07:41Z</time>
      </trkpt>
      <trkpt lat="62.640572544437" lon="17.977944450347">
        <ele>44.8</ele>
        <time>2018-03-04T16:07:42Z</time>
      </trkpt>
      <trkpt lat="62.640611101177" lon="17.977874880577">
        <ele>44.8</ele>
        <time>2018-03-04T16:07:43Z</time>
      </trkpt>
      <trkpt lat="62.640656363437" lon="17.977802796237">
        <ele>44.6</ele>
        <time>2018-03-04T16:07:44Z</time>
      </trkpt>
      <trkpt lat="62.640695003996" lon="17.977759461814">
        <ele>44.4</ele>
        <time>2018-03-04T16:07:45Z</time>
      </trkpt>
      <trkpt lat="62.640733057822" lon="17.977695675555">
        <ele>44.4</ele>
        <time>2018-03-04T16:07:46Z</time>
      </trkpt>
      <trkpt lat="62.640763987033" lon="17.977656532082">
        <ele>44.2</ele>
        <time>2018-03-04T16:07:47Z</time>
      </trkpt>
      <trkpt lat="62.640810758035" lon="17.977597607325">
        <ele>44</ele>
        <time>2018-03-04T16:07:48Z</time>
      </trkpt>
      <trkpt lat="62.640838669762" lon="17.977530300668">
        <ele>43.8</ele>
        <time>2018-03-04T16:07:49Z</time>
      </trkpt>
      <trkpt lat="62.640877813235" lon="17.977463329287">
        <ele>43.4</ele>
        <time>2018-03-04T16:07:50Z</time>
      </trkpt>
      <trkpt lat="62.640909999731" lon="17.977396944639">
        <ele>43.2</ele>
        <time>2018-03-04T16:07:51Z</time>
      </trkpt>
      <trkpt lat="62.640941348037" lon="17.977341456461">
        <ele>42.6</ele>
        <time>2018-03-04T16:07:52Z</time>
      </trkpt>
      <trkpt lat="62.640979988596" lon="17.977265097352">
        <ele>42.2</ele>
        <time>2018-03-04T16:07:53Z</time>
      </trkpt>
      <trkpt lat="62.641011169264" lon="17.977194102659">
        <ele>41.8</ele>
        <time>2018-03-04T16:07:54Z</time>
      </trkpt>
      <trkpt lat="62.641040086819" lon="17.977129981124">
        <ele>41</ele>
        <time>2018-03-04T16:07:55Z</time>
      </trkpt>
      <trkpt lat="62.641070345478" lon="17.977063428838">
        <ele>40.2</ele>
        <time>2018-03-04T16:07:56Z</time>
      </trkpt>
      <trkpt lat="62.641099011576" lon="17.97701213161">
        <ele>39.6</ele>
        <time>2018-03-04T16:07:57Z</time>
      </trkpt>
      <trkpt lat="62.641134969927" lon="17.976958571269">
        <ele>39.2</ele>
        <time>2018-03-04T16:07:58Z</time>
      </trkpt>
      <trkpt lat="62.641179310178" lon="17.976913141371">
        <ele>39</ele>
        <time>2018-03-04T16:07:59Z</time>
      </trkpt>
      <trkpt lat="62.64122105204" lon="17.976869974586">
        <ele>38.8</ele>
        <time>2018-03-04T16:08:00Z</time>
      </trkpt>
      <trkpt lat="62.641269583241" lon="17.976845834714">
        <ele>38.4</ele>
        <time>2018-03-04T16:08:01Z</time>
      </trkpt>
      <trkpt lat="62.641313839673" lon="17.97682772981">
        <ele>38.2</ele>
        <time>2018-03-04T16:08:02Z</time>
      </trkpt>
      <trkpt lat="62.641374356991" lon="17.97679252583">
        <ele>37.8</ele>
        <time>2018-03-04T16:08:03Z</time>
      </trkpt>
      <trkpt lat="62.641424229296" lon="17.976761680438">
        <ele>37.4</ele>
        <time>2018-03-04T16:08:04Z</time>
      </trkpt>
      <trkpt lat="62.641479633655" lon="17.976723626612">
        <ele>37</ele>
        <time>2018-03-04T16:08:05Z</time>
      </trkpt>
      <trkpt lat="62.641534954195" lon="17.976687081528">
        <ele>36.4</ele>
        <time>2018-03-04T16:08:06Z</time>
      </trkpt>
      <trkpt lat="62.641583820672" lon="17.976643076553">
        <ele>36</ele>
        <time>2018-03-04T16:08:07Z</time>
      </trkpt>
      <trkpt lat="62.641635453176" lon="17.976580044665">
        <ele>35.4</ele>
        <time>2018-03-04T16:08:08Z</time>
      </trkpt>
      <trkpt lat="62.641683313825" lon="17.976519108252">
        <ele>35</ele>
        <time>2018-03-04T16:08:09Z</time>
      </trkpt>
      <trkpt lat="62.641732431759" lon="17.976461273142">
        <ele>34.6</ele>
        <time>2018-03-04T16:08:10Z</time>
      </trkpt>
      <trkpt lat="62.641785489186" lon="17.976396313417">
        <ele>34.2</ele>
        <time>2018-03-04T16:08:11Z</time>
      </trkpt>
      <trkpt lat="62.641831170541" lon="17.976339567954">
        <ele>33.6</ele>
        <time>2018-03-04T16:08:12Z</time>
      </trkpt>
      <trkpt lat="62.641880120837" lon="17.976264633768">
        <ele>33.2</ele>
        <time>2018-03-04T16:08:13Z</time>
      </trkpt>
      <trkpt lat="62.64192177888" lon="17.976167822823">
        <ele>32.8</ele>
        <time>2018-03-04T16:08:14Z</time>
      </trkpt>
      <trkpt lat="62.641965448579" lon="17.976099007424">
        <ele>32.2</ele>
        <time>2018-03-04T16:08:15Z</time>
      </trkpt>
      <trkpt lat="62.642003586224" lon="17.976015775157">
        <ele>31.4</ele>
        <time>2018-03-04T16:08:16Z</time>
      </trkpt>
      <trkpt lat="62.64204331643" lon="17.975953078545">
        <ele>30.8</ele>
        <time>2018-03-04T16:08:17Z</time>
      </trkpt>
      <trkpt lat="62.642093440192" lon="17.975873701952">
        <ele>30.2</ele>
        <time>2018-03-04T16:08:18Z</time>
      </trkpt>
      <trkpt lat="62.64214389923" lon="17.975817962317">
        <ele>29.6</ele>
        <time>2018-03-04T16:08:19Z</time>
      </trkpt>
      <trkpt lat="62.642189245309" lon="17.97575736118">
        <ele>29</ele>
        <time>2018-03-04T16:08:20Z</time>
      </trkpt>
      <trkpt lat="62.642241464546" lon="17.975698017328">
        <ele>28.6</ele>
        <time>2018-03-04T16:08:21Z</time>
      </trkpt>
      <trkpt lat="62.642282032942" lon="17.975626771178">
        <ele>28</ele>
        <time>2018-03-04T16:08:22Z</time>
      </trkpt>
      <trkpt lat="62.64233835931" lon="17.975543035997">
        <ele>27.6</ele>
        <time>2018-03-04T16:08:23Z</time>
      </trkpt>
      <trkpt lat="62.642379179163" lon="17.975461312472">
        <ele>27.2</ele>
        <time>2018-03-04T16:08:24Z</time>
      </trkpt>
      <trkpt lat="62.64241295822" lon="17.97536927921">
        <ele>26.6</ele>
        <time>2018-03-04T16:08:25Z</time>
      </trkpt>
      <trkpt lat="62.642440869947" lon="17.975279509061">
        <ele>26</ele>
        <time>2018-03-04T16:08:26Z</time>
      </trkpt>
      <trkpt lat="62.642469619864" lon="17.975197617898">
        <ele>25.6</ele>
        <time>2018-03-04T16:08:27Z</time>
      </trkpt>
      <trkpt lat="62.642492502451" lon="17.975133161087">
        <ele>25.4</ele>
        <time>2018-03-04T16:08:28Z</time>
      </trkpt>
      <trkpt lat="62.642535836874" lon="17.975025705129">
        <ele>25.2</ele>
        <time>2018-03-04T16:08:29Z</time>
      </trkpt>
      <trkpt lat="62.642570286483" lon="17.974934929152">
        <ele>25.2</ele>
        <time>2018-03-04T16:08:30Z</time>
      </trkpt>
      <trkpt lat="62.642603814083" lon="17.974840884234">
        <ele>25.2</ele>
        <time>2018-03-04T16:08:31Z</time>
      </trkpt>
      <trkpt lat="62.642614626734" lon="17.974775505414">
        <ele>25.4</ele>
        <time>2018-03-04T16:08:32Z</time>
      </trkpt>
      <trkpt lat="62.642648321972" lon="17.97468783074">
        <ele>25.2</ele>
        <time>2018-03-04T16:08:33Z</time>
      </trkpt>
      <trkpt lat="62.64267698807" lon="17.974622116644">
        <ele>25.4</ele>
        <time>2018-03-04T16:08:34Z</time>
      </trkpt>
      <trkpt lat="62.642698948648" lon="17.974537040359">
        <ele>25.2</ele>
        <time>2018-03-04T16:08:35Z</time>
      </trkpt>
      <trkpt lat="62.642712694964" lon="17.974430674048">
        <ele>25.2</ele>
        <time>2018-03-04T16:08:36Z</time>
      </trkpt>
      <trkpt lat="62.642735242275" lon="17.974347274143">
        <ele>25.2</ele>
        <time>2018-03-04T16:08:37Z</time>
      </trkpt>
      <trkpt lat="62.642758879233" lon="17.974295054906">
        <ele>24.4</ele>
        <time>2018-03-04T16:08:38Z</time>
      </trkpt>
      <trkpt lat="62.642777403232" lon="17.974206877318">
        <ele>24.2</ele>
        <time>2018-03-04T16:08:39Z</time>
      </trkpt>
      <trkpt lat="62.642800202" lon="17.97414384543">
        <ele>24</ele>
        <time>2018-03-04T16:08:40Z</time>
      </trkpt>
      <trkpt lat="62.642823587501" lon="17.97407595204">
        <ele>23.8</ele>
        <time>2018-03-04T16:08:41Z</time>
      </trkpt>
      <trkpt lat="62.642841608586" lon="17.973973944317">
        <ele>23.4</ele>
        <time>2018-03-04T16:08:42Z</time>
      </trkpt>
      <trkpt lat="62.642859378214" lon="17.973864225246">
        <ele>23.6</ele>
        <time>2018-03-04T16:08:43Z</time>
      </trkpt>
      <trkpt lat="62.642872873073" lon="17.973786860309">
        <ele>23.4</ele>
        <time>2018-03-04T16:08:44Z</time>
      </trkpt>
      <trkpt lat="62.64287731548" lon="17.973656437945">
        <ele>23.2</ele>
        <time>2018-03-04T16:08:45Z</time>
      </trkpt>
      <trkpt lat="62.642883769543" lon="17.97357387623">
        <ele>23</ele>
        <time>2018-03-04T16:08:46Z</time>
      </trkpt>
      <trkpt lat="62.642893324909" lon="17.973505228469">
        <ele>23</ele>
        <time>2018-03-04T16:08:47Z</time>
      </trkpt>
      <trkpt lat="62.642890391244" lon="17.973393833018">
        <ele>22.6</ele>
        <time>2018-03-04T16:08:48Z</time>
      </trkpt>
      <trkpt lat="62.642883937181" lon="17.973317557728">
        <ele>22.4</ele>
        <time>2018-03-04T16:08:49Z</time>
      </trkpt>
      <trkpt lat="62.642878488946" lon="17.973248155596">
        <ele>22.6</ele>
        <time>2018-03-04T16:08:50Z</time>
      </trkpt>
      <trkpt lat="62.642868849761" lon="17.973180429844">
        <ele>22.4</ele>
        <time>2018-03-04T16:08:51Z</time>
      </trkpt>
      <trkpt lat="62.642855019626" lon="17.973121085992">
        <ele>22.2</ele>
        <time>2018-03-04T16:08:52Z</time>
      </trkpt>
      <trkpt lat="62.642838674921" lon="17.973049420747">
        <ele>22.4</ele>
        <time>2018-03-04T16:08:53Z</time>
      </trkpt>
      <trkpt lat="62.64282702408" lon="17.972980605348">
        <ele>22.4</ele>
        <time>2018-03-04T16:08:54Z</time>
      </trkpt>
      <trkpt lat="62.64281528942" lon="17.972903156592">
        <ele>22.4</ele>
        <time>2018-03-04T16:08:55Z</time>
      </trkpt>
      <trkpt lat="62.642808164805" lon="17.972846159672">
        <ele>22.4</ele>
        <time>2018-03-04T16:08:56Z</time>
      </trkpt>
      <trkpt lat="62.64279936381" lon="17.97280274143">
        <ele>22.4</ele>
        <time>2018-03-04T16:08:57Z</time>
      </trkpt>
      <trkpt lat="62.642791317186" lon="17.972744487225">
        <ele>22.6</ele>
        <time>2018-03-04T16:08:58Z</time>
      </trkpt>
      <trkpt lat="62.6427750563" lon="17.972684472821">
        <ele>22.8</ele>
        <time>2018-03-04T16:08:59Z</time>
      </trkpt>
      <trkpt lat="62.642766590581" lon="17.972648179194">
        <ele>23</ele>
        <time>2018-03-04T16:09:00Z</time>
      </trkpt>
      <trkpt lat="62.642757873405" lon="17.972611382653">
        <ele>23.2</ele>
        <time>2018-03-04T16:09:01Z</time>
      </trkpt>
      <trkpt lat="62.642742702166" lon="17.97255128443">
        <ele>23.2</ele>
        <time>2018-03-04T16:09:02Z</time>
      </trkpt>
      <trkpt lat="62.642723172339" lon="17.972495628614">
        <ele>23.2</ele>
        <time>2018-03-04T16:09:03Z</time>
      </trkpt>
      <trkpt lat="62.642712778783" lon="17.972465453774">
        <ele>23.4</ele>
        <time>2018-03-04T16:09:04Z</time>
      </trkpt>
      <trkpt lat="62.642698194277" lon="17.97238448462">
        <ele>23.4</ele>
        <time>2018-03-04T16:09:05Z</time>
      </trkpt>
      <trkpt lat="62.642688135997" lon="17.972323715845">
        <ele>23.4</ele>
        <time>2018-03-04T16:09:06Z</time>
      </trkpt>
      <trkpt lat="62.642677658622" lon="17.972291277892">
        <ele>23.4</ele>
        <time>2018-03-04T16:09:07Z</time>
      </trkpt>
      <trkpt lat="62.642672126568" lon="17.972237466094">
        <ele>23.4</ele>
        <time>2018-03-04T16:09:08Z</time>
      </trkpt>
      <trkpt lat="62.642653267293" lon="17.972168985971">
        <ele>23.4</ele>
        <time>2018-03-04T16:09:09Z</time>
      </trkpt>
      <trkpt lat="62.642640526805" lon="17.972124561901">
        <ele>23.6</ele>
        <time>2018-03-04T16:09:10Z</time>
      </trkpt>
      <trkpt lat="62.642627451041" lon="17.972067481162">
        <ele>23.8</ele>
        <time>2018-03-04T16:09:11Z</time>
      </trkpt>
      <trkpt lat="62.642612112164" lon="17.972002689075">
        <ele>23.8</ele>
        <time>2018-03-04T16:09:12Z</time>
      </trkpt>
      <trkpt lat="62.642600628961" lon="17.971955415159">
        <ele>23.8</ele>
        <time>2018-03-04T16:09:13Z</time>
      </trkpt>
      <trkpt lat="62.642586882645" lon="17.971891042167">
        <ele>23.8</ele>
        <time>2018-03-04T16:09:14Z</time>
      </trkpt>
      <trkpt lat="62.642581602048" lon="17.971837062731">
        <ele>23.8</ele>
        <time>2018-03-04T16:09:15Z</time>
      </trkpt>
      <trkpt lat="62.642580512401" lon="17.971789202082">
        <ele>23.8</ele>
        <time>2018-03-04T16:09:16Z</time>
      </trkpt>
      <trkpt lat="62.64260406554" lon="17.971742179623">
        <ele>23.8</ele>
        <time>2018-03-04T16:09:17Z</time>
      </trkpt>
      <trkpt lat="62.642630133249" lon="17.97173907832">
        <ele>23.6</ele>
        <time>2018-03-04T16:09:18Z</time>
      </trkpt>
      <trkpt lat="62.642657206786" lon="17.971755674482">
        <ele>23.6</ele>
        <time>2018-03-04T16:09:19Z</time>
      </trkpt>
      <trkpt lat="62.64268369359" lon="17.971804960054">
        <ele>23.8</ele>
        <time>2018-03-04T16:09:20Z</time>
      </trkpt>
      <trkpt lat="62.64269878101" lon="17.971863633354">
        <ele>23.8</ele>
        <time>2018-03-04T16:09:21Z</time>
      </trkpt>
      <trkpt lat="62.642722501787" lon="17.97190503994">
        <ele>23.6</ele>
        <time>2018-03-04T16:09:22Z</time>
      </trkpt>
      <trkpt lat="62.642745384374" lon="17.971981063773">
        <ele>23.6</ele>
        <time>2018-03-04T16:09:23Z</time>
      </trkpt>
      <trkpt lat="62.642764411287" lon="17.972042754557">
        <ele>23.2</ele>
        <time>2018-03-04T16:09:24Z</time>
      </trkpt>
      <trkpt lat="62.642786288046" lon="17.972086005161">
        <ele>23</ele>
        <time>2018-03-04T16:09:25Z</time>
      </trkpt>
      <trkpt lat="62.642801543104" lon="17.972159598243">
        <ele>22.8</ele>
        <time>2018-03-04T16:09:26Z</time>
      </trkpt>
      <trkpt lat="62.642815624696" lon="17.972217433353">
        <ele>22.8</ele>
        <time>2018-03-04T16:09:27Z</time>
      </trkpt>
      <trkpt lat="62.642834232514" lon="17.972268311486">
        <ele>22.6</ele>
        <time>2018-03-04T16:09:28Z</time>
      </trkpt>
      <trkpt lat="62.642846805364" lon="17.972355818522">
        <ele>22.6</ele>
        <time>2018-03-04T16:09:29Z</time>
      </trkpt>
      <trkpt lat="62.642861808965" lon="17.972410384691">
        <ele>22.4</ele>
        <time>2018-03-04T16:09:30Z</time>
      </trkpt>
      <trkpt lat="62.642875303824" lon="17.97244986344">
        <ele>22.4</ele>
        <time>2018-03-04T16:09:31Z</time>
      </trkpt>
      <trkpt lat="62.642886116475" lon="17.972513649699">
        <ele>22.4</ele>
        <time>2018-03-04T16:09:32Z</time>
      </trkpt>
      <trkpt lat="62.642906903587" lon="17.972575508121">
        <ele>22.4</ele>
        <time>2018-03-04T16:09:33Z</time>
      </trkpt>
      <trkpt lat="62.642917213324" lon="17.972644994072">
        <ele>22.4</ele>
        <time>2018-03-04T16:09:34Z</time>
      </trkpt>
      <trkpt lat="62.642925427586" lon="17.972728729253">
        <ele>22.4</ele>
        <time>2018-03-04T16:09:35Z</time>
      </trkpt>
      <trkpt lat="62.642942359024" lon="17.972783798336">
        <ele>22.4</ele>
        <time>2018-03-04T16:09:36Z</time>
      </trkpt>
      <trkpt lat="62.642950992381" lon="17.972866276232">
        <ele>22.4</ele>
        <time>2018-03-04T16:09:37Z</time>
      </trkpt>
      <trkpt lat="62.642957111168" lon="17.972953531811">
        <ele>22.2</ele>
        <time>2018-03-04T16:09:38Z</time>
      </trkpt>
      <trkpt lat="62.642966415077" lon="17.97300809798">
        <ele>22.2</ele>
        <time>2018-03-04T16:09:39Z</time>
      </trkpt>
      <trkpt lat="62.642973036778" lon="17.973092168437">
        <ele>22</ele>
        <time>2018-03-04T16:09:40Z</time>
      </trkpt>
      <trkpt lat="62.642983933248" lon="17.973162660216">
        <ele>21.8</ele>
        <time>2018-03-04T16:09:41Z</time>
      </trkpt>
      <trkpt lat="62.642992818062" lon="17.973220662964">
        <ele>21.6</ele>
        <time>2018-03-04T16:09:42Z</time>
      </trkpt>
      <trkpt lat="62.642999523582" lon="17.973299452824">
        <ele>21.6</ele>
        <time>2018-03-04T16:09:43Z</time>
      </trkpt>
      <trkpt lat="62.643011174423" lon="17.973360892151">
        <ele>21.4</ele>
        <time>2018-03-04T16:09:44Z</time>
      </trkpt>
      <trkpt lat="62.643010503871" lon="17.973445716979">
        <ele>21.4</ele>
        <time>2018-03-04T16:09:45Z</time>
      </trkpt>
      <trkpt lat="62.643020729789" lon="17.973507407763">
        <ele>21.4</ele>
        <time>2018-03-04T16:09:46Z</time>
      </trkpt>
      <trkpt lat="62.643023328178" lon="17.97355627424">
        <ele>21.4</ele>
        <time>2018-03-04T16:09:47Z</time>
      </trkpt>
      <trkpt lat="62.643022573807" lon="17.973650486796">
        <ele>21.4</ele>
        <time>2018-03-04T16:09:48Z</time>
      </trkpt>
      <trkpt lat="62.643031793897" lon="17.973704550051">
        <ele>21.4</ele>
        <time>2018-03-04T16:09:49Z</time>
      </trkpt>
      <trkpt lat="62.643030955707" lon="17.973767330482">
        <ele>21.2</ele>
        <time>2018-03-04T16:09:50Z</time>
      </trkpt>
      <trkpt lat="62.643032464449" lon="17.973822231927">
        <ele>21.2</ele>
        <time>2018-03-04T16:09:51Z</time>
      </trkpt>
      <trkpt lat="62.643042690367" lon="17.973869422024">
        <ele>21.2</ele>
        <time>2018-03-04T16:09:52Z</time>
      </trkpt>
      <trkpt lat="62.643038583236" lon="17.973946954599">
        <ele>21</ele>
        <time>2018-03-04T16:09:53Z</time>
      </trkpt>
      <trkpt lat="62.643037745046" lon="17.974021050595">
        <ele>21</ele>
        <time>2018-03-04T16:09:54Z</time>
      </trkpt>
      <trkpt lat="62.643040511073" lon="17.974078634248">
        <ele>21.2</ele>
        <time>2018-03-04T16:09:55Z</time>
      </trkpt>
      <trkpt lat="62.6430348952" lon="17.97414552181">
        <ele>21.2</ele>
        <time>2018-03-04T16:09:56Z</time>
      </trkpt>
      <trkpt lat="62.643031710078" lon="17.974207128775">
        <ele>21</ele>
        <time>2018-03-04T16:09:57Z</time>
      </trkpt>
      <trkpt lat="62.64302483692" lon="17.974273345785">
        <ele>21</ele>
        <time>2018-03-04T16:09:58Z</time>
      </trkpt>
      <trkpt lat="62.643022154712" lon="17.974353728206">
        <ele>21</ele>
        <time>2018-03-04T16:09:59Z</time>
      </trkpt>
      <trkpt lat="62.643027770585" lon="17.974406366538">
        <ele>20.8</ele>
        <time>2018-03-04T16:10:00Z</time>
      </trkpt>
      <trkpt lat="62.643016874115" lon="17.974471493901">
        <ele>20.8</ele>
        <time>2018-03-04T16:10:01Z</time>
      </trkpt>
      <trkpt lat="62.643008743672" lon="17.974519522188">
        <ele>20.6</ele>
        <time>2018-03-04T16:10:02Z</time>
      </trkpt>
      <trkpt lat="62.643004049808" lon="17.974572411977">
        <ele>20.8</ele>
        <time>2018-03-04T16:10:03Z</time>
      </trkpt>
      <trkpt lat="62.643001451419" lon="17.974636952607">
        <ele>20.8</ele>
        <time>2018-03-04T16:10:04Z</time>
      </trkpt>
      <trkpt lat="62.642998601573" lon="17.974697972839">
        <ele>20.8</ele>
        <time>2018-03-04T16:10:05Z</time>
      </trkpt>
      <trkpt lat="62.642993991528" lon="17.974769386627">
        <ele>21</ele>
        <time>2018-03-04T16:10:06Z</time>
      </trkpt>
      <trkpt lat="62.642991979872" lon="17.974830993592">
        <ele>21</ele>
        <time>2018-03-04T16:10:07Z</time>
      </trkpt>
      <trkpt lat="62.642988375655" lon="17.974893606385">
        <ele>21</ele>
        <time>2018-03-04T16:10:08Z</time>
      </trkpt>
      <trkpt lat="62.642983430334" lon="17.974971558055">
        <ele>20.8</ele>
        <time>2018-03-04T16:10:09Z</time>
      </trkpt>
      <trkpt lat="62.642987202189" lon="17.97503065045">
        <ele>20.8</ele>
        <time>2018-03-04T16:10:10Z</time>
      </trkpt>
      <trkpt lat="62.642985106714" lon="17.975092257415">
        <ele>20.8</ele>
        <time>2018-03-04T16:10:11Z</time>
      </trkpt>
      <trkpt lat="62.642973874968" lon="17.975148667602">
        <ele>20.8</ele>
        <time>2018-03-04T16:10:12Z</time>
      </trkpt>
      <trkpt lat="62.642973120597" lon="17.975217650639">
        <ele>20.6</ele>
        <time>2018-03-04T16:10:13Z</time>
      </trkpt>
      <trkpt lat="62.642959625738" lon="17.975265762745">
        <ele>20.6</ele>
        <time>2018-03-04T16:10:14Z</time>
      </trkpt>
      <trkpt lat="62.642942023748" lon="17.975333991411">
        <ele>20.4</ele>
        <time>2018-03-04T16:10:15Z</time>
      </trkpt>
      <trkpt lat="62.64292676869" lon="17.97538101387">
        <ele>20.4</ele>
        <time>2018-03-04T16:10:16Z</time>
      </trkpt>
      <trkpt lat="62.642911932727" lon="17.975416301669">
        <ele>20.4</ele>
        <time>2018-03-04T16:10:17Z</time>
      </trkpt>
      <trkpt lat="62.642895671841" lon="17.97546399468">
        <ele>20.6</ele>
        <time>2018-03-04T16:10:18Z</time>
      </trkpt>
      <trkpt lat="62.642883937181" lon="17.975520237229">
        <ele>20.6</ele>
        <time>2018-03-04T16:10:19Z</time>
      </trkpt>
      <trkpt lat="62.642867424838" lon="17.975562817281">
        <ele>20.8</ele>
        <time>2018-03-04T16:10:20Z</time>
      </trkpt>
      <trkpt lat="62.642860216404" lon="17.975616461441">
        <ele>20.8</ele>
        <time>2018-03-04T16:10:21Z</time>
      </trkpt>
      <trkpt lat="62.642855271083" lon="17.975660382597">
        <ele>21</ele>
        <time>2018-03-04T16:10:22Z</time>
      </trkpt>
      <trkpt lat="62.642850074305" lon="17.975731461109">
        <ele>21.2</ele>
        <time>2018-03-04T16:10:23Z</time>
      </trkpt>
      <trkpt lat="62.642849906667" lon="17.975776891007">
        <ele>21.4</ele>
        <time>2018-03-04T16:10:24Z</time>
      </trkpt>
      <trkpt lat="62.642845715717" lon="17.975846376958">
        <ele>21.4</ele>
        <time>2018-03-04T16:10:25Z</time>
      </trkpt>
      <trkpt lat="62.642845128984" lon="17.975921981696">
        <ele>21.4</ele>
        <time>2018-03-04T16:10:26Z</time>
      </trkpt>
      <trkpt lat="62.642846973002" lon="17.975974871485">
        <ele>21.4</ele>
        <time>2018-03-04T16:10:27Z</time>
      </trkpt>
      <trkpt lat="62.642844206975" lon="17.976043519246">
        <ele>21.4</ele>
        <time>2018-03-04T16:10:28Z</time>
      </trkpt>
      <trkpt lat="62.642849319934" lon="17.976106132039">
        <ele>21.4</ele>
        <time>2018-03-04T16:10:29Z</time>
      </trkpt>
      <trkpt lat="62.642843201147" lon="17.97616136876">
        <ele>21.4</ele>
        <time>2018-03-04T16:10:30Z</time>
      </trkpt>
      <trkpt lat="62.64283456779" lon="17.976241751181">
        <ele>21.4</ele>
        <time>2018-03-04T16:10:31Z</time>
      </trkpt>
      <trkpt lat="62.642834148695" lon="17.976296065893">
        <ele>21.2</ele>
        <time>2018-03-04T16:10:32Z</time>
      </trkpt>
      <trkpt lat="62.642831885582" lon="17.976347614578">
        <ele>21.4</ele>
        <time>2018-03-04T16:10:33Z</time>
      </trkpt>
      <trkpt lat="62.64282618589" lon="17.976414921235">
        <ele>21.4</ele>
        <time>2018-03-04T16:10:34Z</time>
      </trkpt>
      <trkpt lat="62.642820486198" lon="17.97648323372">
        <ele>21.4</ele>
        <time>2018-03-04T16:10:35Z</time>
      </trkpt>
      <trkpt lat="62.642820570017" lon="17.976540146821">
        <ele>21.4</ele>
        <time>2018-03-04T16:10:36Z</time>
      </trkpt>
      <trkpt lat="62.642815205601" lon="17.976610135686">
        <ele>21.4</ele>
        <time>2018-03-04T16:10:37Z</time>
      </trkpt>
      <trkpt lat="62.642808164805" lon="17.976677945257">
        <ele>21.4</ele>
        <time>2018-03-04T16:10:38Z</time>
      </trkpt>
      <trkpt lat="62.64279684924" lon="17.976745922466">
        <ele>21.6</ele>
        <time>2018-03-04T16:10:39Z</time>
      </trkpt>
      <trkpt lat="62.642782432372" lon="17.976812558571">
        <ele>21.4</ele>
        <time>2018-03-04T16:10:40Z</time>
      </trkpt>
      <trkpt lat="62.642773799015" lon="17.976856479727">
        <ele>21.4</ele>
        <time>2018-03-04T16:10:41Z</time>
      </trkpt>
      <trkpt lat="62.642769775703" lon="17.97689981415">
        <ele>21.6</ele>
        <time>2018-03-04T16:10:42Z</time>
      </trkpt>
      <trkpt lat="62.64275996888" lon="17.976957816898">
        <ele>21.4</ele>
        <time>2018-03-04T16:10:43Z</time>
      </trkpt>
      <trkpt lat="62.64275326336" lon="17.977012550705">
        <ele>21.4</ele>
        <time>2018-03-04T16:10:44Z</time>
      </trkpt>
      <trkpt lat="62.64275158698" lon="17.977046245943">
        <ele>21.6</ele>
        <time>2018-03-04T16:10:45Z</time>
      </trkpt>
      <trkpt lat="62.642742785985" lon="17.97710265613">
        <ele>21.6</ele>
        <time>2018-03-04T16:10:46Z</time>
      </trkpt>
      <trkpt lat="62.642736583379" lon="17.97715127115">
        <ele>21.8</ele>
        <time>2018-03-04T16:10:47Z</time>
      </trkpt>
      <trkpt lat="62.642735409913" lon="17.977200975817">
        <ele>22</ele>
        <time>2018-03-04T16:10:48Z</time>
      </trkpt>
      <trkpt lat="62.642729710221" lon="17.977259146203">
        <ele>22</ele>
        <time>2018-03-04T16:10:49Z</time>
      </trkpt>
      <trkpt lat="62.642717975561" lon="17.977320669349">
        <ele>22</ele>
        <time>2018-03-04T16:10:50Z</time>
      </trkpt>
      <trkpt lat="62.642721663597" lon="17.977353107302">
        <ele>22.2</ele>
        <time>2018-03-04T16:10:51Z</time>
      </trkpt>
      <trkpt lat="62.642709006928" lon="17.977401303227">
        <ele>22.2</ele>
        <time>2018-03-04T16:10:52Z</time>
      </trkpt>
      <trkpt lat="62.64269291368" lon="17.977455282663">
        <ele>22.2</ele>
        <time>2018-03-04T16:10:53Z</time>
      </trkpt>
      <trkpt lat="62.642678832088" lon="17.977497024525">
        <ele>22.2</ele>
        <time>2018-03-04T16:10:54Z</time>
      </trkpt>
      <trkpt lat="62.642664918134" lon="17.977532982876">
        <ele>22.2</ele>
        <time>2018-03-04T16:10:55Z</time>
      </trkpt>
      <trkpt lat="62.642652010008" lon="17.977563073897">
        <ele>22.2</ele>
        <time>2018-03-04T16:10:56Z</time>
      </trkpt>
      <trkpt lat="62.642632564" lon="17.977595008936">
        <ele>22.4</ele>
        <time>2018-03-04T16:10:57Z</time>
      </trkpt>
      <trkpt lat="62.642612195983" lon="17.977627698346">
        <ele>22.4</ele>
        <time>2018-03-04T16:10:58Z</time>
      </trkpt>
      <trkpt lat="62.64259736002" lon="17.977652424951">
        <ele>22.6</ele>
        <time>2018-03-04T16:10:59Z</time>
      </trkpt>
      <trkpt lat="62.642584703351" lon="17.977674385529">
        <ele>22.8</ele>
        <time>2018-03-04T16:11:00Z</time>
      </trkpt>
      <trkpt lat="62.642572549596" lon="17.977695675555">
        <ele>23</ele>
        <time>2018-03-04T16:11:01Z</time>
      </trkpt>
      <trkpt lat="62.642557294538" lon="17.977716043572">
        <ele>23</ele>
        <time>2018-03-04T16:11:02Z</time>
      </trkpt>
      <trkpt lat="62.642536675064" lon="17.977740351082">
        <ele>23.2</ele>
        <time>2018-03-04T16:11:03Z</time>
      </trkpt>
      <trkpt lat="62.642516642323" lon="17.977761222013">
        <ele>23.4</ele>
        <time>2018-03-04T16:11:04Z</time>
      </trkpt>
      <trkpt lat="62.642508344242" lon="17.977788630826">
        <ele>23.6</ele>
        <time>2018-03-04T16:11:05Z</time>
      </trkpt>
      <trkpt lat="62.642484623465" lon="17.977825008272">
        <ele>23.6</ele>
        <time>2018-03-04T16:11:06Z</time>
      </trkpt>
      <trkpt lat="62.642464506905" lon="17.977855602207">
        <ele>23.8</ele>
        <time>2018-03-04T16:11:07Z</time>
      </trkpt>
      <trkpt lat="62.642450006218" lon="17.977892063472">
        <ele>24</ele>
        <time>2018-03-04T16:11:08Z</time>
      </trkpt>
      <trkpt lat="62.642431063124" lon="17.977918550276">
        <ele>24.2</ele>
        <time>2018-03-04T16:11:09Z</time>
      </trkpt>
      <trkpt lat="62.642418154998" lon="17.977941768139">
        <ele>24.4</ele>
        <time>2018-03-04T16:11:10Z</time>
      </trkpt>
      <trkpt lat="62.642404911596" lon="17.97796263907">
        <ele>24.6</ele>
        <time>2018-03-04T16:11:11Z</time>
      </trkpt>
      <trkpt lat="62.642381274638" lon="17.978011673185">
        <ele>25</ele>
        <time>2018-03-04T16:11:12Z</time>
      </trkpt>
      <trkpt lat="62.642375072032" lon="17.978032963211">
        <ele>25.2</ele>
        <time>2018-03-04T16:11:13Z</time>
      </trkpt>
      <trkpt lat="62.642360571345" lon="17.97806489825">
        <ele>25.4</ele>
        <time>2018-03-04T16:11:14Z</time>
      </trkpt>
      <trkpt lat="62.642343304631" lon="17.978111585433">
        <ele>25.4</ele>
        <time>2018-03-04T16:11:15Z</time>
      </trkpt>
      <trkpt lat="62.642331486152" lon="17.978132121088">
        <ele>25.4</ele>
        <time>2018-03-04T16:11:16Z</time>
      </trkpt>
      <trkpt lat="62.642322685157" lon="17.978159865177">
        <ele>25.4</ele>
        <time>2018-03-04T16:11:17Z</time>
      </trkpt>
      <trkpt lat="62.642308435927" lon="17.97820906693">
        <ele>25.6</ele>
        <time>2018-03-04T16:11:18Z</time>
      </trkpt>
      <trkpt lat="62.642294019059" lon="17.97825935833">
        <ele>25.6</ele>
        <time>2018-03-04T16:11:19Z</time>
      </trkpt>
      <trkpt lat="62.642287481177" lon="17.978295149043">
        <ele>25.8</ele>
        <time>2018-03-04T16:11:20Z</time>
      </trkpt>
      <trkpt lat="62.642270214463" lon="17.978338399647">
        <ele>26</ele>
        <time>2018-03-04T16:11:21Z</time>
      </trkpt>
      <trkpt lat="62.642262251658" lon="17.978386847029">
        <ele>26</ele>
        <time>2018-03-04T16:11:22Z</time>
      </trkpt>
      <trkpt lat="62.642248924437" lon="17.978414926394">
        <ele>26</ele>
        <time>2018-03-04T16:11:23Z</time>
      </trkpt>
      <trkpt lat="62.642230903352" lon="17.978443508673">
        <ele>26.2</ele>
        <time>2018-03-04T16:11:24Z</time>
      </trkpt>
      <trkpt lat="62.642219168692" lon="17.978473012961">
        <ele>26</ele>
        <time>2018-03-04T16:11:25Z</time>
      </trkpt>
      <trkpt lat="62.64220927805" lon="17.978496482281">
        <ele>26.2</ele>
        <time>2018-03-04T16:11:26Z</time>
      </trkpt>
      <trkpt lat="62.642195280277" lon="17.978520370696">
        <ele>26</ele>
        <time>2018-03-04T16:11:27Z</time>
      </trkpt>
      <trkpt lat="62.642179019391" lon="17.978554987943">
        <ele>26.4</ele>
        <time>2018-03-04T16:11:28Z</time>
      </trkpt>
      <trkpt lat="62.642165440713" lon="17.978573595761">
        <ele>26.4</ele>
        <time>2018-03-04T16:11:29Z</time>
      </trkpt>
      <trkpt lat="62.642144402144" lon="17.978602345678">
        <ele>26.8</ele>
        <time>2018-03-04T16:11:30Z</time>
      </trkpt>
      <trkpt lat="62.642130572009" lon="17.978618858021">
        <ele>27</ele>
        <time>2018-03-04T16:11:31Z</time>
      </trkpt>
      <trkpt lat="62.642114646399" lon="17.978634364536">
        <ele>27.2</ele>
        <time>2018-03-04T16:11:32Z</time>
      </trkpt>
      <trkpt lat="62.642089835975" lon="17.978649703413">
        <ele>27.4</ele>
        <time>2018-03-04T16:11:33Z</time>
      </trkpt>
      <trkpt lat="62.642074664736" lon="17.978663198272">
        <ele>27.8</ele>
        <time>2018-03-04T16:11:34Z</time>
      </trkpt>
      <trkpt lat="62.642052285063" lon="17.978675016751">
        <ele>28</ele>
        <time>2018-03-04T16:11:35Z</time>
      </trkpt>
      <trkpt lat="62.642039712213" lon="17.97867929152">
        <ele>28</ele>
        <time>2018-03-04T16:11:36Z</time>
      </trkpt>
      <trkpt lat="62.642023451327" lon="17.97869018799">
        <ele>28</ele>
        <time>2018-03-04T16:11:37Z</time>
      </trkpt>
      <trkpt lat="62.642003586224" lon="17.978693792207">
        <ele>28.4</ele>
        <time>2018-03-04T16:11:38Z</time>
      </trkpt>
      <trkpt lat="62.64198631951" lon="17.978709131084">
        <ele>28.6</ele>
        <time>2018-03-04T16:11:39Z</time>
      </trkpt>
      <trkpt lat="62.641964358932" lon="17.978714160224">
        <ele>28.4</ele>
        <time>2018-03-04T16:11:40Z</time>
      </trkpt>
      <trkpt lat="62.641943823277" lon="17.978718602631">
        <ele>28.6</ele>
        <time>2018-03-04T16:11:41Z</time>
      </trkpt>
      <trkpt lat="62.641926640382" lon="17.978717512984">
        <ele>28.8</ele>
        <time>2018-03-04T16:11:42Z</time>
      </trkpt>
      <trkpt lat="62.64190836784" lon="17.97872706835">
        <ele>29</ele>
        <time>2018-03-04T16:11:43Z</time>
      </trkpt>
      <trkpt lat="62.641891184945" lon="17.978736204621">
        <ele>29.2</ele>
        <time>2018-03-04T16:11:44Z</time>
      </trkpt>
      <trkpt lat="62.641872996222" lon="17.978737042811">
        <ele>29.4</ele>
        <time>2018-03-04T16:11:45Z</time>
      </trkpt>
      <trkpt lat="62.641850029816" lon="17.978748358376">
        <ele>29.6</ele>
        <time>2018-03-04T16:11:46Z</time>
      </trkpt>
      <trkpt lat="62.641839384803" lon="17.978755902086">
        <ele>29.8</ele>
        <time>2018-03-04T16:11:47Z</time>
      </trkpt>
      <trkpt lat="62.64182035789" lon="17.978764954538">
        <ele>29.8</ele>
        <time>2018-03-04T16:11:48Z</time>
      </trkpt>
      <trkpt lat="62.641797391484" lon="17.978773755533">
        <ele>30.2</ele>
        <time>2018-03-04T16:11:49Z</time>
      </trkpt>
      <trkpt lat="62.641784734815" lon="17.978788675315">
        <ele>30.4</ele>
        <time>2018-03-04T16:11:50Z</time>
      </trkpt>
      <trkpt lat="62.641759505296" lon="17.978810803531">
        <ele>30.6</ele>
        <time>2018-03-04T16:11:51Z</time>
      </trkpt>
      <trkpt lat="62.641742909134" lon="17.97881172554">
        <ele>30.8</ele>
        <time>2018-03-04T16:11:52Z</time>
      </trkpt>
      <trkpt lat="62.641723044031" lon="17.978818347241">
        <ele>31.2</ele>
        <time>2018-03-04T16:11:53Z</time>
      </trkpt>
      <trkpt lat="62.641703681842" lon="17.978834943403">
        <ele>31.2</ele>
        <time>2018-03-04T16:11:54Z</time>
      </trkpt>
      <trkpt lat="62.641686331309" lon="17.978835027222">
        <ele>31.6</ele>
        <time>2018-03-04T16:11:55Z</time>
      </trkpt>
      <trkpt lat="62.641663281084" lon="17.978844331131">
        <ele>32</ele>
        <time>2018-03-04T16:11:56Z</time>
      </trkpt>
      <trkpt lat="62.641648612759" lon="17.978841229828">
        <ele>32</ele>
        <time>2018-03-04T16:11:57Z</time>
      </trkpt>
      <trkpt lat="62.641637883927" lon="17.978843325303">
        <ele>32.2</ele>
        <time>2018-03-04T16:11:58Z</time>
      </trkpt>
      <trkpt lat="62.641627071276" lon="17.978843660579">
        <ele>32.4</ele>
        <time>2018-03-04T16:11:59Z</time>
      </trkpt>
      <trkpt lat="62.641612402951" lon="17.978841984199">
        <ele>32.6</ele>
        <time>2018-03-04T16:12:00Z</time>
      </trkpt>
      <trkpt lat="62.641600668291" lon="17.978843157665">
        <ele>32.8</ele>
        <time>2018-03-04T16:12:01Z</time>
      </trkpt>
      <trkpt lat="62.641589604183" lon="17.978844331131">
        <ele>32.8</ele>
        <time>2018-03-04T16:12:02Z</time>
      </trkpt>
      <trkpt lat="62.641570493451" lon="17.978839972543">
        <ele>33</ele>
        <time>2018-03-04T16:12:03Z</time>
      </trkpt>
      <trkpt lat="62.641544509561" lon="17.978849863185">
        <ele>33.2</ele>
        <time>2018-03-04T16:12:04Z</time>
      </trkpt>
      <trkpt lat="62.641527326666" lon="17.978837877068">
        <ele>33.4</ele>
        <time>2018-03-04T16:12:05Z</time>
      </trkpt>
      <trkpt lat="62.641510311409" lon="17.978831506824">
        <ele>33.6</ele>
        <time>2018-03-04T16:12:06Z</time>
      </trkpt>
      <trkpt lat="62.641493212333" lon="17.978827148236">
        <ele>33.6</ele>
        <time>2018-03-04T16:12:07Z</time>
      </trkpt>
      <trkpt lat="62.641474604515" lon="17.9788318421">
        <ele>34</ele>
        <time>2018-03-04T16:12:08Z</time>
      </trkpt>
      <trkpt lat="62.641460606742" lon="17.97882513658">
        <ele>34.2</ele>
        <time>2018-03-04T16:12:09Z</time>
      </trkpt>
      <trkpt lat="62.641444681132" lon="17.978821364725">
        <ele>34.4</ele>
        <time>2018-03-04T16:12:10Z</time>
      </trkpt>
      <trkpt lat="62.641428587884" lon="17.978810132979">
        <ele>34.8</ele>
        <time>2018-03-04T16:12:11Z</time>
      </trkpt>
      <trkpt lat="62.641407633134" lon="17.978793536817">
        <ele>35</ele>
        <time>2018-03-04T16:12:12Z</time>
      </trkpt>
      <trkpt lat="62.641373183525" lon="17.978801499622">
        <ele>35.2</ele>
        <time>2018-03-04T16:12:13Z</time>
      </trkpt>
      <trkpt lat="62.641355413897" lon="17.978786663659">
        <ele>35.6</ele>
        <time>2018-03-04T16:12:14Z</time>
      </trkpt>
      <trkpt lat="62.641336973717" lon="17.978780125777">
        <ele>35.8</ele>
        <time>2018-03-04T16:12:15Z</time>
      </trkpt>
      <trkpt lat="62.641323730315" lon="17.978776940655">
        <ele>36</ele>
        <time>2018-03-04T16:12:16Z</time>
      </trkpt>
      <trkpt lat="62.641305457773" lon="17.978775431913">
        <ele>36</ele>
        <time>2018-03-04T16:12:17Z</time>
      </trkpt>
      <trkpt lat="62.641285508851" lon="17.978769899859">
        <ele>36.4</ele>
        <time>2018-03-04T16:12:18Z</time>
      </trkpt>
      <trkpt lat="62.64126128516" lon="17.978771324782">
        <ele>36.6</ele>
        <time>2018-03-04T16:12:19Z</time>
      </trkpt>
      <trkpt lat="62.64124368317" lon="17.978772833524">
        <ele>36.6</ele>
        <time>2018-03-04T16:12:20Z</time>
      </trkpt>
      <trkpt lat="62.64122524299" lon="17.978769732221">
        <ele>36.8</ele>
        <time>2018-03-04T16:12:21Z</time>
      </trkpt>
      <trkpt lat="62.641207473362" lon="17.978777695026">
        <ele>36.8</ele>
        <time>2018-03-04T16:12:22Z</time>
      </trkpt>
      <trkpt lat="62.641191547752" lon="17.978787585668">
        <ele>37</ele>
        <time>2018-03-04T16:12:23Z</time>
      </trkpt>
      <trkpt lat="62.641169838631" lon="17.978793872093">
        <ele>36.8</ele>
        <time>2018-03-04T16:12:24Z</time>
      </trkpt>
      <trkpt lat="62.641147878053" lon="17.97879579993">
        <ele>37</ele>
        <time>2018-03-04T16:12:25Z</time>
      </trkpt>
      <trkpt lat="62.641128180588" lon="17.978803595097">
        <ele>37.2</ele>
        <time>2018-03-04T16:12:26Z</time>
      </trkpt>
      <trkpt lat="62.641106890562" lon="17.978806444943">
        <ele>37.4</ele>
        <time>2018-03-04T16:12:27Z</time>
      </trkpt>
      <trkpt lat="62.641085097622" lon="17.978809630065">
        <ele>37.6</ele>
        <time>2018-03-04T16:12:28Z</time>
      </trkpt>
      <trkpt lat="62.641064981062" lon="17.978825639494">
        <ele>37.6</ele>
        <time>2018-03-04T16:12:29Z</time>
      </trkpt>
      <trkpt lat="62.641040673552" lon="17.978830417177">
        <ele>37.8</ele>
        <time>2018-03-04T16:12:30Z</time>
      </trkpt>
      <trkpt lat="62.641021981915" lon="17.978833267023">
        <ele>38</ele>
        <time>2018-03-04T16:12:31Z</time>
      </trkpt>
      <trkpt lat="62.641003374097" lon="17.978839804905">
        <ele>38.2</ele>
        <time>2018-03-04T16:12:32Z</time>
      </trkpt>
      <trkpt lat="62.64097965332" lon="17.978856233429">
        <ele>38.4</ele>
        <time>2018-03-04T16:12:33Z</time>
      </trkpt>
      <trkpt lat="62.640959788217" lon="17.978874673609">
        <ele>38.4</ele>
        <time>2018-03-04T16:12:34Z</time>
      </trkpt>
      <trkpt lat="62.640943778788" lon="17.978888671382">
        <ele>38.8</ele>
        <time>2018-03-04T16:12:35Z</time>
      </trkpt>
      <trkpt lat="62.640927098807" lon="17.978911721607">
        <ele>39</ele>
        <time>2018-03-04T16:12:36Z</time>
      </trkpt>
      <trkpt lat="62.640911089378" lon="17.978940890619">
        <ele>39.2</ele>
        <time>2018-03-04T16:12:37Z</time>
      </trkpt>
      <trkpt lat="62.640900444365" lon="17.978976262237">
        <ele>39.2</ele>
        <time>2018-03-04T16:12:38Z</time>
      </trkpt>
      <trkpt lat="62.640893571207" lon="17.979012136769">
        <ele>39.4</ele>
        <time>2018-03-04T16:12:39Z</time>
      </trkpt>
      <trkpt lat="62.640886781868" lon="17.979060332694">
        <ele>39.6</ele>
        <time>2018-03-04T16:12:40Z</time>
      </trkpt>
      <trkpt lat="62.640888877343" lon="17.979107355153">
        <ele>39.8</ele>
        <time>2018-03-04T16:12:41Z</time>
      </trkpt>
      <trkpt lat="62.640880830719" lon="17.979167034281">
        <ele>39.6</ele>
        <time>2018-03-04T16:12:42Z</time>
      </trkpt>
      <trkpt lat="62.640879824891" lon="17.979214978749">
        <ele>39.6</ele>
        <time>2018-03-04T16:12:43Z</time>
      </trkpt>
      <trkpt lat="62.640875047208" lon="17.979272897678">
        <ele>39.6</ele>
        <time>2018-03-04T16:12:44Z</time>
      </trkpt>
      <trkpt lat="62.640873957561" lon="17.979340791068">
        <ele>39.6</ele>
        <time>2018-03-04T16:12:45Z</time>
      </trkpt>
      <trkpt lat="62.640873287009" lon="17.979374653944">
        <ele>39.6</ele>
        <time>2018-03-04T16:12:46Z</time>
      </trkpt>
      <trkpt lat="62.640868509326" lon="17.979428298104">
        <ele>39.4</ele>
        <time>2018-03-04T16:12:47Z</time>
      </trkpt>
      <trkpt lat="62.640865324204" lon="17.979487139042">
        <ele>39.4</ele>
        <time>2018-03-04T16:12:48Z</time>
      </trkpt>
      <trkpt lat="62.640860462702" lon="17.979510440724">
        <ele>39.4</ele>
        <time>2018-03-04T16:12:49Z</time>
      </trkpt>
      <trkpt lat="62.640854260096" lon="17.979585207272">
        <ele>39.4</ele>
        <time>2018-03-04T16:12:50Z</time>
      </trkpt>
      <trkpt lat="62.640855265924" lon="17.979640611631">
        <ele>39.4</ele>
        <time>2018-03-04T16:12:51Z</time>
      </trkpt>
      <trkpt lat="62.640854427734" lon="17.979677408172">
        <ele>39.6</ele>
        <time>2018-03-04T16:12:52Z</time>
      </trkpt>
      <trkpt lat="62.640849650051" lon="17.9797370873">
        <ele>39.6</ele>
        <time>2018-03-04T16:12:53Z</time>
      </trkpt>
      <trkpt lat="62.640846884024" lon="17.97979156965">
        <ele>39.6</ele>
        <time>2018-03-04T16:12:54Z</time>
      </trkpt>
      <trkpt lat="62.640846464929" lon="17.979836999548">
        <ele>39.8</ele>
        <time>2018-03-04T16:12:55Z</time>
      </trkpt>
      <trkpt lat="62.640840932875" lon="17.979902797463">
        <ele>39.6</ele>
        <time>2018-03-04T16:12:56Z</time>
      </trkpt>
      <trkpt lat="62.640839005038" lon="17.979961135487">
        <ele>39.8</ele>
        <time>2018-03-04T16:12:57Z</time>
      </trkpt>
      <trkpt lat="62.640841519608" lon="17.980004553729">
        <ele>39.8</ele>
        <time>2018-03-04T16:12:58Z</time>
      </trkpt>
      <trkpt lat="62.640836658106" lon="17.980086109616">
        <ele>39.8</ele>
        <time>2018-03-04T16:12:59Z</time>
      </trkpt>
      <trkpt lat="62.640842860712" lon="17.980134808455">
        <ele>39.8</ele>
        <time>2018-03-04T16:13:00Z</time>
      </trkpt>
      <trkpt lat="62.640841771065" lon="17.980211754297">
        <ele>40</ele>
        <time>2018-03-04T16:13:01Z</time>
      </trkpt>
      <trkpt lat="62.640848728042" lon="17.980250311037">
        <ele>40.2</ele>
        <time>2018-03-04T16:13:02Z</time>
      </trkpt>
      <trkpt lat="62.640849901508" lon="17.980333710942">
        <ele>40.2</ele>
        <time>2018-03-04T16:13:03Z</time>
      </trkpt>
      <trkpt lat="62.640857864313" lon="17.980388612387">
        <ele>40.2</ele>
        <time>2018-03-04T16:13:04Z</time>
      </trkpt>
      <trkpt lat="62.64086482129" lon="17.980459439442">
        <ele>40.2</ele>
        <time>2018-03-04T16:13:05Z</time>
      </trkpt>
      <trkpt lat="62.640880160167" lon="17.980543258442">
        <ele>40.2</ele>
        <time>2018-03-04T16:13:06Z</time>
      </trkpt>
      <trkpt lat="62.640890218447" lon="17.980588017788">
        <ele>40.2</ele>
        <time>2018-03-04T16:13:07Z</time>
      </trkpt>
      <trkpt lat="62.640897007786" lon="17.980676782109">
        <ele>40.2</ele>
        <time>2018-03-04T16:13:08Z</time>
      </trkpt>
      <trkpt lat="62.640913771586" lon="17.980745010775">
        <ele>40</ele>
        <time>2018-03-04T16:13:09Z</time>
      </trkpt>
      <trkpt lat="62.640927350264" lon="17.980809719043">
        <ele>40</ele>
        <time>2018-03-04T16:13:10Z</time>
      </trkpt>
      <trkpt lat="62.640944533159" lon="17.980907619635">
        <ele>39.6</ele>
        <time>2018-03-04T16:13:11Z</time>
      </trkpt>
      <trkpt lat="62.640972444886" lon="17.980941398692">
        <ele>39.6</ele>
        <time>2018-03-04T16:13:12Z</time>
      </trkpt>
      <trkpt lat="62.640997590586" lon="17.981024379502">
        <ele>39.4</ele>
        <time>2018-03-04T16:13:13Z</time>
      </trkpt>
      <trkpt lat="62.641028771254" lon="17.981094619824">
        <ele>39.4</ele>
        <time>2018-03-04T16:13:14Z</time>
      </trkpt>
      <trkpt lat="62.641053162583" lon="17.981184892887">
        <ele>39</ele>
        <time>2018-03-04T16:13:15Z</time>
      </trkpt>
      <trkpt lat="62.64107269241" lon="17.981277848158">
        <ele>38.8</ele>
        <time>2018-03-04T16:13:16Z</time>
      </trkpt>
      <trkpt lat="62.641078811197" lon="17.981372647447">
        <ele>38</ele>
        <time>2018-03-04T16:13:17Z</time>
      </trkpt>
      <trkpt lat="62.641069507288" lon="17.981472056781">
        <ele>37</ele>
        <time>2018-03-04T16:13:18Z</time>
      </trkpt>
      <trkpt lat="62.641066238347" lon="17.981570041192">
        <ele>36.4</ele>
        <time>2018-03-04T16:13:19Z</time>
      </trkpt>
      <trkpt lat="62.641072021858" lon="17.981625277913">
        <ele>36.2</ele>
        <time>2018-03-04T16:13:20Z</time>
      </trkpt>
      <trkpt lat="62.641068836736" lon="17.981704989782">
        <ele>36</ele>
        <time>2018-03-04T16:13:21Z</time>
      </trkpt>
      <trkpt lat="62.641061460664" lon="17.981788473506">
        <ele>36</ele>
        <time>2018-03-04T16:13:22Z</time>
      </trkpt>
      <trkpt lat="62.641066322166" lon="17.981857875638">
        <ele>36.4</ele>
        <time>2018-03-04T16:13:23Z</time>
      </trkpt>
      <trkpt lat="62.641064897243" lon="17.98192560139">
        <ele>36.6</ele>
        <time>2018-03-04T16:13:24Z</time>
      </trkpt>
      <trkpt lat="62.641068669098" lon="17.981992069857">
        <ele>36.6</ele>
        <time>2018-03-04T16:13:25Z</time>
      </trkpt>
      <trkpt lat="62.641074955523" lon="17.982060801437">
        <ele>36.6</ele>
        <time>2018-03-04T16:13:26Z</time>
      </trkpt>
      <trkpt lat="62.64107520698" lon="17.982115619063">
        <ele>36.4</ele>
        <time>2018-03-04T16:13:27Z</time>
      </trkpt>
      <trkpt lat="62.641081996319" lon="17.982198599873">
        <ele>36.4</ele>
        <time>2018-03-04T16:13:28Z</time>
      </trkpt>
      <trkpt lat="62.641097167558" lon="17.982257189354">
        <ele>36.4</ele>
        <time>2018-03-04T16:13:29Z</time>
      </trkpt>
      <trkpt lat="62.64110370544" lon="17.982318963957">
        <ele>36.6</ele>
        <time>2018-03-04T16:13:30Z</time>
      </trkpt>
      <trkpt lat="62.641108064028" lon="17.982399765473">
        <ele>36.4</ele>
        <time>2018-03-04T16:13:31Z</time>
      </trkpt>
      <trkpt lat="62.641124408733" lon="17.982447290846">
        <ele>36.4</ele>
        <time>2018-03-04T16:13:32Z</time>
      </trkpt>
      <trkpt lat="62.641135305203" lon="17.982526751258">
        <ele>36.4</ele>
        <time>2018-03-04T16:13:33Z</time>
      </trkpt>
      <trkpt lat="62.641144944388" lon="17.982609396792">
        <ele>36.6</ele>
        <time>2018-03-04T16:13:34Z</time>
      </trkpt>
      <trkpt lat="62.641156343772" lon="17.982665555522">
        <ele>36.4</ele>
        <time>2018-03-04T16:13:35Z</time>
      </trkpt>
      <trkpt lat="62.641164558034" lon="17.982752475825">
        <ele>36.4</ele>
        <time>2018-03-04T16:13:36Z</time>
      </trkpt>
      <trkpt lat="62.641172101744" lon="17.982825482174">
        <ele>36.2</ele>
        <time>2018-03-04T16:13:37Z</time>
      </trkpt>
      <trkpt lat="62.641180735101" lon="17.982894800487">
        <ele>36</ele>
        <time>2018-03-04T16:13:38Z</time>
      </trkpt>
      <trkpt lat="62.641188194992" lon="17.983001921169">
        <ele>36</ele>
        <time>2018-03-04T16:13:39Z</time>
      </trkpt>
      <trkpt lat="62.641197331263" lon="17.983074424604">
        <ele>35.6</ele>
        <time>2018-03-04T16:13:40Z</time>
      </trkpt>
      <trkpt lat="62.64120093548" lon="17.983150113161">
        <ele>35.4</ele>
        <time>2018-03-04T16:13:41Z</time>
      </trkpt>
      <trkpt lat="62.641207976276" lon="17.983229238297">
        <ele>35.4</ele>
        <time>2018-03-04T16:13:42Z</time>
      </trkpt>
      <trkpt lat="62.64121937566" lon="17.983298724248">
        <ele>35.4</ele>
        <time>2018-03-04T16:13:43Z</time>
      </trkpt>
      <trkpt lat="62.641233792528" lon="17.983375921547">
        <ele>35.2</ele>
        <time>2018-03-04T16:13:44Z</time>
      </trkpt>
      <trkpt lat="62.641250975423" lon="17.983450269">
        <ele>35.2</ele>
        <time>2018-03-04T16:13:45Z</time>
      </trkpt>
      <trkpt lat="62.641261955712" lon="17.983541715529">
        <ele>35.2</ele>
        <time>2018-03-04T16:13:46Z</time>
      </trkpt>
      <trkpt lat="62.641265224653" lon="17.983645315813">
        <ele>34.8</ele>
        <time>2018-03-04T16:13:47Z</time>
      </trkpt>
      <trkpt lat="62.641268074499" lon="17.983766853363">
        <ele>34.6</ele>
        <time>2018-03-04T16:13:48Z</time>
      </trkpt>
      <trkpt lat="62.641275953485" lon="17.983862993756">
        <ele>34.2</ele>
        <time>2018-03-04T16:13:49Z</time>
      </trkpt>
      <trkpt lat="62.641279138607" lon="17.983955446113">
        <ele>34</ele>
        <time>2018-03-04T16:13:50Z</time>
      </trkpt>
      <trkpt lat="62.641261536617" lon="17.984092490178">
        <ele>33.6</ele>
        <time>2018-03-04T16:13:51Z</time>
      </trkpt>
      <trkpt lat="62.641260530789" lon="17.984186032182">
        <ele>33.4</ele>
        <time>2018-03-04T16:13:52Z</time>
      </trkpt>
      <trkpt lat="62.641258016219" lon="17.984273958313">
        <ele>33.2</ele>
        <time>2018-03-04T16:13:53Z</time>
      </trkpt>
      <trkpt lat="62.641259105866" lon="17.984389544714">
        <ele>32.8</ele>
        <time>2018-03-04T16:13:54Z</time>
      </trkpt>
      <trkpt lat="62.641258519133" lon="17.984488618772">
        <ele>32.8</ele>
        <time>2018-03-04T16:13:55Z</time>
      </trkpt>
      <trkpt lat="62.641256926572" lon="17.984574617066">
        <ele>32.8</ele>
        <time>2018-03-04T16:13:56Z</time>
      </trkpt>
      <trkpt lat="62.641251394518" lon="17.984668410527">
        <ele>32.6</ele>
        <time>2018-03-04T16:13:57Z</time>
      </trkpt>
      <trkpt lat="62.641250137233" lon="17.984773687191">
        <ele>32.2</ele>
        <time>2018-03-04T16:13:58Z</time>
      </trkpt>
      <trkpt lat="62.641238151116" lon="17.984878125665">
        <ele>31.8</ele>
        <time>2018-03-04T16:13:59Z</time>
      </trkpt>
      <trkpt lat="62.641225578266" lon="17.984972086764">
        <ele>31.6</ele>
        <time>2018-03-04T16:14:00Z</time>
      </trkpt>
      <trkpt lat="62.641220130031" lon="17.985038974326">
        <ele>31.2</ele>
        <time>2018-03-04T16:14:01Z</time>
      </trkpt>
      <trkpt lat="62.641209149742" lon="17.985122625688">
        <ele>31</ele>
        <time>2018-03-04T16:14:02Z</time>
      </trkpt>
      <trkpt lat="62.64120177367" lon="17.985223459945">
        <ele>30.8</ele>
        <time>2018-03-04T16:14:03Z</time>
      </trkpt>
      <trkpt lat="62.641195487245" lon="17.985311134619">
        <ele>30.8</ele>
        <time>2018-03-04T16:14:04Z</time>
      </trkpt>
      <trkpt lat="62.641185177508" lon="17.98541414817">
        <ele>30.8</ele>
        <time>2018-03-04T16:14:05Z</time>
      </trkpt>
      <trkpt lat="62.6411741134" lon="17.985515066246">
        <ele>30.6</ele>
        <time>2018-03-04T16:14:06Z</time>
      </trkpt>
      <trkpt lat="62.641176208875" lon="17.985575751202">
        <ele>30.8</ele>
        <time>2018-03-04T16:14:07Z</time>
      </trkpt>
      <trkpt lat="62.641163636025" lon="17.985664515523">
        <ele>30.4</ele>
        <time>2018-03-04T16:14:08Z</time>
      </trkpt>
      <trkpt lat="62.641159277437" lon="17.985745149401">
        <ele>30.6</ele>
        <time>2018-03-04T16:14:09Z</time>
      </trkpt>
      <trkpt lat="62.641145531121" lon="17.985812456058">
        <ele>30.4</ele>
        <time>2018-03-04T16:14:10Z</time>
      </trkpt>
      <trkpt lat="62.64113555666" lon="17.985886552054">
        <ele>30.2</ele>
        <time>2018-03-04T16:14:11Z</time>
      </trkpt>
      <trkpt lat="62.641124995466" lon="17.985941956413">
        <ele>30.2</ele>
        <time>2018-03-04T16:14:12Z</time>
      </trkpt>
      <trkpt lat="62.641108986037" lon="17.98601261583">
        <ele>30.4</ele>
        <time>2018-03-04T16:14:13Z</time>
      </trkpt>
      <trkpt lat="62.641094652988" lon="17.986080006306">
        <ele>30.4</ele>
        <time>2018-03-04T16:14:14Z</time>
      </trkpt>
      <trkpt lat="62.641078811197" lon="17.986142451461">
        <ele>30.4</ele>
        <time>2018-03-04T16:14:15Z</time>
      </trkpt>
      <trkpt lat="62.641061712121" lon="17.986209003747">
        <ele>30.4</ele>
        <time>2018-03-04T16:14:16Z</time>
      </trkpt>
      <trkpt lat="62.64104922309" lon="17.986272370911">
        <ele>30.4</ele>
        <time>2018-03-04T16:14:17Z</time>
      </trkpt>
      <trkpt lat="62.641040673552" lon="17.986322997587">
        <ele>30.4</ele>
        <time>2018-03-04T16:14:18Z</time>
      </trkpt>
      <trkpt lat="62.641025502313" lon="17.986391393891">
        <ele>30.4</ele>
        <time>2018-03-04T16:14:19Z</time>
      </trkpt>
      <trkpt lat="62.641018545336" lon="17.986463226774">
        <ele>30.4</ele>
        <time>2018-03-04T16:14:20Z</time>
      </trkpt>
      <trkpt lat="62.641008906151" lon="17.986525671929">
        <ele>30.4</ele>
        <time>2018-03-04T16:14:21Z</time>
      </trkpt>
      <trkpt lat="62.64099306436" lon="17.986600354658">
        <ele>30.2</ele>
        <time>2018-03-04T16:14:22Z</time>
      </trkpt>
      <trkpt lat="62.64097127142" lon="17.986665314383">
        <ele>30.2</ele>
        <time>2018-03-04T16:14:23Z</time>
      </trkpt>
      <trkpt lat="62.640964062986" lon="17.986729771194">
        <ele>30</ele>
        <time>2018-03-04T16:14:24Z</time>
      </trkpt>
      <trkpt lat="62.640955764905" lon="17.986808225778">
        <ele>30</ele>
        <time>2018-03-04T16:14:25Z</time>
      </trkpt>
      <trkpt lat="62.640944616978" lon="17.986886596543">
        <ele>30</ele>
        <time>2018-03-04T16:14:26Z</time>
      </trkpt>
      <trkpt lat="62.640930032472" lon="17.986955831037">
        <ele>30</ele>
        <time>2018-03-04T16:14:27Z</time>
      </trkpt>
      <trkpt lat="62.640922824038" lon="17.987023724427">
        <ele>30</ele>
        <time>2018-03-04T16:14:28Z</time>
      </trkpt>
      <trkpt lat="62.640919555097" lon="17.987078961148">
        <ele>30</ele>
        <time>2018-03-04T16:14:29Z</time>
      </trkpt>
      <trkpt lat="62.640914777414" lon="17.987142244493">
        <ele>30</ele>
        <time>2018-03-04T16:14:30Z</time>
      </trkpt>
      <trkpt lat="62.640911676111" lon="17.987239306895">
        <ele>30</ele>
        <time>2018-03-04T16:14:31Z</time>
      </trkpt>
      <trkpt lat="62.640903042754" lon="17.987294124521">
        <ele>30</ele>
        <time>2018-03-04T16:14:32Z</time>
      </trkpt>
      <trkpt lat="62.640895247587" lon="17.98735120526">
        <ele>29.8</ele>
        <time>2018-03-04T16:14:33Z</time>
      </trkpt>
      <trkpt lat="62.640888122972" lon="17.987426474722">
        <ele>30</ele>
        <time>2018-03-04T16:14:34Z</time>
      </trkpt>
      <trkpt lat="62.640875298665" lon="17.987509958446">
        <ele>30</ele>
        <time>2018-03-04T16:14:35Z</time>
      </trkpt>
      <trkpt lat="62.640876220674" lon="17.987583132433">
        <ele>30</ele>
        <time>2018-03-04T16:14:36Z</time>
      </trkpt>
      <trkpt lat="62.640867084403" lon="17.987639626439">
        <ele>29.8</ele>
        <time>2018-03-04T16:14:37Z</time>
      </trkpt>
      <trkpt lat="62.640856104114" lon="17.987713051883">
        <ele>29.8</ele>
        <time>2018-03-04T16:14:38Z</time>
      </trkpt>
      <trkpt lat="62.640850907336" lon="17.987779017436">
        <ele>29.8</ele>
        <time>2018-03-04T16:14:39Z</time>
      </trkpt>
      <trkpt lat="62.640832802432" lon="17.987845150627">
        <ele>29.8</ele>
        <time>2018-03-04T16:14:40Z</time>
      </trkpt>
      <trkpt lat="62.640815787175" lon="17.987903823927">
        <ele>29.6</ele>
        <time>2018-03-04T16:14:41Z</time>
      </trkpt>
      <trkpt lat="62.640803381963" lon="17.98795637844">
        <ele>29.6</ele>
        <time>2018-03-04T16:14:42Z</time>
      </trkpt>
      <trkpt lat="62.640782343394" lon="17.988034497748">
        <ele>29.4</ele>
        <time>2018-03-04T16:14:43Z</time>
      </trkpt>
      <trkpt lat="62.640774632046" lon="17.988101972043">
        <ele>29.4</ele>
        <time>2018-03-04T16:14:44Z</time>
      </trkpt>
      <trkpt lat="62.640772955666" lon="17.988143546267">
        <ele>29.4</ele>
        <time>2018-03-04T16:14:45Z</time>
      </trkpt>
      <trkpt lat="62.640757616789" lon="17.988215462969">
        <ele>29.4</ele>
        <time>2018-03-04T16:14:46Z</time>
      </trkpt>
      <trkpt lat="62.64074412193" lon="17.988269274767">
        <ele>29.4</ele>
        <time>2018-03-04T16:14:47Z</time>
      </trkpt>
      <trkpt lat="62.640726268483" lon="17.988333899216">
        <ele>29.4</ele>
        <time>2018-03-04T16:14:48Z</time>
      </trkpt>
      <trkpt lat="62.640711181063" lon="17.988408330488">
        <ele>29.6</ele>
        <time>2018-03-04T16:14:49Z</time>
      </trkpt>
      <trkpt lat="62.64069466872" lon="17.988482426484">
        <ele>29.6</ele>
        <time>2018-03-04T16:14:50Z</time>
      </trkpt>
      <trkpt lat="62.640670025934" lon="17.988521067043">
        <ele>29.6</ele>
        <time>2018-03-04T16:14:51Z</time>
      </trkpt>
      <trkpt lat="62.640648819727" lon="17.988566077846">
        <ele>29.6</ele>
        <time>2018-03-04T16:14:52Z</time>
      </trkpt>
      <trkpt lat="62.640629457538" lon="17.988616704522">
        <ele>29.6</ele>
        <time>2018-03-04T16:14:53Z</time>
      </trkpt>
      <trkpt lat="62.640603473648" lon="17.988637323996">
        <ele>29.6</ele>
        <time>2018-03-04T16:14:54Z</time>
      </trkpt>
      <trkpt lat="62.640582099803" lon="17.988671522148">
        <ele>29.4</ele>
        <time>2018-03-04T16:14:55Z</time>
      </trkpt>
      <trkpt lat="62.640564833089" lon="17.988700104427">
        <ele>29.6</ele>
        <time>2018-03-04T16:14:56Z</time>
      </trkpt>
      <trkpt lat="62.640550667678" lon="17.988715443304">
        <ele>29.4</ele>
        <time>2018-03-04T16:14:57Z</time>
      </trkpt>
      <trkpt lat="62.640527701272" lon="17.988742935936">
        <ele>29.6</ele>
        <time>2018-03-04T16:14:58Z</time>
      </trkpt>
      <trkpt lat="62.640509261092" lon="17.988767830179">
        <ele>29.6</ele>
        <time>2018-03-04T16:14:59Z</time>
      </trkpt>
      <trkpt lat="62.640494508948" lon="17.988806135462">
        <ele>29.8</ele>
        <time>2018-03-04T16:15:00Z</time>
      </trkpt>
      <trkpt lat="62.640481181727" lon="17.988838070501">
        <ele>30</ele>
        <time>2018-03-04T16:15:01Z</time>
      </trkpt>
      <trkpt lat="62.640468189782" lon="17.988880482915">
        <ele>30.2</ele>
        <time>2018-03-04T16:15:02Z</time>
      </trkpt>
      <trkpt lat="62.640454443466" lon="17.988922057139">
        <ele>30.4</ele>
        <time>2018-03-04T16:15:03Z</time>
      </trkpt>
      <trkpt lat="62.640440026598" lon="17.988954914187">
        <ele>30.6</ele>
        <time>2018-03-04T16:15:04Z</time>
      </trkpt>
      <trkpt lat="62.640421670237" lon="17.988998667705">
        <ele>30.6</ele>
        <time>2018-03-04T16:15:05Z</time>
      </trkpt>
      <trkpt lat="62.640421754056" lon="17.989021466473">
        <ele>30.6</ele>
        <time>2018-03-04T16:15:06Z</time>
      </trkpt>
      <trkpt lat="62.640399877297" lon="17.989064717077">
        <ele>30.8</ele>
        <time>2018-03-04T16:15:07Z</time>
      </trkpt>
      <trkpt lat="62.640383029678" lon="17.989114840839">
        <ele>30.8</ele>
        <time>2018-03-04T16:15:08Z</time>
      </trkpt>
      <trkpt lat="62.640372552303" lon="17.989142752566">
        <ele>31</ele>
        <time>2018-03-04T16:15:09Z</time>
      </trkpt>
      <trkpt lat="62.6403526872" lon="17.989185835532">
        <ele>31</ele>
        <time>2018-03-04T16:15:10Z</time>
      </trkpt>
      <trkpt lat="62.640335001391" lon="17.989235791656">
        <ele>31</ele>
        <time>2018-03-04T16:15:11Z</time>
      </trkpt>
      <trkpt lat="62.640328128233" lon="17.98925976389">
        <ele>31</ele>
        <time>2018-03-04T16:15:12Z</time>
      </trkpt>
      <trkpt lat="62.640303401628" lon="17.989296057517">
        <ele>31.2</ele>
        <time>2018-03-04T16:15:13Z</time>
      </trkpt>
      <trkpt lat="62.640285967276" lon="17.989341738872">
        <ele>31.4</ele>
        <time>2018-03-04T16:15:14Z</time>
      </trkpt>
      <trkpt lat="62.640283871801" lon="17.989368225676">
        <ele>31.2</ele>
        <time>2018-03-04T16:15:15Z</time>
      </trkpt>
      <trkpt lat="62.640255708617" lon="17.989426898976">
        <ele>31.2</ele>
        <time>2018-03-04T16:15:16Z</time>
      </trkpt>
      <trkpt lat="62.640243554862" lon="17.989476268367">
        <ele>31.2</ele>
        <time>2018-03-04T16:15:17Z</time>
      </trkpt>
      <trkpt lat="62.640224276492" lon="17.989515328021">
        <ele>31.4</ele>
        <time>2018-03-04T16:15:18Z</time>
      </trkpt>
      <trkpt lat="62.640213044746" lon="17.989551956924">
        <ele>31.4</ele>
        <time>2018-03-04T16:15:19Z</time>
      </trkpt>
      <trkpt lat="62.640194353109" lon="17.989599314659">
        <ele>31.4</ele>
        <time>2018-03-04T16:15:20Z</time>
      </trkpt>
      <trkpt lat="62.640182031716" lon="17.989630327689">
        <ele>31.4</ele>
        <time>2018-03-04T16:15:21Z</time>
      </trkpt>
      <trkpt lat="62.640176499662" lon="17.989660753986">
        <ele>31.4</ele>
        <time>2018-03-04T16:15:22Z</time>
      </trkpt>
      <trkpt lat="62.640161076966" lon="17.989713979051">
        <ele>31.4</ele>
        <time>2018-03-04T16:15:23Z</time>
      </trkpt>
      <trkpt lat="62.640145235175" lon="17.989754463628">
        <ele>31.6</ele>
        <time>2018-03-04T16:15:24Z</time>
      </trkpt>
      <trkpt lat="62.640142804424" lon="17.989800228802">
        <ele>31.8</ele>
        <time>2018-03-04T16:15:25Z</time>
      </trkpt>
      <trkpt lat="62.640126878814" lon="17.989851777487">
        <ele>32</ele>
        <time>2018-03-04T16:15:26Z</time>
      </trkpt>
      <trkpt lat="62.640114557421" lon="17.989891004779">
        <ele>32.2</ele>
        <time>2018-03-04T16:15:27Z</time>
      </trkpt>
      <trkpt lat="62.640109947376" lon="17.98992863951">
        <ele>32.4</ele>
        <time>2018-03-04T16:15:28Z</time>
      </trkpt>
      <trkpt lat="62.640091591015" lon="17.989997203452">
        <ele>32.6</ele>
        <time>2018-03-04T16:15:29Z</time>
      </trkpt>
      <trkpt lat="62.64008111364" lon="17.990049674146">
        <ele>32.6</ele>
        <time>2018-03-04T16:15:30Z</time>
      </trkpt>
      <trkpt lat="62.640074827215" lon="17.990083788479">
        <ele>32.8</ele>
        <time>2018-03-04T16:15:31Z</time>
      </trkpt>
      <trkpt lat="62.640061583813" lon="17.990121087934">
        <ele>32.8</ele>
        <time>2018-03-04T16:15:32Z</time>
      </trkpt>
      <trkpt lat="62.640046999307" lon="17.990166266375">
        <ele>32.8</ele>
        <time>2018-03-04T16:15:33Z</time>
      </trkpt>
      <trkpt lat="62.640034175" lon="17.990202895278">
        <ele>33</ele>
        <time>2018-03-04T16:15:34Z</time>
      </trkpt>
      <trkpt lat="62.640023781444" lon="17.99024128438">
        <ele>33</ele>
        <time>2018-03-04T16:15:35Z</time>
      </trkpt>
      <trkpt lat="62.640004335436" lon="17.990288642115">
        <ele>33</ele>
        <time>2018-03-04T16:15:36Z</time>
      </trkpt>
      <trkpt lat="62.639989667111" lon="17.990333569099">
        <ele>33.2</ele>
        <time>2018-03-04T16:15:37Z</time>
      </trkpt>
      <trkpt lat="62.639977429537" lon="17.990365755595">
        <ele>33.2</ele>
        <time>2018-03-04T16:15:38Z</time>
      </trkpt>
      <trkpt lat="62.639951529466" lon="17.990413029511">
        <ele>33.2</ele>
        <time>2018-03-04T16:15:39Z</time>
      </trkpt>
      <trkpt lat="62.639944907765" lon="17.990446389473">
        <ele>33.4</ele>
        <time>2018-03-04T16:15:40Z</time>
      </trkpt>
      <trkpt lat="62.639921606083" lon="17.990490729724">
        <ele>33.6</ele>
        <time>2018-03-04T16:15:41Z</time>
      </trkpt>
      <trkpt lat="62.639907943586" lon="17.990545966445">
        <ele>33.6</ele>
        <time>2018-03-04T16:15:42Z</time>
      </trkpt>
      <trkpt lat="62.639898807315" lon="17.990581170425">
        <ele>33.6</ele>
        <time>2018-03-04T16:15:43Z</time>
      </trkpt>
      <trkpt lat="62.639875086538" lon="17.990639173173">
        <ele>33.8</ele>
        <time>2018-03-04T16:15:44Z</time>
      </trkpt>
      <trkpt lat="62.63985312596" lon="17.990680998854">
        <ele>33.8</ele>
        <time>2018-03-04T16:15:45Z</time>
      </trkpt>
      <trkpt lat="62.639838206178" lon="17.990709329676">
        <ele>34</ele>
        <time>2018-03-04T16:15:46Z</time>
      </trkpt>
      <trkpt lat="62.63981540741" lon="17.990752831737">
        <ele>34.2</ele>
        <time>2018-03-04T16:15:47Z</time>
      </trkpt>
      <trkpt lat="62.639798811248" lon="17.990799770377">
        <ele>34.2</ele>
        <time>2018-03-04T16:15:48Z</time>
      </trkpt>
      <trkpt lat="62.639785735484" lon="17.99082298824">
        <ele>34.4</ele>
        <time>2018-03-04T16:15:49Z</time>
      </trkpt>
      <trkpt lat="62.639767882037" lon="17.99085819222">
        <ele>34.4</ele>
        <time>2018-03-04T16:15:50Z</time>
      </trkpt>
      <trkpt lat="62.639745334726" lon="17.990898173883">
        <ele>34.6</ele>
        <time>2018-03-04T16:15:51Z</time>
      </trkpt>
      <trkpt lat="62.639733013333" lon="17.990936646804">
        <ele>34.6</ele>
        <time>2018-03-04T16:15:52Z</time>
      </trkpt>
      <trkpt lat="62.639721949225" lon="17.990975119725">
        <ele>34.8</ele>
        <time>2018-03-04T16:15:53Z</time>
      </trkpt>
      <trkpt lat="62.63970560452" lon="17.991016693949">
        <ele>34.8</ele>
        <time>2018-03-04T16:15:54Z</time>
      </trkpt>
      <trkpt lat="62.639696803525" lon="17.99106019601">
        <ele>35</ele>
        <time>2018-03-04T16:15:55Z</time>
      </trkpt>
      <trkpt lat="62.639685739417" lon="17.991109146306">
        <ele>35.4</ele>
        <time>2018-03-04T16:15:56Z</time>
      </trkpt>
      <trkpt lat="62.639674004757" lon="17.991171172366">
        <ele>35.4</ele>
        <time>2018-03-04T16:15:57Z</time>
      </trkpt>
      <trkpt lat="62.639669143255" lon="17.991210315839">
        <ele>35.4</ele>
        <time>2018-03-04T16:15:58Z</time>
      </trkpt>
      <trkpt lat="62.639661348088" lon="17.991269492053">
        <ele>35.4</ele>
        <time>2018-03-04T16:15:59Z</time>
      </trkpt>
      <trkpt lat="62.639657324776" lon="17.991329422638">
        <ele>35.4</ele>
        <time>2018-03-04T16:16:00Z</time>
      </trkpt>
      <trkpt lat="62.639654558749" lon="17.991362614962">
        <ele>35.6</ele>
        <time>2018-03-04T16:16:01Z</time>
      </trkpt>
      <trkpt lat="62.639649864885" lon="17.991411816715">
        <ele>35.6</ele>
        <time>2018-03-04T16:16:02Z</time>
      </trkpt>
      <trkpt lat="62.639645003383" lon="17.991467472531">
        <ele>35.4</ele>
        <time>2018-03-04T16:16:03Z</time>
      </trkpt>
      <trkpt lat="62.639643243184" lon="17.99150108395">
        <ele>35.6</ele>
        <time>2018-03-04T16:16:04Z</time>
      </trkpt>
      <trkpt lat="62.639639974243" lon="17.991538718681">
        <ele>35.6</ele>
        <time>2018-03-04T16:16:05Z</time>
      </trkpt>
      <trkpt lat="62.639631424705" lon="17.991597140524">
        <ele>35.8</ele>
        <time>2018-03-04T16:16:06Z</time>
      </trkpt>
      <trkpt lat="62.639624132452" lon="17.991639972033">
        <ele>35.8</ele>
        <time>2018-03-04T16:16:07Z</time>
      </trkpt>
      <trkpt lat="62.639622288434" lon="17.99167375109">
        <ele>36.2</ele>
        <time>2018-03-04T16:16:08Z</time>
      </trkpt>
      <trkpt lat="62.639612984525" lon="17.991729993639">
        <ele>36.4</ele>
        <time>2018-03-04T16:16:09Z</time>
      </trkpt>
      <trkpt lat="62.6396066981" lon="17.99179277407">
        <ele>36.6</ele>
        <time>2018-03-04T16:16:10Z</time>
      </trkpt>
      <trkpt lat="62.639602590969" lon="17.99182797805">
        <ele>36.8</ele>
        <time>2018-03-04T16:16:11Z</time>
      </trkpt>
      <trkpt lat="62.639590604852" lon="17.9918992242">
        <ele>37</ele>
        <time>2018-03-04T16:16:12Z</time>
      </trkpt>
      <trkpt lat="62.639593789974" lon="17.991945240831">
        <ele>36.8</ele>
        <time>2018-03-04T16:16:13Z</time>
      </trkpt>
      <trkpt lat="62.639583312599" lon="17.992002405389">
        <ele>37</ele>
        <time>2018-03-04T16:16:14Z</time>
      </trkpt>
      <trkpt lat="62.639570907387" lon="17.992059234671">
        <ele>37</ele>
        <time>2018-03-04T16:16:15Z</time>
      </trkpt>
      <trkpt lat="62.63956562679" lon="17.99209033152">
        <ele>37</ele>
        <time>2018-03-04T16:16:16Z</time>
      </trkpt>
      <trkpt lat="62.639552634845" lon="17.992157805815">
        <ele>37</ele>
        <time>2018-03-04T16:16:17Z</time>
      </trkpt>
      <trkpt lat="62.639546432239" lon="17.992203822446">
        <ele>37</ele>
        <time>2018-03-04T16:16:18Z</time>
      </trkpt>
      <trkpt lat="62.639537295968" lon="17.992252605104">
        <ele>37.2</ele>
        <time>2018-03-04T16:16:19Z</time>
      </trkpt>
      <trkpt lat="62.639526064222" lon="17.992316139906">
        <ele>37.2</ele>
        <time>2018-03-04T16:16:20Z</time>
      </trkpt>
      <trkpt lat="62.639520029254" lon="17.992341201787">
        <ele>37</ele>
        <time>2018-03-04T16:16:21Z</time>
      </trkpt>
      <trkpt lat="62.639506618214" lon="17.992392666653">
        <ele>37.2</ele>
        <time>2018-03-04T16:16:22Z</time>
      </trkpt>
      <trkpt lat="62.639497649581" lon="17.992452764876">
        <ele>37.2</ele>
        <time>2018-03-04T16:16:23Z</time>
      </trkpt>
      <trkpt lat="62.639494799735" lon="17.992480760422">
        <ele>37.2</ele>
        <time>2018-03-04T16:16:24Z</time>
      </trkpt>
      <trkpt lat="62.639487004568" lon="17.992552425667">
        <ele>37.4</ele>
        <time>2018-03-04T16:16:25Z</time>
      </trkpt>
      <trkpt lat="62.639490105871" lon="17.99261671484">
        <ele>37.4</ele>
        <time>2018-03-04T16:16:26Z</time>
      </trkpt>
      <trkpt lat="62.639488094215" lon="17.992649236612">
        <ele>37.4</ele>
        <time>2018-03-04T16:16:27Z</time>
      </trkpt>
      <trkpt lat="62.639487842758" lon="17.992729786671">
        <ele>37.4</ele>
        <time>2018-03-04T16:16:28Z</time>
      </trkpt>
      <trkpt lat="62.639495386468" lon="17.992794578758">
        <ele>37.6</ele>
        <time>2018-03-04T16:16:29Z</time>
      </trkpt>
      <trkpt lat="62.639498823047" lon="17.992840930665">
        <ele>37.6</ele>
        <time>2018-03-04T16:16:30Z</time>
      </trkpt>
      <trkpt lat="62.639500080332" lon="17.992911590082">
        <ele>37.6</ele>
        <time>2018-03-04T16:16:31Z</time>
      </trkpt>
      <trkpt lat="62.639505780024" lon="17.992945704415">
        <ele>37.8</ele>
        <time>2018-03-04T16:16:32Z</time>
      </trkpt>
      <trkpt lat="62.639507037309" lon="17.993010580321">
        <ele>37.8</ele>
        <time>2018-03-04T16:16:33Z</time>
      </trkpt>
      <trkpt lat="62.639507372585" lon="17.993077635521">
        <ele>37.8</ele>
        <time>2018-03-04T16:16:34Z</time>
      </trkpt>
      <trkpt lat="62.639507037309" lon="17.993106720714">
        <ele>38</ele>
        <time>2018-03-04T16:16:35Z</time>
      </trkpt>
      <trkpt lat="62.639505360929" lon="17.993154497544">
        <ele>38</ele>
        <time>2018-03-04T16:16:36Z</time>
      </trkpt>
      <trkpt lat="62.639506785852" lon="17.99321099155">
        <ele>38</ele>
        <time>2018-03-04T16:16:37Z</time>
      </trkpt>
      <trkpt lat="62.639508378413" lon="17.99326715028">
        <ele>38</ele>
        <time>2018-03-04T16:16:38Z</time>
      </trkpt>
      <trkpt lat="62.639505612386" lon="17.993308556866">
        <ele>38</ele>
        <time>2018-03-04T16:16:39Z</time>
      </trkpt>
      <trkpt lat="62.639498403952" lon="17.993381898491">
        <ele>38.2</ele>
        <time>2018-03-04T16:16:40Z</time>
      </trkpt>
      <trkpt lat="62.639499325961" lon="17.993417689204">
        <ele>38.4</ele>
        <time>2018-03-04T16:16:41Z</time>
      </trkpt>
      <trkpt lat="62.639492201346" lon="17.993475524314">
        <ele>38.4</ele>
        <time>2018-03-04T16:16:42Z</time>
      </trkpt>
      <trkpt lat="62.639488345672" lon="17.993534616709">
        <ele>38.6</ele>
        <time>2018-03-04T16:16:43Z</time>
      </trkpt>
      <trkpt lat="62.639487339844" lon="17.993571245612">
        <ele>38.6</ele>
        <time>2018-03-04T16:16:44Z</time>
      </trkpt>
      <trkpt lat="62.639466133637" lon="17.993641066839">
        <ele>38.6</ele>
        <time>2018-03-04T16:16:45Z</time>
      </trkpt>
      <trkpt lat="62.639447609638" lon="17.993687251108">
        <ele>38.6</ele>
        <time>2018-03-04T16:16:46Z</time>
      </trkpt>
      <trkpt lat="62.639437970453" lon="17.99371977288">
        <ele>38.6</ele>
        <time>2018-03-04T16:16:47Z</time>
      </trkpt>
      <trkpt lat="62.639410896916" lon="17.993767717348">
        <ele>38.6</ele>
        <time>2018-03-04T16:16:48Z</time>
      </trkpt>
      <trkpt lat="62.639395306582" lon="17.993801328767">
        <ele>38.6</ele>
        <time>2018-03-04T16:16:49Z</time>
      </trkpt>
      <trkpt lat="62.639378207506" lon="17.993832760892">
        <ele>38.6</ele>
        <time>2018-03-04T16:16:50Z</time>
      </trkpt>
      <trkpt lat="62.639354905824" lon="17.993872742555">
        <ele>38.6</ele>
        <time>2018-03-04T16:16:51Z</time>
      </trkpt>
      <trkpt lat="62.639338561119" lon="17.993920435566">
        <ele>38.6</ele>
        <time>2018-03-04T16:16:52Z</time>
      </trkpt>
      <trkpt lat="62.639317019636" lon="17.993957315926">
        <ele>38.8</ele>
        <time>2018-03-04T16:16:53Z</time>
      </trkpt>
      <trkpt lat="62.639301764578" lon="17.993989083327">
        <ele>39</ele>
        <time>2018-03-04T16:16:54Z</time>
      </trkpt>
      <trkpt lat="62.639287431529" lon="17.994019677262">
        <ele>39.2</ele>
        <time>2018-03-04T16:16:55Z</time>
      </trkpt>
      <trkpt lat="62.63927309848" lon="17.9940533725">
        <ele>39.4</ele>
        <time>2018-03-04T16:16:56Z</time>
      </trkpt>
      <trkpt lat="62.639257005232" lon="17.994088827937">
        <ele>39.6</ele>
        <time>2018-03-04T16:16:57Z</time>
      </trkpt>
      <trkpt lat="62.63924124726" lon="17.994126462668">
        <ele>39.8</ele>
        <time>2018-03-04T16:16:58Z</time>
      </trkpt>
      <trkpt lat="62.639229931695" lon="17.994159654992">
        <ele>40</ele>
        <time>2018-03-04T16:16:59Z</time>
      </trkpt>
      <trkpt lat="62.639213335533" lon="17.994200726302">
        <ele>40.2</ele>
        <time>2018-03-04T16:17:00Z</time>
      </trkpt>
      <trkpt lat="62.639194727715" lon="17.994262165629">
        <ele>40</ele>
        <time>2018-03-04T16:17:01Z</time>
      </trkpt>
      <trkpt lat="62.639192129326" lon="17.994288736252">
        <ele>40.2</ele>
        <time>2018-03-04T16:17:02Z</time>
      </trkpt>
      <trkpt lat="62.639173605327" lon="17.994340704032">
        <ele>40.2</ele>
        <time>2018-03-04T16:17:03Z</time>
      </trkpt>
      <trkpt lat="62.639155919518" lon="17.994395270201">
        <ele>40.2</ele>
        <time>2018-03-04T16:17:04Z</time>
      </trkpt>
      <trkpt lat="62.639147537618" lon="17.994430138905">
        <ele>40.4</ele>
        <time>2018-03-04T16:17:05Z</time>
      </trkpt>
      <trkpt lat="62.639132534017" lon="17.994475401165">
        <ele>40.4</ele>
        <time>2018-03-04T16:17:06Z</time>
      </trkpt>
      <trkpt lat="62.639114429113" lon="17.994515801923">
        <ele>40.4</ele>
        <time>2018-03-04T16:17:07Z</time>
      </trkpt>
      <trkpt lat="62.639104035557" lon="17.994548910428">
        <ele>40.4</ele>
        <time>2018-03-04T16:17:08Z</time>
      </trkpt>
      <trkpt lat="62.63908031478" lon="17.994591239023">
        <ele>40.6</ele>
        <time>2018-03-04T16:17:09Z</time>
      </trkpt>
      <trkpt lat="62.639062377514" lon="17.994640608414">
        <ele>40.6</ele>
        <time>2018-03-04T16:17:10Z</time>
      </trkpt>
      <trkpt lat="62.639052822148" lon="17.994671872901">
        <ele>40.8</ele>
        <time>2018-03-04T16:17:11Z</time>
      </trkpt>
      <trkpt lat="62.639029855742" lon="17.994718392446">
        <ele>41</ele>
        <time>2018-03-04T16:17:12Z</time>
      </trkpt>
      <trkpt lat="62.63900739225" lon="17.994766253095">
        <ele>41.2</ele>
        <time>2018-03-04T16:17:13Z</time>
      </trkpt>
      <trkpt lat="62.638989874079" lon="17.994802211446">
        <ele>41.2</ele>
        <time>2018-03-04T16:17:14Z</time>
      </trkpt>
      <trkpt lat="62.638968584053" lon="17.994847306068">
        <ele>41.4</ele>
        <time>2018-03-04T16:17:15Z</time>
      </trkpt>
      <trkpt lat="62.638950898244" lon="17.994885108437">
        <ele>41.4</ele>
        <time>2018-03-04T16:17:16Z</time>
      </trkpt>
      <trkpt lat="62.63893949886" lon="17.994911008508">
        <ele>41.4</ele>
        <time>2018-03-04T16:17:17Z</time>
      </trkpt>
      <trkpt lat="62.638919633757" lon="17.994952498913">
        <ele>41.4</ele>
        <time>2018-03-04T16:17:18Z</time>
      </trkpt>
      <trkpt lat="62.638893230772" lon="17.995000359562">
        <ele>41.8</ele>
        <time>2018-03-04T16:17:19Z</time>
      </trkpt>
      <trkpt lat="62.638877724257" lon="17.995038664845">
        <ele>42.2</ele>
        <time>2018-03-04T16:17:20Z</time>
      </trkpt>
      <trkpt lat="62.638867665977" lon="17.995067414762">
        <ele>42.2</ele>
        <time>2018-03-04T16:17:21Z</time>
      </trkpt>
      <trkpt lat="62.638842101182" lon="17.995111000642">
        <ele>42.2</ele>
        <time>2018-03-04T16:17:22Z</time>
      </trkpt>
      <trkpt lat="62.638818464224" lon="17.99516062149">
        <ele>42.4</ele>
        <time>2018-03-04T16:17:23Z</time>
      </trkpt>
      <trkpt lat="62.638807232478" lon="17.995179648403">
        <ele>42.4</ele>
        <time>2018-03-04T16:17:24Z</time>
      </trkpt>
      <trkpt lat="62.638784936624" lon="17.995209571786">
        <ele>42.4</ele>
        <time>2018-03-04T16:17:25Z</time>
      </trkpt>
      <trkpt lat="62.638763730417" lon="17.995248379983">
        <ele>42.2</ele>
        <time>2018-03-04T16:17:26Z</time>
      </trkpt>
      <trkpt lat="62.63874922973" lon="17.995279057737">
        <ele>42.4</ele>
        <time>2018-03-04T16:17:27Z</time>
      </trkpt>
      <trkpt lat="62.638728023523" lon="17.995314764631">
        <ele>42.4</ele>
        <time>2018-03-04T16:17:28Z</time>
      </trkpt>
      <trkpt lat="62.638708661334" lon="17.995364553117">
        <ele>42.4</ele>
        <time>2018-03-04T16:17:29Z</time>
      </trkpt>
      <trkpt lat="62.638691478439" lon="17.995405792065">
        <ele>42.6</ele>
        <time>2018-03-04T16:17:30Z</time>
      </trkpt>
      <trkpt lat="62.638671613336" lon="17.995438816751">
        <ele>42.6</ele>
        <time>2018-03-04T16:17:31Z</time>
      </trkpt>
      <trkpt lat="62.638651077681" lon="17.99547410455">
        <ele>42.6</ele>
        <time>2018-03-04T16:17:32Z</time>
      </trkpt>
      <trkpt lat="62.63863942684" lon="17.99550847034">
        <ele>42.8</ele>
        <time>2018-03-04T16:17:33Z</time>
      </trkpt>
      <trkpt lat="62.638615622244" lon="17.995543758139">
        <ele>43</ele>
        <time>2018-03-04T16:17:34Z</time>
      </trkpt>
      <trkpt lat="62.63859919372" lon="17.995582733974">
        <ele>43</ele>
        <time>2018-03-04T16:17:35Z</time>
      </trkpt>
      <trkpt lat="62.638584357757" lon="17.995619362877">
        <ele>43.2</ele>
        <time>2018-03-04T16:17:36Z</time>
      </trkpt>
      <trkpt lat="62.638570779079" lon="17.995652471382">
        <ele>43.4</ele>
        <time>2018-03-04T16:17:37Z</time>
      </trkpt>
      <trkpt lat="62.638548650863" lon="17.995702343687">
        <ele>43.4</ele>
        <time>2018-03-04T16:17:38Z</time>
      </trkpt>
      <trkpt lat="62.638539346954" lon="17.99572807612">
        <ele>43.6</ele>
        <time>2018-03-04T16:17:39Z</time>
      </trkpt>
      <trkpt lat="62.638514117435" lon="17.995779038072">
        <ele>43.6</ele>
        <time>2018-03-04T16:17:40Z</time>
      </trkpt>
      <trkpt lat="62.638494503789" lon="17.995836370268">
        <ele>43.6</ele>
        <time>2018-03-04T16:17:41Z</time>
      </trkpt>
      <trkpt lat="62.638476901799" lon="17.99587140661">
        <ele>43.8</ele>
        <time>2018-03-04T16:17:42Z</time>
      </trkpt>
      <trkpt lat="62.638460473275" lon="17.995902335821">
        <ele>43.8</ele>
        <time>2018-03-04T16:17:43Z</time>
      </trkpt>
      <trkpt lat="62.638443793294" lon="17.995935025231">
        <ele>43.8</ele>
        <time>2018-03-04T16:17:44Z</time>
      </trkpt>
      <trkpt lat="62.638427113313" lon="17.995965702985">
        <ele>44</ele>
        <time>2018-03-04T16:17:45Z</time>
      </trkpt>
      <trkpt lat="62.638410433332" lon="17.995993027979">
        <ele>43.8</ele>
        <time>2018-03-04T16:17:46Z</time>
      </trkpt>
      <trkpt lat="62.63840221907" lon="17.996021861715">
        <ele>44</ele>
        <time>2018-03-04T16:17:47Z</time>
      </trkpt>
      <trkpt lat="62.638374726438" lon="17.996069303269">
        <ele>44</ele>
        <time>2018-03-04T16:17:48Z</time>
      </trkpt>
      <trkpt lat="62.638355196611" lon="17.996113392063">
        <ele>44.2</ele>
        <time>2018-03-04T16:17:49Z</time>
      </trkpt>
      <trkpt lat="62.638346982349" lon="17.996152954631">
        <ele>44.4</ele>
        <time>2018-03-04T16:17:50Z</time>
      </trkpt>
      <trkpt lat="62.638324351219" lon="17.996193690665">
        <ele>44.4</ele>
        <time>2018-03-04T16:17:51Z</time>
      </trkpt>
      <trkpt lat="62.638305072849" lon="17.996224787514">
        <ele>44.6</ele>
        <time>2018-03-04T16:17:52Z</time>
      </trkpt>
      <trkpt lat="62.638288895782" lon="17.996254543259">
        <ele>44.6</ele>
        <time>2018-03-04T16:17:53Z</time>
      </trkpt>
      <trkpt lat="62.638270036507" lon="17.996288573773">
        <ele>44.8</ele>
        <time>2018-03-04T16:17:54Z</time>
      </trkpt>
      <trkpt lat="62.638255200544" lon="17.996322101373">
        <ele>44.8</ele>
        <time>2018-03-04T16:17:55Z</time>
      </trkpt>
      <trkpt lat="62.638239861667" lon="17.996358478819">
        <ele>45</ele>
        <time>2018-03-04T16:17:56Z</time>
      </trkpt>
      <trkpt lat="62.638221337668" lon="17.996391252048">
        <ele>45</ele>
        <time>2018-03-04T16:17:57Z</time>
      </trkpt>
      <trkpt lat="62.638212452854" lon="17.99643215572">
        <ele>45.2</ele>
        <time>2018-03-04T16:17:58Z</time>
      </trkpt>
      <trkpt lat="62.638196946339" lon="17.996462498198">
        <ele>45.2</ele>
        <time>2018-03-04T16:17:59Z</time>
      </trkpt>
      <trkpt lat="62.638173141743" lon="17.996508347191">
        <ele>45.4</ele>
        <time>2018-03-04T16:18:00Z</time>
      </trkpt>
      <trkpt lat="62.638157299952" lon="17.99653357671">
        <ele>45.4</ele>
        <time>2018-03-04T16:18:01Z</time>
      </trkpt>
      <trkpt lat="62.638145481473" lon="17.996555285831">
        <ele>45.4</ele>
        <time>2018-03-04T16:18:02Z</time>
      </trkpt>
      <trkpt lat="62.63812058723" lon="17.996586885594">
        <ele>45.4</ele>
        <time>2018-03-04T16:18:03Z</time>
      </trkpt>
      <trkpt lat="62.63810130886" lon="17.996624604144">
        <ele>45.4</ele>
        <time>2018-03-04T16:18:04Z</time>
      </trkpt>
      <trkpt lat="62.638092843141" lon="17.996648073464">
        <ele>45.6</ele>
        <time>2018-03-04T16:18:05Z</time>
      </trkpt>
      <trkpt lat="62.638072475124" lon="17.996675398458">
        <ele>45.8</ele>
        <time>2018-03-04T16:18:06Z</time>
      </trkpt>
      <trkpt lat="62.638054705496" lon="17.996697610493">
        <ele>45.8</ele>
        <time>2018-03-04T16:18:07Z</time>
      </trkpt>
      <trkpt lat="62.638033499289" lon="17.996719235795">
        <ele>46</ele>
        <time>2018-03-04T16:18:08Z</time>
      </trkpt>
      <trkpt lat="62.638017154584" lon="17.996741866925">
        <ele>46.2</ele>
        <time>2018-03-04T16:18:09Z</time>
      </trkpt>
      <trkpt lat="62.637999384956" lon="17.996764246598">
        <ele>46.2</ele>
        <time>2018-03-04T16:18:10Z</time>
      </trkpt>
      <trkpt lat="62.637977424378" lon="17.996786877728">
        <ele>46.4</ele>
        <time>2018-03-04T16:18:11Z</time>
      </trkpt>
      <trkpt lat="62.637952194859" lon="17.996814118903">
        <ele>46.8</ele>
        <time>2018-03-04T16:18:12Z</time>
      </trkpt>
      <trkpt lat="62.637938532362" lon="17.996837504404">
        <ele>46.8</ele>
        <time>2018-03-04T16:18:13Z</time>
      </trkpt>
      <trkpt lat="62.637908441341" lon="17.996870109995">
        <ele>46.8</ele>
        <time>2018-03-04T16:18:14Z</time>
      </trkpt>
      <trkpt lat="62.637888073324" lon="17.996901458301">
        <ele>47</ele>
        <time>2018-03-04T16:18:15Z</time>
      </trkpt>
      <trkpt lat="62.637870890429" lon="17.996933812435">
        <ele>47.2</ele>
        <time>2018-03-04T16:18:16Z</time>
      </trkpt>
      <trkpt lat="62.63785655738" lon="17.996962813809">
        <ele>47.4</ele>
        <time>2018-03-04T16:18:17Z</time>
      </trkpt>
      <trkpt lat="62.637835770268" lon="17.997007740793">
        <ele>47.4</ele>
        <time>2018-03-04T16:18:18Z</time>
      </trkpt>
      <trkpt lat="62.637822526866" lon="17.997058618926">
        <ele>47.4</ele>
        <time>2018-03-04T16:18:20Z</time>
      </trkpt>
      <trkpt lat="62.637801655935" lon="17.997104467919">
        <ele>47.6</ele>
        <time>2018-03-04T16:18:21Z</time>
      </trkpt>
      <trkpt lat="62.637781539375" lon="17.997145874505">
        <ele>47.6</ele>
        <time>2018-03-04T16:18:22Z</time>
      </trkpt>
      <trkpt lat="62.637777851339" lon="17.997156854794">
        <ele>47.6</ele>
        <time>2018-03-04T16:18:23Z</time>
      </trkpt>
      <trkpt lat="62.637748514689" lon="17.997208152022">
        <ele>47.6</ele>
        <time>2018-03-04T16:18:24Z</time>
      </trkpt>
      <trkpt lat="62.637730996518" lon="17.997245367658">
        <ele>47.6</ele>
        <time>2018-03-04T16:18:25Z</time>
      </trkpt>
      <trkpt lat="62.637716076736" lon="17.997289288814">
        <ele>47.8</ele>
        <time>2018-03-04T16:18:26Z</time>
      </trkpt>
      <trkpt lat="62.637701576049" lon="17.997336227454">
        <ele>47.8</ele>
        <time>2018-03-04T16:18:27Z</time>
      </trkpt>
      <trkpt lat="62.637689422294" lon="17.997387357044">
        <ele>47.8</ele>
        <time>2018-03-04T16:18:28Z</time>
      </trkpt>
      <trkpt lat="62.637675592159" lon="17.997435385331">
        <ele>48</ele>
        <time>2018-03-04T16:18:29Z</time>
      </trkpt>
      <trkpt lat="62.637661175291" lon="17.99748659874">
        <ele>48</ele>
        <time>2018-03-04T16:18:30Z</time>
      </trkpt>
      <trkpt lat="62.637652709572" lon="17.997531190448">
        <ele>48</ele>
        <time>2018-03-04T16:18:31Z</time>
      </trkpt>
      <trkpt lat="62.637645752595" lon="17.997572848491">
        <ele>48</ele>
        <time>2018-03-04T16:18:32Z</time>
      </trkpt>
      <trkpt lat="62.63763276065" lon="17.997632695257">
        <ele>48</ele>
        <time>2018-03-04T16:18:33Z</time>
      </trkpt>
      <trkpt lat="62.637622115637" lon="17.997683992485">
        <ele>48.2</ele>
        <time>2018-03-04T16:18:34Z</time>
      </trkpt>
      <trkpt lat="62.637605770932" lon="17.99774308488">
        <ele>48</ele>
        <time>2018-03-04T16:18:35Z</time>
      </trkpt>
      <trkpt lat="62.637596047928" lon="17.997789436787">
        <ele>48.2</ele>
        <time>2018-03-04T16:18:36Z</time>
      </trkpt>
      <trkpt lat="62.637590432055" lon="17.997829334631">
        <ele>48.2</ele>
        <time>2018-03-04T16:18:37Z</time>
      </trkpt>
      <trkpt lat="62.637566795097" lon="17.997896976564">
        <ele>48.2</ele>
        <time>2018-03-04T16:18:38Z</time>
      </trkpt>
      <trkpt lat="62.6375531326" lon="17.997942322643">
        <ele>48.4</ele>
        <time>2018-03-04T16:18:39Z</time>
      </trkpt>
      <trkpt lat="62.637534943877" lon="17.997996972631">
        <ele>48.2</ele>
        <time>2018-03-04T16:18:40Z</time>
      </trkpt>
      <trkpt lat="62.637516419878" lon="17.998054975379">
        <ele>48.2</ele>
        <time>2018-03-04T16:18:41Z</time>
      </trkpt>
      <trkpt lat="62.637501500096" lon="17.998110631195">
        <ele>48.2</ele>
        <time>2018-03-04T16:18:42Z</time>
      </trkpt>
      <trkpt lat="62.637475516206" lon="17.998132591773">
        <ele>48.2</ele>
        <time>2018-03-04T16:18:43Z</time>
      </trkpt>
      <trkpt lat="62.637451292515" lon="17.998168298667">
        <ele>48</ele>
        <time>2018-03-04T16:18:44Z</time>
      </trkpt>
      <trkpt lat="62.637430840679" lon="17.998193444367">
        <ele>48</ele>
        <time>2018-03-04T16:18:45Z</time>
      </trkpt>
      <trkpt lat="62.637411729947" lon="17.998214566755">
        <ele>48.2</ele>
        <time>2018-03-04T16:18:46Z</time>
      </trkpt>
      <trkpt lat="62.637396558708" lon="17.998238119894">
        <ele>48.2</ele>
        <time>2018-03-04T16:18:47Z</time>
      </trkpt>
      <trkpt lat="62.637369233714" lon="17.998266869811">
        <ele>48.4</ele>
        <time>2018-03-04T16:18:48Z</time>
      </trkpt>
      <trkpt lat="62.637345596756" lon="17.998301654696">
        <ele>48.8</ele>
        <time>2018-03-04T16:18:49Z</time>
      </trkpt>
      <trkpt lat="62.637327743309" lon="17.998335517572">
        <ele>49</ele>
        <time>2018-03-04T16:18:50Z</time>
      </trkpt>
      <trkpt lat="62.637308632577" lon="17.998373739036">
        <ele>49.2</ele>
        <time>2018-03-04T16:18:51Z</time>
      </trkpt>
      <trkpt lat="62.637287677827" lon="17.998418917477">
        <ele>49.4</ele>
        <time>2018-03-04T16:18:52Z</time>
      </trkpt>
      <trkpt lat="62.637274769701" lon="17.998458480045">
        <ele>49.2</ele>
        <time>2018-03-04T16:18:53Z</time>
      </trkpt>
      <trkpt lat="62.637256916254" lon="17.998505418685">
        <ele>49.2</ele>
        <time>2018-03-04T16:18:54Z</time>
      </trkpt>
      <trkpt lat="62.637238392255" lon="17.998554788076">
        <ele>49.2</ele>
        <time>2018-03-04T16:18:55Z</time>
      </trkpt>
      <trkpt lat="62.637219197704" lon="17.998604660381">
        <ele>49.2</ele>
        <time>2018-03-04T16:18:56Z</time>
      </trkpt>
      <trkpt lat="62.637199500239" lon="17.998660400016">
        <ele>49</ele>
        <time>2018-03-04T16:18:57Z</time>
      </trkpt>
      <trkpt lat="62.637183909905" lon="17.998694095254">
        <ele>49</ele>
        <time>2018-03-04T16:18:58Z</time>
      </trkpt>
      <trkpt lat="62.637159853852" lon="17.998739273695">
        <ele>48.8</ele>
        <time>2018-03-04T16:18:59Z</time>
      </trkpt>
      <trkpt lat="62.63714158131" lon="17.998776656969">
        <ele>49</ele>
        <time>2018-03-04T16:19:00Z</time>
      </trkpt>
      <trkpt lat="62.637122470578" lon="17.998809849293">
        <ele>49</ele>
        <time>2018-03-04T16:19:01Z</time>
      </trkpt>
      <trkpt lat="62.63710134819" lon="17.998843544531">
        <ele>49</ele>
        <time>2018-03-04T16:19:02Z</time>
      </trkpt>
      <trkpt lat="62.637084752028" lon="17.998873887009">
        <ele>49</ele>
        <time>2018-03-04T16:19:03Z</time>
      </trkpt>
      <trkpt lat="62.637067904409" lon="17.998899116528">
        <ele>49.2</ele>
        <time>2018-03-04T16:19:04Z</time>
      </trkpt>
      <trkpt lat="62.637046111469" lon="17.998929710463">
        <ele>49.4</ele>
        <time>2018-03-04T16:19:05Z</time>
      </trkpt>
      <trkpt lat="62.637027419832" lon="17.998957119276">
        <ele>49.2</ele>
        <time>2018-03-04T16:19:06Z</time>
      </trkpt>
      <trkpt lat="62.637011829498" lon="17.998982264976">
        <ele>49.4</ele>
        <time>2018-03-04T16:19:07Z</time>
      </trkpt>
      <trkpt lat="62.636989952739" lon="17.99900120807">
        <ele>50</ele>
        <time>2018-03-04T16:19:08Z</time>
      </trkpt>
      <trkpt lat="62.636967070152" lon="17.999022833372">
        <ele>50</ele>
        <time>2018-03-04T16:19:09Z</time>
      </trkpt>
      <trkpt lat="62.636945109574" lon="17.999049403995">
        <ele>50</ele>
        <time>2018-03-04T16:19:10Z</time>
      </trkpt>
      <trkpt lat="62.63692700467" lon="17.999078237731">
        <ele>50.4</ele>
        <time>2018-03-04T16:19:11Z</time>
      </trkpt>
      <trkpt lat="62.636912503983" lon="17.999105898001">
        <ele>50.4</ele>
        <time>2018-03-04T16:19:12Z</time>
      </trkpt>
      <trkpt lat="62.636888196473" lon="17.999132217167">
        <ele>50.2</ele>
        <time>2018-03-04T16:19:13Z</time>
      </trkpt>
      <trkpt lat="62.636866235895" lon="17.999161972912">
        <ele>50.4</ele>
        <time>2018-03-04T16:19:14Z</time>
      </trkpt>
      <trkpt lat="62.636847460439" lon="17.999187537707">
        <ele>50.6</ele>
        <time>2018-03-04T16:19:15Z</time>
      </trkpt>
      <trkpt lat="62.636825248404" lon="17.999220143298">
        <ele>50.8</ele>
        <time>2018-03-04T16:19:16Z</time>
      </trkpt>
      <trkpt lat="62.636799767428" lon="17.999257861848">
        <ele>50.8</ele>
        <time>2018-03-04T16:19:17Z</time>
      </trkpt>
      <trkpt lat="62.636783171266" lon="17.99928619267">
        <ele>51</ele>
        <time>2018-03-04T16:19:18Z</time>
      </trkpt>
      <trkpt lat="62.636762216516" lon="17.999316954243">
        <ele>51</ele>
        <time>2018-03-04T16:19:19Z</time>
      </trkpt>
      <trkpt lat="62.636743692517" lon="17.999350900938">
        <ele>51.2</ele>
        <time>2018-03-04T16:19:20Z</time>
      </trkpt>
      <trkpt lat="62.636730700572" lon="17.999383674167">
        <ele>51.2</ele>
        <time>2018-03-04T16:19:21Z</time>
      </trkpt>
      <trkpt lat="62.636717792446" lon="17.999417620862">
        <ele>51.2</ele>
        <time>2018-03-04T16:19:22Z</time>
      </trkpt>
      <trkpt lat="62.636693904031" lon="17.999475036877">
        <ele>51.4</ele>
        <time>2018-03-04T16:19:23Z</time>
      </trkpt>
      <trkpt lat="62.636675463851" lon="17.999522981345">
        <ele>51.4</ele>
        <time>2018-03-04T16:19:24Z</time>
      </trkpt>
      <trkpt lat="62.63665794568" lon="17.999578972437">
        <ele>51.6</ele>
        <time>2018-03-04T16:19:25Z</time>
      </trkpt>
      <trkpt lat="62.636642187708" lon="17.99963739428">
        <ele>51.4</ele>
        <time>2018-03-04T16:19:26Z</time>
      </trkpt>
      <trkpt lat="62.636625926822" lon="17.999694894114">
        <ele>51.4</ele>
        <time>2018-03-04T16:19:27Z</time>
      </trkpt>
      <trkpt lat="62.636612096687" lon="17.999734708139">
        <ele>51.6</ele>
        <time>2018-03-04T16:19:28Z</time>
      </trkpt>
      <trkpt lat="62.636602960416" lon="17.999782652607">
        <ele>51.6</ele>
        <time>2018-03-04T16:19:29Z</time>
      </trkpt>
      <trkpt lat="62.636586867168" lon="17.999840152441">
        <ele>51.6</ele>
        <time>2018-03-04T16:19:30Z</time>
      </trkpt>
      <trkpt lat="62.63657328849" lon="17.999891784945">
        <ele>51.6</ele>
        <time>2018-03-04T16:19:31Z</time>
      </trkpt>
      <trkpt lat="62.636564152219" lon="17.999938136852">
        <ele>51.8</ele>
        <time>2018-03-04T16:19:32Z</time>
      </trkpt>
      <trkpt lat="62.636549902989" lon="17.999988512071">
        <ele>51.8</ele>
        <time>2018-03-04T16:19:33Z</time>
      </trkpt>
      <trkpt lat="62.636535821397" lon="18.000049532303">
        <ele>51.8</ele>
        <time>2018-03-04T16:19:34Z</time>
      </trkpt>
      <trkpt lat="62.63652634985" lon="18.000100997169">
        <ele>51.8</ele>
        <time>2018-03-04T16:19:35Z</time>
      </trkpt>
      <trkpt lat="62.63651545338" lon="18.000152545854">
        <ele>51.8</ele>
        <time>2018-03-04T16:19:36Z</time>
      </trkpt>
      <trkpt lat="62.636503802539" lon="18.000211302973">
        <ele>51.8</ele>
        <time>2018-03-04T16:19:37Z</time>
      </trkpt>
      <trkpt lat="62.636489888585" lon="18.000273999585">
        <ele>51.8</ele>
        <time>2018-03-04T16:19:38Z</time>
      </trkpt>
      <trkpt lat="62.636472035138" lon="18.000333259618">
        <ele>52</ele>
        <time>2018-03-04T16:19:39Z</time>
      </trkpt>
      <trkpt lat="62.636458121184" lon="18.000384053932">
        <ele>52.2</ele>
        <time>2018-03-04T16:19:40Z</time>
      </trkpt>
      <trkpt lat="62.636443788135" lon="18.000439290653">
        <ele>52.2</ele>
        <time>2018-03-04T16:19:41Z</time>
      </trkpt>
      <trkpt lat="62.636426940516" lon="18.000488911501">
        <ele>52.2</ele>
        <time>2018-03-04T16:19:42Z</time>
      </trkpt>
      <trkpt lat="62.636411601639" lon="18.000528976983">
        <ele>52.4</ele>
        <time>2018-03-04T16:19:43Z</time>
      </trkpt>
      <trkpt lat="62.636396765676" lon="18.00057197613">
        <ele>52.4</ele>
        <time>2018-03-04T16:19:44Z</time>
      </trkpt>
      <trkpt lat="62.636378744591" lon="18.000618328037">
        <ele>52.4</ele>
        <time>2018-03-04T16:19:45Z</time>
      </trkpt>
      <trkpt lat="62.63636206461" lon="18.000658644976">
        <ele>52.4</ele>
        <time>2018-03-04T16:19:46Z</time>
      </trkpt>
      <trkpt lat="62.636350832864" lon="18.000696698802">
        <ele>52.4</ele>
        <time>2018-03-04T16:19:47Z</time>
      </trkpt>
      <trkpt lat="62.636324681336" lon="18.000761323251">
        <ele>52.4</ele>
        <time>2018-03-04T16:19:48Z</time>
      </trkpt>
      <trkpt lat="62.636305989699" lon="18.000815973239">
        <ele>52.4</ele>
        <time>2018-03-04T16:19:49Z</time>
      </trkpt>
      <trkpt lat="62.636284280578" lon="18.000865929363">
        <ele>52.4</ele>
        <time>2018-03-04T16:19:50Z</time>
      </trkpt>
      <trkpt lat="62.63626651095" lon="18.000910856347">
        <ele>52.4</ele>
        <time>2018-03-04T16:19:51Z</time>
      </trkpt>
      <trkpt lat="62.63625561448" lon="18.000953855494">
        <ele>52.4</ele>
        <time>2018-03-04T16:19:52Z</time>
      </trkpt>
      <trkpt lat="62.636227535115" lon="18.000996184089">
        <ele>52.2</ele>
        <time>2018-03-04T16:19:53Z</time>
      </trkpt>
      <trkpt lat="62.636208340564" lon="18.00104136253">
        <ele>52.2</ele>
        <time>2018-03-04T16:19:54Z</time>
      </trkpt>
      <trkpt lat="62.636192666411" lon="18.001080506003">
        <ele>52.2</ele>
        <time>2018-03-04T16:19:55Z</time>
      </trkpt>
      <trkpt lat="62.636172549851" lon="18.001131551774">
        <ele>52.2</ele>
        <time>2018-03-04T16:19:56Z</time>
      </trkpt>
      <trkpt lat="62.636152768567" lon="18.001191482359">
        <ele>52.2</ele>
        <time>2018-03-04T16:19:57Z</time>
      </trkpt>
      <trkpt lat="62.636137597328" lon="18.001237834266">
        <ele>52.2</ele>
        <time>2018-03-04T16:19:58Z</time>
      </trkpt>
      <trkpt lat="62.636119995338" lon="18.001283683259">
        <ele>52.2</ele>
        <time>2018-03-04T16:19:59Z</time>
      </trkpt>
      <trkpt lat="62.636098956769" lon="18.00133556722">
        <ele>52.2</ele>
        <time>2018-03-04T16:20:00Z</time>
      </trkpt>
      <trkpt lat="62.636077499105" lon="18.001382924955">
        <ele>52.2</ele>
        <time>2018-03-04T16:20:01Z</time>
      </trkpt>
      <trkpt lat="62.636060148572" lon="18.001429109224">
        <ele>52.4</ele>
        <time>2018-03-04T16:20:02Z</time>
      </trkpt>
      <trkpt lat="62.636039110003" lon="18.001492141112">
        <ele>52.4</ele>
        <time>2018-03-04T16:20:03Z</time>
      </trkpt>
      <trkpt lat="62.636019999271" lon="18.001541594322">
        <ele>52.4</ele>
        <time>2018-03-04T16:20:04Z</time>
      </trkpt>
      <trkpt lat="62.635999882711" lon="18.00159456793">
        <ele>52.4</ele>
        <time>2018-03-04T16:20:05Z</time>
      </trkpt>
      <trkpt lat="62.635988399508" lon="18.001640165466">
        <ele>52.4</ele>
        <time>2018-03-04T16:20:06Z</time>
      </trkpt>
      <trkpt lat="62.635983454187" lon="18.001682242604">
        <ele>52.4</ele>
        <time>2018-03-04T16:20:07Z</time>
      </trkpt>
      <trkpt lat="62.635951938243" lon="18.001736305859">
        <ele>52.4</ele>
        <time>2018-03-04T16:20:08Z</time>
      </trkpt>
      <trkpt lat="62.635936599366" lon="18.001782490128">
        <ele>52.4</ele>
        <time>2018-03-04T16:20:09Z</time>
      </trkpt>
      <trkpt lat="62.635917320996" lon="18.001828087664">
        <ele>52.4</ele>
        <time>2018-03-04T16:20:10Z</time>
      </trkpt>
      <trkpt lat="62.635893013486" lon="18.001879636349">
        <ele>52.2</ele>
        <time>2018-03-04T16:20:11Z</time>
      </trkpt>
      <trkpt lat="62.635874489487" lon="18.001927496998">
        <ele>52.2</ele>
        <time>2018-03-04T16:20:12Z</time>
      </trkpt>
      <trkpt lat="62.635856468402" lon="18.001977453122">
        <ele>52.2</ele>
        <time>2018-03-04T16:20:13Z</time>
      </trkpt>
      <trkpt lat="62.635839117869" lon="18.002030929644">
        <ele>52</ele>
        <time>2018-03-04T16:20:14Z</time>
      </trkpt>
      <trkpt lat="62.635822773164" lon="18.0020748508">
        <ele>52</ele>
        <time>2018-03-04T16:20:15Z</time>
      </trkpt>
      <trkpt lat="62.635803662432" lon="18.002124136372">
        <ele>52</ele>
        <time>2018-03-04T16:20:16Z</time>
      </trkpt>
      <trkpt lat="62.635787401546" lon="18.002181887663">
        <ele>52.2</ele>
        <time>2018-03-04T16:20:17Z</time>
      </trkpt>
      <trkpt lat="62.635767871719" lon="18.002235699461">
        <ele>52</ele>
        <time>2018-03-04T16:20:18Z</time>
      </trkpt>
      <trkpt lat="62.635755801783" lon="18.002288086336">
        <ele>52.2</ele>
        <time>2018-03-04T16:20:19Z</time>
      </trkpt>
      <trkpt lat="62.635749180082" lon="18.002337288089">
        <ele>52.2</ele>
        <time>2018-03-04T16:20:20Z</time>
      </trkpt>
      <trkpt lat="62.635736691051" lon="18.002394704104">
        <ele>52.2</ele>
        <time>2018-03-04T16:20:21Z</time>
      </trkpt>
      <trkpt lat="62.635722190364" lon="18.002465531159">
        <ele>52.2</ele>
        <time>2018-03-04T16:20:22Z</time>
      </trkpt>
      <trkpt lat="62.635706180935" lon="18.002530071789">
        <ele>52.2</ele>
        <time>2018-03-04T16:20:23Z</time>
      </trkpt>
      <trkpt lat="62.635691428791" lon="18.002609951296">
        <ele>52.2</ele>
        <time>2018-03-04T16:20:24Z</time>
      </trkpt>
      <trkpt lat="62.635675754638" lon="18.002689411708">
        <ele>52.2</ele>
        <time>2018-03-04T16:20:25Z</time>
      </trkpt>
      <trkpt lat="62.6356588232" lon="18.002775326183">
        <ele>52.2</ele>
        <time>2018-03-04T16:20:26Z</time>
      </trkpt>
      <trkpt lat="62.635645747436" lon="18.002865515427">
        <ele>52</ele>
        <time>2018-03-04T16:20:27Z</time>
      </trkpt>
      <trkpt lat="62.635616410786" lon="18.002948160961">
        <ele>51.8</ele>
        <time>2018-03-04T16:20:28Z</time>
      </trkpt>
      <trkpt lat="62.635593528199" lon="18.003024939165">
        <ele>51.4</ele>
        <time>2018-03-04T16:20:29Z</time>
      </trkpt>
      <trkpt lat="62.635575171838" lon="18.003098783704">
        <ele>51</ele>
        <time>2018-03-04T16:20:30Z</time>
      </trkpt>
      <trkpt lat="62.635561341703" lon="18.003171538596">
        <ele>50.4</ele>
        <time>2018-03-04T16:20:31Z</time>
      </trkpt>
      <trkpt lat="62.635552037794" lon="18.003242198013">
        <ele>50.2</ele>
        <time>2018-03-04T16:20:32Z</time>
      </trkpt>
      <trkpt lat="62.635534687261" lon="18.003318808579">
        <ele>50</ele>
        <time>2018-03-04T16:20:33Z</time>
      </trkpt>
      <trkpt lat="62.635516079443" lon="18.003385696141">
        <ele>50</ele>
        <time>2018-03-04T16:20:34Z</time>
      </trkpt>
      <trkpt lat="62.635500321471" lon="18.003458786309">
        <ele>49.8</ele>
        <time>2018-03-04T16:20:35Z</time>
      </trkpt>
      <trkpt lat="62.635486742793" lon="18.003522488749">
        <ele>49.8</ele>
        <time>2018-03-04T16:20:36Z</time>
      </trkpt>
      <trkpt lat="62.635473331753" lon="18.00358946013">
        <ele>49.6</ele>
        <time>2018-03-04T16:20:37Z</time>
      </trkpt>
      <trkpt lat="62.635464111663" lon="18.003671099836">
        <ele>49.4</ele>
        <time>2018-03-04T16:20:38Z</time>
      </trkpt>
      <trkpt lat="62.635449527157" lon="18.003744776737">
        <ele>49.4</ele>
        <time>2018-03-04T16:20:39Z</time>
      </trkpt>
      <trkpt lat="62.635431506072" lon="18.003824488606">
        <ele>49.2</ele>
        <time>2018-03-04T16:20:40Z</time>
      </trkpt>
      <trkpt lat="62.635415999557" lon="18.00390461957">
        <ele>49.2</ele>
        <time>2018-03-04T16:20:41Z</time>
      </trkpt>
      <trkpt lat="62.635399319576" lon="18.003973770245">
        <ele>49</ele>
        <time>2018-03-04T16:20:42Z</time>
      </trkpt>
      <trkpt lat="62.6353822205" lon="18.00405549377">
        <ele>48.8</ele>
        <time>2018-03-04T16:20:43Z</time>
      </trkpt>
      <trkpt lat="62.635366630166" lon="18.004139228951">
        <ele>48.8</ele>
        <time>2018-03-04T16:20:44Z</time>
      </trkpt>
      <trkpt lat="62.635349028176" lon="18.004220114286">
        <ele>48.6</ele>
        <time>2018-03-04T16:20:45Z</time>
      </trkpt>
      <trkpt lat="62.63533695824" lon="18.004302843639">
        <ele>48.6</ele>
        <time>2018-03-04T16:20:46Z</time>
      </trkpt>
      <trkpt lat="62.635320026802" lon="18.004357912722">
        <ele>48.4</ele>
        <time>2018-03-04T16:20:47Z</time>
      </trkpt>
      <trkpt lat="62.635295719292" lon="18.004423375361">
        <ele>48.2</ele>
        <time>2018-03-04T16:20:48Z</time>
      </trkpt>
      <trkpt lat="62.635272333791" lon="18.004489005638">
        <ele>48.2</ele>
        <time>2018-03-04T16:20:49Z</time>
      </trkpt>
      <trkpt lat="62.635250457032" lon="18.004540973418">
        <ele>48</ele>
        <time>2018-03-04T16:20:50Z</time>
      </trkpt>
      <trkpt lat="62.635225730427" lon="18.004591180999">
        <ele>48</ele>
        <time>2018-03-04T16:20:51Z</time>
      </trkpt>
      <trkpt lat="62.63520368603" lon="18.004648764652">
        <ele>48</ele>
        <time>2018-03-04T16:20:52Z</time>
      </trkpt>
      <trkpt lat="62.635175774303" lon="18.004680029139">
        <ele>48.2</ele>
        <time>2018-03-04T16:20:53Z</time>
      </trkpt>
      <trkpt lat="62.635148449309" lon="18.00471598749">
        <ele>48.2</ele>
        <time>2018-03-04T16:20:54Z</time>
      </trkpt>
      <trkpt lat="62.635125399084" lon="18.00475202966">
        <ele>48.2</ele>
        <time>2018-03-04T16:20:55Z</time>
      </trkpt>
      <trkpt lat="62.635102181221" lon="18.004790837857">
        <ele>48.2</ele>
        <time>2018-03-04T16:20:56Z</time>
      </trkpt>
      <trkpt lat="62.635083154308" lon="18.004834339918">
        <ele>48.2</ele>
        <time>2018-03-04T16:20:57Z</time>
      </trkpt>
      <trkpt lat="62.635054655848" lon="18.004874489219">
        <ele>48.2</ele>
        <time>2018-03-04T16:20:58Z</time>
      </trkpt>
      <trkpt lat="62.635032527632" lon="18.004913297416">
        <ele>48.2</ele>
        <time>2018-03-04T16:20:59Z</time>
      </trkpt>
      <trkpt lat="62.635009645045" lon="18.00495151888">
        <ele>48.2</ele>
        <time>2018-03-04T16:21:00Z</time>
      </trkpt>
      <trkpt lat="62.634988522657" lon="18.004986052308">
        <ele>48</ele>
        <time>2018-03-04T16:21:01Z</time>
      </trkpt>
      <trkpt lat="62.634973016142" lon="18.005022429754">
        <ele>48.2</ele>
        <time>2018-03-04T16:21:02Z</time>
      </trkpt>
      <trkpt lat="62.634948205718" lon="18.005053861879">
        <ele>48.2</ele>
        <time>2018-03-04T16:21:03Z</time>
      </trkpt>
      <trkpt lat="62.634931441918" lon="18.005087640936">
        <ele>48.2</ele>
        <time>2018-03-04T16:21:04Z</time>
      </trkpt>
      <trkpt lat="62.634909648978" lon="18.005133825205">
        <ele>48.2</ele>
        <time>2018-03-04T16:21:05Z</time>
      </trkpt>
      <trkpt lat="62.634890705884" lon="18.005176656714">
        <ele>48.4</ele>
        <time>2018-03-04T16:21:06Z</time>
      </trkpt>
      <trkpt lat="62.634874528817" lon="18.005214542902">
        <ele>48.4</ele>
        <time>2018-03-04T16:21:07Z</time>
      </trkpt>
      <trkpt lat="62.634851394773" lon="18.005268270881">
        <ele>48.4</ele>
        <time>2018-03-04T16:21:08Z</time>
      </trkpt>
      <trkpt lat="62.634833122231" lon="18.005312527313">
        <ele>48.4</ele>
        <time>2018-03-04T16:21:09Z</time>
      </trkpt>
      <trkpt lat="62.634809652911" lon="18.005351419329">
        <ele>48.2</ele>
        <time>2018-03-04T16:21:10Z</time>
      </trkpt>
      <trkpt lat="62.634787776152" lon="18.005384276377">
        <ele>48.4</ele>
        <time>2018-03-04T16:21:11Z</time>
      </trkpt>
      <trkpt lat="62.634768749239" lon="18.005406991326">
        <ele>48.2</ele>
        <time>2018-03-04T16:21:12Z</time>
      </trkpt>
      <trkpt lat="62.63474268153" lon="18.005429873913">
        <ele>48.4</ele>
        <time>2018-03-04T16:21:13Z</time>
      </trkpt>
      <trkpt lat="62.634717116735" lon="18.005454516699">
        <ele>48.4</ele>
        <time>2018-03-04T16:21:14Z</time>
      </trkpt>
      <trkpt lat="62.634697083994" lon="18.005475974363">
        <ele>48.4</ele>
        <time>2018-03-04T16:21:15Z</time>
      </trkpt>
      <trkpt lat="62.634676129244" lon="18.00549550419">
        <ele>48.4</ele>
        <time>2018-03-04T16:21:16Z</time>
      </trkpt>
      <trkpt lat="62.634655845046" lon="18.005518051501">
        <ele>48.6</ele>
        <time>2018-03-04T16:21:17Z</time>
      </trkpt>
      <trkpt lat="62.634629442061" lon="18.005542694287">
        <ele>48.6</ele>
        <time>2018-03-04T16:21:18Z</time>
      </trkpt>
      <trkpt lat="62.634612594442" lon="18.005567085616">
        <ele>48.8</ele>
        <time>2018-03-04T16:21:19Z</time>
      </trkpt>
      <trkpt lat="62.634592896977" lon="18.005595500257">
        <ele>48.8</ele>
        <time>2018-03-04T16:21:20Z</time>
      </trkpt>
      <trkpt lat="62.634572780417" lon="18.005626094192">
        <ele>49.2</ele>
        <time>2018-03-04T16:21:21Z</time>
      </trkpt>
      <trkpt lat="62.634557609178" lon="18.00566062762">
        <ele>49.2</ele>
        <time>2018-03-04T16:21:22Z</time>
      </trkpt>
      <trkpt lat="62.634539671912" lon="18.005689712813">
        <ele>49.4</ele>
        <time>2018-03-04T16:21:23Z</time>
      </trkpt>
      <trkpt lat="62.634519806809" lon="18.005730448847">
        <ele>49.4</ele>
        <time>2018-03-04T16:21:24Z</time>
      </trkpt>
      <trkpt lat="62.634501366629" lon="18.005768670311">
        <ele>49.4</ele>
        <time>2018-03-04T16:21:25Z</time>
      </trkpt>
      <trkpt lat="62.634483345544" lon="18.005803874291">
        <ele>49.4</ele>
        <time>2018-03-04T16:21:26Z</time>
      </trkpt>
      <trkpt lat="62.634467671391" lon="18.005841173746">
        <ele>49.6</ele>
        <time>2018-03-04T16:21:27Z</time>
      </trkpt>
      <trkpt lat="62.634445626994" lon="18.005882245056">
        <ele>49.6</ele>
        <time>2018-03-04T16:21:28Z</time>
      </trkpt>
      <trkpt lat="62.634430120479" lon="18.00592130471">
        <ele>49.8</ele>
        <time>2018-03-04T16:21:29Z</time>
      </trkpt>
      <trkpt lat="62.63441159648" lon="18.005962962753">
        <ele>50</ele>
        <time>2018-03-04T16:21:30Z</time>
      </trkpt>
      <trkpt lat="62.634391731377" lon="18.006006967728">
        <ele>50</ele>
        <time>2018-03-04T16:21:31Z</time>
      </trkpt>
      <trkpt lat="62.634374632301" lon="18.006052146169">
        <ele>50</ele>
        <time>2018-03-04T16:21:32Z</time>
      </trkpt>
      <trkpt lat="62.634352168809" lon="18.006096989334">
        <ele>49.8</ele>
        <time>2018-03-04T16:21:33Z</time>
      </trkpt>
      <trkpt lat="62.634332387525" lon="18.006139569386">
        <ele>49.6</ele>
        <time>2018-03-04T16:21:34Z</time>
      </trkpt>
      <trkpt lat="62.634312354784" lon="18.006188100587">
        <ele>49.6</ele>
        <time>2018-03-04T16:21:35Z</time>
      </trkpt>
      <trkpt lat="62.634292741138" lon="18.006234955408">
        <ele>49.4</ele>
        <time>2018-03-04T16:21:36Z</time>
      </trkpt>
      <trkpt lat="62.63427161875" lon="18.006281474953">
        <ele>49.6</ele>
        <time>2018-03-04T16:21:37Z</time>
      </trkpt>
      <trkpt lat="62.634250161086" lon="18.006333526552">
        <ele>49.6</ele>
        <time>2018-03-04T16:21:38Z</time>
      </trkpt>
      <trkpt lat="62.634235073666" lon="18.006376106604">
        <ele>49.6</ele>
        <time>2018-03-04T16:21:39Z</time>
      </trkpt>
      <trkpt lat="62.634216382029" lon="18.006425392176">
        <ele>49.6</ele>
        <time>2018-03-04T16:21:40Z</time>
      </trkpt>
      <trkpt lat="62.634195427279" lon="18.006475264481">
        <ele>49.8</ele>
        <time>2018-03-04T16:21:41Z</time>
      </trkpt>
      <trkpt lat="62.634175729814" lon="18.006517006343">
        <ele>49.8</ele>
        <time>2018-03-04T16:21:42Z</time>
      </trkpt>
      <trkpt lat="62.63415511034" lon="18.006561849508">
        <ele>49.6</ele>
        <time>2018-03-04T16:21:43Z</time>
      </trkpt>
      <trkpt lat="62.634138933273" lon="18.006601831171">
        <ele>49.6</ele>
        <time>2018-03-04T16:21:44Z</time>
      </trkpt>
      <trkpt lat="62.634120493093" lon="18.006648937449">
        <ele>49.6</ele>
        <time>2018-03-04T16:21:45Z</time>
      </trkpt>
      <trkpt lat="62.634102807284" lon="18.006697803926">
        <ele>49.6</ele>
        <time>2018-03-04T16:21:46Z</time>
      </trkpt>
      <trkpt lat="62.634088306597" lon="18.0067435691">
        <ele>49.6</ele>
        <time>2018-03-04T16:21:47Z</time>
      </trkpt>
      <trkpt lat="62.634069112046" lon="18.006784891867">
        <ele>49.6</ele>
        <time>2018-03-04T16:21:48Z</time>
      </trkpt>
      <trkpt lat="62.634052348246" lon="18.006824370616">
        <ele>49.6</ele>
        <time>2018-03-04T16:21:49Z</time>
      </trkpt>
      <trkpt lat="62.634036254998" lon="18.006863262632">
        <ele>49.8</ele>
        <time>2018-03-04T16:21:50Z</time>
      </trkpt>
      <trkpt lat="62.634020329388" lon="18.006904417761">
        <ele>49.8</ele>
        <time>2018-03-04T16:21:51Z</time>
      </trkpt>
      <trkpt lat="62.634006415434" lon="18.006949847659">
        <ele>49.8</ele>
        <time>2018-03-04T16:21:52Z</time>
      </trkpt>
      <trkpt lat="62.633987639978" lon="18.006999971421">
        <ele>49.8</ele>
        <time>2018-03-04T16:21:53Z</time>
      </trkpt>
      <trkpt lat="62.633968110151" lon="18.007052442115">
        <ele>49.6</ele>
        <time>2018-03-04T16:21:54Z</time>
      </trkpt>
      <trkpt lat="62.633955034387" lon="18.00709728528">
        <ele>49.6</ele>
        <time>2018-03-04T16:21:55Z</time>
      </trkpt>
      <trkpt lat="62.633938270587" lon="18.007149085422">
        <ele>49.6</ele>
        <time>2018-03-04T16:21:56Z</time>
      </trkpt>
      <trkpt lat="62.633918656941" lon="18.007208429274">
        <ele>49.6</ele>
        <time>2018-03-04T16:21:57Z</time>
      </trkpt>
      <trkpt lat="62.63390113877" lon="18.007250171136">
        <ele>49.6</ele>
        <time>2018-03-04T16:21:58Z</time>
      </trkpt>
      <trkpt lat="62.633881441305" lon="18.007304402029">
        <ele>49.6</ele>
        <time>2018-03-04T16:21:59Z</time>
      </trkpt>
      <trkpt lat="62.633864174591" lon="18.007353017049">
        <ele>49.6</ele>
        <time>2018-03-04T16:22:00Z</time>
      </trkpt>
      <trkpt lat="62.633842130194" lon="18.007396938205">
        <ele>49.6</ele>
        <time>2018-03-04T16:22:01Z</time>
      </trkpt>
      <trkpt lat="62.633816565399" lon="18.007444044483">
        <ele>49.8</ele>
        <time>2018-03-04T16:22:02Z</time>
      </trkpt>
      <trkpt lat="62.633797622305" lon="18.007456952609">
        <ele>49.8</ele>
        <time>2018-03-04T16:22:03Z</time>
      </trkpt>
      <trkpt lat="62.633771051682" lon="18.007464161043">
        <ele>49.8</ele>
        <time>2018-03-04T16:22:04Z</time>
      </trkpt>
      <trkpt lat="62.633741631213" lon="18.007463071396">
        <ele>49.8</ele>
        <time>2018-03-04T16:22:05Z</time>
      </trkpt>
      <trkpt lat="62.633716317875" lon="18.007448403071">
        <ele>49.8</ele>
        <time>2018-03-04T16:22:06Z</time>
      </trkpt>
      <trkpt lat="62.633693100012" lon="18.007427951235">
        <ele>49.8</ele>
        <time>2018-03-04T16:22:07Z</time>
      </trkpt>
      <trkpt lat="62.633670720339" lon="18.007410684521">
        <ele>49.6</ele>
        <time>2018-03-04T16:22:08Z</time>
      </trkpt>
      <trkpt lat="62.633652866892" lon="18.007395094187">
        <ele>49.8</ele>
        <time>2018-03-04T16:22:09Z</time>
      </trkpt>
      <trkpt lat="62.633634091436" lon="18.007377576016">
        <ele>49.8</ele>
        <time>2018-03-04T16:22:10Z</time>
      </trkpt>
      <trkpt lat="62.633614393971" lon="18.007355363981">
        <ele>50</ele>
        <time>2018-03-04T16:22:11Z</time>
      </trkpt>
      <trkpt lat="62.633594864144" lon="18.007334744507">
        <ele>50</ele>
        <time>2018-03-04T16:22:12Z</time>
      </trkpt>
      <trkpt lat="62.633572484471" lon="18.007313622119">
        <ele>50.4</ele>
        <time>2018-03-04T16:22:13Z</time>
      </trkpt>
      <trkpt lat="62.63355161354" lon="18.007294511387">
        <ele>50.4</ele>
        <time>2018-03-04T16:22:14Z</time>
      </trkpt>
      <trkpt lat="62.63353233517" lon="18.007277579949">
        <ele>50.6</ele>
        <time>2018-03-04T16:22:15Z</time>
      </trkpt>
      <trkpt lat="62.633512470067" lon="18.007260229416">
        <ele>50.8</ele>
        <time>2018-03-04T16:22:16Z</time>
      </trkpt>
      <trkpt lat="62.633493024059" lon="18.00724396853">
        <ele>51</ele>
        <time>2018-03-04T16:22:17Z</time>
      </trkpt>
      <trkpt lat="62.633464357961" lon="18.007218152278">
        <ele>51</ele>
        <time>2018-03-04T16:22:18Z</time>
      </trkpt>
      <trkpt lat="62.63344181065" lon="18.007196778433">
        <ele>51.2</ele>
        <time>2018-03-04T16:22:19Z</time>
      </trkpt>
      <trkpt lat="62.633417586959" lon="18.007167777059">
        <ele>51.2</ele>
        <time>2018-03-04T16:22:20Z</time>
      </trkpt>
      <trkpt lat="62.63339822477" lon="18.007142379902">
        <ele>51.2</ele>
        <time>2018-03-04T16:22:21Z</time>
      </trkpt>
      <trkpt lat="62.633381628608" lon="18.007123017713">
        <ele>51.4</ele>
        <time>2018-03-04T16:22:22Z</time>
      </trkpt>
      <trkpt lat="62.633358997478" lon="18.007073899779">
        <ele>51.4</ele>
        <time>2018-03-04T16:22:23Z</time>
      </trkpt>
      <trkpt lat="62.633336533986" lon="18.007027883148">
        <ele>51.2</ele>
        <time>2018-03-04T16:22:24Z</time>
      </trkpt>
      <trkpt lat="62.633326894801" lon="18.006993852634">
        <ele>51.4</ele>
        <time>2018-03-04T16:22:25Z</time>
      </trkpt>
      <trkpt lat="62.633313735218" lon="18.006943645053">
        <ele>51.4</ele>
        <time>2018-03-04T16:22:26Z</time>
      </trkpt>
      <trkpt lat="62.633302419653" lon="18.006892347825">
        <ele>51.4</ele>
        <time>2018-03-04T16:22:27Z</time>
      </trkpt>
      <trkpt lat="62.633295043581" lon="18.006851611791">
        <ele>51.6</ele>
        <time>2018-03-04T16:22:28Z</time>
      </trkpt>
      <trkpt lat="62.633287667509" lon="18.006803248228">
        <ele>51.4</ele>
        <time>2018-03-04T16:22:29Z</time>
      </trkpt>
      <trkpt lat="62.63327920179" lon="18.006744491109">
        <ele>51.6</ele>
        <time>2018-03-04T16:22:30Z</time>
      </trkpt>
      <trkpt lat="62.633273250641" lon="18.006691182225">
        <ele>51.8</ele>
        <time>2018-03-04T16:22:31Z</time>
      </trkpt>
      <trkpt lat="62.633269814062" lon="18.006643656852">
        <ele>51.8</ele>
        <time>2018-03-04T16:22:32Z</time>
      </trkpt>
      <trkpt lat="62.633264868741" lon="18.006591102339">
        <ele>52.2</ele>
        <time>2018-03-04T16:22:33Z</time>
      </trkpt>
      <trkpt lat="62.633260258696" lon="18.006530836478">
        <ele>52.4</ele>
        <time>2018-03-04T16:22:34Z</time>
      </trkpt>
      <trkpt lat="62.633256235384" lon="18.006479790707">
        <ele>52.6</ele>
        <time>2018-03-04T16:22:35Z</time>
      </trkpt>
      <trkpt lat="62.633251457701" lon="18.006436288646">
        <ele>52.8</ele>
        <time>2018-03-04T16:22:36Z</time>
      </trkpt>
      <trkpt lat="62.633247937303" lon="18.006392451309">
        <ele>52.8</ele>
        <time>2018-03-04T16:22:37Z</time>
      </trkpt>
      <trkpt lat="62.633247099113" lon="18.006340567348">
        <ele>53</ele>
        <time>2018-03-04T16:22:38Z</time>
      </trkpt>
      <trkpt lat="62.633245506552" lon="18.006294969812">
        <ele>53.2</ele>
        <time>2018-03-04T16:22:39Z</time>
      </trkpt>
      <trkpt lat="62.633243243439" lon="18.006252473579">
        <ele>53.2</ele>
        <time>2018-03-04T16:22:40Z</time>
      </trkpt>
      <trkpt lat="62.633240477412" lon="18.006208217147">
        <ele>53.4</ele>
        <time>2018-03-04T16:22:41Z</time>
      </trkpt>
      <trkpt lat="62.633238465756" lon="18.006164463629">
        <ele>53.4</ele>
        <time>2018-03-04T16:22:42Z</time>
      </trkpt>
      <trkpt lat="62.633235951186" lon="18.006119201369">
        <ele>53.6</ele>
        <time>2018-03-04T16:22:43Z</time>
      </trkpt>
      <trkpt lat="62.633236118824" lon="18.006081482819">
        <ele>53.8</ele>
        <time>2018-03-04T16:22:44Z</time>
      </trkpt>
      <trkpt lat="62.633236873195" lon="18.006048877228">
        <ele>54</ele>
        <time>2018-03-04T16:22:45Z</time>
      </trkpt>
      <trkpt lat="62.633238381937" lon="18.006012248325">
        <ele>54.2</ele>
        <time>2018-03-04T16:22:46Z</time>
      </trkpt>
      <trkpt lat="62.633240058317" lon="18.005972601938">
        <ele>54.4</ele>
        <time>2018-03-04T16:22:47Z</time>
      </trkpt>
      <trkpt lat="62.633237795204" lon="18.005929183696">
        <ele>54.4</ele>
        <time>2018-03-04T16:22:48Z</time>
      </trkpt>
      <trkpt lat="62.63323561591" lon="18.005897332476">
        <ele>54.6</ele>
        <time>2018-03-04T16:22:49Z</time>
      </trkpt>
      <trkpt lat="62.633233436616" lon="18.005873276423">
        <ele>54.8</ele>
        <time>2018-03-04T16:22:50Z</time>
      </trkpt>
      <trkpt lat="62.633232766064" lon="18.005853495139">
        <ele>55</ele>
        <time>2018-03-04T16:22:51Z</time>
      </trkpt>
      <trkpt lat="62.633232430788" lon="18.005834635864">
        <ele>55</ele>
        <time>2018-03-04T16:22:52Z</time>
      </trkpt>
      <trkpt lat="62.633234023349" lon="18.005829355267">
        <ele>55.2</ele>
        <time>2018-03-04T16:22:53Z</time>
      </trkpt>
      <trkpt lat="62.633231676417" lon="18.005807143232">
        <ele>55.6</ele>
        <time>2018-03-04T16:22:54Z</time>
      </trkpt>
      <trkpt lat="62.633227066372" lon="18.005781159342">
        <ele>55.8</ele>
        <time>2018-03-04T16:22:55Z</time>
      </trkpt>
      <trkpt lat="62.633225389992" lon="18.00576456318">
        <ele>56</ele>
        <time>2018-03-04T16:22:56Z</time>
      </trkpt>
      <trkpt lat="62.633225725268" lon="18.005752493244">
        <ele>56.2</ele>
        <time>2018-03-04T16:22:57Z</time>
      </trkpt>
      <trkpt lat="62.633226647277" lon="18.005745452448">
        <ele>56.8</ele>
        <time>2018-03-04T16:22:58Z</time>
      </trkpt>
      <trkpt lat="62.633213152418" lon="18.005084120538">
        <ele>63.4</ele>
        <time>2018-03-04T16:23:27Z</time>
      </trkpt>
      <trkpt lat="62.633215164074" lon="18.005066686186">
        <ele>63.8</ele>
        <time>2018-03-04T16:23:28Z</time>
      </trkpt>
      <trkpt lat="62.633216672816" lon="18.005045144703">
        <ele>64.2</ele>
        <time>2018-03-04T16:23:29Z</time>
      </trkpt>
      <trkpt lat="62.633216253721" lon="18.005023938496">
        <ele>64.2</ele>
        <time>2018-03-04T16:23:30Z</time>
      </trkpt>
      <trkpt lat="62.633215918445" lon="18.005000385357">
        <ele>64.4</ele>
        <time>2018-03-04T16:23:31Z</time>
      </trkpt>
      <trkpt lat="62.633211559857" lon="18.004976999856">
        <ele>64.6</ele>
        <time>2018-03-04T16:23:32Z</time>
      </trkpt>
      <trkpt lat="62.633204016147" lon="18.004948585215">
        <ele>65</ele>
        <time>2018-03-04T16:23:33Z</time>
      </trkpt>
      <trkpt lat="62.633195131333" lon="18.004924361524">
        <ele>65.2</ele>
        <time>2018-03-04T16:23:34Z</time>
      </trkpt>
      <trkpt lat="62.633186414157" lon="18.004899802557">
        <ele>65.4</ele>
        <time>2018-03-04T16:23:35Z</time>
      </trkpt>
      <trkpt lat="62.633178367533" lon="18.004878177255">
        <ele>65.6</ele>
        <time>2018-03-04T16:23:36Z</time>
      </trkpt>
      <trkpt lat="62.633170907642" lon="18.004856384315">
        <ele>65.8</ele>
        <time>2018-03-04T16:23:37Z</time>
      </trkpt>
      <trkpt lat="62.63315934062" lon="18.004852025727">
        <ele>66.2</ele>
        <time>2018-03-04T16:23:38Z</time>
      </trkpt>
      <trkpt lat="62.633148276512" lon="18.00484758332">
        <ele>66.6</ele>
        <time>2018-03-04T16:23:39Z</time>
      </trkpt>
      <trkpt lat="62.633135200748" lon="18.004845152569">
        <ele>66.8</ele>
        <time>2018-03-04T16:23:40Z</time>
      </trkpt>
      <trkpt lat="62.633120616242" lon="18.004842721818">
        <ele>67.2</ele>
        <time>2018-03-04T16:23:41Z</time>
      </trkpt>
      <trkpt lat="62.633106869926" lon="18.004837273583">
        <ele>67.2</ele>
        <time>2018-03-04T16:23:42Z</time>
      </trkpt>
      <trkpt lat="62.633089938488" lon="18.004841129257">
        <ele>67.6</ele>
        <time>2018-03-04T16:23:43Z</time>
      </trkpt>
      <trkpt lat="62.633071749765" lon="18.004841129257">
        <ele>67.8</ele>
        <time>2018-03-04T16:23:44Z</time>
      </trkpt>
      <trkpt lat="62.633055991793" lon="18.004844062922">
        <ele>68.2</ele>
        <time>2018-03-04T16:23:45Z</time>
      </trkpt>
      <trkpt lat="62.633039814726" lon="18.004851522813">
        <ele>68.4</ele>
        <time>2018-03-04T16:23:46Z</time>
      </trkpt>
      <trkpt lat="62.633022128917" lon="18.004857893057">
        <ele>68.6</ele>
        <time>2018-03-04T16:23:47Z</time>
      </trkpt>
      <trkpt lat="62.633000587434" lon="18.004889911915">
        <ele>68.8</ele>
        <time>2018-03-04T16:23:48Z</time>
      </trkpt>
      <trkpt lat="62.632982147254" lon="18.0049163149">
        <ele>69</ele>
        <time>2018-03-04T16:23:49Z</time>
      </trkpt>
      <trkpt lat="62.632963371798" lon="18.004942382609">
        <ele>68.8</ele>
        <time>2018-03-04T16:23:50Z</time>
      </trkpt>
      <trkpt lat="62.632947530007" lon="18.004967360671">
        <ele>69</ele>
        <time>2018-03-04T16:23:51Z</time>
      </trkpt>
      <trkpt lat="62.632933532234" lon="18.004991500543">
        <ele>69</ele>
        <time>2018-03-04T16:23:52Z</time>
      </trkpt>
      <trkpt lat="62.632920372651" lon="18.005027375075">
        <ele>69.2</ele>
        <time>2018-03-04T16:23:53Z</time>
      </trkpt>
      <trkpt lat="62.632902603023" lon="18.00507138005">
        <ele>69.2</ele>
        <time>2018-03-04T16:23:54Z</time>
      </trkpt>
      <trkpt lat="62.632885084852" lon="18.005116055577">
        <ele>69.4</ele>
        <time>2018-03-04T16:23:55Z</time>
      </trkpt>
      <trkpt lat="62.632866309396" lon="18.005163161855">
        <ele>69.6</ele>
        <time>2018-03-04T16:23:56Z</time>
      </trkpt>
      <trkpt lat="62.632846360474" lon="18.005209429943">
        <ele>69.6</ele>
        <time>2018-03-04T16:23:57Z</time>
      </trkpt>
      <trkpt lat="62.632829261398" lon="18.005238347498">
        <ele>69.8</ele>
        <time>2018-03-04T16:23:58Z</time>
      </trkpt>
      <trkpt lat="62.632801852585" lon="18.005275479315">
        <ele>69.8</ele>
        <time>2018-03-04T16:23:59Z</time>
      </trkpt>
      <trkpt lat="62.632774024677" lon="18.005303139585">
        <ele>69.8</ele>
        <time>2018-03-04T16:24:00Z</time>
      </trkpt>
      <trkpt lat="62.632746867321" lon="18.005317137358">
        <ele>69.6</ele>
        <time>2018-03-04T16:24:01Z</time>
      </trkpt>
      <trkpt lat="62.632720883431" lon="18.00532367524">
        <ele>69.6</ele>
        <time>2018-03-04T16:24:02Z</time>
      </trkpt>
      <trkpt lat="62.632707891486" lon="18.005324094335">
        <ele>69.4</ele>
        <time>2018-03-04T16:24:03Z</time>
      </trkpt>
      <trkpt lat="62.632695067179" lon="18.005324848706">
        <ele>69.2</ele>
        <time>2018-03-04T16:24:04Z</time>
      </trkpt>
      <trkpt lat="62.632680566492" lon="18.005327111819">
        <ele>69.4</ele>
        <time>2018-03-04T16:24:05Z</time>
      </trkpt>
      <trkpt lat="62.632663467416" lon="18.005329291113">
        <ele>69.6</ele>
        <time>2018-03-04T16:24:06Z</time>
      </trkpt>
      <trkpt lat="62.632645697788" lon="18.005333062968">
        <ele>70</ele>
        <time>2018-03-04T16:24:07Z</time>
      </trkpt>
      <trkpt lat="62.632626922332" lon="18.005335661357">
        <ele>70.4</ele>
        <time>2018-03-04T16:24:08Z</time>
      </trkpt>
      <trkpt lat="62.632608565971" lon="18.005340941954">
        <ele>71</ele>
        <time>2018-03-04T16:24:09Z</time>
      </trkpt>
      <trkpt lat="62.632585096651" lon="18.005343624162">
        <ele>71.2</ele>
        <time>2018-03-04T16:24:10Z</time>
      </trkpt>
      <trkpt lat="62.632561878788" lon="18.005345384361">
        <ele>71.2</ele>
        <time>2018-03-04T16:24:11Z</time>
      </trkpt>
      <trkpt lat="62.632541426952" lon="18.005345300542">
        <ele>71.2</ele>
        <time>2018-03-04T16:24:12Z</time>
      </trkpt>
      <trkpt lat="62.632515862157" lon="18.005333649701">
        <ele>71.2</ele>
        <time>2018-03-04T16:24:13Z</time>
      </trkpt>
      <trkpt lat="62.63248878862" lon="18.005322082679">
        <ele>71.2</ele>
        <time>2018-03-04T16:24:14Z</time>
      </trkpt>
      <trkpt lat="62.632466911861" lon="18.005316885901">
        <ele>71.2</ele>
        <time>2018-03-04T16:24:15Z</time>
      </trkpt>
      <trkpt lat="62.632447633491" lon="18.005315544797">
        <ele>71.4</ele>
        <time>2018-03-04T16:24:16Z</time>
      </trkpt>
      <trkpt lat="62.632428187483" lon="18.005316634444">
        <ele>71.4</ele>
        <time>2018-03-04T16:24:17Z</time>
      </trkpt>
      <trkpt lat="62.632401113946" lon="18.005326273629">
        <ele>71.6</ele>
        <time>2018-03-04T16:24:18Z</time>
      </trkpt>
      <trkpt lat="62.632379907739" lon="18.005338175927">
        <ele>71.6</ele>
        <time>2018-03-04T16:24:19Z</time>
      </trkpt>
      <trkpt lat="62.632357025152" lon="18.005345216723">
        <ele>71.8</ele>
        <time>2018-03-04T16:24:20Z</time>
      </trkpt>
      <trkpt lat="62.632333555832" lon="18.005350162044">
        <ele>71.8</ele>
        <time>2018-03-04T16:24:21Z</time>
      </trkpt>
      <trkpt lat="62.6323144451" lon="18.005358627763">
        <ele>71.8</ele>
        <time>2018-03-04T16:24:22Z</time>
      </trkpt>
      <trkpt lat="62.632295669644" lon="18.005368518405">
        <ele>71.8</ele>
        <time>2018-03-04T16:24:23Z</time>
      </trkpt>
      <trkpt lat="62.632272619419" lon="18.005370194785">
        <ele>71.8</ele>
        <time>2018-03-04T16:24:24Z</time>
      </trkpt>
      <trkpt lat="62.632248311909" lon="18.005377067943">
        <ele>71.8</ele>
        <time>2018-03-04T16:24:25Z</time>
      </trkpt>
      <trkpt lat="62.632227692435" lon="18.005389305517">
        <ele>71.8</ele>
        <time>2018-03-04T16:24:26Z</time>
      </trkpt>
      <trkpt lat="62.632209336074" lon="18.005400621082">
        <ele>72</ele>
        <time>2018-03-04T16:24:27Z</time>
      </trkpt>
      <trkpt lat="62.632181591985" lon="18.005393999381">
        <ele>72</ele>
        <time>2018-03-04T16:24:28Z</time>
      </trkpt>
      <trkpt lat="62.632160553416" lon="18.005399028521">
        <ele>72</ele>
        <time>2018-03-04T16:24:29Z</time>
      </trkpt>
      <trkpt lat="62.632142951426" lon="18.005406069317">
        <ele>72.2</ele>
        <time>2018-03-04T16:24:30Z</time>
      </trkpt>
      <trkpt lat="62.63211998502" lon="18.005415373226">
        <ele>72.2</ele>
        <time>2018-03-04T16:24:31Z</time>
      </trkpt>
      <trkpt lat="62.632092408569" lon="18.005424090402">
        <ele>72.2</ele>
        <time>2018-03-04T16:24:32Z</time>
      </trkpt>
      <trkpt lat="62.632076147683" lon="18.005441357116">
        <ele>72.4</ele>
        <time>2018-03-04T16:24:33Z</time>
      </trkpt>
      <trkpt lat="62.632051756354" lon="18.00544940374">
        <ele>72.4</ele>
        <time>2018-03-04T16:24:34Z</time>
      </trkpt>
      <trkpt lat="62.632026191559" lon="18.005459964934">
        <ele>72.4</ele>
        <time>2018-03-04T16:24:35Z</time>
      </trkpt>
      <trkpt lat="62.632003225153" lon="18.005471448137">
        <ele>72.6</ele>
        <time>2018-03-04T16:24:36Z</time>
      </trkpt>
      <trkpt lat="62.63197581634" lon="18.005477986019">
        <ele>72.6</ele>
        <time>2018-03-04T16:24:37Z</time>
      </trkpt>
      <trkpt lat="62.631950754459" lon="18.005485781186">
        <ele>72.6</ele>
        <time>2018-03-04T16:24:38Z</time>
      </trkpt>
      <trkpt lat="62.631924770569" lon="18.005487876661">
        <ele>72.6</ele>
        <time>2018-03-04T16:24:39Z</time>
      </trkpt>
      <trkpt lat="62.631897613213" lon="18.005488211937">
        <ele>72.8</ele>
        <time>2018-03-04T16:24:40Z</time>
      </trkpt>
      <trkpt lat="62.631870455857" lon="18.005488463394">
        <ele>72.8</ele>
        <time>2018-03-04T16:24:41Z</time>
      </trkpt>
      <trkpt lat="62.631848160003" lon="18.005487457566">
        <ele>72.8</ele>
        <time>2018-03-04T16:24:42Z</time>
      </trkpt>
      <trkpt lat="62.63182661852" lon="18.005481171141">
        <ele>73</ele>
        <time>2018-03-04T16:24:43Z</time>
      </trkpt>
      <trkpt lat="62.631802730105" lon="18.005455941622">
        <ele>73</ele>
        <time>2018-03-04T16:24:44Z</time>
      </trkpt>
      <trkpt lat="62.631780434251" lon="18.005426521153">
        <ele>72.8</ele>
        <time>2018-03-04T16:24:45Z</time>
      </trkpt>
      <trkpt lat="62.631762161709" lon="18.005400704901">
        <ele>72.8</ele>
        <time>2018-03-04T16:24:46Z</time>
      </trkpt>
      <trkpt lat="62.631747409565" lon="18.005378409047">
        <ele>72.8</ele>
        <time>2018-03-04T16:24:47Z</time>
      </trkpt>
      <trkpt lat="62.631726287177" lon="18.005314287512">
        <ele>72.6</ele>
        <time>2018-03-04T16:24:48Z</time>
      </trkpt>
      <trkpt lat="62.631715474526" lon="18.0052767366">
        <ele>72.8</ele>
        <time>2018-03-04T16:24:49Z</time>
      </trkpt>
      <trkpt lat="62.631701644391" lon="18.005233318358">
        <ele>72.8</ele>
        <time>2018-03-04T16:24:50Z</time>
      </trkpt>
      <trkpt lat="62.631681360193" lon="18.005176405257">
        <ele>73</ele>
        <time>2018-03-04T16:24:51Z</time>
      </trkpt>
      <trkpt lat="62.631658477606" lon="18.005114463016">
        <ele>73</ele>
        <time>2018-03-04T16:24:52Z</time>
      </trkpt>
      <trkpt lat="62.631650430982" lon="18.005095184646">
        <ele>73.2</ele>
        <time>2018-03-04T16:24:53Z</time>
      </trkpt>
      <trkpt lat="62.63163132025" lon="18.005047994549">
        <ele>73.2</ele>
        <time>2018-03-04T16:24:54Z</time>
      </trkpt>
      <trkpt lat="62.631609946405" lon="18.005005582135">
        <ele>73.2</ele>
        <time>2018-03-04T16:24:55Z</time>
      </trkpt>
      <trkpt lat="62.631590751854" lon="18.004971970716">
        <ele>73.2</ele>
        <time>2018-03-04T16:24:56Z</time>
      </trkpt>
      <trkpt lat="62.631574407149" lon="18.004940957686">
        <ele>73.4</ele>
        <time>2018-03-04T16:24:57Z</time>
      </trkpt>
      <trkpt lat="62.631557056616" lon="18.00491799128">
        <ele>73.4</ele>
        <time>2018-03-04T16:24:58Z</time>
      </trkpt>
      <trkpt lat="62.631539622264" lon="18.004892677942">
        <ele>73.4</ele>
        <time>2018-03-04T16:24:59Z</time>
      </trkpt>
      <trkpt lat="62.631525205396" lon="18.004872142287">
        <ele>73.6</ele>
        <time>2018-03-04T16:25:00Z</time>
      </trkpt>
      <trkpt lat="62.631509698881" lon="18.004852277184">
        <ele>73.8</ele>
        <time>2018-03-04T16:25:01Z</time>
      </trkpt>
      <trkpt lat="62.631493102719" lon="18.00483081952">
        <ele>74</ele>
        <time>2018-03-04T16:25:02Z</time>
      </trkpt>
      <trkpt lat="62.631471812693" lon="18.004809110399">
        <ele>74.2</ele>
        <time>2018-03-04T16:25:03Z</time>
      </trkpt>
      <trkpt lat="62.631453707789" lon="18.004787149821">
        <ele>74.4</ele>
        <time>2018-03-04T16:25:04Z</time>
      </trkpt>
      <trkpt lat="62.631434177962" lon="18.004763848139">
        <ele>74.4</ele>
        <time>2018-03-04T16:25:05Z</time>
      </trkpt>
      <trkpt lat="62.631406769149" lon="18.004741887561">
        <ele>74.4</ele>
        <time>2018-03-04T16:25:06Z</time>
      </trkpt>
      <trkpt lat="62.631376761947" lon="18.004722441553">
        <ele>74.4</ele>
        <time>2018-03-04T16:25:07Z</time>
      </trkpt>
      <trkpt lat="62.63135974669" lon="18.004713808196">
        <ele>74.4</ele>
        <time>2018-03-04T16:25:08Z</time>
      </trkpt>
      <trkpt lat="62.631334181895" lon="18.00469419455">
        <ele>74.6</ele>
        <time>2018-03-04T16:25:09Z</time>
      </trkpt>
      <trkpt lat="62.631313562421" lon="18.004676676379">
        <ele>74.6</ele>
        <time>2018-03-04T16:25:10Z</time>
      </trkpt>
      <trkpt lat="62.631294786965" lon="18.004658822932">
        <ele>74.8</ele>
        <time>2018-03-04T16:25:11Z</time>
      </trkpt>
      <trkpt lat="62.631276262966" lon="18.004638957829">
        <ele>74.8</ele>
        <time>2018-03-04T16:25:12Z</time>
      </trkpt>
      <trkpt lat="62.631251955456" lon="18.004608782989">
        <ele>74.8</ele>
        <time>2018-03-04T16:25:13Z</time>
      </trkpt>
      <trkpt lat="62.631225552471" lon="18.00460283184">
        <ele>75</ele>
        <time>2018-03-04T16:25:14Z</time>
      </trkpt>
      <trkpt lat="62.631198730391" lon="18.00459528813">
        <ele>75</ele>
        <time>2018-03-04T16:25:15Z</time>
      </trkpt>
      <trkpt lat="62.631172495044" lon="18.004554887372">
        <ele>75</ele>
        <time>2018-03-04T16:25:16Z</time>
      </trkpt>
      <trkpt lat="62.631157575262" lon="18.004541727789">
        <ele>75.2</ele>
        <time>2018-03-04T16:25:17Z</time>
      </trkpt>
      <trkpt lat="62.631135027951" lon="18.004521611229">
        <ele>75.2</ele>
        <time>2018-03-04T16:25:18Z</time>
      </trkpt>
      <trkpt lat="62.631110301346" lon="18.004493531864">
        <ele>75.4</ele>
        <time>2018-03-04T16:25:19Z</time>
      </trkpt>
      <trkpt lat="62.631087837854" lon="18.004464614309">
        <ele>75.6</ele>
        <time>2018-03-04T16:25:20Z</time>
      </trkpt>
      <trkpt lat="62.631071157873" lon="18.004453214925">
        <ele>75.8</ele>
        <time>2018-03-04T16:25:21Z</time>
      </trkpt>
      <trkpt lat="62.631052214779" lon="18.004434774745">
        <ele>75.8</ele>
        <time>2018-03-04T16:25:22Z</time>
      </trkpt>
      <trkpt lat="62.63102614707" lon="18.004399738403">
        <ele>76.2</ele>
        <time>2018-03-04T16:25:23Z</time>
      </trkpt>
      <trkpt lat="62.631007874528" lon="18.004376604359">
        <ele>76.4</ele>
        <time>2018-03-04T16:25:24Z</time>
      </trkpt>
      <trkpt lat="62.630988344701" lon="18.004350871926">
        <ele>76.8</ele>
        <time>2018-03-04T16:25:25Z</time>
      </trkpt>
      <trkpt lat="62.630964623924" lon="18.004318517792">
        <ele>77</ele>
        <time>2018-03-04T16:25:26Z</time>
      </trkpt>
      <trkpt lat="62.630948530676" lon="18.004296724852">
        <ele>77</ele>
        <time>2018-03-04T16:25:27Z</time>
      </trkpt>
      <trkpt lat="62.630931347781" lon="18.004261772329">
        <ele>77.4</ele>
        <time>2018-03-04T16:25:28Z</time>
      </trkpt>
      <trkpt lat="62.630910895945" lon="18.00422564634">
        <ele>77.4</ele>
        <time>2018-03-04T16:25:29Z</time>
      </trkpt>
      <trkpt lat="62.63089203667" lon="18.004188682161">
        <ele>77.2</ele>
        <time>2018-03-04T16:25:30Z</time>
      </trkpt>
      <trkpt lat="62.630877284526" lon="18.004157250036">
        <ele>77.2</ele>
        <time>2018-03-04T16:25:31Z</time>
      </trkpt>
      <trkpt lat="62.630865717504" lon="18.00413428363">
        <ele>77.4</ele>
        <time>2018-03-04T16:25:32Z</time>
      </trkpt>
      <trkpt lat="62.63085264174" lon="18.004106958636">
        <ele>77.4</ele>
        <time>2018-03-04T16:25:33Z</time>
      </trkpt>
      <trkpt lat="62.630843170193" lon="18.004085836248">
        <ele>77.6</ele>
        <time>2018-03-04T16:25:34Z</time>
      </trkpt>
      <trkpt lat="62.630835123569" lon="18.004061444919">
        <ele>77.8</ele>
        <time>2018-03-04T16:25:35Z</time>
      </trkpt>
      <trkpt lat="62.630826490212" lon="18.004029090785">
        <ele>78</ele>
        <time>2018-03-04T16:25:36Z</time>
      </trkpt>
      <trkpt lat="62.630817018665" lon="18.003984834353">
        <ele>78.2</ele>
        <time>2018-03-04T16:25:37Z</time>
      </trkpt>
      <trkpt lat="62.630811738068" lon="18.003939991188">
        <ele>78.4</ele>
        <time>2018-03-04T16:25:38Z</time>
      </trkpt>
      <trkpt lat="62.630809474955" lon="18.003909229615">
        <ele>78.6</ele>
        <time>2018-03-04T16:25:39Z</time>
      </trkpt>
      <trkpt lat="62.630802937073" lon="18.003876288748">
        <ele>78.6</ele>
        <time>2018-03-04T16:25:40Z</time>
      </trkpt>
      <trkpt lat="62.630793633164" lon="18.003846365365">
        <ele>78.8</ele>
        <time>2018-03-04T16:25:41Z</time>
      </trkpt>
      <trkpt lat="62.6307889393" lon="18.003803617675">
        <ele>78.8</ele>
        <time>2018-03-04T16:25:42Z</time>
      </trkpt>
      <trkpt lat="62.630785837997" lon="18.003749051506">
        <ele>78.8</ele>
        <time>2018-03-04T16:25:43Z</time>
      </trkpt>
      <trkpt lat="62.630788184929" lon="18.003689288559">
        <ele>78.8</ele>
        <time>2018-03-04T16:25:44Z</time>
      </trkpt>
      <trkpt lat="62.630794471354" lon="18.003640673539">
        <ele>79</ele>
        <time>2018-03-04T16:25:45Z</time>
      </trkpt>
      <trkpt lat="62.630799919589" lon="18.003595411279">
        <ele>79.2</ele>
        <time>2018-03-04T16:25:46Z</time>
      </trkpt>
      <trkpt lat="62.630806122195" lon="18.003551154847">
        <ele>79.2</ele>
        <time>2018-03-04T16:25:47Z</time>
      </trkpt>
      <trkpt lat="62.630812073344" lon="18.003493235918">
        <ele>79.2</ele>
        <time>2018-03-04T16:25:48Z</time>
      </trkpt>
      <trkpt lat="62.630817270122" lon="18.003443866527">
        <ele>79.2</ele>
        <time>2018-03-04T16:25:49Z</time>
      </trkpt>
      <trkpt lat="62.630820371425" lon="18.003389887091">
        <ele>79.4</ele>
        <time>2018-03-04T16:25:50Z</time>
      </trkpt>
      <trkpt lat="62.630825065289" lon="18.003334231275">
        <ele>79.6</ele>
        <time>2018-03-04T16:25:51Z</time>
      </trkpt>
      <trkpt lat="62.630829591515" lon="18.003278240183">
        <ele>79.6</ele>
        <time>2018-03-04T16:25:52Z</time>
      </trkpt>
      <trkpt lat="62.630833782465" lon="18.003224679842">
        <ele>79.6</ele>
        <time>2018-03-04T16:25:53Z</time>
      </trkpt>
      <trkpt lat="62.630835961759" lon="18.003181932152">
        <ele>79.8</ele>
        <time>2018-03-04T16:25:54Z</time>
      </trkpt>
      <trkpt lat="62.630839146881" lon="18.003130634924">
        <ele>80</ele>
        <time>2018-03-04T16:25:55Z</time>
      </trkpt>
      <trkpt lat="62.630840320347" lon="18.00308486975">
        <ele>80</ele>
        <time>2018-03-04T16:25:56Z</time>
      </trkpt>
      <trkpt lat="62.630841409994" lon="18.003033823979">
        <ele>80.2</ele>
        <time>2018-03-04T16:25:57Z</time>
      </trkpt>
      <trkpt lat="62.630841912908" lon="18.002979090172">
        <ele>80.2</ele>
        <time>2018-03-04T16:25:58Z</time>
      </trkpt>
      <trkpt lat="62.630840823261" lon="18.00292645184">
        <ele>80.2</ele>
        <time>2018-03-04T16:25:59Z</time>
      </trkpt>
      <trkpt lat="62.630836380854" lon="18.002869287282">
        <ele>80.4</ele>
        <time>2018-03-04T16:26:00Z</time>
      </trkpt>
      <trkpt lat="62.630833782465" lon="18.002815140208">
        <ele>80.6</ele>
        <time>2018-03-04T16:26:01Z</time>
      </trkpt>
      <trkpt lat="62.630832692818" lon="18.002776332011">
        <ele>81</ele>
        <time>2018-03-04T16:26:02Z</time>
      </trkpt>
      <trkpt lat="62.630830513524" lon="18.002722520213">
        <ele>81</ele>
        <time>2018-03-04T16:26:03Z</time>
      </trkpt>
      <trkpt lat="62.630829256239" lon="18.002664433646">
        <ele>81.2</ele>
        <time>2018-03-04T16:26:04Z</time>
      </trkpt>
      <trkpt lat="62.630827244583" lon="18.0026196743">
        <ele>81.4</ele>
        <time>2018-03-04T16:26:05Z</time>
      </trkpt>
      <trkpt lat="62.630824813832" lon="18.002575417868">
        <ele>81.4</ele>
        <time>2018-03-04T16:26:06Z</time>
      </trkpt>
      <trkpt lat="62.630822718357" lon="18.002529652694">
        <ele>81.4</ele>
        <time>2018-03-04T16:26:07Z</time>
      </trkpt>
      <trkpt lat="62.630820958158" lon="18.002487491737">
        <ele>81.6</ele>
        <time>2018-03-04T16:26:08Z</time>
      </trkpt>
      <trkpt lat="62.630820371425" lon="18.002443235305">
        <ele>81.6</ele>
        <time>2018-03-04T16:26:09Z</time>
      </trkpt>
      <trkpt lat="62.630819365597" lon="18.002396967217">
        <ele>81.8</ele>
        <time>2018-03-04T16:26:10Z</time>
      </trkpt>
      <trkpt lat="62.630814587914" lon="18.002351285862">
        <ele>82</ele>
        <time>2018-03-04T16:26:11Z</time>
      </trkpt>
      <trkpt lat="62.630806457471" lon="18.002309208724">
        <ele>82</ele>
        <time>2018-03-04T16:26:12Z</time>
      </trkpt>
      <trkpt lat="62.630800506322" lon="18.002258246772">
        <ele>82.2</ele>
        <time>2018-03-04T16:26:13Z</time>
      </trkpt>
      <trkpt lat="62.630800003408" lon="18.002212146322">
        <ele>82.4</ele>
        <time>2018-03-04T16:26:14Z</time>
      </trkpt>
      <trkpt lat="62.630798913761" lon="18.002174092496">
        <ele>82.4</ele>
        <time>2018-03-04T16:26:15Z</time>
      </trkpt>
      <trkpt lat="62.630796315372" lon="18.002133356462">
        <ele>82.4</ele>
        <time>2018-03-04T16:26:16Z</time>
      </trkpt>
      <trkpt lat="62.630791537689" lon="18.002079628483">
        <ele>82.6</ele>
        <time>2018-03-04T16:26:17Z</time>
      </trkpt>
      <trkpt lat="62.630784077798" lon="18.00202623578">
        <ele>82.8</ele>
        <time>2018-03-04T16:26:18Z</time>
      </trkpt>
      <trkpt lat="62.630775025346" lon="18.001970999059">
        <ele>82.8</ele>
        <time>2018-03-04T16:26:19Z</time>
      </trkpt>
      <trkpt lat="62.630774773889" lon="18.001914002139">
        <ele>83</ele>
        <time>2018-03-04T16:26:20Z</time>
      </trkpt>
      <trkpt lat="62.63077385188" lon="18.001869913345">
        <ele>83</ele>
        <time>2018-03-04T16:26:21Z</time>
      </trkpt>
      <trkpt lat="62.630771002034" lon="18.001819538126">
        <ele>83.2</ele>
        <time>2018-03-04T16:26:22Z</time>
      </trkpt>
      <trkpt lat="62.630766643446" lon="18.00175298584">
        <ele>83.2</ele>
        <time>2018-03-04T16:26:23Z</time>
      </trkpt>
      <trkpt lat="62.630765386161" lon="18.001696156558">
        <ele>83.2</ele>
        <time>2018-03-04T16:26:24Z</time>
      </trkpt>
      <trkpt lat="62.630763877419" lon="18.001650391384">
        <ele>83.2</ele>
        <time>2018-03-04T16:26:25Z</time>
      </trkpt>
      <trkpt lat="62.630765134704" lon="18.001591634265">
        <ele>83.4</ele>
        <time>2018-03-04T16:26:26Z</time>
      </trkpt>
      <trkpt lat="62.630761195211" lon="18.001537319553">
        <ele>83.4</ele>
        <time>2018-03-04T16:26:27Z</time>
      </trkpt>
      <trkpt lat="62.630756166071" lon="18.001488285438">
        <ele>83.4</ele>
        <time>2018-03-04T16:26:28Z</time>
      </trkpt>
      <trkpt lat="62.630753232406" lon="18.001430198871">
        <ele>83.4</ele>
        <time>2018-03-04T16:26:29Z</time>
      </trkpt>
      <trkpt lat="62.630749628189" lon="18.001373788684">
        <ele>83.6</ele>
        <time>2018-03-04T16:26:30Z</time>
      </trkpt>
      <trkpt lat="62.630745604877" lon="18.001337746514">
        <ele>83.6</ele>
        <time>2018-03-04T16:26:31Z</time>
      </trkpt>
      <trkpt lat="62.630739569909" lon="18.0012953341">
        <ele>83.8</ele>
        <time>2018-03-04T16:26:32Z</time>
      </trkpt>
      <trkpt lat="62.630730517457" lon="18.001232805126">
        <ele>84</ele>
        <time>2018-03-04T16:26:33Z</time>
      </trkpt>
      <trkpt lat="62.630724650127" lon="18.001193829291">
        <ele>84</ele>
        <time>2018-03-04T16:26:34Z</time>
      </trkpt>
      <trkpt lat="62.630716938779" lon="18.001147309746">
        <ele>84</ele>
        <time>2018-03-04T16:26:35Z</time>
      </trkpt>
      <trkpt lat="62.63070679668" lon="18.001092827396">
        <ele>84.2</ele>
        <time>2018-03-04T16:26:36Z</time>
      </trkpt>
      <trkpt lat="62.630696906038" lon="18.001051672267">
        <ele>84.4</ele>
        <time>2018-03-04T16:26:37Z</time>
      </trkpt>
      <trkpt lat="62.630686512482" lon="18.000989813845">
        <ele>84.4</ele>
        <time>2018-03-04T16:26:38Z</time>
      </trkpt>
      <trkpt lat="62.630679387867" lon="18.000931727278">
        <ele>84.4</ele>
        <time>2018-03-04T16:26:39Z</time>
      </trkpt>
      <trkpt lat="62.630671425062" lon="18.000881771154">
        <ele>84.4</ele>
        <time>2018-03-04T16:26:40Z</time>
      </trkpt>
      <trkpt lat="62.630660025678" lon="18.000823014035">
        <ele>84.6</ele>
        <time>2018-03-04T16:26:41Z</time>
      </trkpt>
      <trkpt lat="62.63064728519" lon="18.000771381531">
        <ele>84.6</ele>
        <time>2018-03-04T16:26:42Z</time>
      </trkpt>
      <trkpt lat="62.630638400376" lon="18.000728885298">
        <ele>84.6</ele>
        <time>2018-03-04T16:26:43Z</time>
      </trkpt>
      <trkpt lat="62.630629347924" lon="18.000681611382">
        <ele>84.6</ele>
        <time>2018-03-04T16:26:44Z</time>
      </trkpt>
      <trkpt lat="62.630618702911" lon="18.000641210624">
        <ele>84.6</ele>
        <time>2018-03-04T16:26:45Z</time>
      </trkpt>
      <trkpt lat="62.630608225536" lon="18.000600223133">
        <ele>84.6</ele>
        <time>2018-03-04T16:26:46Z</time>
      </trkpt>
      <trkpt lat="62.630595987962" lon="18.000551189018">
        <ele>84.8</ele>
        <time>2018-03-04T16:26:47Z</time>
      </trkpt>
      <trkpt lat="62.630579810895" lon="18.000495868478">
        <ele>85</ele>
        <time>2018-03-04T16:26:48Z</time>
      </trkpt>
      <trkpt lat="62.630568327692" lon="18.000454378073">
        <ele>85</ele>
        <time>2018-03-04T16:26:49Z</time>
      </trkpt>
      <trkpt lat="62.630555168109" lon="18.000396626782">
        <ele>85</ele>
        <time>2018-03-04T16:26:50Z</time>
      </trkpt>
      <trkpt lat="62.630545780381" lon="18.000354968739">
        <ele>85.2</ele>
        <time>2018-03-04T16:26:51Z</time>
      </trkpt>
      <trkpt lat="62.630537063205" lon="18.000312723963">
        <ele>85.2</ele>
        <time>2018-03-04T16:26:52Z</time>
      </trkpt>
      <trkpt lat="62.630528681305" lon="18.00027022773">
        <ele>85.2</ele>
        <time>2018-03-04T16:26:53Z</time>
      </trkpt>
      <trkpt lat="62.630517533378" lon="18.000216751208">
        <ele>85.4</ele>
        <time>2018-03-04T16:26:54Z</time>
      </trkpt>
      <trkpt lat="62.630510911677" lon="18.000182972151">
        <ele>85.4</ele>
        <time>2018-03-04T16:26:55Z</time>
      </trkpt>
      <trkpt lat="62.63049389642" lon="18.000102841187">
        <ele>85.4</ele>
        <time>2018-03-04T16:26:56Z</time>
      </trkpt>
      <trkpt lat="62.630483335226" lon="18.000064368266">
        <ele>85.6</ele>
        <time>2018-03-04T16:26:57Z</time>
      </trkpt>
      <trkpt lat="62.630471181471" lon="18.000019944196">
        <ele>85.6</ele>
        <time>2018-03-04T16:26:58Z</time>
      </trkpt>
      <trkpt lat="62.630456848422" lon="17.999956157937">
        <ele>85.8</ele>
        <time>2018-03-04T16:26:59Z</time>
      </trkpt>
      <trkpt lat="62.630443521201" lon="17.99991902612">
        <ele>86</ele>
        <time>2018-03-04T16:27:00Z</time>
      </trkpt>
      <trkpt lat="62.630429523428" lon="17.999875524059">
        <ele>86</ele>
        <time>2018-03-04T16:27:01Z</time>
      </trkpt>
      <trkpt lat="62.630420387157" lon="17.999825903211">
        <ele>86.2</ele>
        <time>2018-03-04T16:27:02Z</time>
      </trkpt>
      <trkpt lat="62.630412005257" lon="17.99977904839">
        <ele>86.2</ele>
        <time>2018-03-04T16:27:03Z</time>
      </trkpt>
      <trkpt lat="62.630401946977" lon="17.99974552079">
        <ele>86.2</ele>
        <time>2018-03-04T16:27:04Z</time>
      </trkpt>
      <trkpt lat="62.630389206489" lon="17.99970193491">
        <ele>86.4</ele>
        <time>2018-03-04T16:27:05Z</time>
      </trkpt>
      <trkpt lat="62.630372861784" lon="17.999637981013">
        <ele>86.6</ele>
        <time>2018-03-04T16:27:06Z</time>
      </trkpt>
      <trkpt lat="62.63036481516" lon="17.999606884164">
        <ele>86.8</ele>
        <time>2018-03-04T16:27:07Z</time>
      </trkpt>
      <trkpt lat="62.630350230654" lon="17.999559191153">
        <ele>86.8</ele>
        <time>2018-03-04T16:27:08Z</time>
      </trkpt>
      <trkpt lat="62.630332880121" lon="17.999501858957">
        <ele>86.8</ele>
        <time>2018-03-04T16:27:09Z</time>
      </trkpt>
      <trkpt lat="62.630324246764" lon="17.999459949457">
        <ele>87</ele>
        <time>2018-03-04T16:27:10Z</time>
      </trkpt>
      <trkpt lat="62.630308824068" lon="17.999411166799">
        <ele>87.2</ele>
        <time>2018-03-04T16:27:11Z</time>
      </trkpt>
      <trkpt lat="62.630292982277" lon="17.999344446875">
        <ele>87</ele>
        <time>2018-03-04T16:27:12Z</time>
      </trkpt>
      <trkpt lat="62.630285270929" lon="17.99926523792">
        <ele>87.2</ele>
        <time>2018-03-04T16:27:13Z</time>
      </trkpt>
      <trkpt lat="62.630276302296" lon="17.999221232945">
        <ele>87.2</ele>
        <time>2018-03-04T16:27:14Z</time>
      </trkpt>
      <trkpt lat="62.630268171853" lon="17.99915459684">
        <ele>87.2</ele>
        <time>2018-03-04T16:27:15Z</time>
      </trkpt>
      <trkpt lat="62.630267082206" lon="17.999116459195">
        <ele>87.2</ele>
        <time>2018-03-04T16:27:16Z</time>
      </trkpt>
      <trkpt lat="62.630258029754" lon="17.999067927994">
        <ele>87.4</ele>
        <time>2018-03-04T16:27:17Z</time>
      </trkpt>
      <trkpt lat="62.630250234587" lon="17.998996262749">
        <ele>87.4</ele>
        <time>2018-03-04T16:27:18Z</time>
      </trkpt>
      <trkpt lat="62.630246965646" lon="17.99894756391">
        <ele>87.4</ele>
        <time>2018-03-04T16:27:19Z</time>
      </trkpt>
      <trkpt lat="62.630242858515" lon="17.998906995514">
        <ele>87.8</ele>
        <time>2018-03-04T16:27:20Z</time>
      </trkpt>
      <trkpt lat="62.630238835203" lon="17.99883692283">
        <ele>87.8</ele>
        <time>2018-03-04T16:27:21Z</time>
      </trkpt>
      <trkpt lat="62.630234308977" lon="17.998788810724">
        <ele>87.8</ele>
        <time>2018-03-04T16:27:22Z</time>
      </trkpt>
      <trkpt lat="62.630226932905" lon="17.998726197931">
        <ele>87.8</ele>
        <time>2018-03-04T16:27:23Z</time>
      </trkpt>
      <trkpt lat="62.63022399924" lon="17.998652185754">
        <ele>88</ele>
        <time>2018-03-04T16:27:24Z</time>
      </trkpt>
      <trkpt lat="62.630220059747" lon="17.998593680092">
        <ele>87.8</ele>
        <time>2018-03-04T16:27:25Z</time>
      </trkpt>
      <trkpt lat="62.630212013123" lon="17.998542299045">
        <ele>88</ele>
        <time>2018-03-04T16:27:26Z</time>
      </trkpt>
      <trkpt lat="62.630211845485" lon="17.998487146143">
        <ele>87.8</ele>
        <time>2018-03-04T16:27:27Z</time>
      </trkpt>
      <trkpt lat="62.630210336743" lon="17.998425539178">
        <ele>88</ele>
        <time>2018-03-04T16:27:28Z</time>
      </trkpt>
      <trkpt lat="62.630207151621" lon="17.998368458439">
        <ele>87.8</ele>
        <time>2018-03-04T16:27:29Z</time>
      </trkpt>
      <trkpt lat="62.630208492725" lon="17.998291596416">
        <ele>87.8</ele>
        <time>2018-03-04T16:27:30Z</time>
      </trkpt>
      <trkpt lat="62.630208241268" lon="17.998247004708">
        <ele>88</ele>
        <time>2018-03-04T16:27:31Z</time>
      </trkpt>
      <trkpt lat="62.630212096942" lon="17.998184727191">
        <ele>88</ele>
        <time>2018-03-04T16:27:32Z</time>
      </trkpt>
      <trkpt lat="62.630209330915" lon="17.998101327286">
        <ele>88.2</ele>
        <time>2018-03-04T16:27:33Z</time>
      </trkpt>
      <trkpt lat="62.630212599856" lon="17.998055981207">
        <ele>88.4</ele>
        <time>2018-03-04T16:27:34Z</time>
      </trkpt>
      <trkpt lat="62.630217042263" lon="17.998001163581">
        <ele>88.4</ele>
        <time>2018-03-04T16:27:35Z</time>
      </trkpt>
      <trkpt lat="62.630228944561" lon="17.997942490281">
        <ele>88.4</ele>
        <time>2018-03-04T16:27:36Z</time>
      </trkpt>
      <trkpt lat="62.630238416108" lon="17.997897479478">
        <ele>88.4</ele>
        <time>2018-03-04T16:27:37Z</time>
      </trkpt>
      <trkpt lat="62.6302441158" lon="17.997843835318">
        <ele>88.4</ele>
        <time>2018-03-04T16:27:38Z</time>
      </trkpt>
      <trkpt lat="62.630258951763" lon="17.997789520606">
        <ele>88.4</ele>
        <time>2018-03-04T16:27:39Z</time>
      </trkpt>
      <trkpt lat="62.630272027527" lon="17.997723974148">
        <ele>88.4</ele>
        <time>2018-03-04T16:27:40Z</time>
      </trkpt>
      <trkpt lat="62.630278565409" lon="17.997682651381">
        <ele>88.6</ele>
        <time>2018-03-04T16:27:41Z</time>
      </trkpt>
      <trkpt lat="62.630292982277" lon="17.997617607837">
        <ele>88.6</ele>
        <time>2018-03-04T16:27:42Z</time>
      </trkpt>
      <trkpt lat="62.630303878747" lon="17.997555665596">
        <ele>88.8</ele>
        <time>2018-03-04T16:27:43Z</time>
      </trkpt>
      <trkpt lat="62.630313182656" lon="17.997506044748">
        <ele>88.8</ele>
        <time>2018-03-04T16:27:44Z</time>
      </trkpt>
      <trkpt lat="62.630338663632" lon="17.997431445838">
        <ele>88.8</ele>
        <time>2018-03-04T16:27:45Z</time>
      </trkpt>
      <trkpt lat="62.630354505423" lon="17.99737511947">
        <ele>88.6</ele>
        <time>2018-03-04T16:27:46Z</time>
      </trkpt>
      <trkpt lat="62.63036649154" lon="17.997336646549">
        <ele>88.8</ele>
        <time>2018-03-04T16:27:47Z</time>
      </trkpt>
      <trkpt lat="62.630393229801" lon="17.997252911368">
        <ele>88.8</ele>
        <time>2018-03-04T16:27:48Z</time>
      </trkpt>
      <trkpt lat="62.630409742144" lon="17.997201111226">
        <ele>88.8</ele>
        <time>2018-03-04T16:27:49Z</time>
      </trkpt>
      <trkpt lat="62.630434971663" lon="17.997134223664">
        <ele>88.8</ele>
        <time>2018-03-04T16:27:50Z</time>
      </trkpt>
      <trkpt lat="62.630456429327" lon="17.997083848445">
        <ele>88.8</ele>
        <time>2018-03-04T16:27:51Z</time>
      </trkpt>
      <trkpt lat="62.630469253634" lon="17.99704235804">
        <ele>88.8</ele>
        <time>2018-03-04T16:27:52Z</time>
      </trkpt>
      <trkpt lat="62.630487945271" lon="17.996985696396">
        <ele>88.8</ele>
        <time>2018-03-04T16:27:53Z</time>
      </trkpt>
      <trkpt lat="62.630520802319" lon="17.996947726389">
        <ele>88.8</ele>
        <time>2018-03-04T16:27:54Z</time>
      </trkpt>
      <trkpt lat="62.630532369341" lon="17.99691243859">
        <ele>88.8</ele>
        <time>2018-03-04T16:27:55Z</time>
      </trkpt>
      <trkpt lat="62.630548630227" lon="17.996845299571">
        <ele>88.8</ele>
        <time>2018-03-04T16:27:56Z</time>
      </trkpt>
      <trkpt lat="62.630560197249" lon="17.996802300424">
        <ele>89</ele>
        <time>2018-03-04T16:27:57Z</time>
      </trkpt>
      <trkpt lat="62.630575033212" lon="17.996750500282">
        <ele>88.8</ele>
        <time>2018-03-04T16:27:58Z</time>
      </trkpt>
      <trkpt lat="62.630593808668" lon="17.99669534738">
        <ele>89</ele>
        <time>2018-03-04T16:27:59Z</time>
      </trkpt>
      <trkpt lat="62.63061124302" lon="17.996627956904">
        <ele>89</ele>
        <time>2018-03-04T16:28:00Z</time>
      </trkpt>
      <trkpt lat="62.630624234965" lon="17.996580012436">
        <ele>89</ele>
        <time>2018-03-04T16:28:01Z</time>
      </trkpt>
      <trkpt lat="62.630633622693" lon="17.996542880619">
        <ele>89</ele>
        <time>2018-03-04T16:28:02Z</time>
      </trkpt>
      <trkpt lat="62.630646698457" lon="17.996483955862">
        <ele>89</ele>
        <time>2018-03-04T16:28:03Z</time>
      </trkpt>
      <trkpt lat="62.63066069623" lon="17.996427797132">
        <ele>89</ele>
        <time>2018-03-04T16:28:04Z</time>
      </trkpt>
      <trkpt lat="62.630677208573" lon="17.996368788556">
        <ele>89</ele>
        <time>2018-03-04T16:28:05Z</time>
      </trkpt>
      <trkpt lat="62.630691960717" lon="17.996308438876">
        <ele>89.2</ele>
        <time>2018-03-04T16:28:06Z</time>
      </trkpt>
      <trkpt lat="62.630711490544" lon="17.996249011205">
        <ele>89.2</ele>
        <time>2018-03-04T16:28:07Z</time>
      </trkpt>
      <trkpt lat="62.630731020371" lon="17.996184135299">
        <ele>89.4</ele>
        <time>2018-03-04T16:28:08Z</time>
      </trkpt>
      <trkpt lat="62.630762536315" lon="17.996127808931">
        <ele>89.4</ele>
        <time>2018-03-04T16:28:09Z</time>
      </trkpt>
      <trkpt lat="62.630784999807" lon="17.996102327955">
        <ele>89.4</ele>
        <time>2018-03-04T16:28:10Z</time>
      </trkpt>
      <trkpt lat="62.630807714756" lon="17.996062178654">
        <ele>89.4</ele>
        <time>2018-03-04T16:28:11Z</time>
      </trkpt>
      <trkpt lat="62.630831770809" lon="17.996017503127">
        <ele>89.2</ele>
        <time>2018-03-04T16:28:12Z</time>
      </trkpt>
      <trkpt lat="62.630854234301" lon="17.995983472613">
        <ele>89.2</ele>
        <time>2018-03-04T16:28:13Z</time>
      </trkpt>
      <trkpt lat="62.630878206535" lon="17.995951118479">
        <ele>89.2</ele>
        <time>2018-03-04T16:28:14Z</time>
      </trkpt>
      <trkpt lat="62.630907040271" lon="17.995913483748">
        <ele>89.2</ele>
        <time>2018-03-04T16:28:15Z</time>
      </trkpt>
      <trkpt lat="62.630932605066" lon="17.995883057451">
        <ele>89.4</ele>
        <time>2018-03-04T16:28:16Z</time>
      </trkpt>
      <trkpt lat="62.630944591183" lon="17.995854894267">
        <ele>89.4</ele>
        <time>2018-03-04T16:28:17Z</time>
      </trkpt>
      <trkpt lat="62.630971329444" lon="17.995817259536">
        <ele>89.4</ele>
        <time>2018-03-04T16:28:18Z</time>
      </trkpt>
      <trkpt lat="62.630999241171" lon="17.995781887918">
        <ele>89.4</ele>
        <time>2018-03-04T16:28:19Z</time>
      </trkpt>
      <trkpt lat="62.631014747686" lon="17.995747522128">
        <ele>89.4</ele>
        <time>2018-03-04T16:28:20Z</time>
      </trkpt>
      <trkpt lat="62.631043581422" lon="17.99571131232">
        <ele>89.4</ele>
        <time>2018-03-04T16:28:21Z</time>
      </trkpt>
      <trkpt lat="62.631070822597" lon="17.995686501896">
        <ele>89.4</ele>
        <time>2018-03-04T16:28:22Z</time>
      </trkpt>
      <trkpt lat="62.631093453727" lon="17.995656746151">
        <ele>89.6</ele>
        <time>2018-03-04T16:28:23Z</time>
      </trkpt>
      <trkpt lat="62.631123880024" lon="17.995634115021">
        <ele>89.6</ele>
        <time>2018-03-04T16:28:24Z</time>
      </trkpt>
      <trkpt lat="62.631152797579" lon="17.995604526914">
        <ele>89.4</ele>
        <time>2018-03-04T16:28:25Z</time>
      </trkpt>
      <trkpt lat="62.631175512528" lon="17.995560689577">
        <ele>89.6</ele>
        <time>2018-03-04T16:28:26Z</time>
      </trkpt>
      <trkpt lat="62.631195545269" lon="17.995535962972">
        <ele>89.6</ele>
        <time>2018-03-04T16:28:27Z</time>
      </trkpt>
      <trkpt lat="62.631229994878" lon="17.995485420115">
        <ele>89.6</ele>
        <time>2018-03-04T16:28:28Z</time>
      </trkpt>
      <trkpt lat="62.631256481682" lon="17.995453904171">
        <ele>89.6</ele>
        <time>2018-03-04T16:28:29Z</time>
      </trkpt>
      <trkpt lat="62.631272994025" lon="17.99542548953">
        <ele>89.6</ele>
        <time>2018-03-04T16:28:30Z</time>
      </trkpt>
      <trkpt lat="62.631296211888" lon="17.995385088772">
        <ele>89.6</ele>
        <time>2018-03-04T16:28:31Z</time>
      </trkpt>
      <trkpt lat="62.631314065335" lon="17.995352902276">
        <ele>89.8</ele>
        <time>2018-03-04T16:28:32Z</time>
      </trkpt>
      <trkpt lat="62.63133208642" lon="17.99531484845">
        <ele>89.8</ele>
        <time>2018-03-04T16:28:33Z</time>
      </trkpt>
      <trkpt lat="62.631361674527" lon="17.995258857358">
        <ele>89.8</ele>
        <time>2018-03-04T16:28:34Z</time>
      </trkpt>
      <trkpt lat="62.631383718924" lon="17.995215774392">
        <ele>90</ele>
        <time>2018-03-04T16:28:35Z</time>
      </trkpt>
      <trkpt lat="62.631399728353" lon="17.995183084982">
        <ele>90</ele>
        <time>2018-03-04T16:28:36Z</time>
      </trkpt>
      <trkpt lat="62.631420347827" lon="17.995131703935">
        <ele>90</ele>
        <time>2018-03-04T16:28:37Z</time>
      </trkpt>
      <trkpt lat="62.631435686704" lon="17.995083759467">
        <ele>90</ele>
        <time>2018-03-04T16:28:38Z</time>
      </trkpt>
      <trkpt lat="62.631442643681" lon="17.995044280718">
        <ele>90</ele>
        <time>2018-03-04T16:28:39Z</time>
      </trkpt>
      <trkpt lat="62.631460413309" lon="17.994992229119">
        <ele>90</ele>
        <time>2018-03-04T16:28:40Z</time>
      </trkpt>
      <trkpt lat="62.631477009471" lon="17.994933555819">
        <ele>90.2</ele>
        <time>2018-03-04T16:28:41Z</time>
      </trkpt>
      <trkpt lat="62.631488073579" lon="17.994884270247">
        <ele>90.2</ele>
        <time>2018-03-04T16:28:42Z</time>
      </trkpt>
      <trkpt lat="62.631500897886" lon="17.994798104315">
        <ele>90.4</ele>
        <time>2018-03-04T16:28:43Z</time>
      </trkpt>
      <trkpt lat="62.631504921198" lon="17.994737838454">
        <ele>90.4</ele>
        <time>2018-03-04T16:28:44Z</time>
      </trkpt>
      <trkpt lat="62.631512464908" lon="17.994661646983">
        <ele>90.4</ele>
        <time>2018-03-04T16:28:45Z</time>
      </trkpt>
      <trkpt lat="62.631517410229" lon="17.994584533503">
        <ele>90.2</ele>
        <time>2018-03-04T16:28:46Z</time>
      </trkpt>
      <trkpt lat="62.631513303098" lon="17.994538935967">
        <ele>90</ele>
        <time>2018-03-04T16:28:47Z</time>
      </trkpt>
      <trkpt lat="62.631511207623" lon="17.994440448642">
        <ele>90</ele>
        <time>2018-03-04T16:28:48Z</time>
      </trkpt>
      <trkpt lat="62.631501903714" lon="17.994360066221">
        <ele>89.8</ele>
        <time>2018-03-04T16:28:49Z</time>
      </trkpt>
      <trkpt lat="62.631491007244" lon="17.994292508107">
        <ele>89.8</ele>
        <time>2018-03-04T16:28:50Z</time>
      </trkpt>
      <trkpt lat="62.631474913996" lon="17.994199636655">
        <ele>89.8</ele>
        <time>2018-03-04T16:28:51Z</time>
      </trkpt>
      <trkpt lat="62.63146116768" lon="17.994132246179">
        <ele>89.8</ele>
        <time>2018-03-04T16:28:52Z</time>
      </trkpt>
      <trkpt lat="62.631451025581" lon="17.99406594535">
        <ele>89.8</ele>
        <time>2018-03-04T16:28:53Z</time>
      </trkpt>
      <trkpt lat="62.631446331717" lon="17.993978354495">
        <ele>89.6</ele>
        <time>2018-03-04T16:28:54Z</time>
      </trkpt>
      <trkpt lat="62.631438871826" lon="17.993909120001">
        <ele>89.4</ele>
        <time>2018-03-04T16:28:55Z</time>
      </trkpt>
      <trkpt lat="62.631436273437" lon="17.993859247696">
        <ele>89.4</ele>
        <time>2018-03-04T16:28:56Z</time>
      </trkpt>
      <trkpt lat="62.63143518379" lon="17.993788672098">
        <ele>89.2</ele>
        <time>2018-03-04T16:28:57Z</time>
      </trkpt>
      <trkpt lat="62.631427137166" lon="17.99371977288">
        <ele>89.2</ele>
        <time>2018-03-04T16:28:58Z</time>
      </trkpt>
      <trkpt lat="62.631426634252" lon="17.993650622205">
        <ele>89.2</ele>
        <time>2018-03-04T16:28:59Z</time>
      </trkpt>
      <trkpt lat="62.631433004496" lon="17.993561438789">
        <ele>89</ele>
        <time>2018-03-04T16:29:00Z</time>
      </trkpt>
      <trkpt lat="62.631440883482" lon="17.993502346394">
        <ele>89</ele>
        <time>2018-03-04T16:29:01Z</time>
      </trkpt>
      <trkpt lat="62.631444068604" lon="17.993444343646">
        <ele>88.8</ele>
        <time>2018-03-04T16:29:02Z</time>
      </trkpt>
      <trkpt lat="62.631455551807" lon="17.993323225191">
        <ele>88.6</ele>
        <time>2018-03-04T16:29:03Z</time>
      </trkpt>
      <trkpt lat="62.631466951191" lon="17.993240160562">
        <ele>88.4</ele>
        <time>2018-03-04T16:29:04Z</time>
      </trkpt>
      <trkpt lat="62.631476338919" lon="17.993169584964">
        <ele>88.4</ele>
        <time>2018-03-04T16:29:05Z</time>
      </trkpt>
      <trkpt lat="62.631493605633" lon="17.993084760136">
        <ele>88.2</ele>
        <time>2018-03-04T16:29:06Z</time>
      </trkpt>
      <trkpt lat="62.63150642994" lon="17.993026757388">
        <ele>88.2</ele>
        <time>2018-03-04T16:29:07Z</time>
      </trkpt>
      <trkpt lat="62.63151229727" lon="17.992940842913">
        <ele>88</ele>
        <time>2018-03-04T16:29:08Z</time>
      </trkpt>
      <trkpt lat="62.631518332238" lon="17.992854174067">
        <ele>88</ele>
        <time>2018-03-04T16:29:09Z</time>
      </trkpt>
      <trkpt lat="62.63152906107" lon="17.992794159663">
        <ele>87.6</ele>
        <time>2018-03-04T16:29:10Z</time>
      </trkpt>
      <trkpt lat="62.631542639748" lon="17.992740850779">
        <ele>87.8</ele>
        <time>2018-03-04T16:29:11Z</time>
      </trkpt>
      <trkpt lat="62.631553620037" lon="17.992696426709">
        <ele>87.8</ele>
        <time>2018-03-04T16:29:12Z</time>
      </trkpt>
      <trkpt lat="62.631569713285" lon="17.992622498351">
        <ele>87.8</ele>
        <time>2018-03-04T16:29:13Z</time>
      </trkpt>
      <trkpt lat="62.631589075474" lon="17.99254798326">
        <ele>88</ele>
        <time>2018-03-04T16:29:14Z</time>
      </trkpt>
      <trkpt lat="62.631615646097" lon="17.992488807046">
        <ele>88.4</ele>
        <time>2018-03-04T16:29:15Z</time>
      </trkpt>
      <trkpt lat="62.631647916412" lon="17.992445053528">
        <ele>88.4</ele>
        <time>2018-03-04T16:29:16Z</time>
      </trkpt>
      <trkpt lat="62.631679851451" lon="17.992426948624">
        <ele>88.4</ele>
        <time>2018-03-04T16:29:17Z</time>
      </trkpt>
      <trkpt lat="62.631724946073" lon="17.992407418797">
        <ele>88.4</ele>
        <time>2018-03-04T16:29:18Z</time>
      </trkpt>
      <trkpt lat="62.631764173365" lon="17.992385709676">
        <ele>88.4</ele>
        <time>2018-03-04T16:29:19Z</time>
      </trkpt>
      <trkpt lat="62.631799377345" lon="17.992378836518">
        <ele>88.2</ele>
        <time>2018-03-04T16:29:20Z</time>
      </trkpt>
      <trkpt lat="62.631828127262" lon="17.992368694419">
        <ele>88.2</ele>
        <time>2018-03-04T16:29:21Z</time>
      </trkpt>
      <trkpt lat="62.6318534406" lon="17.992353858456">
        <ele>87.8</ele>
        <time>2018-03-04T16:29:22Z</time>
      </trkpt>
      <trkpt lat="62.631883699259" lon="17.992337681389">
        <ele>88</ele>
        <time>2018-03-04T16:29:23Z</time>
      </trkpt>
      <trkpt lat="62.631907671493" lon="17.992326617281">
        <ele>88</ele>
        <time>2018-03-04T16:29:24Z</time>
      </trkpt>
      <trkpt lat="62.631934577392" lon="17.992309350567">
        <ele>88.2</ele>
        <time>2018-03-04T16:29:25Z</time>
      </trkpt>
      <trkpt lat="62.631964668413" lon="17.992286803256">
        <ele>88.4</ele>
        <time>2018-03-04T16:29:26Z</time>
      </trkpt>
      <trkpt lat="62.631987215724" lon="17.992272134931">
        <ele>88.6</ele>
        <time>2018-03-04T16:29:27Z</time>
      </trkpt>
      <trkpt lat="62.632013953985" lon="17.992260064995">
        <ele>89</ele>
        <time>2018-03-04T16:29:28Z</time>
      </trkpt>
      <trkpt lat="62.632043039178" lon="17.992245648127">
        <ele>89.2</ele>
        <time>2018-03-04T16:29:29Z</time>
      </trkpt>
      <trkpt lat="62.63207137" lon="17.992216143839">
        <ele>89.6</ele>
        <time>2018-03-04T16:29:30Z</time>
      </trkpt>
      <trkpt lat="62.632099281727" lon="17.992193680347">
        <ele>89.8</ele>
        <time>2018-03-04T16:29:31Z</time>
      </trkpt>
      <trkpt lat="62.632125936169" lon="17.992178425289">
        <ele>89.8</ele>
        <time>2018-03-04T16:29:32Z</time>
      </trkpt>
      <trkpt lat="62.632153344982" lon="17.992154117779">
        <ele>90</ele>
        <time>2018-03-04T16:29:33Z</time>
      </trkpt>
      <trkpt lat="62.632183268365" lon="17.992140120006">
        <ele>89.8</ele>
        <time>2018-03-04T16:29:34Z</time>
      </trkpt>
      <trkpt lat="62.632213191748" lon="17.99210709532">
        <ele>89.8</ele>
        <time>2018-03-04T16:29:35Z</time>
      </trkpt>
      <trkpt lat="62.632242863674" lon="17.992101814723">
        <ele>89.8</ele>
        <time>2018-03-04T16:29:36Z</time>
      </trkpt>
      <trkpt lat="62.632273289971" lon="17.992077423394">
        <ele>89.8</ele>
        <time>2018-03-04T16:29:37Z</time>
      </trkpt>
      <trkpt lat="62.632309332141" lon="17.992069041494">
        <ele>89.8</ele>
        <time>2018-03-04T16:29:38Z</time>
      </trkpt>
      <trkpt lat="62.632335232212" lon="17.992043895794">
        <ele>89.8</ele>
        <time>2018-03-04T16:29:39Z</time>
      </trkpt>
      <trkpt lat="62.63236725107" lon="17.992037022636">
        <ele>89.8</ele>
        <time>2018-03-04T16:29:40Z</time>
      </trkpt>
      <trkpt lat="62.63240413143" lon="17.992008524176">
        <ele>89.8</ele>
        <time>2018-03-04T16:29:41Z</time>
      </trkpt>
      <trkpt lat="62.632431372605" lon="17.991991173643">
        <ele>89.8</ele>
        <time>2018-03-04T16:29:42Z</time>
      </trkpt>
      <trkpt lat="62.632470851354" lon="17.991977846422">
        <ele>89.6</ele>
        <time>2018-03-04T16:29:43Z</time>
      </trkpt>
      <trkpt lat="62.632510078646" lon="17.991953035998">
        <ele>89.6</ele>
        <time>2018-03-04T16:29:44Z</time>
      </trkpt>
      <trkpt lat="62.632540085848" lon="17.991924537538">
        <ele>89.6</ele>
        <time>2018-03-04T16:29:45Z</time>
      </trkpt>
      <trkpt lat="62.632568919584" lon="17.991892183404">
        <ele>89.4</ele>
        <time>2018-03-04T16:29:46Z</time>
      </trkpt>
      <trkpt lat="62.632591466895" lon="17.991856225053">
        <ele>89.4</ele>
        <time>2018-03-04T16:29:47Z</time>
      </trkpt>
      <trkpt lat="62.632622479925" lon="17.991818338865">
        <ele>89.4</ele>
        <time>2018-03-04T16:29:48Z</time>
      </trkpt>
      <trkpt lat="62.632643434675" lon="17.991788331663">
        <ele>89.4</ele>
        <time>2018-03-04T16:29:49Z</time>
      </trkpt>
      <trkpt lat="62.632671597859" lon="17.991749439647">
        <ele>89.4</ele>
        <time>2018-03-04T16:29:50Z</time>
      </trkpt>
      <trkpt lat="62.632692804066" lon="17.991703758292">
        <ele>89.4</ele>
        <time>2018-03-04T16:29:51Z</time>
      </trkpt>
      <trkpt lat="62.632710489875" lon="17.991654724177">
        <ele>89.4</ele>
        <time>2018-03-04T16:29:52Z</time>
      </trkpt>
      <trkpt lat="62.632737228136" lon="17.991603259311">
        <ele>89.4</ele>
        <time>2018-03-04T16:29:53Z</time>
      </trkpt>
      <trkpt lat="62.632746699683" lon="17.991564618752">
        <ele>89.4</ele>
        <time>2018-03-04T16:29:54Z</time>
      </trkpt>
      <trkpt lat="62.63277377322" lon="17.991504604348">
        <ele>89.4</ele>
        <time>2018-03-04T16:29:55Z</time>
      </trkpt>
      <trkpt lat="62.632793135409" lon="17.991453726215">
        <ele>89.2</ele>
        <time>2018-03-04T16:29:56Z</time>
      </trkpt>
      <trkpt lat="62.632801936404" lon="17.991402261349">
        <ele>89.2</ele>
        <time>2018-03-04T16:29:57Z</time>
      </trkpt>
      <trkpt lat="62.632814257797" lon="17.991346605533">
        <ele>89.2</ele>
        <time>2018-03-04T16:29:58Z</time>
      </trkpt>
      <trkpt lat="62.632834877271" lon="17.991294302477">
        <ele>89</ele>
        <time>2018-03-04T16:29:59Z</time>
      </trkpt>
      <trkpt lat="62.632843426809" lon="17.991241161231">
        <ele>89</ele>
        <time>2018-03-04T16:30:00Z</time>
      </trkpt>
      <trkpt lat="62.63286010679" lon="17.991199000274">
        <ele>89.2</ele>
        <time>2018-03-04T16:30:01Z</time>
      </trkpt>
      <trkpt lat="62.632872176726" lon="17.991159018611">
        <ele>89</ele>
        <time>2018-03-04T16:30:02Z</time>
      </trkpt>
      <trkpt lat="62.632885503947" lon="17.991124401364">
        <ele>89</ele>
        <time>2018-03-04T16:30:03Z</time>
      </trkpt>
      <trkpt lat="62.632900423729" lon="17.99107612162">
        <ele>89.2</ele>
        <time>2018-03-04T16:30:04Z</time>
      </trkpt>
      <trkpt lat="62.632923641592" lon="17.991019627614">
        <ele>89</ele>
        <time>2018-03-04T16:30:05Z</time>
      </trkpt>
      <trkpt lat="62.632938309917" lon="17.990962882151">
        <ele>88.8</ele>
        <time>2018-03-04T16:30:06Z</time>
      </trkpt>
      <trkpt lat="62.632952391509" lon="17.990910327638">
        <ele>88.8</ele>
        <time>2018-03-04T16:30:07Z</time>
      </trkpt>
      <trkpt lat="62.632970077318" lon="17.990858108401">
        <ele>88.8</ele>
        <time>2018-03-04T16:30:08Z</time>
      </trkpt>
      <trkpt lat="62.632983739815" lon="17.990807146449">
        <ele>88.8</ele>
        <time>2018-03-04T16:30:09Z</time>
      </trkpt>
      <trkpt lat="62.633001425624" lon="17.990755430126">
        <ele>88.8</ele>
        <time>2018-03-04T16:30:10Z</time>
      </trkpt>
      <trkpt lat="62.633018189424" lon="17.990697595016">
        <ele>89</ele>
        <time>2018-03-04T16:30:11Z</time>
      </trkpt>
      <trkpt lat="62.63303361212" lon="17.990665157063">
        <ele>89.4</ele>
        <time>2018-03-04T16:30:12Z</time>
      </trkpt>
      <trkpt lat="62.633061020933" lon="17.990609752704">
        <ele>89.4</ele>
        <time>2018-03-04T16:30:13Z</time>
      </trkpt>
      <trkpt lat="62.633083652063" lon="17.99056482572">
        <ele>89.2</ele>
        <time>2018-03-04T16:30:14Z</time>
      </trkpt>
      <trkpt lat="62.633098488026" lon="17.990528196817">
        <ele>89</ele>
        <time>2018-03-04T16:30:15Z</time>
      </trkpt>
      <trkpt lat="62.633126148296" lon="17.990486706412">
        <ele>89.2</ele>
        <time>2018-03-04T16:30:16Z</time>
      </trkpt>
      <trkpt lat="62.633149198521" lon="17.990449071681">
        <ele>89</ele>
        <time>2018-03-04T16:30:17Z</time>
      </trkpt>
      <trkpt lat="62.633170907642" lon="17.990409592932">
        <ele>88.6</ele>
        <time>2018-03-04T16:30:18Z</time>
      </trkpt>
      <trkpt lat="62.633200579568" lon="17.990385201603">
        <ele>88.6</ele>
        <time>2018-03-04T16:30:19Z</time>
      </trkpt>
      <trkpt lat="62.633233268978" lon="17.990373550762">
        <ele>88.8</ele>
        <time>2018-03-04T16:30:20Z</time>
      </trkpt>
      <trkpt lat="62.633260174877" lon="17.99034521994">
        <ele>88.8</ele>
        <time>2018-03-04T16:30:21Z</time>
      </trkpt>
      <trkpt lat="62.633270065519" lon="17.990327785588">
        <ele>89</ele>
        <time>2018-03-04T16:30:22Z</time>
      </trkpt>
      <trkpt lat="62.63329009826" lon="17.990299538585">
        <ele>88.8</ele>
        <time>2018-03-04T16:30:23Z</time>
      </trkpt>
      <trkpt lat="62.633318931996" lon="17.990283948251">
        <ele>88.8</ele>
        <time>2018-03-04T16:30:24Z</time>
      </trkpt>
      <trkpt lat="62.633337707452" lon="17.990243882769">
        <ele>88.8</ele>
        <time>2018-03-04T16:30:25Z</time>
      </trkpt>
      <trkpt lat="62.633367547016" lon="17.990225945503">
        <ele>89</ele>
        <time>2018-03-04T16:30:26Z</time>
      </trkpt>
      <trkpt lat="62.633399984969" lon="17.990207086228">
        <ele>88.8</ele>
        <time>2018-03-04T16:30:27Z</time>
      </trkpt>
      <trkpt lat="62.633429573076" lon="17.990184622736">
        <ele>89</ele>
        <time>2018-03-04T16:30:28Z</time>
      </trkpt>
      <trkpt lat="62.633466872531" lon="17.990142713236">
        <ele>89</ele>
        <time>2018-03-04T16:30:29Z</time>
      </trkpt>
      <trkpt lat="62.633504591081" lon="17.990111029654">
        <ele>89.2</ele>
        <time>2018-03-04T16:30:30Z</time>
      </trkpt>
      <trkpt lat="62.633537029034" lon="17.990066186489">
        <ele>89.2</ele>
        <time>2018-03-04T16:30:31Z</time>
      </trkpt>
      <trkpt lat="62.633568880254" lon="17.990026623921">
        <ele>89.4</ele>
        <time>2018-03-04T16:30:32Z</time>
      </trkpt>
      <trkpt lat="62.633598216904" lon="17.989978427996">
        <ele>89.2</ele>
        <time>2018-03-04T16:30:33Z</time>
      </trkpt>
      <trkpt lat="62.633624619889" lon="17.989910786063">
        <ele>89.2</ele>
        <time>2018-03-04T16:30:34Z</time>
      </trkpt>
      <trkpt lat="62.633650100865" lon="17.989848257089">
        <ele>88.8</ele>
        <time>2018-03-04T16:30:35Z</time>
      </trkpt>
      <trkpt lat="62.633676922945" lon="17.989796540766">
        <ele>88.6</ele>
        <time>2018-03-04T16:30:36Z</time>
      </trkpt>
      <trkpt lat="62.633703577387" lon="17.989734766163">
        <ele>88.4</ele>
        <time>2018-03-04T16:30:37Z</time>
      </trkpt>
      <trkpt lat="62.633733165494" lon="17.989677014872">
        <ele>88.2</ele>
        <time>2018-03-04T16:30:38Z</time>
      </trkpt>
      <trkpt lat="62.633757724461" lon="17.989636446476">
        <ele>88.2</ele>
        <time>2018-03-04T16:30:39Z</time>
      </trkpt>
      <trkpt lat="62.633790078595" lon="17.989594704614">
        <ele>88.2</ele>
        <time>2018-03-04T16:30:40Z</time>
      </trkpt>
      <trkpt lat="62.633827126593" lon="17.989555477322">
        <ele>88</ele>
        <time>2018-03-04T16:30:41Z</time>
      </trkpt>
      <trkpt lat="62.63384581823" lon="17.989509963605">
        <ele>88</ele>
        <time>2018-03-04T16:30:42Z</time>
      </trkpt>
      <trkpt lat="62.633886218988" lon="17.98947434053">
        <ele>88</ele>
        <time>2018-03-04T16:30:43Z</time>
      </trkpt>
      <trkpt lat="62.633923350805" lon="17.989429748822">
        <ele>88</ele>
        <time>2018-03-04T16:30:44Z</time>
      </trkpt>
      <trkpt lat="62.633946233392" lon="17.98939471248">
        <ele>88</ele>
        <time>2018-03-04T16:30:45Z</time>
      </trkpt>
      <trkpt lat="62.633980683001" lon="17.98935867031">
        <ele>88</ele>
        <time>2018-03-04T16:30:46Z</time>
      </trkpt>
      <trkpt lat="62.634019575017" lon="17.989316090258">
        <ele>88</ele>
        <time>2018-03-04T16:30:47Z</time>
      </trkpt>
      <trkpt lat="62.634048492572" lon="17.989254818569">
        <ele>87.8</ele>
        <time>2018-03-04T16:30:48Z</time>
      </trkpt>
      <trkpt lat="62.634081517258" lon="17.989200503857">
        <ele>87.4</ele>
        <time>2018-03-04T16:30:49Z</time>
      </trkpt>
      <trkpt lat="62.63412158274" lon="17.989158678176">
        <ele>87.2</ele>
        <time>2018-03-04T16:30:50Z</time>
      </trkpt>
      <trkpt lat="62.63415594853" lon="17.989105956025">
        <ele>87</ele>
        <time>2018-03-04T16:30:51Z</time>
      </trkpt>
      <trkpt lat="62.634193499442" lon="17.989065555267">
        <ele>86.6</ele>
        <time>2018-03-04T16:30:52Z</time>
      </trkpt>
      <trkpt lat="62.634229876888" lon="17.989020209188">
        <ele>86.6</ele>
        <time>2018-03-04T16:30:53Z</time>
      </trkpt>
      <trkpt lat="62.634263739764" lon="17.988965475381">
        <ele>86.6</ele>
        <time>2018-03-04T16:30:54Z</time>
      </trkpt>
      <trkpt lat="62.634296177717" lon="17.988904287511">
        <ele>86.4</ele>
        <time>2018-03-04T16:30:55Z</time>
      </trkpt>
      <trkpt lat="62.63431017549" lon="17.988844608383">
        <ele>86.4</ele>
        <time>2018-03-04T16:30:56Z</time>
      </trkpt>
      <trkpt lat="62.634327861299" lon="17.988799262304">
        <ele>86.4</ele>
        <time>2018-03-04T16:30:57Z</time>
      </trkpt>
      <trkpt lat="62.634357365587" lon="17.988727848516">
        <ele>86.6</ele>
        <time>2018-03-04T16:30:58Z</time>
      </trkpt>
      <trkpt lat="62.634379912898" lon="17.988663140248">
        <ele>86.2</ele>
        <time>2018-03-04T16:30:59Z</time>
      </trkpt>
      <trkpt lat="62.634413859593" lon="17.98861435759">
        <ele>86.2</ele>
        <time>2018-03-04T16:31:00Z</time>
      </trkpt>
      <trkpt lat="62.634456104369" lon="17.988566413122">
        <ele>86.2</ele>
        <time>2018-03-04T16:31:01Z</time>
      </trkpt>
      <trkpt lat="62.634485608657" lon="17.988543781992">
        <ele>85.8</ele>
        <time>2018-03-04T16:31:02Z</time>
      </trkpt>
      <trkpt lat="62.634534558953" lon="17.988504219424">
        <ele>85.8</ele>
        <time>2018-03-04T16:31:03Z</time>
      </trkpt>
      <trkpt lat="62.634573115693" lon="17.988482677941">
        <ele>85.6</ele>
        <time>2018-03-04T16:31:04Z</time>
      </trkpt>
      <trkpt lat="62.634624832016" lon="17.988452084006">
        <ele>85.4</ele>
        <time>2018-03-04T16:31:05Z</time>
      </trkpt>
      <trkpt lat="62.634668250258" lon="17.988418304949">
        <ele>85</ele>
        <time>2018-03-04T16:31:06Z</time>
      </trkpt>
      <trkpt lat="62.634700939668" lon="17.988393578344">
        <ele>84.4</ele>
        <time>2018-03-04T16:31:07Z</time>
      </trkpt>
      <trkpt lat="62.634741927159" lon="17.988370863395">
        <ele>83.8</ele>
        <time>2018-03-04T16:31:08Z</time>
      </trkpt>
      <trkpt lat="62.634786602686" lon="17.98833272575">
        <ele>83.4</ele>
        <time>2018-03-04T16:31:09Z</time>
      </trkpt>
      <trkpt lat="62.634835385344" lon="17.988301880358">
        <ele>82.8</ele>
        <time>2018-03-04T16:31:10Z</time>
      </trkpt>
      <trkpt lat="62.634874864093" lon="17.988270448233">
        <ele>82.8</ele>
        <time>2018-03-04T16:31:11Z</time>
      </trkpt>
      <trkpt lat="62.634910068073" lon="17.988229712199">
        <ele>83</ele>
        <time>2018-03-04T16:31:12Z</time>
      </trkpt>
      <trkpt lat="62.634943511854" lon="17.988164081922">
        <ele>83</ele>
        <time>2018-03-04T16:31:13Z</time>
      </trkpt>
      <trkpt lat="62.6349715074" lon="17.988090069745">
        <ele>83</ele>
        <time>2018-03-04T16:31:14Z</time>
      </trkpt>
      <trkpt lat="62.63499749129" lon="17.988008430039">
        <ele>83</ele>
        <time>2018-03-04T16:31:15Z</time>
      </trkpt>
      <trkpt lat="62.635019954782" lon="17.987945398151">
        <ele>82.6</ele>
        <time>2018-03-04T16:31:16Z</time>
      </trkpt>
      <trkpt lat="62.635038814057" lon="17.987878342951">
        <ele>82.4</ele>
        <time>2018-03-04T16:31:17Z</time>
      </trkpt>
      <trkpt lat="62.635058930617" lon="17.987767869509">
        <ele>82.2</ele>
        <time>2018-03-04T16:31:18Z</time>
      </trkpt>
      <trkpt lat="62.635067563974" lon="17.987706681639">
        <ele>82</ele>
        <time>2018-03-04T16:31:19Z</time>
      </trkpt>
      <trkpt lat="62.635071671105" lon="17.987642224828">
        <ele>82</ele>
        <time>2018-03-04T16:31:20Z</time>
      </trkpt>
      <trkpt lat="62.635060523178" lon="17.987606601753">
        <ele>81.8</ele>
        <time>2018-03-04T16:31:21Z</time>
      </trkpt>
      <trkpt lat="62.635040406618" lon="17.987582880976">
        <ele>81.8</ele>
        <time>2018-03-04T16:31:22Z</time>
      </trkpt>
      <trkpt lat="62.635017440212" lon="17.987594950912">
        <ele>81.8</ele>
        <time>2018-03-04T16:31:23Z</time>
      </trkpt>
      <trkpt lat="62.635005202638" lon="17.987623700829">
        <ele>82</ele>
        <time>2018-03-04T16:31:24Z</time>
      </trkpt>
      <trkpt lat="62.634986427182" lon="17.987663095759">
        <ele>81.8</ele>
        <time>2018-03-04T16:31:25Z</time>
      </trkpt>
      <trkpt lat="62.634971172124" lon="17.987689414925">
        <ele>81.6</ele>
        <time>2018-03-04T16:31:26Z</time>
      </trkpt>
      <trkpt lat="62.634957174351" lon="17.987713638616">
        <ele>81.6</ele>
        <time>2018-03-04T16:31:27Z</time>
      </trkpt>
      <trkpt lat="62.634925071674" lon="17.987744064913">
        <ele>81.4</ele>
        <time>2018-03-04T16:31:28Z</time>
      </trkpt>
      <trkpt lat="62.634900680345" lon="17.987781699644">
        <ele>81.4</ele>
        <time>2018-03-04T16:31:29Z</time>
      </trkpt>
      <trkpt lat="62.634879809414" lon="17.987814891968">
        <ele>81.4</ele>
        <time>2018-03-04T16:31:30Z</time>
      </trkpt>
      <trkpt lat="62.63486170451" lon="17.987846994645">
        <ele>81.6</ele>
        <time>2018-03-04T16:31:31Z</time>
      </trkpt>
      <trkpt lat="62.634842090864" lon="17.987871553612">
        <ele>81.8</ele>
        <time>2018-03-04T16:31:32Z</time>
      </trkpt>
      <trkpt lat="62.634816526069" lon="17.987888401231">
        <ele>81.8</ele>
        <time>2018-03-04T16:31:33Z</time>
      </trkpt>
      <trkpt lat="62.634798924079" lon="17.987917067329">
        <ele>81.8</ele>
        <time>2018-03-04T16:31:34Z</time>
      </trkpt>
      <trkpt lat="62.634787776152" lon="17.987946487798">
        <ele>81.8</ele>
        <time>2018-03-04T16:31:35Z</time>
      </trkpt>
      <trkpt lat="62.634770425619" lon="17.987967358729">
        <ele>82</ele>
        <time>2018-03-04T16:31:36Z</time>
      </trkpt>
      <trkpt lat="62.634747626851" lon="17.987980350674">
        <ele>82</ele>
        <time>2018-03-04T16:31:37Z</time>
      </trkpt>
      <trkpt lat="62.634729773404" lon="17.987998539397">
        <ele>82.2</ele>
        <time>2018-03-04T16:31:38Z</time>
      </trkpt>
      <trkpt lat="62.634714518346" lon="17.988011615161">
        <ele>82.4</ele>
        <time>2018-03-04T16:31:39Z</time>
      </trkpt>
      <trkpt lat="62.634680320194" lon="17.9880184045">
        <ele>82.6</ele>
        <time>2018-03-04T16:31:40Z</time>
      </trkpt>
      <trkpt lat="62.63464796606" lon="17.988025193839">
        <ele>82.6</ele>
        <time>2018-03-04T16:31:41Z</time>
      </trkpt>
      <trkpt lat="62.634633465373" lon="17.988041622363">
        <ele>82.6</ele>
        <time>2018-03-04T16:31:42Z</time>
      </trkpt>
      <trkpt lat="62.634600859782" lon="17.988033408101">
        <ele>82.8</ele>
        <time>2018-03-04T16:31:43Z</time>
      </trkpt>
      <trkpt lat="62.634573199512" lon="17.988042879648">
        <ele>83</ele>
        <time>2018-03-04T16:31:44Z</time>
      </trkpt>
      <trkpt lat="62.634552831495" lon="17.988062325656">
        <ele>83.2</ele>
        <time>2018-03-04T16:31:45Z</time>
      </trkpt>
      <trkpt lat="62.634526847605" lon="17.988057967068">
        <ele>83.2</ele>
        <time>2018-03-04T16:31:46Z</time>
      </trkpt>
      <trkpt lat="62.634498935878" lon="17.988064588769">
        <ele>83.4</ele>
        <time>2018-03-04T16:31:47Z</time>
      </trkpt>
      <trkpt lat="62.634476640024" lon="17.98806534314">
        <ele>83.6</ele>
        <time>2018-03-04T16:31:48Z</time>
      </trkpt>
      <trkpt lat="62.634455936731" lon="17.988084286234">
        <ele>83.6</ele>
        <time>2018-03-04T16:31:49Z</time>
      </trkpt>
      <trkpt lat="62.634423666416" lon="17.988092500496">
        <ele>83.6</ele>
        <time>2018-03-04T16:31:50Z</time>
      </trkpt>
      <trkpt lat="62.634407237892" lon="17.988097026722">
        <ele>83.6</ele>
        <time>2018-03-04T16:31:51Z</time>
      </trkpt>
      <trkpt lat="62.634380248174" lon="17.988115885997">
        <ele>83.8</ele>
        <time>2018-03-04T16:31:52Z</time>
      </trkpt>
      <trkpt lat="62.634354264284" lon="17.988125609001">
        <ele>83.8</ele>
        <time>2018-03-04T16:31:53Z</time>
      </trkpt>
      <trkpt lat="62.634331800792" lon="17.988129799951">
        <ele>83.8</ele>
        <time>2018-03-04T16:31:54Z</time>
      </trkpt>
      <trkpt lat="62.634311768051" lon="17.98812988377">
        <ele>84.2</ele>
        <time>2018-03-04T16:31:55Z</time>
      </trkpt>
      <trkpt lat="62.634283772505" lon="17.988129129399">
        <ele>84.2</ele>
        <time>2018-03-04T16:31:56Z</time>
      </trkpt>
      <trkpt lat="62.634248652344" lon="17.988132063064">
        <ele>84.4</ele>
        <time>2018-03-04T16:31:57Z</time>
      </trkpt>
      <trkpt lat="62.634225937395" lon="17.98815083852">
        <ele>84.4</ele>
        <time>2018-03-04T16:31:58Z</time>
      </trkpt>
      <trkpt lat="62.63419785803" lon="17.988150167968">
        <ele>84.6</ele>
        <time>2018-03-04T16:31:59Z</time>
      </trkpt>
      <trkpt lat="62.634175478357" lon="17.988154107461">
        <ele>84.6</ele>
        <time>2018-03-04T16:32:00Z</time>
      </trkpt>
      <trkpt lat="62.634148153363" lon="17.988144216819">
        <ele>84.6</ele>
        <time>2018-03-04T16:32:01Z</time>
      </trkpt>
      <trkpt lat="62.634117643247" lon="17.988138684765">
        <ele>84.8</ele>
        <time>2018-03-04T16:32:02Z</time>
      </trkpt>
      <trkpt lat="62.634099873619" lon="17.988119741671">
        <ele>84.8</ele>
        <time>2018-03-04T16:32:03Z</time>
      </trkpt>
      <trkpt lat="62.634064250544" lon="17.988119741671">
        <ele>84.8</ele>
        <time>2018-03-04T16:32:04Z</time>
      </trkpt>
      <trkpt lat="62.634036757912" lon="17.988115131626">
        <ele>84.8</ele>
        <time>2018-03-04T16:32:05Z</time>
      </trkpt>
      <trkpt lat="62.634019575017" lon="17.9881022235">
        <ele>85</ele>
        <time>2018-03-04T16:32:06Z</time>
      </trkpt>
      <trkpt lat="62.633994932231" lon="17.988102894052">
        <ele>84.8</ele>
        <time>2018-03-04T16:32:07Z</time>
      </trkpt>
      <trkpt lat="62.633965847038" lon="17.98808629789">
        <ele>84.8</ele>
        <time>2018-03-04T16:32:08Z</time>
      </trkpt>
      <trkpt lat="62.633944976107" lon="17.988069282633">
        <ele>85</ele>
        <time>2018-03-04T16:32:09Z</time>
      </trkpt>
      <trkpt lat="62.633919327493" lon="17.988046651503">
        <ele>85</ele>
        <time>2018-03-04T16:32:10Z</time>
      </trkpt>
      <trkpt lat="62.63390281515" lon="17.988032318454">
        <ele>85</ele>
        <time>2018-03-04T16:32:11Z</time>
      </trkpt>
      <trkpt lat="62.63387850764" lon="17.988011112247">
        <ele>85.2</ele>
        <time>2018-03-04T16:32:12Z</time>
      </trkpt>
      <trkpt lat="62.633846404963" lon="17.987980266855">
        <ele>85.2</ele>
        <time>2018-03-04T16:32:13Z</time>
      </trkpt>
      <trkpt lat="62.633828970611" lon="17.987967861643">
        <ele>85.4</ele>
        <time>2018-03-04T16:32:14Z</time>
      </trkpt>
      <trkpt lat="62.633807177671" lon="17.98795805482">
        <ele>85.6</ele>
        <time>2018-03-04T16:32:15Z</time>
      </trkpt>
      <trkpt lat="62.633775494089" lon="17.987923521392">
        <ele>85.8</ele>
        <time>2018-03-04T16:32:16Z</time>
      </trkpt>
      <trkpt lat="62.633749174923" lon="17.987885551385">
        <ele>85.8</ele>
        <time>2018-03-04T16:32:17Z</time>
      </trkpt>
      <trkpt lat="62.633722352843" lon="17.987874403458">
        <ele>85.8</ele>
        <time>2018-03-04T16:32:18Z</time>
      </trkpt>
      <trkpt lat="62.633696452772" lon="17.987844480075">
        <ele>85.8</ele>
        <time>2018-03-04T16:32:19Z</time>
      </trkpt>
      <trkpt lat="62.633653621263" lon="17.9878172389">
        <ele>85.8</ele>
        <time>2018-03-04T16:32:20Z</time>
      </trkpt>
      <trkpt lat="62.633635851635" lon="17.987795697417">
        <ele>86</ele>
        <time>2018-03-04T16:32:21Z</time>
      </trkpt>
      <trkpt lat="62.633614980704" lon="17.987780945273">
        <ele>86</ele>
        <time>2018-03-04T16:32:22Z</time>
      </trkpt>
      <trkpt lat="62.633589667366" lon="17.987757811229">
        <ele>86</ele>
        <time>2018-03-04T16:32:23Z</time>
      </trkpt>
      <trkpt lat="62.633576088688" lon="17.987732916986">
        <ele>86.2</ele>
        <time>2018-03-04T16:32:24Z</time>
      </trkpt>
      <trkpt lat="62.633560246897" lon="17.987712968064">
        <ele>86.2</ele>
        <time>2018-03-04T16:32:25Z</time>
      </trkpt>
      <trkpt lat="62.63354490802" lon="17.987678686093">
        <ele>86.6</ele>
        <time>2018-03-04T16:32:26Z</time>
      </trkpt>
      <trkpt lat="62.633516241922" lon="17.987641219">
        <ele>87</ele>
        <time>2018-03-04T16:32:27Z</time>
      </trkpt>
      <trkpt lat="62.633487156729" lon="17.987603751907">
        <ele>87.2</ele>
        <time>2018-03-04T16:32:28Z</time>
      </trkpt>
      <trkpt lat="62.633473997146" lon="17.987572152144">
        <ele>87.4</ele>
        <time>2018-03-04T16:32:29Z</time>
      </trkpt>
      <trkpt lat="62.633454970233" lon="17.987535104146">
        <ele>87.6</ele>
        <time>2018-03-04T16:32:30Z</time>
      </trkpt>
      <trkpt lat="62.633433344931" lon="17.98750627041">
        <ele>87.8</ele>
        <time>2018-03-04T16:32:31Z</time>
      </trkpt>
      <trkpt lat="62.633413815104" lon="17.987471569344">
        <ele>87.8</ele>
        <time>2018-03-04T16:32:32Z</time>
      </trkpt>
      <trkpt lat="62.633391854526" lon="17.987436952097">
        <ele>87.8</ele>
        <time>2018-03-04T16:32:33Z</time>
      </trkpt>
      <trkpt lat="62.633372157061" lon="17.987407447809">
        <ele>88</ele>
        <time>2018-03-04T16:32:34Z</time>
      </trkpt>
      <trkpt lat="62.633354303614" lon="17.987368723431">
        <ele>88.2</ele>
        <time>2018-03-04T16:32:35Z</time>
      </trkpt>
      <trkpt lat="62.633335276701" lon="17.987329328501">
        <ele>88.6</ele>
        <time>2018-03-04T16:32:36Z</time>
      </trkpt>
      <trkpt lat="62.633313399942" lon="17.987280126748">
        <ele>88.8</ele>
        <time>2018-03-04T16:32:37Z</time>
      </trkpt>
      <trkpt lat="62.633290601174" lon="17.987224554751">
        <ele>89</ele>
        <time>2018-03-04T16:32:38Z</time>
      </trkpt>
      <trkpt lat="62.633266293664" lon="17.987161019949">
        <ele>89</ele>
        <time>2018-03-04T16:32:39Z</time>
      </trkpt>
      <trkpt lat="62.633241986154" lon="17.987071585076">
        <ele>89</ele>
        <time>2018-03-04T16:32:40Z</time>
      </trkpt>
      <trkpt lat="62.633213152418" lon="17.986966224593">
        <ele>88.8</ele>
        <time>2018-03-04T16:32:41Z</time>
      </trkpt>
      <trkpt lat="62.633194879876" lon="17.986878047005">
        <ele>88.4</ele>
        <time>2018-03-04T16:32:42Z</time>
      </trkpt>
      <trkpt lat="62.633177026429" lon="17.986781571336">
        <ele>88.2</ele>
        <time>2018-03-04T16:32:43Z</time>
      </trkpt>
      <trkpt lat="62.633162525742" lon="17.9866856824">
        <ele>87.8</ele>
        <time>2018-03-04T16:32:44Z</time>
      </trkpt>
      <trkpt lat="62.633157328964" lon="17.986598175364">
        <ele>87.6</ele>
        <time>2018-03-04T16:32:45Z</time>
      </trkpt>
      <trkpt lat="62.633159089163" lon="17.986521061884">
        <ele>87.4</ele>
        <time>2018-03-04T16:32:46Z</time>
      </trkpt>
      <trkpt lat="62.633159256801" lon="17.98645350377">
        <ele>87</ele>
        <time>2018-03-04T16:32:47Z</time>
      </trkpt>
      <trkpt lat="62.63314844415" lon="17.986343197966">
        <ele>86.6</ele>
        <time>2018-03-04T16:32:48Z</time>
      </trkpt>
      <trkpt lat="62.633150539625" lon="17.986243704813">
        <ele>86.6</ele>
        <time>2018-03-04T16:32:49Z</time>
      </trkpt>
      <trkpt lat="62.633151126358" lon="17.986154186121">
        <ele>86.4</ele>
        <time>2018-03-04T16:32:50Z</time>
      </trkpt>
      <trkpt lat="62.633142073906" lon="17.986031223648">
        <ele>86</ele>
        <time>2018-03-04T16:32:51Z</time>
      </trkpt>
      <trkpt lat="62.633143079734" lon="17.985960480412">
        <ele>85.8</ele>
        <time>2018-03-04T16:32:52Z</time>
      </trkpt>
      <trkpt lat="62.633145426666" lon="17.985842211803">
        <ele>85.4</ele>
        <time>2018-03-04T16:32:53Z</time>
      </trkpt>
      <trkpt lat="62.633146181037" lon="17.985744562668">
        <ele>84.8</ele>
        <time>2018-03-04T16:32:54Z</time>
      </trkpt>
      <trkpt lat="62.633142493001" lon="17.985680608771">
        <ele>84.8</ele>
        <time>2018-03-04T16:32:55Z</time>
      </trkpt>
      <trkpt lat="62.633142828277" lon="17.985575415926">
        <ele>84.4</ele>
        <time>2018-03-04T16:32:56Z</time>
      </trkpt>
      <trkpt lat="62.633145007571" lon="17.985475587497">
        <ele>84.2</ele>
        <time>2018-03-04T16:32:57Z</time>
      </trkpt>
      <trkpt lat="62.633145342847" lon="17.985389924479">
        <ele>84.2</ele>
        <time>2018-03-04T16:32:58Z</time>
      </trkpt>
      <trkpt lat="62.633158670068" lon="17.985263693065">
        <ele>84</ele>
        <time>2018-03-04T16:32:59Z</time>
      </trkpt>
      <trkpt lat="62.633172332565" lon="17.985139640945">
        <ele>83.6</ele>
        <time>2018-03-04T16:33:00Z</time>
      </trkpt>
      <trkpt lat="62.633191359478" lon="17.985022126707">
        <ele>83.2</ele>
        <time>2018-03-04T16:33:01Z</time>
      </trkpt>
      <trkpt lat="62.633210134934" lon="17.984934452033">
        <ele>82.6</ele>
        <time>2018-03-04T16:33:02Z</time>
      </trkpt>
      <trkpt lat="62.633231927874" lon="17.984820542012">
        <ele>82</ele>
        <time>2018-03-04T16:33:03Z</time>
      </trkpt>
      <trkpt lat="62.633249194588" lon="17.984729514578">
        <ele>81.6</ele>
        <time>2018-03-04T16:33:04Z</time>
      </trkpt>
      <trkpt lat="62.633265036379" lon="17.98462457319">
        <ele>81</ele>
        <time>2018-03-04T16:33:05Z</time>
      </trkpt>
      <trkpt lat="62.633274088831" lon="17.98453907781">
        <ele>80.4</ele>
        <time>2018-03-04T16:33:06Z</time>
      </trkpt>
      <trkpt lat="62.633296636142" lon="17.984462886339">
        <ele>80.2</ele>
        <time>2018-03-04T16:33:07Z</time>
      </trkpt>
      <trkpt lat="62.633320021643" lon="17.984383761203">
        <ele>80</ele>
        <time>2018-03-04T16:33:08Z</time>
      </trkpt>
      <trkpt lat="62.63333787509" lon="17.984315532537">
        <ele>80.2</ele>
        <time>2018-03-04T16:33:09Z</time>
      </trkpt>
      <trkpt lat="62.633329409371" lon="17.984243112921">
        <ele>80.4</ele>
        <time>2018-03-04T16:33:10Z</time>
      </trkpt>
      <trkpt lat="62.63334458061" lon="17.984158455731">
        <ele>80.6</ele>
        <time>2018-03-04T16:33:11Z</time>
      </trkpt>
      <trkpt lat="62.633354135976" lon="17.984102967553">
        <ele>81</ele>
        <time>2018-03-04T16:33:12Z</time>
      </trkpt>
      <trkpt lat="62.63336050622" lon="17.984045635357">
        <ele>81.2</ele>
        <time>2018-03-04T16:33:13Z</time>
      </trkpt>
      <trkpt lat="62.633367463197" lon="17.983976903777">
        <ele>81</ele>
        <time>2018-03-04T16:33:14Z</time>
      </trkpt>
      <trkpt lat="62.633379281676" lon="17.983906160541">
        <ele>80.8</ele>
        <time>2018-03-04T16:33:15Z</time>
      </trkpt>
      <trkpt lat="62.633396716028" lon="17.983866597973">
        <ele>80.8</ele>
        <time>2018-03-04T16:33:16Z</time>
      </trkpt>
      <trkpt lat="62.633398392408" lon="17.983810103967">
        <ele>80.6</ele>
        <time>2018-03-04T16:33:17Z</time>
      </trkpt>
      <trkpt lat="62.63341750314" lon="17.983734499229">
        <ele>80.6</ele>
        <time>2018-03-04T16:33:18Z</time>
      </trkpt>
      <trkpt lat="62.633431668551" lon="17.983691080987">
        <ele>80.6</ele>
        <time>2018-03-04T16:33:19Z</time>
      </trkpt>
      <trkpt lat="62.63344767798" lon="17.983651015505">
        <ele>80.6</ele>
        <time>2018-03-04T16:33:20Z</time>
      </trkpt>
      <trkpt lat="62.633458825907" lon="17.983604579779">
        <ele>80.6</ele>
        <time>2018-03-04T16:33:21Z</time>
      </trkpt>
      <trkpt lat="62.633475841164" lon="17.98353660257">
        <ele>80.8</ele>
        <time>2018-03-04T16:33:22Z</time>
      </trkpt>
      <trkpt lat="62.633484893616" lon="17.983477845451">
        <ele>80.8</ele>
        <time>2018-03-04T16:33:23Z</time>
      </trkpt>
      <trkpt lat="62.633503082339" lon="17.983399390867">
        <ele>80.8</ele>
        <time>2018-03-04T16:33:24Z</time>
      </trkpt>
      <trkpt lat="62.633513643533" lon="17.983324875776">
        <ele>81</ele>
        <time>2018-03-04T16:33:25Z</time>
      </trkpt>
      <trkpt lat="62.633524540003" lon="17.983276093118">
        <ele>81</ele>
        <time>2018-03-04T16:33:26Z</time>
      </trkpt>
      <trkpt lat="62.633539795061" lon="17.983211468669">
        <ele>81</ele>
        <time>2018-03-04T16:33:27Z</time>
      </trkpt>
      <trkpt lat="62.633557061775" lon="17.983150364618">
        <ele>81</ele>
        <time>2018-03-04T16:33:28Z</time>
      </trkpt>
      <trkpt lat="62.633571646281" lon="17.983107365471">
        <ele>81</ele>
        <time>2018-03-04T16:33:29Z</time>
      </trkpt>
      <trkpt lat="62.633587488072" lon="17.983028240335">
        <ele>81</ele>
        <time>2018-03-04T16:33:30Z</time>
      </trkpt>
      <trkpt lat="62.633623949337" lon="17.982995048011">
        <ele>81</ele>
        <time>2018-03-04T16:33:31Z</time>
      </trkpt>
      <trkpt lat="62.633636857463" lon="17.98294400224">
        <ele>80.8</ele>
        <time>2018-03-04T16:33:32Z</time>
      </trkpt>
      <trkpt lat="62.633648592123" lon="17.982861356706">
        <ele>81</ele>
        <time>2018-03-04T16:33:33Z</time>
      </trkpt>
      <trkpt lat="62.633666110294" lon="17.982806036166">
        <ele>81</ele>
        <time>2018-03-04T16:33:34Z</time>
      </trkpt>
      <trkpt lat="62.633678096411" lon="17.982762282648">
        <ele>81</ele>
        <time>2018-03-04T16:33:35Z</time>
      </trkpt>
      <trkpt lat="62.633698380609" lon="17.982699921312">
        <ele>81.2</ele>
        <time>2018-03-04T16:33:36Z</time>
      </trkpt>
      <trkpt lat="62.633709696174" lon="17.982641248012">
        <ele>81.2</ele>
        <time>2018-03-04T16:33:37Z</time>
      </trkpt>
      <trkpt lat="62.633716904608" lon="17.982580060142">
        <ele>81.2</ele>
        <time>2018-03-04T16:33:38Z</time>
      </trkpt>
      <trkpt lat="62.633727884897" lon="17.982497917522">
        <ele>81.4</ele>
        <time>2018-03-04T16:33:39Z</time>
      </trkpt>
      <trkpt lat="62.633738781367" lon="17.982459696058">
        <ele>81.2</ele>
        <time>2018-03-04T16:33:40Z</time>
      </trkpt>
      <trkpt lat="62.633745989801" lon="17.982397083265">
        <ele>81.2</ele>
        <time>2018-03-04T16:33:41Z</time>
      </trkpt>
      <trkpt lat="62.63375194095" lon="17.982328351685">
        <ele>81.2</ele>
        <time>2018-03-04T16:33:42Z</time>
      </trkpt>
      <trkpt lat="62.633771135501" lon="17.982293231524">
        <ele>81.2</ele>
        <time>2018-03-04T16:33:43Z</time>
      </trkpt>
      <trkpt lat="62.633779182125" lon="17.982237994803">
        <ele>81.2</ele>
        <time>2018-03-04T16:33:44Z</time>
      </trkpt>
      <trkpt lat="62.633795275373" lon="17.982171610155">
        <ele>81.2</ele>
        <time>2018-03-04T16:33:45Z</time>
      </trkpt>
      <trkpt lat="62.633798292857" lon="17.982101537471">
        <ele>81.2</ele>
        <time>2018-03-04T16:33:46Z</time>
      </trkpt>
      <trkpt lat="62.633791922613" lon="17.982040684877">
        <ele>81.2</ele>
        <time>2018-03-04T16:33:47Z</time>
      </trkpt>
      <trkpt lat="62.633788486034" lon="17.981948316339">
        <ele>81</ele>
        <time>2018-03-04T16:33:48Z</time>
      </trkpt>
      <trkpt lat="62.633800053056" lon="17.981875477628">
        <ele>81</ele>
        <time>2018-03-04T16:33:49Z</time>
      </trkpt>
      <trkpt lat="62.633795610649" lon="17.981802806555">
        <ele>81.2</ele>
        <time>2018-03-04T16:33:50Z</time>
      </trkpt>
      <trkpt lat="62.633799047228" lon="17.981742540694">
        <ele>81.2</ele>
        <time>2018-03-04T16:33:51Z</time>
      </trkpt>
      <trkpt lat="62.633806339481" lon="17.981678586797">
        <ele>81.4</ele>
        <time>2018-03-04T16:33:52Z</time>
      </trkpt>
      <trkpt lat="62.633816146304" lon="17.981619242945">
        <ele>81.4</ele>
        <time>2018-03-04T16:33:53Z</time>
      </trkpt>
      <trkpt lat="62.633820504892" lon="17.9815559596">
        <ele>81.4</ele>
        <time>2018-03-04T16:33:54Z</time>
      </trkpt>
      <trkpt lat="62.633828719154" lon="17.981476918283">
        <ele>81.4</ele>
        <time>2018-03-04T16:33:55Z</time>
      </trkpt>
      <trkpt lat="62.633837520149" lon="17.981407264694">
        <ele>81.4</ele>
        <time>2018-03-04T16:33:56Z</time>
      </trkpt>
      <trkpt lat="62.633844058031" lon="17.981359990778">
        <ele>81.4</ele>
        <time>2018-03-04T16:33:57Z</time>
      </trkpt>
      <trkpt lat="62.633856630881" lon="17.981281703832">
        <ele>81.4</ele>
        <time>2018-03-04T16:33:58Z</time>
      </trkpt>
      <trkpt lat="62.633875322518" lon="17.981215235365">
        <ele>81.4</ele>
        <time>2018-03-04T16:33:59Z</time>
      </trkpt>
      <trkpt lat="62.633886218988" lon="17.981176427168">
        <ele>81.4</ele>
        <time>2018-03-04T16:34:00Z</time>
      </trkpt>
      <trkpt lat="62.633904659168" lon="17.981139127713">
        <ele>81.4</ele>
        <time>2018-03-04T16:34:01Z</time>
      </trkpt>
      <trkpt lat="62.633919746588" lon="17.981092021435">
        <ele>81.6</ele>
        <time>2018-03-04T16:34:02Z</time>
      </trkpt>
      <trkpt lat="62.633941455709" lon="17.981033683411">
        <ele>81.6</ele>
        <time>2018-03-04T16:34:03Z</time>
      </trkpt>
      <trkpt lat="62.633961320812" lon="17.980979201061">
        <ele>81.8</ele>
        <time>2018-03-04T16:34:04Z</time>
      </trkpt>
      <trkpt lat="62.633977246422" lon="17.980942739796">
        <ele>81.8</ele>
        <time>2018-03-04T16:34:05Z</time>
      </trkpt>
      <trkpt lat="62.634003900864" lon="17.980877109519">
        <ele>82.2</ele>
        <time>2018-03-04T16:34:06Z</time>
      </trkpt>
      <trkpt lat="62.634006415434" lon="17.980844252471">
        <ele>82.2</ele>
        <time>2018-03-04T16:34:07Z</time>
      </trkpt>
      <trkpt lat="62.6340243527" lon="17.980796308003">
        <ele>82.2</ele>
        <time>2018-03-04T16:34:08Z</time>
      </trkpt>
      <trkpt lat="62.634047235287" lon="17.980730090993">
        <ele>82.4</ele>
        <time>2018-03-04T16:34:09Z</time>
      </trkpt>
      <trkpt lat="62.634052348246" lon="17.980683571448">
        <ele>82.6</ele>
        <time>2018-03-04T16:34:10Z</time>
      </trkpt>
      <trkpt lat="62.634066010743" lon="17.980625987795">
        <ele>82.6</ele>
        <time>2018-03-04T16:34:11Z</time>
      </trkpt>
      <trkpt lat="62.634084031828" lon="17.980562788269">
        <ele>82.4</ele>
        <time>2018-03-04T16:34:12Z</time>
      </trkpt>
      <trkpt lat="62.634104567483" lon="17.980503612055">
        <ele>82.6</ele>
        <time>2018-03-04T16:34:13Z</time>
      </trkpt>
      <trkpt lat="62.634111943555" lon="17.980460361451">
        <ele>82.6</ele>
        <time>2018-03-04T16:34:14Z</time>
      </trkpt>
      <trkpt lat="62.634138681816" lon="17.980404621816">
        <ele>82.6</ele>
        <time>2018-03-04T16:34:15Z</time>
      </trkpt>
      <trkpt lat="62.634156870539" lon="17.980352402579">
        <ele>82.4</ele>
        <time>2018-03-04T16:34:16Z</time>
      </trkpt>
      <trkpt lat="62.634174891624" lon="17.980321976282">
        <ele>82.6</ele>
        <time>2018-03-04T16:34:17Z</time>
      </trkpt>
      <trkpt lat="62.634206826663" lon="17.980259531127">
        <ele>82.6</ele>
        <time>2018-03-04T16:34:18Z</time>
      </trkpt>
      <trkpt lat="62.634217387857" lon="17.98018803352">
        <ele>82.6</ele>
        <time>2018-03-04T16:34:19Z</time>
      </trkpt>
      <trkpt lat="62.634242449738" lon="17.980132461523">
        <ele>82.6</ele>
        <time>2018-03-04T16:34:20Z</time>
      </trkpt>
      <trkpt lat="62.63426156047" lon="17.980078565906">
        <ele>82.6</ele>
        <time>2018-03-04T16:34:21Z</time>
      </trkpt>
      <trkpt lat="62.634274803872" lon="17.980042356098">
        <ele>82.6</ele>
        <time>2018-03-04T16:34:22Z</time>
      </trkpt>
      <trkpt lat="62.63430430816" lon="17.979985526816">
        <ele>82.6</ele>
        <time>2018-03-04T16:34:23Z</time>
      </trkpt>
      <trkpt lat="62.634322413064" lon="17.979935654511">
        <ele>82.6</ele>
        <time>2018-03-04T16:34:24Z</time>
      </trkpt>
      <trkpt lat="62.634330794964" lon="17.979881758894">
        <ele>82.6</ele>
        <time>2018-03-04T16:34:25Z</time>
      </trkpt>
      <trkpt lat="62.634350576248" lon="17.979805651242">
        <ele>82.6</ele>
        <time>2018-03-04T16:34:26Z</time>
      </trkpt>
      <trkpt lat="62.634361221261" lon="17.979751085073">
        <ele>82.6</ele>
        <time>2018-03-04T16:34:27Z</time>
      </trkpt>
      <trkpt lat="62.634377733604" lon="17.979693166144">
        <ele>82.6</ele>
        <time>2018-03-04T16:34:28Z</time>
      </trkpt>
      <trkpt lat="62.63439483268" lon="17.979629296066">
        <ele>82.6</ele>
        <time>2018-03-04T16:34:29Z</time>
      </trkpt>
      <trkpt lat="62.634405980607" lon="17.979590068774">
        <ele>82.6</ele>
        <time>2018-03-04T16:34:30Z</time>
      </trkpt>
      <trkpt lat="62.634418050543" lon="17.979526366334">
        <ele>82.6</ele>
        <time>2018-03-04T16:34:31Z</time>
      </trkpt>
      <trkpt lat="62.634438753836" lon="17.979471800165">
        <ele>82.6</ele>
        <time>2018-03-04T16:34:32Z</time>
      </trkpt>
      <trkpt lat="62.634446884279" lon="17.979407091897">
        <ele>82.6</ele>
        <time>2018-03-04T16:34:33Z</time>
      </trkpt>
      <trkpt lat="62.634455769093" lon="17.979348250959">
        <ele>82.6</ele>
        <time>2018-03-04T16:34:34Z</time>
      </trkpt>
      <trkpt lat="62.63446943159" lon="17.979282201587">
        <ele>82.6</ele>
        <time>2018-03-04T16:34:35Z</time>
      </trkpt>
      <trkpt lat="62.634473035807" lon="17.979221684269">
        <ele>82.6</ele>
        <time>2018-03-04T16:34:36Z</time>
      </trkpt>
      <trkpt lat="62.634485943933" lon="17.979161753684">
        <ele>82.6</ele>
        <time>2018-03-04T16:34:37Z</time>
      </trkpt>
      <trkpt lat="62.634498852059" lon="17.979091429543">
        <ele>82.6</ele>
        <time>2018-03-04T16:34:38Z</time>
      </trkpt>
      <trkpt lat="62.634507485416" lon="17.979028062379">
        <ele>82.6</ele>
        <time>2018-03-04T16:34:39Z</time>
      </trkpt>
      <trkpt lat="62.634516202592" lon="17.978962767378">
        <ele>82.6</ele>
        <time>2018-03-04T16:34:40Z</time>
      </trkpt>
      <trkpt lat="62.634527434338" lon="17.978889761029">
        <ele>82.6</ele>
        <time>2018-03-04T16:34:41Z</time>
      </trkpt>
      <trkpt lat="62.634536570609" lon="17.978821700001">
        <ele>82.6</ele>
        <time>2018-03-04T16:34:42Z</time>
      </trkpt>
      <trkpt lat="62.634547886174" lon="17.978733522413">
        <ele>82.4</ele>
        <time>2018-03-04T16:34:43Z</time>
      </trkpt>
      <trkpt lat="62.634556016617" lon="17.978661102797">
        <ele>82.4</ele>
        <time>2018-03-04T16:34:44Z</time>
      </trkpt>
      <trkpt lat="62.634567918915" lon="17.978614415614">
        <ele>82.4</ele>
        <time>2018-03-04T16:34:45Z</time>
      </trkpt>
      <trkpt lat="62.634579905032" lon="17.978521544162">
        <ele>82.4</ele>
        <time>2018-03-04T16:34:46Z</time>
      </trkpt>
      <trkpt lat="62.634585772362" lon="17.978447783442">
        <ele>82.4</ele>
        <time>2018-03-04T16:34:47Z</time>
      </trkpt>
      <trkpt lat="62.634594908633" lon="17.978381314975">
        <ele>82.4</ele>
        <time>2018-03-04T16:34:48Z</time>
      </trkpt>
      <trkpt lat="62.63460018923" lon="17.978274278112">
        <ele>82.2</ele>
        <time>2018-03-04T16:34:49Z</time>
      </trkpt>
      <trkpt lat="62.634609744596" lon="17.978192386949">
        <ele>82.2</ele>
        <time>2018-03-04T16:34:50Z</time>
      </trkpt>
      <trkpt lat="62.634621395437" lon="17.978129606518">
        <ele>82</ele>
        <time>2018-03-04T16:34:51Z</time>
      </trkpt>
      <trkpt lat="62.634638410694" lon="17.978034304315">
        <ele>81.8</ele>
        <time>2018-03-04T16:34:52Z</time>
      </trkpt>
      <trkpt lat="62.634648720431" lon="17.9779349788">
        <ele>81.8</ele>
        <time>2018-03-04T16:34:53Z</time>
      </trkpt>
      <trkpt lat="62.634655342132" lon="17.977873288016">
        <ele>81.6</ele>
        <time>2018-03-04T16:34:54Z</time>
      </trkpt>
      <trkpt lat="62.634670932466" lon="17.977739931987">
        <ele>81.4</ele>
        <time>2018-03-04T16:34:56Z</time>
      </trkpt>
      <trkpt lat="62.634683086221" lon="17.977677403013">
        <ele>81.4</ele>
        <time>2018-03-04T16:34:57Z</time>
      </trkpt>
      <trkpt lat="62.634709740663" lon="17.977497275982">
        <ele>81.4</ele>
        <time>2018-03-04T16:35:00Z</time>
      </trkpt>
      <trkpt lat="62.634698508917" lon="17.977590231253">
        <ele>81.4</ele>
        <time>2018-03-04T16:35:01Z</time>
      </trkpt>
      <trkpt lat="62.634721642961" lon="17.977475985956">
        <ele>81.4</ele>
        <time>2018-03-04T16:35:02Z</time>
      </trkpt>
      <trkpt lat="62.634759696787" lon="17.977329889439">
        <ele>81.2</ele>
        <time>2018-03-04T16:35:03Z</time>
      </trkpt>
      <trkpt lat="62.634782579374" lon="17.977237437082">
        <ele>81.2</ele>
        <time>2018-03-04T16:35:04Z</time>
      </trkpt>
      <trkpt lat="62.634798085889" lon="17.977158060489">
        <ele>81.2</ele>
        <time>2018-03-04T16:35:05Z</time>
      </trkpt>
      <trkpt lat="62.634811664567" lon="17.977090753832">
        <ele>81.2</ele>
        <time>2018-03-04T16:35:06Z</time>
      </trkpt>
      <trkpt lat="62.634825746159" lon="17.977006515737">
        <ele>81</ele>
        <time>2018-03-04T16:35:07Z</time>
      </trkpt>
      <trkpt lat="62.63484242614" lon="17.976917919054">
        <ele>81</ele>
        <time>2018-03-04T16:35:08Z</time>
      </trkpt>
      <trkpt lat="62.634855334266" lon="17.976844912705">
        <ele>80.8</ele>
        <time>2018-03-04T16:35:09Z</time>
      </trkpt>
      <trkpt lat="62.634863129433" lon="17.976792861106">
        <ele>80.8</ele>
        <time>2018-03-04T16:35:10Z</time>
      </trkpt>
      <trkpt lat="62.634873522989" lon="17.976716585816">
        <ele>80.6</ele>
        <time>2018-03-04T16:35:11Z</time>
      </trkpt>
      <trkpt lat="62.63489187935" lon="17.976634443196">
        <ele>80.6</ele>
        <time>2018-03-04T16:35:12Z</time>
      </trkpt>
      <trkpt lat="62.634900512707" lon="17.976575518439">
        <ele>80.6</ele>
        <time>2018-03-04T16:35:13Z</time>
      </trkpt>
      <trkpt lat="62.634913420833" lon="17.976463452436">
        <ele>80.6</ele>
        <time>2018-03-04T16:35:14Z</time>
      </trkpt>
      <trkpt lat="62.634924820217" lon="17.976399330901">
        <ele>80.4</ele>
        <time>2018-03-04T16:35:15Z</time>
      </trkpt>
      <trkpt lat="62.634936722515" lon="17.976343758904">
        <ele>80.6</ele>
        <time>2018-03-04T16:35:16Z</time>
      </trkpt>
      <trkpt lat="62.634965472432" lon="17.976256587144">
        <ele>80.6</ele>
        <time>2018-03-04T16:35:17Z</time>
      </trkpt>
      <trkpt lat="62.634985421354" lon="17.976181652958">
        <ele>80.4</ele>
        <time>2018-03-04T16:35:18Z</time>
      </trkpt>
      <trkpt lat="62.634995144358" lon="17.976099175062">
        <ele>80.4</ele>
        <time>2018-03-04T16:35:19Z</time>
      </trkpt>
      <trkpt lat="62.635016099108" lon="17.976023737962">
        <ele>80.2</ele>
        <time>2018-03-04T16:35:20Z</time>
      </trkpt>
      <trkpt lat="62.635030264519" lon="17.97592164642">
        <ele>80</ele>
        <time>2018-03-04T16:35:21Z</time>
      </trkpt>
      <trkpt lat="62.635029258691" lon="17.975864984776">
        <ele>79.8</ele>
        <time>2018-03-04T16:35:22Z</time>
      </trkpt>
      <trkpt lat="62.63504359174" lon="17.975762055044">
        <ele>79.2</ele>
        <time>2018-03-04T16:35:23Z</time>
      </trkpt>
      <trkpt lat="62.635052057459" lon="17.975668680678">
        <ele>79.2</ele>
        <time>2018-03-04T16:35:24Z</time>
      </trkpt>
      <trkpt lat="62.635064043576" lon="17.975599027089">
        <ele>78.8</ele>
        <time>2018-03-04T16:35:25Z</time>
      </trkpt>
      <trkpt lat="62.63507460477" lon="17.975525014912">
        <ele>78.8</ele>
        <time>2018-03-04T16:35:26Z</time>
      </trkpt>
      <trkpt lat="62.63508466305" lon="17.975445638319">
        <ele>78.6</ele>
        <time>2018-03-04T16:35:27Z</time>
      </trkpt>
      <trkpt lat="62.635093464045" lon="17.975377158196">
        <ele>78.4</ele>
        <time>2018-03-04T16:35:28Z</time>
      </trkpt>
      <trkpt lat="62.635112574777" lon="17.975294345024">
        <ele>78.4</ele>
        <time>2018-03-04T16:35:29Z</time>
      </trkpt>
      <trkpt lat="62.635111568949" lon="17.975183703944">
        <ele>78.4</ele>
        <time>2018-03-04T16:35:30Z</time>
      </trkpt>
      <trkpt lat="62.635105785438" lon="17.975104494989">
        <ele>78.2</ele>
        <time>2018-03-04T16:35:31Z</time>
      </trkpt>
      <trkpt lat="62.635092122941" lon="17.97501053389">
        <ele>78</ele>
        <time>2018-03-04T16:35:32Z</time>
      </trkpt>
      <trkpt lat="62.635076616426" lon="17.974941886129">
        <ele>78</ele>
        <time>2018-03-04T16:35:33Z</time>
      </trkpt>
      <trkpt lat="62.635053398563" lon="17.974846667745">
        <ele>77.8</ele>
        <time>2018-03-04T16:35:34Z</time>
      </trkpt>
      <trkpt lat="62.635026576483" lon="17.974765195677">
        <ele>77.6</ele>
        <time>2018-03-04T16:35:35Z</time>
      </trkpt>
      <trkpt lat="62.635000508774" lon="17.974666792171">
        <ele>77.2</ele>
        <time>2018-03-04T16:35:36Z</time>
      </trkpt>
      <trkpt lat="62.634978548196" lon="17.974577273479">
        <ele>77</ele>
        <time>2018-03-04T16:35:37Z</time>
      </trkpt>
      <trkpt lat="62.634959102188" lon="17.97448247419">
        <ele>76.6</ele>
        <time>2018-03-04T16:35:38Z</time>
      </trkpt>
      <trkpt lat="62.634945272053" lon="17.974398906647">
        <ele>76.4</ele>
        <time>2018-03-04T16:35:39Z</time>
      </trkpt>
      <trkpt lat="62.634931525737" lon="17.974349034342">
        <ele>75.8</ele>
        <time>2018-03-04T16:35:40Z</time>
      </trkpt>
      <trkpt lat="62.634906212399" lon="17.974254318872">
        <ele>75.6</ele>
        <time>2018-03-04T16:35:41Z</time>
      </trkpt>
      <trkpt lat="62.634886431115" lon="17.974204278929">
        <ele>75.6</ele>
        <time>2018-03-04T16:35:42Z</time>
      </trkpt>
      <trkpt lat="62.634877462482" lon="17.974146024724">
        <ele>75.2</ele>
        <time>2018-03-04T16:35:43Z</time>
      </trkpt>
      <trkpt lat="62.634861201596" lon="17.974054075281">
        <ele>75</ele>
        <time>2018-03-04T16:35:44Z</time>
      </trkpt>
      <trkpt lat="62.634845443624" lon="17.973977464715">
        <ele>75.2</ele>
        <time>2018-03-04T16:35:45Z</time>
      </trkpt>
      <trkpt lat="62.634841001217" lon="17.973928765876">
        <ele>75.4</ele>
        <time>2018-03-04T16:35:46Z</time>
      </trkpt>
      <trkpt lat="62.634827590177" lon="17.973841426478">
        <ele>75.2</ele>
        <time>2018-03-04T16:35:47Z</time>
      </trkpt>
      <trkpt lat="62.634809485273" lon="17.973770515604">
        <ele>75.2</ele>
        <time>2018-03-04T16:35:48Z</time>
      </trkpt>
      <trkpt lat="62.634797666794" lon="17.973716452349">
        <ele>75.2</ele>
        <time>2018-03-04T16:35:49Z</time>
      </trkpt>
      <trkpt lat="62.634786183591" lon="17.973642272534">
        <ele>75</ele>
        <time>2018-03-04T16:35:50Z</time>
      </trkpt>
      <trkpt lat="62.634775035664" lon="17.973551328919">
        <ele>75</ele>
        <time>2018-03-04T16:35:51Z</time>
      </trkpt>
      <trkpt lat="62.634754751466" lon="17.97348586628">
        <ele>75</ele>
        <time>2018-03-04T16:35:52Z</time>
      </trkpt>
      <trkpt lat="62.634750560516" lon="17.973388803878">
        <ele>74.8</ele>
        <time>2018-03-04T16:35:53Z</time>
      </trkpt>
      <trkpt lat="62.634743352082" lon="17.973305236335">
        <ele>74.6</ele>
        <time>2018-03-04T16:35:54Z</time>
      </trkpt>
      <trkpt lat="62.634743938815" lon="17.973216891109">
        <ele>74.6</ele>
        <time>2018-03-04T16:35:55Z</time>
      </trkpt>
      <trkpt lat="62.634749554688" lon="17.973156709067">
        <ele>74.4</ele>
        <time>2018-03-04T16:35:56Z</time>
      </trkpt>
      <trkpt lat="62.634761540805" lon="17.973081607243">
        <ele>74.4</ele>
        <time>2018-03-04T16:35:57Z</time>
      </trkpt>
      <trkpt lat="62.634770593257" lon="17.972984293384">
        <ele>74.2</ele>
        <time>2018-03-04T16:35:58Z</time>
      </trkpt>
      <trkpt lat="62.634790290722" lon="17.972909359198">
        <ele>74.2</ele>
        <time>2018-03-04T16:35:59Z</time>
      </trkpt>
      <trkpt lat="62.634816693707" lon="17.972819086135">
        <ele>74</ele>
        <time>2018-03-04T16:36:00Z</time>
      </trkpt>
      <trkpt lat="62.634838989561" lon="17.972739793361">
        <ele>74</ele>
        <time>2018-03-04T16:36:01Z</time>
      </trkpt>
      <trkpt lat="62.634864805813" lon="17.972676007102">
        <ele>74</ele>
        <time>2018-03-04T16:36:02Z</time>
      </trkpt>
      <trkpt lat="62.634878049215" lon="17.972612975214">
        <ele>73.8</ele>
        <time>2018-03-04T16:36:03Z</time>
      </trkpt>
      <trkpt lat="62.634903027277" lon="17.97251440407">
        <ele>73.8</ele>
        <time>2018-03-04T16:36:04Z</time>
      </trkpt>
      <trkpt lat="62.634921551276" lon="17.972436200943">
        <ele>73.8</ele>
        <time>2018-03-04T16:36:05Z</time>
      </trkpt>
      <trkpt lat="62.6349379798" lon="17.9723526334">
        <ele>73.6</ele>
        <time>2018-03-04T16:36:06Z</time>
      </trkpt>
      <trkpt lat="62.634969747201" lon="17.972271245151">
        <ele>73.6</ele>
        <time>2018-03-04T16:36:07Z</time>
      </trkpt>
      <trkpt lat="62.634992294512" lon="17.972204944322">
        <ele>73.4</ele>
        <time>2018-03-04T16:36:08Z</time>
      </trkpt>
      <trkpt lat="62.635014171271" lon="17.972146354841">
        <ele>73.2</ele>
        <time>2018-03-04T16:36:09Z</time>
      </trkpt>
      <trkpt lat="62.635038478781" lon="17.972052226104">
        <ele>72.8</ele>
        <time>2018-03-04T16:36:10Z</time>
      </trkpt>
      <trkpt lat="62.635066474327" lon="17.971969496751">
        <ele>72.8</ele>
        <time>2018-03-04T16:36:11Z</time>
      </trkpt>
      <trkpt lat="62.635086674706" lon="17.971845025536">
        <ele>72.6</ele>
        <time>2018-03-04T16:36:12Z</time>
      </trkpt>
      <trkpt lat="62.635101678307" lon="17.971724577633">
        <ele>72</ele>
        <time>2018-03-04T16:36:13Z</time>
      </trkpt>
      <trkpt lat="62.635115256985" lon="17.971617037856">
        <ele>71.2</ele>
        <time>2018-03-04T16:36:14Z</time>
      </trkpt>
      <trkpt lat="62.635126740188" lon="17.971506480595">
        <ele>70.6</ele>
        <time>2018-03-04T16:36:15Z</time>
      </trkpt>
      <trkpt lat="62.635136798468" lon="17.971399276094">
        <ele>69.8</ele>
        <time>2018-03-04T16:36:16Z</time>
      </trkpt>
      <trkpt lat="62.635145096549" lon="17.971308919212">
        <ele>69.4</ele>
        <time>2018-03-04T16:36:17Z</time>
      </trkpt>
      <trkpt lat="62.635158842865" lon="17.97120682767">
        <ele>69.2</ele>
        <time>2018-03-04T16:36:18Z</time>
      </trkpt>
      <trkpt lat="62.635176612493" lon="17.971089061975">
        <ele>69.2</ele>
        <time>2018-03-04T16:36:19Z</time>
      </trkpt>
      <trkpt lat="62.635192873379" lon="17.970977079791">
        <ele>69</ele>
        <time>2018-03-04T16:36:20Z</time>
      </trkpt>
      <trkpt lat="62.635204691858" lon="17.970881190855">
        <ele>69</ele>
        <time>2018-03-04T16:36:21Z</time>
      </trkpt>
      <trkpt lat="62.635215169233" lon="17.970767113196">
        <ele>68.8</ele>
        <time>2018-03-04T16:36:22Z</time>
      </trkpt>
      <trkpt lat="62.635227239169" lon="17.970684551481">
        <ele>68.4</ele>
        <time>2018-03-04T16:36:23Z</time>
      </trkpt>
      <trkpt lat="62.635241991313" lon="17.97057064146">
        <ele>68.2</ele>
        <time>2018-03-04T16:36:24Z</time>
      </trkpt>
      <trkpt lat="62.635245846987" lon="17.970468298461">
        <ele>68</ele>
        <time>2018-03-04T16:36:25Z</time>
      </trkpt>
      <trkpt lat="62.635260012398" lon="17.970365201091">
        <ele>67.4</ele>
        <time>2018-03-04T16:36:26Z</time>
      </trkpt>
      <trkpt lat="62.635273926352" lon="17.970268306327">
        <ele>67.2</ele>
        <time>2018-03-04T16:36:27Z</time>
      </trkpt>
      <trkpt lat="62.635285577193" lon="17.970174931961">
        <ele>67</ele>
        <time>2018-03-04T16:36:28Z</time>
      </trkpt>
      <trkpt lat="62.635312818368" lon="17.970066218718">
        <ele>66.4</ele>
        <time>2018-03-04T16:36:29Z</time>
      </trkpt>
      <trkpt lat="62.635337544973" lon="17.969969910687">
        <ele>65.8</ele>
        <time>2018-03-04T16:36:30Z</time>
      </trkpt>
      <trkpt lat="62.635363277406" lon="17.969872261552">
        <ele>65.2</ele>
        <time>2018-03-04T16:36:31Z</time>
      </trkpt>
      <trkpt lat="62.63538641145" lon="17.969771175838">
        <ele>64.4</ele>
        <time>2018-03-04T16:36:32Z</time>
      </trkpt>
      <trkpt lat="62.635411054236" lon="17.969675203083">
        <ele>63.6</ele>
        <time>2018-03-04T16:36:33Z</time>
      </trkpt>
      <trkpt lat="62.635437121945" lon="17.969611165367">
        <ele>63.2</ele>
        <time>2018-03-04T16:36:34Z</time>
      </trkpt>
      <trkpt lat="62.635463022016" lon="17.969507145988">
        <ele>62.8</ele>
        <time>2018-03-04T16:36:35Z</time>
      </trkpt>
      <trkpt lat="62.63549202339" lon="17.969391224311">
        <ele>62.4</ele>
        <time>2018-03-04T16:36:36Z</time>
      </trkpt>
      <trkpt lat="62.635519096927" lon="17.969285025638">
        <ele>62</ele>
        <time>2018-03-04T16:36:37Z</time>
      </trkpt>
      <trkpt lat="62.635546338102" lon="17.96918678977">
        <ele>61.8</ele>
        <time>2018-03-04T16:36:38Z</time>
      </trkpt>
      <trkpt lat="62.63557751877" lon="17.969069107894">
        <ele>61.4</ele>
        <time>2018-03-04T16:36:39Z</time>
      </trkpt>
      <trkpt lat="62.635605430497" lon="17.968980427392">
        <ele>61</ele>
        <time>2018-03-04T16:36:40Z</time>
      </trkpt>
      <trkpt lat="62.63563954483" lon="17.968881940067">
        <ele>60.8</ele>
        <time>2018-03-04T16:36:41Z</time>
      </trkpt>
      <trkpt lat="62.635677011923" lon="17.968787978968">
        <ele>60.4</ele>
        <time>2018-03-04T16:36:42Z</time>
      </trkpt>
      <trkpt lat="62.63571162917" lon="17.968710111117">
        <ele>60</ele>
        <time>2018-03-04T16:36:43Z</time>
      </trkpt>
      <trkpt lat="62.63575186229" lon="17.968624196642">
        <ele>59.6</ele>
        <time>2018-03-04T16:36:44Z</time>
      </trkpt>
      <trkpt lat="62.63579377179" lon="17.968558231089">
        <ele>58.8</ele>
        <time>2018-03-04T16:36:45Z</time>
      </trkpt>
      <trkpt lat="62.635835178376" lon="17.968524871127">
        <ele>58.4</ele>
        <time>2018-03-04T16:36:46Z</time>
      </trkpt>
      <trkpt lat="62.635883709577" lon="17.968499893065">
        <ele>58</ele>
        <time>2018-03-04T16:36:47Z</time>
      </trkpt>
      <trkpt lat="62.635927966009" lon="17.968480363238">
        <ele>57.6</ele>
        <time>2018-03-04T16:36:48Z</time>
      </trkpt>
      <trkpt lat="62.635971635708" lon="17.968468377121">
        <ele>57.2</ele>
        <time>2018-03-04T16:36:49Z</time>
      </trkpt>
      <trkpt lat="62.636002984014" lon="17.968466030189">
        <ele>57</ele>
        <time>2018-03-04T16:36:50Z</time>
      </trkpt>
    </trkseg>
  </trk>
</gpx>